Welcome to mirrors.dotsrc.org

All our mirrors of open source software are available via http, https, ftp and an onion service. More information about our mirrors including statistics and contact information is available on our mirror info pages.

For information about dotsrc.org and our other services please go to our website.

Index of /mirrors/opensuse/slowroll/repo/oss/noarch/

File Name  ↓ File Size  ↓ Date  ↓ 
Parent directory/--
perl-Dancer2-Plugin-Auth-Extensible-Provider-DBIC-0.624-1.18.noarch.rpm22.5 KiB2024-07-03 10:02:11
perl-Dancer2-Plugin-Auth-Extensible-0.710-1.15.noarch.rpm73.3 KiB2024-07-03 09:59:22
perl-Task-Moose-0.03-11.2.noarch.rpm12.6 KiB2024-07-03 09:59:20
perl-Dancer2-Plugin-DBIC-0.0100-1.18.noarch.rpm24.5 KiB2024-07-03 09:59:12
perl-Dancer2-Plugin-WebSocket-0.3.1-1.15.noarch.rpm33.0 KiB2024-07-03 09:59:11
perl-Dancer2-Plugin-REST-1.02-1.18.noarch.rpm24.4 KiB2024-07-03 09:59:10
perl-Task-Kensho-OOP-0.41-1.15.noarch.rpm27.8 KiB2024-07-03 09:48:03
perl-MooseX-SimpleConfig-0.11-1.31.noarch.rpm22.4 KiB2024-07-03 09:46:45
perl-MooseX-ConfigFromFile-0.14-1.30.noarch.rpm24.3 KiB2024-07-03 09:44:09
perl-HTML-FormHandler-0.40068-1.28.noarch.rpm476.4 KiB2024-07-03 09:30:46
perl-Dancer2-1.1.0-1.4.noarch.rpm483.4 KiB2024-07-03 09:30:06
perl-DBIx-Class-Migration-0.075-1.19.noarch.rpm347.3 KiB2024-07-03 09:29:21
perl-MooseX-Daemonize-0.22-1.21.noarch.rpm48.5 KiB2024-07-03 09:29:19
perl-Passwd-Keyring-KDEWallet-1.0001-2.2.noarch.rpm17.3 KiB2024-07-03 09:29:09
perl-Devel-REPL-1.003029-1.9.noarch.rpm109.6 KiB2024-07-03 09:29:08
perl-MooseX-Types-Path-Tiny-0.012-1.28.noarch.rpm19.6 KiB2024-07-03 09:29:06
amavisd-new-2.13.0-3.4.noarch.rpm411.6 KiB2024-07-03 09:29:04
amavisd-new-docs-2.13.0-3.4.noarch.rpm428.8 KiB2024-07-03 09:29:04
perl-Task-Kensho-ModuleDev-0.41-1.15.noarch.rpm28.2 KiB2024-07-03 09:29:03
cpanspec-1.84.00.1688930749.8cd1dcd-2.2.noarch.rpm45.0 KiB2024-07-03 09:29:03
perl-MooseX-App-Cmd-0.34-1.16.noarch.rpm27.4 KiB2024-07-03 09:29:02
perl-Task-Kensho-CLI-0.41-1.15.noarch.rpm25.8 KiB2024-07-03 09:29:01
tftpboot-installation-openSUSE-Tumbleweed-x86_64-17.130-1.47.noarch.rpm572.6 MiB2024-07-03 09:26:30
tftpboot-installation-openSUSE-MicroOS-x86_64-17.130-1.47.noarch.rpm572.5 MiB2024-07-03 09:25:56
perl-Dist-Zilla-6.32.0-1.2.noarch.rpm391.7 KiB2024-07-03 09:20:40
perl-YAML-Tidy-0.10.0-1.3.noarch.rpm34.1 KiB2024-07-03 09:18:12
perl-MooseX-Getopt-0.760.0-2.2.noarch.rpm59.2 KiB2024-07-03 09:18:11
perl-Pod-Readme-1.2.3-1.22.noarch.rpm48.2 KiB2024-07-03 09:18:07
perl-MooX-Options-4.103-1.19.noarch.rpm54.4 KiB2024-07-03 09:18:04
perl-App-Nopaste-1.013-1.22.noarch.rpm65.0 KiB2024-07-03 09:18:03
perl-CLI-Osprey-0.08-1.15.noarch.rpm37.1 KiB2024-07-03 09:18:02
perl-Perl-PrereqScanner-1.100-1.6.noarch.rpm46.6 KiB2024-07-03 09:18:00
perl-CPAN-Uploader-0.103018-1.6.noarch.rpm29.2 KiB2024-07-03 09:18:00
perl-App-Cmd-0.336.0-2.2.noarch.rpm78.1 KiB2024-07-03 09:10:26
perl-Getopt-Long-Descriptive-0.114.0-1.1.noarch.rpm42.4 KiB2024-07-03 09:06:22
perl-doc-5.40.0-2.1.noarch.rpm8.1 MiB2024-07-03 08:11:49
perl-DBIx-Class-Fixtures-1.001039-1.26.noarch.rpm42.8 KiB2024-07-03 06:09:39
perl-DBIx-Class-InflateColumn-FS-0.01007-2.26.noarch.rpm16.6 KiB2024-07-03 05:09:33
perl-DBIx-Class-DynamicDefault-0.04-2.26.noarch.rpm11.5 KiB2024-07-03 05:09:32
perl-DBIx-Class-Schema-Loader-0.07052-1.2.noarch.rpm188.4 KiB2024-07-03 04:09:02
perl-Minion-Backend-SQLite-5.0.7-1.7.noarch.rpm34.4 KiB2024-07-03 04:08:54
perl-DBIx-Class-DeploymentHandler-0.002233-1.22.noarch.rpm120.5 KiB2024-07-03 04:08:49
perl-DBIx-Class-IntrospectableM2M-0.001002-2.26.noarch.rpm12.3 KiB2024-07-03 04:08:40
perl-DBIx-Class-OptimisticLocking-0.02-1.33.noarch.rpm21.5 KiB2024-07-03 04:08:40
perl-Test-Mojo-Pg-0.33-1.29.noarch.rpm19.1 KiB2024-07-03 04:08:38
perl-DBICx-Sugar-0.0200-1.18.noarch.rpm24.8 KiB2024-07-03 04:08:38
perl-DBICx-TestDatabase-0.05-2.26.noarch.rpm13.9 KiB2024-07-03 04:08:38
perl-DBIx-Class-UUIDColumns-0.02006-2.26.noarch.rpm28.3 KiB2024-07-03 04:08:38
perl-DBIx-Class-Schema-Config-0.001014-1.15.noarch.rpm20.4 KiB2024-07-03 04:08:37
perl-DBIx-Class-0.082843-1.9.noarch.rpm766.3 KiB2024-07-03 03:09:53
perl-MooseX-Declare-0.43-1.31.noarch.rpm83.2 KiB2024-07-03 03:08:39
perl-MouseX-SimpleConfig-0.11-3.31.noarch.rpm20.8 KiB2024-07-03 03:08:34
perl-Mojo-SQLite-3.009-1.12.noarch.rpm58.9 KiB2024-07-03 03:08:31
perl-Mojo-Pg-4.27-1.12.noarch.rpm55.4 KiB2024-07-03 03:08:30
perl-App-Dochazka-REST-0.559-2.2.noarch.rpm276.8 KiB2024-07-03 02:09:54
perl-MooseX-Method-Signatures-0.49-1.30.noarch.rpm39.8 KiB2024-07-03 02:09:41
perl-App-Dochazka-WWW-0.155-3.2.noarch.rpm56.4 KiB2024-07-03 02:09:32
perl-SQL-Abstract-Classic-1.91-1.20.noarch.rpm57.6 KiB2024-07-03 02:09:30
perl-MouseX-ConfigFromFile-0.05-4.26.noarch.rpm13.0 KiB2024-07-03 02:09:30
perl-Template-Plugin-Filter-ANSIColor-0.0.3-1.18.noarch.rpm13.1 KiB2024-07-03 02:09:29
perl-Config-MVP-Reader-INI-2.101465-1.7.noarch.rpm18.9 KiB2024-07-03 02:09:29
perl-SQL-Abstract-Pg-1.0-1.17.noarch.rpm17.7 KiB2024-07-03 02:09:29
perl-MooseX-App-1.430.0-2.2.noarch.rpm110.7 KiB2024-07-03 01:07:51
perl-Web-MREST-0.288-1.26.noarch.rpm100.7 KiB2024-07-03 01:07:48
perl-SQL-Abstract-2.000001-1.17.noarch.rpm133.0 KiB2024-07-03 01:07:46
perl-Test-Magpie-0.11-1.18.noarch.rpm49.8 KiB2024-07-03 01:07:44
perl-MouseX-Types-Path-Class-0.07-4.26.noarch.rpm12.2 KiB2024-07-03 01:07:43
perl-Parse-Method-Signatures-1.003019-1.28.noarch.rpm30.8 KiB2024-07-03 01:07:43
perl-App-MFILE-WWW-0.176-1.26.noarch.rpm190.7 KiB2024-07-03 01:07:43
perl-Config-MVP-2.200013-1.7.noarch.rpm59.8 KiB2024-07-03 01:07:42
ikiwiki-3.20200202.3-2.19.noarch.rpm864.7 KiB2024-07-03 00:14:05
ikiwiki-w3m-3.20200202.3-2.19.noarch.rpm27.1 KiB2024-07-03 00:14:05
perl-RDF-Trine-1.019-1.27.noarch.rpm273.6 KiB2024-07-03 00:13:59
perl-Net-Twitter-4.01043-1.26.noarch.rpm160.5 KiB2024-07-03 00:13:40
perl-Finance-Quote-1.62-1.2.noarch.rpm214.8 KiB2024-07-03 00:13:34
perl-Mason-2.24-1.28.noarch.rpm175.6 KiB2024-07-03 00:13:32
perl-LWP-ConsoleLogger-1.000001-1.5.noarch.rpm40.5 KiB2024-07-03 00:13:31
perl-MooseX-Types-Structured-0.36-1.28.noarch.rpm47.2 KiB2024-07-03 00:13:28
perl-Web-Machine-0.17-3.2.noarch.rpm70.5 KiB2024-07-03 00:13:28
perl-Gtk3-ImageView-10-1.14.noarch.rpm29.2 KiB2024-07-03 00:13:27
perl-Devel-Cover-Report-Codecov-0.25-1.22.noarch.rpm19.5 KiB2024-07-03 00:13:26
perl-Perl-Critic-Community-1.0.3-1.8.noarch.rpm135.3 KiB2024-07-03 00:13:25
perl-Hash-Merge-0.302-1.20.noarch.rpm20.8 KiB2024-07-03 00:13:24
perl-MooseX-Clone-0.06-1.32.noarch.rpm32.3 KiB2024-07-03 00:13:24
perl-Git-Repository-Plugin-Log-1.314-1.20.noarch.rpm27.2 KiB2024-07-03 00:13:23
perl-MooseX-Types-Path-Class-0.09-1.28.noarch.rpm21.3 KiB2024-07-03 00:13:22
perl-Pod-Elemental-0.103006-1.7.noarch.rpm79.6 KiB2024-07-03 00:13:22
perl-MooseX-Types-Common-0.001014-1.28.noarch.rpm27.1 KiB2024-07-03 00:13:22
perl-MouseX-Types-0.06-11.27.noarch.rpm15.5 KiB2024-07-03 00:13:22
perl-MooseX-Traits-0.13-1.30.noarch.rpm23.4 KiB2024-07-03 00:13:21
perl-MooseX-OneArgNew-0.007-1.7.noarch.rpm20.5 KiB2024-07-03 00:13:21
perl-App-Dochazka-CLI-0.238-1.37.noarch.rpm120.1 KiB2024-07-03 00:13:19
perl-MooseX-Types-Perl-0.101344-1.7.noarch.rpm20.0 KiB2024-07-03 00:13:17
perl-MooseX-Types-Stringlike-0.003-3.31.noarch.rpm18.6 KiB2024-07-03 00:13:16
perl-MooseX-Types-DateTime-0.13-1.30.noarch.rpm22.6 KiB2024-07-03 00:13:16
perl-MooseX-Types-LoadableClass-0.015-1.27.noarch.rpm21.4 KiB2024-07-03 00:13:14
perl-MooseX-Types-Set-Object-0.05-1.30.noarch.rpm19.8 KiB2024-07-03 00:13:14
perl-Role-HasMessage-0.007-1.7.noarch.rpm20.6 KiB2024-07-03 00:13:14
evolution-lang-3.52.3-1.1.noarch.rpm7.9 MiB2024-07-02 23:20:20
perl-Mail-SpamAssassin-Plugin-iXhash2-4.00-77.2.noarch.rpm21.6 KiB2024-07-02 23:15:41
perl-Mail-SpamAssassin-4.0.1-77.2.noarch.rpm1.1 MiB2024-07-02 23:15:41
perl-XML-Feed-0.63-1.15.noarch.rpm44.1 KiB2024-07-02 23:08:22
perl-MooseX-Storage-0.53-1.20.noarch.rpm82.6 KiB2024-07-02 23:08:19
perl-Starman-0.4017-1.4.noarch.rpm39.7 KiB2024-07-02 23:08:14
perl-MooseX-POE-0.215-9.32.noarch.rpm41.9 KiB2024-07-02 23:08:13
perl-Test-Kwalitee-1.28-1.15.noarch.rpm29.5 KiB2024-07-02 23:08:12
perl-MooseX-Workers-0.24-1.32.noarch.rpm255.9 KiB2024-07-02 23:08:12
perl-Plack-Test-Agent-1.5-1.17.noarch.rpm21.3 KiB2024-07-02 23:08:11
perl-MooseX-Types-0.50-1.28.noarch.rpm59.9 KiB2024-07-02 23:08:11
perl-MooseX-NonMoose-0.26-3.32.noarch.rpm33.7 KiB2024-07-02 23:08:10
perl-MooseX-SemiAffordanceAccessor-0.10-1.31.noarch.rpm18.5 KiB2024-07-02 23:08:10
perl-Role-Identifiable-0.009-1.7.noarch.rpm22.4 KiB2024-07-02 23:08:09
perl-MooseX-AttributeHelpers-0.25-1.30.noarch.rpm91.4 KiB2024-07-02 23:08:09
perl-XMLRPC-Lite-0.717-1.27.noarch.rpm28.4 KiB2024-07-02 23:08:09
perl-MooseX-Role-Parameterized-1.11-1.22.noarch.rpm50.6 KiB2024-07-02 23:08:09
perl-MooseX-LogDispatch-1.2002-10.26.noarch.rpm17.4 KiB2024-07-02 23:08:09
perl-Twiggy-0.1026-1.17.noarch.rpm30.8 KiB2024-07-02 23:08:09
perl-Mojolicious-Plugin-Status-1.17-1.16.noarch.rpm1.6 MiB2024-07-02 23:08:08
perl-MooseX-Object-Pluggable-0.0014-1.31.noarch.rpm25.5 KiB2024-07-02 23:08:08
perl-Web-MREST-CLI-0.284-1.9.noarch.rpm23.5 KiB2024-07-02 23:08:08
perl-MooseX-SetOnce-0.203-1.7.noarch.rpm19.5 KiB2024-07-02 23:08:08
perl-Net-XMPP-1.05-1.30.noarch.rpm111.4 KiB2024-07-02 23:08:08
perl-String-ToIdentifier-EN-0.12-1.26.noarch.rpm24.5 KiB2024-07-02 23:08:08
perl-Net-OpenStack-Compute-1.1200-1.29.noarch.rpm30.6 KiB2024-07-02 23:08:08
perl-Plack-Middleware-Session-0.33-1.24.noarch.rpm52.7 KiB2024-07-02 23:08:08
perl-MooseX-Role-TraitConstructor-0.01-9.31.noarch.rpm12.1 KiB2024-07-02 23:08:08
perl-MooseX-Params-Validate-0.21-1.32.noarch.rpm29.4 KiB2024-07-02 23:08:08
perl-Task-Kensho-Scalability-0.41-1.15.noarch.rpm25.6 KiB2024-07-02 23:08:07
perl-Plack-Middleware-ReverseProxy-0.16-1.13.noarch.rpm18.5 KiB2024-07-02 23:08:07
perl-Test-Exception-LessClever-0.009-1.29.noarch.rpm13.4 KiB2024-07-02 23:08:07
perl-Net-OBS-Client-0.1.3-1.2.noarch.rpm24.9 KiB2024-07-02 23:08:07
perl-Log-Dispatchouli-3.7.0-2.2.noarch.rpm49.8 KiB2024-07-02 23:08:07
perl-HTTP-Headers-ActionPack-0.09-1.29.noarch.rpm74.5 KiB2024-07-02 23:08:07
perl-Moose-Autobox-0.16-1.29.noarch.rpm54.0 KiB2024-07-02 23:08:07
perl-Plack-Middleware-FixMissingBodyInRedirect-0.12-1.19.noarch.rpm17.8 KiB2024-07-02 23:08:07
perl-MooseX-LazyLogDispatch-0.02-10.26.noarch.rpm14.8 KiB2024-07-02 23:08:07
perl-MooseX-Singleton-0.30-1.28.noarch.rpm31.5 KiB2024-07-02 23:08:07
perl-Reply-0.42-1.19.noarch.rpm74.5 KiB2024-07-02 23:08:07
perl-Plack-App-WebSocket-0.08-1.18.noarch.rpm18.3 KiB2024-07-02 23:08:07
perl-MooseX-StrictConstructor-0.21-1.28.noarch.rpm24.7 KiB2024-07-02 23:08:07
perl-Carton-1.0.35-1.11.noarch.rpm64.8 KiB2024-07-02 23:08:06
perl-Test-Perl-Critic-1.04-1.25.noarch.rpm28.4 KiB2024-07-02 23:08:06
perl-Net-Dropbox-API-1.9-2.27.noarch.rpm17.8 KiB2024-07-02 23:08:06
perl-MooseX-TransactionalMethods-0.009-2.26.noarch.rpm15.6 KiB2024-07-02 23:08:06
perl-Any-Moose-0.27-1.29.noarch.rpm23.6 KiB2024-07-02 23:08:06
perl-JSON-RPC-1.06-2.30.noarch.rpm64.8 KiB2024-07-02 23:08:06
perl-MooseX-ClassAttribute-0.29-1.28.noarch.rpm41.9 KiB2024-07-02 23:08:06
perl-MooseX-Role-Cmd-0.10-12.26.noarch.rpm18.7 KiB2024-07-02 23:08:06
perl-MooseX-Aliases-0.11-5.33.noarch.rpm26.2 KiB2024-07-02 23:08:06
perl-MooseX-LazyRequire-0.11-1.31.noarch.rpm21.5 KiB2024-07-02 23:08:05
perl-MooseX-Iterator-0.11-10.26.noarch.rpm13.1 KiB2024-07-02 23:08:05
perl-Perl-Critic-Policy-Variables-ProhibitLoopOnHash-0.008-1.23.noarch.rpm20.3 KiB2024-07-02 23:08:05
perl-Plack-Middleware-RemoveRedundantBody-0.09-1.19.noarch.rpm18.2 KiB2024-07-02 23:08:05
perl-Pod-Coverage-Moose-0.80.0-2.2.noarch.rpm22.6 KiB2024-07-02 23:08:05
perl-Class-Method-Modifiers-Fast-0.041-15.26.noarch.rpm13.0 KiB2024-07-02 23:08:05
perl-MooseX-Param-0.02-9.31.noarch.rpm12.4 KiB2024-07-02 23:08:05
perl-MooseX-Meta-TypeConstraint-ForceCoercion-0.01-9.32.noarch.rpm17.8 KiB2024-07-02 23:08:04
perl-Plack-Middleware-LogErrors-0.003-1.25.noarch.rpm21.7 KiB2024-07-02 23:08:04
perl-MooseX-HasDefaults-0.03-2.26.noarch.rpm11.7 KiB2024-07-02 23:08:04
perl-MooseX-MultiInitArg-0.02-5.32.noarch.rpm21.2 KiB2024-07-02 23:08:04
perl-MooseX-ArrayRef-0.005-1.32.noarch.rpm24.1 KiB2024-07-02 23:08:04
perl-Git-Repository-1.325-3.6.noarch.rpm65.0 KiB2024-07-02 23:08:04
perl-App-MFILE-0.182-1.26.noarch.rpm17.1 KiB2024-07-02 23:08:04
perl-MooseX-AuthorizedMethods-0.006-11.6.noarch.rpm17.8 KiB2024-07-02 23:08:04
perl-MooseX-MarkAsMethods-0.15-5.32.noarch.rpm16.9 KiB2024-07-02 23:08:03
perl-Clone-Choose-0.010-1.26.noarch.rpm14.1 KiB2024-07-02 23:08:03
perl-Mojolicious-Plugin-CHI-0.20-1.26.noarch.rpm21.7 KiB2024-07-02 23:08:03
perl-MooseX-Has-Options-0.003-5.32.noarch.rpm24.9 KiB2024-07-02 23:08:03
perl-MooseX-InsideOut-0.106-9.32.noarch.rpm19.6 KiB2024-07-02 23:08:03
perl-MooseX-GlobRef-0.0701-9.32.noarch.rpm29.7 KiB2024-07-02 23:08:03
perl-Growl-GNTP-0.21-1.29.noarch.rpm23.1 KiB2024-07-02 23:08:03
perl-Data-Visitor-0.32-1.6.noarch.rpm33.8 KiB2024-07-02 23:08:02
perl-MooseX-Attribute-ENV-0.02-2.26.noarch.rpm14.4 KiB2024-07-02 23:08:01
perl-Perl-Critic-1.152.0-2.2.noarch.rpm747.9 KiB2024-07-02 22:49:56
texlive-diadia-bin-2024.20240311.svn37645-98.4.noarch.rpm14.4 KiB2024-07-02 22:24:34
texlive-biber-bin-2024.20240311.svn66402-98.4.noarch.rpm34.5 KiB2024-07-02 22:24:31
texlive-biber-ms-bin-2024.20240311.svn66478-98.4.noarch.rpm33.6 KiB2024-07-02 22:24:31
perl-biber-2.19-98.4.noarch.rpm206.3 KiB2024-07-02 22:24:28
perl-LaTeXML-0.8.8-1.2.noarch.rpm1.2 MiB2024-07-02 22:10:24
LaTeXML-0.8.8-1.2.noarch.rpm57.1 KiB2024-07-02 22:10:23
perl-Sereal-5.004-1.6.noarch.rpm22.7 KiB2024-07-02 22:09:13
perl-DateTime-Format-Natural-1.180.0-2.2.noarch.rpm83.4 KiB2024-07-02 22:08:03
perl-Time-Out-0.240.0-2.2.noarch.rpm21.6 KiB2024-07-02 22:07:58
perl-Plack-1.0051-1.2.noarch.rpm265.8 KiB2024-07-02 22:07:56
perl-Spreadsheet-Read-0.900.0-2.2.noarch.rpm43.1 KiB2024-07-02 22:07:55
perl-Spreadsheet-Read-scripts-0.900.0-2.2.noarch.rpm24.9 KiB2024-07-02 22:07:55
perl-IO-Compress-Lzma-2.204-1.4.noarch.rpm69.2 KiB2024-07-02 22:07:54
perl-System-Command-1.122-1.6.noarch.rpm38.7 KiB2024-07-02 22:07:54
perl-Test-WWW-Mechanize-1.60-1.7.noarch.rpm38.6 KiB2024-07-02 22:07:52
perl-Log-Dispatch-Config-1.04-9.31.noarch.rpm24.0 KiB2024-07-02 22:07:51
perl-Web-Scraper-0.38-1.14.noarch.rpm31.1 KiB2024-07-02 22:07:49
perl-PPIx-Regexp-0.088-1.6.noarch.rpm258.9 KiB2024-07-02 22:07:49
perl-SOAP-Lite-1.27-4.2.noarch.rpm295.6 KiB2024-07-02 22:07:48
perl-XML-RSS-1.630.0-2.2.noarch.rpm81.0 KiB2024-07-02 22:07:48
perl-Mojo-RabbitMQ-Client-0.3.1-1.22.noarch.rpm59.1 KiB2024-07-02 22:07:45
perl-HTML-TableExtract-2.15-2.2.noarch.rpm46.7 KiB2024-07-02 22:07:44
perl-Test-WWW-Selenium-1.36-3.34.noarch.rpm71.7 KiB2024-07-02 22:07:44
perl-Redis-2.000-1.6.noarch.rpm55.7 KiB2024-07-02 22:07:44
perl-Module-CPANTS-Analyse-1.20.0-2.2.noarch.rpm72.2 KiB2024-07-02 22:07:44
perl-HTTP-Server-Simple-PSGI-0.16-1.17.noarch.rpm21.2 KiB2024-07-02 22:07:44
perl-Parse-CPAN-Packages-2.40-1.31.noarch.rpm23.1 KiB2024-07-02 22:07:44
perl-Test-WriteVariants-0.014-1.26.noarch.rpm33.3 KiB2024-07-02 22:07:43
perl-XML-XSLT-0.48-198.19.noarch.rpm149.0 KiB2024-07-02 22:07:43
perl-Mail-Transport-3.005-1.18.noarch.rpm53.4 KiB2024-07-02 22:07:43
perl-Code-TidyAll-0.840.0-2.2.noarch.rpm149.2 KiB2024-07-02 22:07:43
perl-Method-Signatures-Simple-1.07-1.30.noarch.rpm22.1 KiB2024-07-02 22:07:43
perl-YAML-PP-LibYAML-0.005-1.19.noarch.rpm22.6 KiB2024-07-02 22:07:42
perl-HTTP-DAV-0.49-1.26.noarch.rpm108.0 KiB2024-07-02 22:07:42
perl-XML-Stream-1.24-1.31.noarch.rpm76.9 KiB2024-07-02 22:07:42
perl-Log-Dispatch-FileRotate-1.38-1.15.noarch.rpm41.6 KiB2024-07-02 22:07:42
perl-Task-Kensho-XML-0.41-1.15.noarch.rpm25.1 KiB2024-07-02 22:07:42
perl-Test-MockDateTime-0.02-1.19.noarch.rpm19.1 KiB2024-07-02 22:07:42
perl-Text-SpellChecker-0.14-2.27.noarch.rpm15.5 KiB2024-07-02 22:07:42
perl-Net-OpenID-Consumer-1.18-2.3.noarch.rpm69.4 KiB2024-07-02 22:07:42
perl-Test-HTTP-MockServer-0.0.1-2.16.noarch.rpm19.4 KiB2024-07-02 22:07:41
perl-Lingua-EN-Inflect-Phrase-0.20-1.26.noarch.rpm23.3 KiB2024-07-02 22:07:41
perl-Module-Info-0.37-1.30.noarch.rpm36.2 KiB2024-07-02 22:07:41
perl-Syntax-Keyword-Junction-0.003008-1.31.noarch.rpm30.1 KiB2024-07-02 22:07:41
perl-Test-Mock-Guard-0.10-1.22.noarch.rpm19.8 KiB2024-07-02 22:07:41
perl-PPIx-Utils-0.003-1.6.noarch.rpm39.7 KiB2024-07-02 22:07:41
perl-PPIx-QuoteLike-0.023-1.7.noarch.rpm72.0 KiB2024-07-02 22:07:41
perl-Mac-PropertyList-1.504-1.8.noarch.rpm41.0 KiB2024-07-02 22:07:41
perl-WWW-Pastebin-PastebinCom-Create-1.003-1.32.noarch.rpm22.6 KiB2024-07-02 22:07:41
perl-HTML-FormatText-WithLinks-0.15-1.26.noarch.rpm17.3 KiB2024-07-02 22:07:41
perl-Mock-Quick-1.111-1.29.noarch.rpm32.7 KiB2024-07-02 22:07:41
perl-Task-Kensho-Testing-0.41-1.15.noarch.rpm27.7 KiB2024-07-02 22:07:41
perl-Module-Starter-1.77-1.19.noarch.rpm60.6 KiB2024-07-02 22:07:41
perl-Menlo-Legacy-1.9022-1.17.noarch.rpm38.7 KiB2024-07-02 22:07:40
perl-Feed-Find-0.13-1.7.noarch.rpm14.5 KiB2024-07-02 22:07:40
perl-Log-Dispatch-Array-1.005-1.7.noarch.rpm18.6 KiB2024-07-02 22:07:40
perl-GraphViz-2.26-1.6.noarch.rpm109.2 KiB2024-07-02 22:07:40
perl-PPIx-Utilities-1.001000-14.22.noarch.rpm31.9 KiB2024-07-02 22:07:40
perl-Module-Signature-0.88-1.12.noarch.rpm83.5 KiB2024-07-02 22:07:40
perl-File-ShareDir-ProjectDistDir-1.000009-1.29.noarch.rpm34.6 KiB2024-07-02 22:07:40
perl-WWW-PAUSE-CleanUpHomeDir-1.001002-1.31.noarch.rpm25.9 KiB2024-07-02 22:07:40
perl-Date-Holidays-CZ-0.20-2.19.noarch.rpm22.1 KiB2024-07-02 22:07:39
perl-App-perlbrew-0.980.0-2.2.noarch.rpm71.5 KiB2024-07-02 22:07:38
perl-Crypt-CBC-3.04-1.15.noarch.rpm45.3 KiB2024-07-02 22:07:37
perl-App-CELL-0.231-1.9.noarch.rpm88.2 KiB2024-07-02 22:07:34
perl-CHI-0.61-1.13.noarch.rpm126.2 KiB2024-07-02 22:07:34
perl-App-CLI-0.52-1.18.noarch.rpm31.6 KiB2024-07-02 22:07:34
perl-Archive-Tar-Wrapper-0.400.0-1.2.noarch.rpm45.1 KiB2024-07-02 22:07:32
perl-Config-MySQL-0.02-2.26.noarch.rpm17.5 KiB2024-07-02 22:07:31
perl-AnyEvent-WebSocket-Server-0.10-1.17.noarch.rpm17.3 KiB2024-07-02 22:07:31
perl-Config-INI-Reader-Ordered-0.022-1.7.noarch.rpm18.4 KiB2024-07-02 22:07:31
perl-Config-Identity-0.0019-1.17.noarch.rpm23.9 KiB2024-07-02 22:07:31
perl-App-Dochazka-Common-0.210-1.7.noarch.rpm28.8 KiB2024-07-02 22:07:30
libguestfs-man-pages-uk-1.52.1-1.2.noarch.rpm660.3 KiB2024-07-02 21:17:41
libguestfs-inspect-icons-1.52.1-1.2.noarch.rpm24.3 KiB2024-07-02 21:17:40
libguestfs-bash-completion-1.52.1-1.2.noarch.rpm27.3 KiB2024-07-02 21:17:40
libguestfs-man-pages-ja-1.52.1-1.2.noarch.rpm546.2 KiB2024-07-02 21:17:40
boinc-manager-lang-8.0.2-2.1.noarch.rpm399.1 KiB2024-07-02 21:16:38
boinc-client-lang-8.0.2-2.1.noarch.rpm47.6 KiB2024-07-02 21:16:38
pcp-zeroconf-6.2.1-1.2.noarch.rpm54.7 KiB2024-07-02 21:16:31
pcp-pmda-zswap-6.2.1-1.2.noarch.rpm52.7 KiB2024-07-02 21:16:30
pcp-pmda-unbound-6.2.1-1.2.noarch.rpm55.6 KiB2024-07-02 21:16:29
pcp-pmda-slurm-6.2.1-1.2.noarch.rpm53.9 KiB2024-07-02 21:16:29
pcp-pmda-snmp-6.2.1-1.2.noarch.rpm55.4 KiB2024-07-02 21:16:29
pcp-pmda-rsyslog-6.2.1-1.2.noarch.rpm56.9 KiB2024-07-02 21:16:28
pcp-pmda-samba-6.2.1-1.2.noarch.rpm52.9 KiB2024-07-02 21:16:28
pcp-pmda-postfix-6.2.1-1.2.noarch.rpm53.0 KiB2024-07-02 21:16:28
pcp-pmda-pdns-6.2.1-1.2.noarch.rpm53.4 KiB2024-07-02 21:16:28
pcp-pmda-rabbitmq-6.2.1-1.2.noarch.rpm55.4 KiB2024-07-02 21:16:28
pcp-pmda-redis-6.2.1-1.2.noarch.rpm59.2 KiB2024-07-02 21:16:28
pcp-pmda-openmetrics-6.2.1-1.2.noarch.rpm70.1 KiB2024-07-02 21:16:27
pcp-pmda-openvswitch-6.2.1-1.2.noarch.rpm57.9 KiB2024-07-02 21:16:27
pcp-pmda-nginx-6.2.1-1.2.noarch.rpm52.1 KiB2024-07-02 21:16:27
pcp-pmda-netfilter-6.2.1-1.2.noarch.rpm51.5 KiB2024-07-02 21:16:27
pcp-pmda-named-6.2.1-1.2.noarch.rpm52.9 KiB2024-07-02 21:16:27
pcp-pmda-oracle-6.2.1-1.2.noarch.rpm76.3 KiB2024-07-02 21:16:27
pcp-pmda-news-6.2.1-1.2.noarch.rpm53.9 KiB2024-07-02 21:16:27
pcp-pmda-nfsclient-6.2.1-1.2.noarch.rpm60.6 KiB2024-07-02 21:16:27
pcp-pmda-mysql-6.2.1-1.2.noarch.rpm59.1 KiB2024-07-02 21:16:27
pcp-pmda-mic-6.2.1-1.2.noarch.rpm54.5 KiB2024-07-02 21:16:27
pcp-pmda-netcheck-6.2.1-1.2.noarch.rpm64.5 KiB2024-07-02 21:16:27
pcp-pmda-nutcracker-6.2.1-1.2.noarch.rpm57.6 KiB2024-07-02 21:16:27
pcp-pmda-json-6.2.1-1.2.noarch.rpm65.3 KiB2024-07-02 21:16:26
pcp-pmda-haproxy-6.2.1-1.2.noarch.rpm56.9 KiB2024-07-02 21:16:26
pcp-pmda-memcache-6.2.1-1.2.noarch.rpm52.7 KiB2024-07-02 21:16:26
pcp-pmda-lmsensors-6.2.1-1.2.noarch.rpm55.4 KiB2024-07-02 21:16:26
pcp-pmda-lio-6.2.1-1.2.noarch.rpm55.3 KiB2024-07-02 21:16:26
pcp-pmda-lustre-6.2.1-1.2.noarch.rpm54.4 KiB2024-07-02 21:16:26
pcp-pmda-elasticsearch-6.2.1-1.2.noarch.rpm59.6 KiB2024-07-02 21:16:25
pcp-pmda-ds389-6.2.1-1.2.noarch.rpm55.2 KiB2024-07-02 21:16:25
pcp-pmda-gpfs-6.2.1-1.2.noarch.rpm52.5 KiB2024-07-02 21:16:25
pcp-pmda-ds389log-6.2.1-1.2.noarch.rpm52.9 KiB2024-07-02 21:16:25
pcp-pmda-gpsd-6.2.1-1.2.noarch.rpm52.7 KiB2024-07-02 21:16:25
pcp-pmda-dbping-6.2.1-1.2.noarch.rpm53.0 KiB2024-07-02 21:16:25
pcp-pmda-gluster-6.2.1-1.2.noarch.rpm54.1 KiB2024-07-02 21:16:25
pcp-pmda-bonding-6.2.1-1.2.noarch.rpm52.0 KiB2024-07-02 21:16:24
pcp-import-sar2pcp-6.2.1-1.2.noarch.rpm55.7 KiB2024-07-02 21:16:24
pcp-import-mrtg2pcp-6.2.1-1.2.noarch.rpm50.5 KiB2024-07-02 21:16:24
pcp-import-ganglia2pcp-6.2.1-1.2.noarch.rpm55.0 KiB2024-07-02 21:16:24
pcp-pmda-activemq-6.2.1-1.2.noarch.rpm58.1 KiB2024-07-02 21:16:24
pcp-import-iostat2pcp-6.2.1-1.2.noarch.rpm56.7 KiB2024-07-02 21:16:24
pcp-doc-6.2.1-1.2.noarch.rpm3.2 MiB2024-07-02 21:16:23
pcp-export-pcp2influxdb-6.2.1-1.2.noarch.rpm55.8 KiB2024-07-02 21:16:23
pcp-export-pcp2spark-6.2.1-1.2.noarch.rpm55.2 KiB2024-07-02 21:16:23
pcp-export-pcp2graphite-6.2.1-1.2.noarch.rpm54.7 KiB2024-07-02 21:16:23
pcp-export-pcp2json-6.2.1-1.2.noarch.rpm55.8 KiB2024-07-02 21:16:23
pcp-export-pcp2zabbix-6.2.1-1.2.noarch.rpm56.3 KiB2024-07-02 21:16:23
pcp-export-pcp2xml-6.2.1-1.2.noarch.rpm55.7 KiB2024-07-02 21:16:23
pcp-export-pcp2elasticsearch-6.2.1-1.2.noarch.rpm55.6 KiB2024-07-02 21:16:23
pcp-conf-6.2.1-1.2.noarch.rpm66.8 KiB2024-07-02 21:16:22
gnumeric-doc-1.12.57-1.4.noarch.rpm7.3 MiB2024-07-02 21:15:31
gnumeric-lang-1.12.57-1.4.noarch.rpm3.0 MiB2024-07-02 21:15:31
ImageMagick-doc-7.1.1.34-1.2.noarch.rpm5.9 MiB2024-07-02 21:10:11
pgbadger-12.4-1.2.noarch.rpm396.8 KiB2024-07-02 21:09:26
grub2-branding-openSUSE-84.87.20240405-1.4.noarch.rpm31.6 KiB2024-07-02 21:09:16
plymouth-branding-openSUSE-84.87.20240405-1.4.noarch.rpm8.9 KiB2024-07-02 21:09:16
wallpaper-branding-openSUSE-84.87.20240405-1.4.noarch.rpm5.6 MiB2024-07-02 21:09:16
icewm-theme-yast-installation-84.87.20240405-1.4.noarch.rpm37.7 KiB2024-07-02 21:09:16
libreoffice-branding-openSUSE-84.87.20240405-1.4.noarch.rpm51.8 KiB2024-07-02 21:09:16
yast2-qt-branding-openSUSE-84.87.20240405-1.4.noarch.rpm25.5 KiB2024-07-02 21:09:16
branding-openSUSE-84.87.20240405-1.4.noarch.rpm9.8 KiB2024-07-02 21:09:15
gfxboot-branding-openSUSE-84.87.20240405-1.4.noarch.rpm2.7 MiB2024-07-02 21:09:15
perl-WWW-Mechanize-2.180.0-2.2.noarch.rpm132.2 KiB2024-07-02 21:08:31
perl-Spreadsheet-ParseXLSX-0.350.0-1.2.noarch.rpm37.7 KiB2024-07-02 21:07:52
perl-SQL-Translator-1.650.0-2.2.noarch.rpm390.3 KiB2024-07-02 21:07:45
perl-PPI-1.278.0-1.2.noarch.rpm323.1 KiB2024-07-02 21:07:25
perl-Search-Elasticsearch-8.120.0-2.2.noarch.rpm271.1 KiB2024-07-02 21:07:12
perl-CGI-Session-4.48-15.30.noarch.rpm109.8 KiB2024-07-02 21:07:09
PackageKit-lang-1.2.8-3.6.noarch.rpm255.4 KiB2024-07-02 21:07:06
perl-Spreadsheet-ReadSXC-0.380.0-2.2.noarch.rpm46.5 KiB2024-07-02 21:07:06
perl-Test-Spec-0.54-1.25.noarch.rpm49.2 KiB2024-07-02 21:07:05
perl-Daemon-Generic-0.85-1.26.noarch.rpm30.6 KiB2024-07-02 21:07:05
PackageKit-branding-upstream-1.2.8-3.6.noarch.rpm19.7 KiB2024-07-02 21:07:05
perl-IPC-Run-20231003.0.0-2.2.noarch.rpm134.4 KiB2024-07-02 21:07:03
perl-Perl-PrereqScanner-NotQuiteLite-0.9917-1.6.noarch.rpm104.7 KiB2024-07-02 21:07:00
perl-Protocol-HTTP2-1.10-2.6.noarch.rpm58.3 KiB2024-07-02 21:07:00
perl-URI-db-0.220.0-1.2.noarch.rpm34.7 KiB2024-07-02 21:07:00
perl-String-Errf-0.009-1.7.noarch.rpm24.7 KiB2024-07-02 21:07:00
perl-Net-OpenID-Common-1.20-1.29.noarch.rpm45.7 KiB2024-07-02 21:06:58
perl-XML-SemanticDiff-1.0007-1.25.noarch.rpm40.8 KiB2024-07-02 21:06:58
perl-XML-LibXML-PrettyPrint-0.006-1.22.noarch.rpm32.6 KiB2024-07-02 21:06:58
perl-URI-Fetch-0.15-1.15.noarch.rpm30.1 KiB2024-07-02 21:06:57
perl-Task-Kensho-Async-0.41-1.15.noarch.rpm27.3 KiB2024-07-02 21:06:57
perl-HTTP-Server-Simple-0.52-1.28.noarch.rpm31.9 KiB2024-07-02 21:06:57
w3mir-1.0.10-683.3.noarch.rpm91.6 KiB2024-07-02 21:06:56
perl-GnuPG-Interface-1.40.0-2.2.noarch.rpm65.2 KiB2024-07-02 21:06:56
perl-WWW-Shorten-3.094-1.17.noarch.rpm46.6 KiB2024-07-02 21:06:55
perl-syntax-0.004-5.32.noarch.rpm18.9 KiB2024-07-02 21:06:55
perl-Test-MockTime-HiRes-0.08-1.6.noarch.rpm17.7 KiB2024-07-02 21:06:55
perl-Test-YAML-Valid-0.04-10.27.noarch.rpm13.0 KiB2024-07-02 21:06:55
perl-Net-AMQP-0.06-1.30.noarch.rpm144.6 KiB2024-07-02 21:06:55
perl-TheSchwartz-1.17-1.12.noarch.rpm53.2 KiB2024-07-02 21:06:55
perl-Test-Mock-LWP-0.08-4.26.noarch.rpm17.5 KiB2024-07-02 21:06:55
perl-XML-Atom-0.43-1.15.noarch.rpm53.1 KiB2024-07-02 21:06:54
perl-XML-SimpleObject-LibXML-0.60-126.31.noarch.rpm19.4 KiB2024-07-02 21:06:54
perl-Mail-Message-3.15.0-2.2.noarch.rpm447.1 KiB2024-07-02 21:06:54
perl-Log-Dispatch-2.71-1.6.noarch.rpm84.9 KiB2024-07-02 21:06:54
perl-Net-OAuth-0.28-5.33.noarch.rpm58.6 KiB2024-07-02 21:06:53
perl-Task-Kensho-Exceptions-0.41-1.15.noarch.rpm25.9 KiB2024-07-02 21:06:53
perl-Path-Router-0.15-1.29.noarch.rpm39.0 KiB2024-07-02 21:06:53
perl-Test-Mock-Time-0.2.1-1.2.noarch.rpm18.4 KiB2024-07-02 21:06:53
perl-Specio-Library-Path-Tiny-0.05-1.9.noarch.rpm21.3 KiB2024-07-02 21:06:53
perl-URI-Query-0.16-1.17.noarch.rpm23.8 KiB2024-07-02 21:06:53
perl-Software-License-0.104006-1.2.noarch.rpm136.8 KiB2024-07-02 21:06:53
perl-HTML-FromANSI-Tiny-0.107.0-2.2.noarch.rpm26.4 KiB2024-07-02 21:06:52
perl-Task-Kensho-Dates-0.41-1.15.noarch.rpm26.9 KiB2024-07-02 21:06:52
perl-Test-CleanNamespaces-0.24-1.26.noarch.rpm23.3 KiB2024-07-02 21:06:52
perl-Tie-RefHash-Weak-0.09-1.31.noarch.rpm13.7 KiB2024-07-02 21:06:52
perl-Path-FindDev-0.5.3-1.28.noarch.rpm27.2 KiB2024-07-02 21:06:52
perl-HTTP-Entity-Parser-0.25-1.18.noarch.rpm29.9 KiB2024-07-02 21:06:51
perl-Test-LWP-UserAgent-0.036-1.12.noarch.rpm41.0 KiB2024-07-02 21:06:51
perl-Net-SSLGlue-1.058-1.28.noarch.rpm39.8 KiB2024-07-02 21:06:51
perl-Object-Pluggable-1.29-1.27.noarch.rpm36.6 KiB2024-07-02 21:06:50
perl-Text-RecordParser-1.6.5-3.12.noarch.rpm45.2 KiB2024-07-02 21:06:50
perl-Test-Class-Most-0.08-1.29.noarch.rpm16.1 KiB2024-07-02 21:06:50
perl-HTML-Scrubber-0.19-1.22.noarch.rpm33.3 KiB2024-07-02 21:06:49
perl-Sysadm-Install-0.48-1.29.noarch.rpm37.6 KiB2024-07-02 21:06:49
perl-TAP-Harness-JUnit-0.42-1.22.noarch.rpm18.0 KiB2024-07-02 21:06:49
perl-Exporter-Declare-0.114-1.31.noarch.rpm39.6 KiB2024-07-02 21:06:47
hexchat-lang-2.16.2-1.3.noarch.rpm772.3 KiB2024-07-02 21:06:47
munin-node-2.0.72-8.2.noarch.rpm375.4 KiB2024-07-02 21:06:47
perl-HTML-Format-2.12-1.26.noarch.rpm51.4 KiB2024-07-02 21:06:47
munin-2.0.72-8.2.noarch.rpm645.3 KiB2024-07-02 21:06:47
perl-Mojolicious-Plugin-NYTProf-0.23-1.20.noarch.rpm18.6 KiB2024-07-02 21:06:47
perl-Test-CheckManifest-1.43-1.6.noarch.rpm24.1 KiB2024-07-02 21:06:47
perl-Net-SMTP-SSL-1.04-1.28.noarch.rpm11.6 KiB2024-07-02 21:06:47
perl-File-Share-0.27-1.7.noarch.rpm20.0 KiB2024-07-02 21:06:47
perl-IO-Socket-Timeout-0.32-1.30.noarch.rpm22.5 KiB2024-07-02 21:06:46
perl-Package-DeprecationManager-0.18-1.6.noarch.rpm26.7 KiB2024-07-02 21:06:46
perl-Sub-Exporter-ForMethods-0.100055-1.7.noarch.rpm21.1 KiB2024-07-02 21:06:46
perl-Module-Build-WithXSpp-0.14-3.31.noarch.rpm22.6 KiB2024-07-02 21:06:45
perl-Declare-Constraints-Simple-0.03-16.26.noarch.rpm51.0 KiB2024-07-02 21:06:45
perl-HTTP-Body-1.230.0-1.2.noarch.rpm34.1 KiB2024-07-02 21:06:45
perl-DateTime-Format-ISO8601-0.16-1.17.noarch.rpm34.9 KiB2024-07-02 21:06:45
perl-Mail-SPF-Test-1.001-8.31.noarch.rpm24.2 KiB2024-07-02 21:06:45
perl-HTML-TreeBuilder-XPath-0.14-1.14.noarch.rpm18.6 KiB2024-07-02 21:06:45
perl-File-MimeInfo-0.350.0-1.2.noarch.rpm52.7 KiB2024-07-02 21:06:45
perl-Monitoring-Plugin-0.40-1.22.noarch.rpm57.4 KiB2024-07-02 21:06:44
perl-Gtk3-SimpleList-0.21-3.4.noarch.rpm31.3 KiB2024-07-02 21:06:44
perl-Chart-2.403.9-1.7.noarch.rpm127.1 KiB2024-07-02 21:06:44
perl-DateTime-Format-Flexible-0.34-1.15.noarch.rpm52.3 KiB2024-07-02 21:06:44
perl-RPC-XML-0.82-1.13.noarch.rpm204.0 KiB2024-07-02 21:06:44
perl-HTML-Restrict-3.0.2-1.6.noarch.rpm33.3 KiB2024-07-02 21:06:43
perl-Mojolicious-Plugin-OAuth2-2.02-1.12.noarch.rpm28.2 KiB2024-07-02 21:06:43
perl-HTML-Element-Extended-1.18-14.31.noarch.rpm37.3 KiB2024-07-02 21:06:43
perl-IRI-0.011-1.20.noarch.rpm17.7 KiB2024-07-02 21:06:43
perl-Hash-Merge-Simple-0.051-9.31.noarch.rpm13.3 KiB2024-07-02 21:06:43
perl-HTML-RewriteAttributes-0.05-8.26.noarch.rpm18.5 KiB2024-07-02 21:06:43
perl-Menlo-1.9019-2.2.noarch.rpm45.9 KiB2024-07-02 21:06:42
perl-Devel-PartialDump-0.20-1.27.noarch.rpm27.3 KiB2024-07-02 21:06:42
perl-HTTP-Parser-0.06-1.17.noarch.rpm15.7 KiB2024-07-02 21:06:41
perl-HTML-FillInForm-2.22-1.13.noarch.rpm31.6 KiB2024-07-02 21:06:41
perl-Class-Container-0.13-1.26.noarch.rpm32.7 KiB2024-07-02 21:06:41
perl-HTTP-CookieMonster-0.11-1.17.noarch.rpm25.5 KiB2024-07-02 21:06:41
perl-GooCanvas2-0.06-1.21.noarch.rpm14.2 KiB2024-07-02 21:06:40
perl-Feature-Compat-Try-0.05-1.9.noarch.rpm22.9 KiB2024-07-02 21:06:40
perl-DateTime-Format-SQLite-0.11-3.32.noarch.rpm20.0 KiB2024-07-02 21:06:39
perl-HTML-TokeParser-Simple-3.16-5.32.noarch.rpm39.1 KiB2024-07-02 21:06:39
perl-HTTP-Thin-0.006-3.31.noarch.rpm19.3 KiB2024-07-02 21:06:39
perl-Devel-Cover-Report-Codecovbash-0.04-1.15.noarch.rpm16.4 KiB2024-07-02 21:06:39
perl-DateTime-Format-Pg-0.16014-1.17.noarch.rpm37.3 KiB2024-07-02 21:06:38
perl-DateTime-Format-Mail-0.403-1.24.noarch.rpm28.0 KiB2024-07-02 21:06:38
perl-CGI-Application-4.61-1.26.noarch.rpm86.1 KiB2024-07-02 21:06:38
perl-LWP-Online-1.08-12.27.noarch.rpm25.4 KiB2024-07-02 21:06:36
perl-HTTP-Request-AsCGI-1.2-13.32.noarch.rpm22.1 KiB2024-07-02 21:06:36
perl-DateTime-Format-MySQL-0.0800-1.4.noarch.rpm20.3 KiB2024-07-02 21:06:36
perl-DateTime-Format-W3CDTF-0.08-1.18.noarch.rpm22.4 KiB2024-07-02 21:06:35
perl-File-Mork-0.4-2.28.noarch.rpm22.1 KiB2024-07-02 21:06:34
perl-Data-Tumbler-0.010-1.26.noarch.rpm26.0 KiB2024-07-02 21:06:34
perl-Mail-DKIM-1.20240619-1.2.noarch.rpm178.7 KiB2024-07-02 21:06:33
grepmail-5.3104-3.2.noarch.rpm52.7 KiB2024-07-02 21:06:33
perl-Crypt-PBKDF2-0.161520-1.15.noarch.rpm33.0 KiB2024-07-02 21:06:32
mpDris2-0.9.1-3.3.noarch.rpm34.2 KiB2024-07-02 21:06:31
mpDris2-lang-0.9.1-3.3.noarch.rpm9.4 KiB2024-07-02 21:06:31
perl-CGI-FormBuilder-3.10-1.29.noarch.rpm182.6 KiB2024-07-02 21:06:31
perl-Config-Auto-0.44-3.31.noarch.rpm24.0 KiB2024-07-02 21:06:31
perl-Convert-BinHex-1.125-1.32.noarch.rpm82.6 KiB2024-07-02 21:06:30
perl-Config-INI-0.029-1.6.noarch.rpm35.8 KiB2024-07-02 21:06:30
perl-DateTime-HiRes-0.04-1.6.noarch.rpm20.5 KiB2024-07-02 21:06:30
perl-Authen-Passphrase-0.008-1.29.noarch.rpm93.3 KiB2024-07-02 21:06:29
perl-Class-XPath-1.4-161.31.noarch.rpm19.4 KiB2024-07-02 21:06:28
perl-Authen-SASL-2.170.0-2.2.noarch.rpm57.6 KiB2024-07-02 21:06:28
perl-DateTime-Format-DateParse-0.05-22.33.noarch.rpm20.7 KiB2024-07-02 21:06:28
clusterssh-4.16-2.4.noarch.rpm132.2 KiB2024-07-02 21:06:27
perl-CPAN-Mini-1.111017-1.4.noarch.rpm40.3 KiB2024-07-02 21:06:26
perl-AnyEvent-WebSocket-Client-0.55-1.6.noarch.rpm40.9 KiB2024-07-02 21:06:26
perl-Devel-OverloadInfo-0.007-1.15.noarch.rpm20.2 KiB2024-07-02 21:06:25
perl-Class-Load-0.25-1.25.noarch.rpm28.8 KiB2024-07-02 21:06:25
perl-CGI-Ajax-0.707-15.32.noarch.rpm43.6 KiB2024-07-02 21:06:25
perl-Apache-LogFormat-Compiler-0.36-1.22.noarch.rpm23.6 KiB2024-07-02 21:06:24
perl-XML-DOM-1.46-1.9.noarch.rpm157.0 KiB2024-07-02 21:06:24
perl-GDGraph-1.560.0-1.2.noarch.rpm162.1 KiB2024-07-02 21:06:24
dh-autoreconf-19-3.15.noarch.rpm25.0 KiB2024-07-02 21:06:24
perl-App-cpanminus-1.7047-1.5.noarch.rpm86.7 KiB2024-07-02 21:06:20
perl-LWP-Protocol-https-6.140.0-1.2.noarch.rpm26.3 KiB2024-07-02 21:05:24
perl-List-AllUtils-0.19-1.15.noarch.rpm51.5 KiB2024-07-02 21:05:23
perl-XML-LibXML-Simple-1.01-1.20.noarch.rpm33.9 KiB2024-07-02 21:05:22
perl-DateTime-Format-Builder-0.83-1.20.noarch.rpm71.2 KiB2024-07-02 21:04:35
perl-DateTime-Calendar-Julian-0.107-1.12.noarch.rpm24.9 KiB2024-07-02 21:04:31
perl-XML-Twig-3.52-3.2.noarch.rpm210.0 KiB2024-07-02 21:02:41
perl-HTML-Form-6.11-1.6.noarch.rpm47.8 KiB2024-07-02 21:02:23
perl-IO-Socket-SSL-2.85.0-1.2.noarch.rpm226.1 KiB2024-07-02 21:02:15
perl-XML-Handler-YAWriter-0.23-5.33.noarch.rpm36.3 KiB2024-07-02 21:01:37
perl-HTML-Tree-5.07-1.27.noarch.rpm209.8 KiB2024-07-02 21:01:36
dpdk-doc-22.11.1-5.3.noarch.rpm15.7 MiB2024-07-02 21:01:29
perl-DateTime-Format-Strptime-1.79-1.15.noarch.rpm47.3 KiB2024-07-02 21:00:50
perl-Pod-Coverage-TrustPod-0.100006-1.7.noarch.rpm21.2 KiB2024-07-02 21:00:49
perl-Pod-Eventual-0.094003-1.7.noarch.rpm25.1 KiB2024-07-02 21:00:09
perl-Mixin-Linewise-0.111-1.7.noarch.rpm27.7 KiB2024-07-02 20:58:20
perl-XML-Simple-2.25-1.26.noarch.rpm81.7 KiB2024-07-02 20:57:41
perl-XML-SAX-Expat-0.51-4.25.noarch.rpm15.6 KiB2024-07-02 20:55:46
dpkg-lang-1.22.6-1.2.noarch.rpm2.3 MiB2024-07-02 20:50:54
perl-HTML-Template-2.97-1.27.noarch.rpm75.1 KiB2024-07-02 20:49:36
perl-DateTime-Locale-1.420000-1.2.noarch.rpm3.4 MiB2024-07-02 20:49:03
perl-CGI-4.660.0-1.2.noarch.rpm197.1 KiB2024-07-02 20:48:18
perl-DateTime-TimeZone-2.620.0-2.2.noarch.rpm330.3 KiB2024-07-02 20:48:18
perl-XML-XPath-1.48-1.7.noarch.rpm79.4 KiB2024-07-02 20:47:30
perl-Params-ValidationCompiler-0.31-1.6.noarch.rpm37.4 KiB2024-07-02 20:47:28
evolution-data-server-lang-3.52.3-1.1.noarch.rpm1.3 MiB2024-07-02 20:42:37
gnome-control-center-lang-46.3-1.1.noarch.rpm2.3 MiB2024-07-02 20:41:01
gnome-control-center-users-46.3-1.1.noarch.rpm57.2 KiB2024-07-02 20:41:01
gnome-control-center-user-faces-46.3-1.1.noarch.rpm1.2 MiB2024-07-02 20:41:01
gnome-control-center-goa-46.3-1.1.noarch.rpm57.6 KiB2024-07-02 20:41:01
gnome-control-center-devel-46.3-1.1.noarch.rpm50.3 KiB2024-07-02 20:41:01
gnome-control-center-color-46.3-1.1.noarch.rpm55.8 KiB2024-07-02 20:41:00
wireplumber-lang-0.5.5-1.1.noarch.rpm113.8 KiB2024-07-02 20:40:11
wireplumber-doc-0.5.5-1.1.noarch.rpm2.9 MiB2024-07-02 20:40:11
wireplumber-zsh-completion-0.5.5-1.1.noarch.rpm97.8 KiB2024-07-02 20:40:11
wireplumber-audio-0.5.5-1.1.noarch.rpm97.7 KiB2024-07-02 20:40:10
perl-Net-Whois-Raw-2.99040-1.1.noarch.rpm72.5 KiB2024-07-02 20:38:12
perl-libwww-perl-6.770.0-1.2.noarch.rpm195.5 KiB2024-07-02 20:37:02
perl-HTTP-Daemon-6.16-1.6.noarch.rpm37.2 KiB2024-07-02 20:35:11
perl-HTTP-Negotiate-6.01-9.31.noarch.rpm19.9 KiB2024-07-02 20:35:06
perl-namespace-autoclean-0.29-1.22.noarch.rpm27.6 KiB2024-07-02 20:33:18
perl-HTTP-Cookies-6.110.0-2.2.noarch.rpm38.9 KiB2024-07-02 20:33:17
perl-namespace-clean-0.27-1.30.noarch.rpm22.3 KiB2024-07-02 20:32:32
po4a-0.73-2.1.noarch.rpm319.5 KiB2024-07-02 20:10:46
po4a-lang-0.73-2.1.noarch.rpm1.8 MiB2024-07-02 20:10:46
perl-Mojo-IOLoop-ReadWriteProcess-0.340.0-2.2.noarch.rpm88.9 KiB2024-07-02 20:08:09
perl-IO-Async-0.803.0-2.2.noarch.rpm267.6 KiB2024-07-02 20:07:55
perl-Gravatar-URL-1.07-1.27.noarch.rpm28.4 KiB2024-07-02 20:07:37
perl-Parallel-ForkManager-2.02-1.15.noarch.rpm40.9 KiB2024-07-02 20:07:35
perl-Furl-3.14-1.15.noarch.rpm57.3 KiB2024-07-02 20:07:10
perl-PDF-Builder-3.26.0-2.2.noarch.rpm2.2 MiB2024-07-02 20:06:46
perl-Term-ProgressBar-2.23-1.7.noarch.rpm33.0 KiB2024-07-02 20:06:42
perl-PDF-API2-2.47.0-1.2.noarch.rpm1.7 MiB2024-07-02 20:06:40
perl-YAML-1.310.0-2.2.noarch.rpm79.7 KiB2024-07-02 20:06:37
perl-YAML-PP-0.38.0-1.3.noarch.rpm130.0 KiB2024-07-02 20:06:37
perl-File-Flock-2014.01-1.27.noarch.rpm21.9 KiB2024-07-02 20:06:36
perl-Devel-CheckCompiler-0.07-1.28.noarch.rpm19.6 KiB2024-07-02 20:06:35
perl-Specio-0.48-1.9.noarch.rpm150.8 KiB2024-07-02 20:06:35
perl-Export-Attrs-0.1.0-1.27.noarch.rpm24.0 KiB2024-07-02 20:06:35
perl-Data-Page-2.03-1.24.noarch.rpm23.1 KiB2024-07-02 20:06:34
perl-HTTP-BrowserDetect-3.400.0-2.2.noarch.rpm58.0 KiB2024-07-02 20:06:33
perl-Mail-Mbox-MessageParser-1.5111-1.25.noarch.rpm55.8 KiB2024-07-02 20:06:32
perl-SQL-SplitStatement-1.00023-1.15.noarch.rpm48.1 KiB2024-07-02 20:06:32
perl-User-Identity-1.02-1.6.noarch.rpm78.3 KiB2024-07-02 20:06:32
perl-String-RewritePrefix-0.009-1.7.noarch.rpm19.2 KiB2024-07-02 20:06:31
perl-Net-Whois-RIPE-2.008001-1.16.noarch.rpm211.6 KiB2024-07-02 20:06:31
perl-Test-Modern-0.013-1.18.noarch.rpm42.4 KiB2024-07-02 20:06:31
perl-Device-Yeelight-0.13-1.15.noarch.rpm20.2 KiB2024-07-02 20:06:31
perl-Test-Kit-2.160.0-2.2.noarch.rpm22.7 KiB2024-07-02 20:06:30
perl-List-SomeUtils-0.59-1.7.noarch.rpm49.6 KiB2024-07-02 20:06:29
perl-Test-MockObject-1.20200122-1.20.noarch.rpm39.5 KiB2024-07-02 20:06:29
perl-Test-Spelling-0.25-1.23.noarch.rpm32.2 KiB2024-07-02 20:06:29
perl-Lexical-Persistence-1.023-3.32.noarch.rpm32.5 KiB2024-07-02 20:06:28
perl-Parse-ANSIColor-Tiny-0.700-1.7.noarch.rpm26.7 KiB2024-07-02 20:06:28
perl-Test-Class-0.52-1.17.noarch.rpm64.9 KiB2024-07-02 20:06:28
perl-String-Formatter-1.235-1.7.noarch.rpm35.3 KiB2024-07-02 20:06:28
perl-Package-Stash-0.40-1.12.noarch.rpm34.1 KiB2024-07-02 20:06:28
perl-Pod-POM-2.01-1.30.noarch.rpm92.0 KiB2024-07-02 20:06:28
perl-HTTP-Headers-Fast-0.22-1.24.noarch.rpm23.0 KiB2024-07-02 20:06:28
perl-Test-Assert-0.0504-9.33.noarch.rpm32.1 KiB2024-07-02 20:06:28
perl-Meta-Builder-0.004-1.26.noarch.rpm22.5 KiB2024-07-02 20:06:28
perl-Gtk3-0.038-1.18.noarch.rpm45.3 KiB2024-07-02 20:06:28
perl-Path-IsDev-1.001003-1.28.noarch.rpm83.0 KiB2024-07-02 20:06:27
perl-Test-JSON-0.11-1.31.noarch.rpm12.6 KiB2024-07-02 20:06:27
perl-Parse-PMFile-0.470.0-1.2.noarch.rpm22.7 KiB2024-07-02 20:06:27
perl-Package-Variant-1.003002-1.31.noarch.rpm19.9 KiB2024-07-02 20:06:27
perl-MooX-late-0.100-2.17.noarch.rpm26.2 KiB2024-07-02 20:06:27
perl-Mail-SPF-3.202.406.170-1.2.noarch.rpm127.8 KiB2024-07-02 20:06:27
perl-Email-Sender-2.601.0-1.2.noarch.rpm88.9 KiB2024-07-02 20:06:27
perl-DBD-CSV-0.60-1.6.noarch.rpm45.3 KiB2024-07-02 20:06:27
perl-String-Flogger-1.101246-1.7.noarch.rpm19.2 KiB2024-07-02 20:06:27
perl-HTTP-Message-6.460.0-1.2.noarch.rpm110.9 KiB2024-07-02 20:06:27
perl-Text-Markdown-1.000031-17.7.noarch.rpm41.0 KiB2024-07-02 20:06:27
perl-Text-Sprintf-Named-0.0405-1.19.noarch.rpm18.5 KiB2024-07-02 20:06:27
perl-Net-TFTP-0.1901-1.28.noarch.rpm19.4 KiB2024-07-02 20:06:27
perl-Net-DNS-Resolver-Mock-1.20230216-1.6.noarch.rpm18.9 KiB2024-07-02 20:06:27
perl-Future-IO-0.150.0-2.2.noarch.rpm33.3 KiB2024-07-02 20:06:27
perl-String-Util-1.34-1.6.noarch.rpm28.8 KiB2024-07-02 20:06:26
perl-Net-HTTPServer-1.1.1-28.2.noarch.rpm56.3 KiB2024-07-02 20:06:26
perl-Mojo-Log-Colored-0.04-1.17.noarch.rpm19.9 KiB2024-07-02 20:06:26
perl-Mail-AuthenticationResults-2.20231031-1.4.noarch.rpm56.4 KiB2024-07-02 20:06:26
perl-SQL-ReservedWords-0.8-5.32.noarch.rpm37.5 KiB2024-07-02 20:06:26
perl-Template-Plugin-JSON-Escape-0.02-1.18.noarch.rpm12.7 KiB2024-07-02 20:06:26
perl-DBM-Deep-2.0019-1.4.noarch.rpm120.1 KiB2024-07-02 20:06:26
perl-MooX-HandlesVia-0.001009-1.19.noarch.rpm32.2 KiB2024-07-02 20:06:26
perl-IO-Handle-Util-0.02-1.26.noarch.rpm33.5 KiB2024-07-02 20:06:26
perl-URI-Template-0.24-1.24.noarch.rpm15.3 KiB2024-07-02 20:06:26
perl-String-Truncate-1.100603-1.7.noarch.rpm21.8 KiB2024-07-02 20:06:26
perl-Mojo-JWT-0.09-1.7.noarch.rpm24.3 KiB2024-07-02 20:06:26
perl-aliased-0.34-1.31.noarch.rpm25.1 KiB2024-07-02 20:06:25
perl-URI-Find-20160806-1.29.noarch.rpm38.8 KiB2024-07-02 20:06:25
perl-Test-Most-0.38-1.7.noarch.rpm31.2 KiB2024-07-02 20:06:25
perl-URI-cpan-1.9.0-2.2.noarch.rpm26.7 KiB2024-07-02 20:06:25
perl-Protocol-WebSocket-0.26-1.24.noarch.rpm61.3 KiB2024-07-02 20:06:25
perl-Iterator-Util-0.02-14.31.noarch.rpm19.8 KiB2024-07-02 20:06:25
perl-Data-ObjectDriver-0.22-1.6.noarch.rpm123.0 KiB2024-07-02 20:06:25
perl-URI-ws-0.03-1.18.noarch.rpm18.1 KiB2024-07-02 20:06:25
perl-Parse-Distname-0.05-1.7.noarch.rpm21.4 KiB2024-07-02 20:06:25
perl-Sub-Exporter-GlobExporter-0.006-1.7.noarch.rpm21.1 KiB2024-07-02 20:06:25
perl-PerlIO-via-Timeout-0.32-1.31.noarch.rpm20.4 KiB2024-07-02 20:06:25
perl-Readonly-2.05-1.29.noarch.rpm35.1 KiB2024-07-02 20:06:25
perl-Test-Directory-0.052-1.6.noarch.rpm17.3 KiB2024-07-02 20:06:24
perl-Pod-Markdown-3.400.0-2.2.noarch.rpm52.5 KiB2024-07-02 20:06:24
perl-MooX-Types-MooseLike-Numeric-1.03-1.28.noarch.rpm11.4 KiB2024-07-02 20:06:24
perl-Config-GitLike-1.18-1.20.noarch.rpm43.4 KiB2024-07-02 20:06:24
perl-Inline-0.86-2.12.noarch.rpm102.8 KiB2024-07-02 20:06:24
perl-Task-Weaken-1.06-2.24.noarch.rpm23.5 KiB2024-07-02 20:06:24
perl-Email-Send-2.201-1.26.noarch.rpm39.7 KiB2024-07-02 20:06:24
perl-Graphics-Toolkit-Color-1.710.0-2.2.noarch.rpm80.5 KiB2024-07-02 20:06:24
perl-Data-Section-0.200008-1.7.noarch.rpm25.5 KiB2024-07-02 20:06:24
perl-Cookie-Baker-0.120.0-2.2.noarch.rpm21.4 KiB2024-07-02 20:06:24
perl-URI-Nested-0.10-1.29.noarch.rpm12.6 KiB2024-07-02 20:06:24
perl-GDTextUtil-0.86-99.27.noarch.rpm67.4 KiB2024-07-02 20:06:24
perl-Class-DBI-3.0.17-5.34.noarch.rpm111.2 KiB2024-07-02 20:06:24
perl-Const-Fast-0.014-1.32.noarch.rpm19.7 KiB2024-07-02 20:06:23
perl-POSIX-strftime-Compiler-0.460.0-2.2.noarch.rpm23.8 KiB2024-07-02 20:06:23
perl-Module-Install-AuthorTests-0.002-1.32.noarch.rpm11.1 KiB2024-07-02 20:06:23
perl-File-Path-Tiny-1.0-1.17.noarch.rpm21.7 KiB2024-07-02 20:06:23
perl-Dumbbench-0.503-1.11.noarch.rpm49.5 KiB2024-07-02 20:06:23
perl-Class-C3-Componentised-1.001002-1.26.noarch.rpm18.6 KiB2024-07-02 20:06:23
perl-Template-GD-2.66-1.27.noarch.rpm53.0 KiB2024-07-02 20:06:23
perl-File-DesktopEntry-0.22-1.30.noarch.rpm23.7 KiB2024-07-02 20:06:23
perl-Convert-TNEF-0.18-5.32.noarch.rpm25.1 KiB2024-07-02 20:06:23
perl-Email-Reply-1.204-1.26.noarch.rpm22.1 KiB2024-07-02 20:06:22
perl-XML-SAX-Writer-0.57-1.28.noarch.rpm32.0 KiB2024-07-02 20:06:22
perl-Context-Preserve-0.03-1.26.noarch.rpm21.1 KiB2024-07-02 20:06:21
perl-B-Hooks-EndOfScope-0.280.0-1.2.noarch.rpm32.8 KiB2024-07-02 20:06:20
perl-CGI-Simple-1.281.0-2.2.noarch.rpm102.6 KiB2024-07-02 20:06:20
perl-Class-Accessor-Grouped-0.10014-1.22.noarch.rpm30.0 KiB2024-07-02 20:06:20
perl-CPAN-Common-Index-0.010-1.17.noarch.rpm32.2 KiB2024-07-02 20:06:19
perl-Data-Hierarchy-0.34-131.31.noarch.rpm19.1 KiB2024-07-02 20:06:19
perl-Archive-Peek-0.37-1.13.noarch.rpm12.0 KiB2024-07-02 20:06:19
perl-Audio-RPLD-0.007_0.1beta6-1.28.noarch.rpm44.7 KiB2024-07-02 20:06:18
perl-Archive-Any-Lite-0.11-1.15.noarch.rpm19.8 KiB2024-07-02 20:06:18
perl-Class-C3-Adopt-NEXT-0.14-1.31.noarch.rpm23.9 KiB2024-07-02 20:06:17
perl-AnyEvent-I3-0.190.0-1.2.noarch.rpm18.1 KiB2024-07-02 20:06:17
perl-Apache-Session-1.94-1.19.noarch.rpm89.8 KiB2024-07-02 20:06:14
perl-AnyEvent-Connector-0.40.0-2.2.noarch.rpm16.3 KiB2024-07-02 20:06:13
perl-Carp-Assert-More-2.4.0-1.2.noarch.rpm28.2 KiB2024-07-02 20:06:11
perl-Any-URI-Escape-0.01-1.19.noarch.rpm10.4 KiB2024-07-02 20:06:10
gitolite-3.6.13-2.3.noarch.rpm122.7 KiB2024-07-02 20:06:08
innotop-1.13.0-1.14.noarch.rpm148.2 KiB2024-07-02 20:06:06
yast2-metapackage-handler-5.0.0-1.6.noarch.rpm35.5 KiB2024-07-02 19:17:49
claws-mail-lang-4.3.0-1.2.noarch.rpm1.4 MiB2024-07-02 19:16:17
zypper-log-1.14.74-1.2.noarch.rpm21.6 KiB2024-07-02 19:14:12
zypper-needs-restarting-1.14.74-1.2.noarch.rpm20.2 KiB2024-07-02 19:14:12
zypper-aptitude-1.14.74-1.2.noarch.rpm20.9 KiB2024-07-02 19:14:11
yast2-geo-cluster-5.0.0-1.6.noarch.rpm38.3 KiB2024-07-02 19:12:16
git-doc-2.45.2-1.2.noarch.rpm1.2 MiB2024-07-02 19:10:26
perl-Email-Valid-1.204.0-1.2.noarch.rpm31.6 KiB2024-07-02 19:04:13
perl-ldap-0.68-3.4.noarch.rpm329.6 KiB2024-07-02 19:03:45
perl-WWW-RobotRules-6.02-9.31.noarch.rpm19.3 KiB2024-07-02 19:03:44
perl-Alien-Build-Plugin-Download-GitLab-0.01-1.7.noarch.rpm19.5 KiB2024-07-02 19:03:41
perl-HTTP-CookieJar-0.014-1.7.noarch.rpm27.9 KiB2024-07-02 19:03:41
perl-IO-Event-0.813-1.26.noarch.rpm38.8 KiB2024-07-02 19:03:40
perl-Net-HTTP-6.23-1.5.noarch.rpm40.1 KiB2024-07-02 19:03:40
perl-Cache-Cache-1.08-1.31.noarch.rpm72.5 KiB2024-07-02 19:03:39
ghc-hledger-ui-doc-1.34-1.6.noarch.rpm162.4 KiB2024-07-02 19:03:23
perl-AnyEvent-HTTP-2.25-1.20.noarch.rpm46.3 KiB2024-07-02 19:02:48
ghc-pandoc-lua-engine-doc-0.2.1.5-1.9.noarch.rpm146.1 KiB2024-07-02 19:02:34
perl-Test-TCP-2.22-1.23.noarch.rpm34.4 KiB2024-07-02 19:02:17
ghc-pandoc-server-doc-0.1.0.6-1.10.noarch.rpm60.9 KiB2024-07-02 19:02:15
perl-Sub-Exporter-0.991.0-2.2.noarch.rpm62.0 KiB2024-07-02 19:02:01
perl-Test-File-ShareDir-1.001002-1.28.noarch.rpm44.3 KiB2024-07-02 19:02:01
perl-Module-Runtime-Conflicts-0.003-1.28.noarch.rpm19.0 KiB2024-07-02 19:01:59
stow-doc-2.4.0-1.2.noarch.rpm318.8 KiB2024-07-02 19:01:58
perl-Mojo-Redis-3.29-1.12.noarch.rpm61.4 KiB2024-07-02 19:01:57
perl-constant-boolean-0.02-9.33.noarch.rpm21.9 KiB2024-07-02 19:01:57
stow-2.4.0-1.2.noarch.rpm122.8 KiB2024-07-02 19:01:57
perl-Module-Install-1.21-1.6.noarch.rpm154.9 KiB2024-07-02 19:01:56
perl-Sub-HandlesVia-0.050000-1.6.noarch.rpm148.6 KiB2024-07-02 19:01:56
perl-Filesys-Notify-Simple-0.14-1.21.noarch.rpm21.7 KiB2024-07-02 19:01:55
perl-Test-Warn-0.37-1.7.noarch.rpm22.1 KiB2024-07-02 19:01:54
perl-Test-Differences-0.710.0-2.2.noarch.rpm25.8 KiB2024-07-02 19:01:54
perl-SQL-Statement-1.414-1.19.noarch.rpm188.8 KiB2024-07-02 19:01:54
perl-Test-CheckChanges-0.14-16.30.noarch.rpm23.8 KiB2024-07-02 19:01:54
perl-Test-Requires-Git-1.008-1.22.noarch.rpm21.6 KiB2024-07-02 19:01:53
perl-Net-DNS-Resolver-Programmable-0.009-1.27.noarch.rpm26.2 KiB2024-07-02 19:01:53
perl-Spreadsheet-XLSX-0.180.0-1.2.noarch.rpm29.1 KiB2024-07-02 19:01:53
perl-MooX-Traits-0.005-1.19.noarch.rpm25.9 KiB2024-07-02 19:01:53
perl-Test-Alien-CPP-1.03-1.8.noarch.rpm20.7 KiB2024-07-02 19:01:53
perl-Test-MockModule-0.178.0-1.2.noarch.rpm30.4 KiB2024-07-02 19:01:53
perl-Term-UI-0.50-1.15.noarch.rpm25.2 KiB2024-07-02 19:01:53
perl-MooseX-Log-Log4perl-0.47-2.26.noarch.rpm19.2 KiB2024-07-02 19:01:53
perl-Test-Deep-Type-0.008-1.27.noarch.rpm22.0 KiB2024-07-02 19:01:53
perl-Test-PerlTidy-20230226-1.6.noarch.rpm20.7 KiB2024-07-02 19:01:52
perl-Test-Pod-Coverage-1.10-3.32.noarch.rpm19.0 KiB2024-07-02 19:01:52
perl-Mail-IMAPClient-3.43-1.17.noarch.rpm212.8 KiB2024-07-02 19:01:52
perl-Test-CheckDeps-0.010-3.31.noarch.rpm18.8 KiB2024-07-02 19:01:52
perl-MooX-Attribute-ENV-0.04-1.13.noarch.rpm12.7 KiB2024-07-02 19:01:52
perl-Test-ExpectAndCheck-0.60.0-2.2.noarch.rpm26.1 KiB2024-07-02 19:01:52
perl-MooX-Types-MooseLike-0.29-1.31.noarch.rpm23.3 KiB2024-07-02 19:01:51
perl-Throwable-1.001-1.7.noarch.rpm29.7 KiB2024-07-02 19:01:51
perl-MooX-Locale-Passthrough-0.001-1.19.noarch.rpm11.6 KiB2024-07-02 19:01:51
perl-Text-Autoformat-1.75-1.22.noarch.rpm44.8 KiB2024-07-02 19:01:51
perl-Exception-Base-0.2501-2.4.noarch.rpm51.4 KiB2024-07-02 19:01:50
perl-MooX-StrictConstructor-0.011-1.17.noarch.rpm24.5 KiB2024-07-02 19:01:50
perl-Module-Refresh-0.18-1.9.noarch.rpm14.2 KiB2024-07-02 19:01:50
perl-Params-Coerce-0.15-1.17.noarch.rpm25.6 KiB2024-07-02 19:01:50
perl-MIME-tools-5.515.0-1.2.noarch.rpm215.6 KiB2024-07-02 19:01:50
perl-Text-Table-1.135-1.7.noarch.rpm38.8 KiB2024-07-02 19:01:50
perl-Date-Calc-6.4-3.2.noarch.rpm186.3 KiB2024-07-02 19:01:49
perl-Devel-CheckOS-2.40.0-1.2.noarch.rpm121.7 KiB2024-07-02 19:01:49
perl-Alien-Tidyp-1.4.7-8.33.noarch.rpm42.7 KiB2024-07-02 19:01:49
perl-Log-Contextual-0.009001-1.2.noarch.rpm67.7 KiB2024-07-02 19:01:49
perl-Ima-DBI-0.35-5.33.noarch.rpm28.5 KiB2024-07-02 19:01:49
perl-Tk-Clock-0.44-1.6.noarch.rpm33.1 KiB2024-07-02 19:01:49
perl-Email-MIME-1.954.0-1.2.noarch.rpm55.8 KiB2024-07-02 19:01:49
perl-Test-Metrics-Any-0.01-1.19.noarch.rpm18.9 KiB2024-07-02 19:01:49
perl-Domain-PublicSuffix-0.200.0-2.2.noarch.rpm102.0 KiB2024-07-02 19:01:49
perl-File-Listing-6.160.0-2.2.noarch.rpm26.0 KiB2024-07-02 19:01:49
perl-Hash-Ordered-0.014-1.6.noarch.rpm40.0 KiB2024-07-02 19:01:49
perl-Email-Abstract-3.10.0-2.2.noarch.rpm35.9 KiB2024-07-02 19:01:49
perl-Text-Patch-1.8-7.32.noarch.rpm20.9 KiB2024-07-02 19:01:49
perl-Number-WithError-1.01-2.2.noarch.rpm28.5 KiB2024-07-02 19:01:49
perl-Types-Path-Tiny-0.006-1.13.noarch.rpm19.3 KiB2024-07-02 19:01:49
perl-Module-Mask-0.06-1.13.noarch.rpm13.4 KiB2024-07-02 19:01:49
perl-Net-IDN-Nameprep-1.102-2.21.noarch.rpm19.1 KiB2024-07-02 19:01:49
perl-File-Find-Rule-Perl-1.16-1.11.noarch.rpm14.6 KiB2024-07-02 19:01:49
perl-Module-Build-Prereqs-FromCPANfile-0.02-1.18.noarch.rpm13.0 KiB2024-07-02 19:01:49
perl-Lingua-Stem-2.31-1.19.noarch.rpm1.1 MiB2024-07-02 19:01:49
perl-Pod-Spell-1.26-1.6.noarch.rpm41.6 KiB2024-07-02 19:01:49
perl-Module-Depends-0.16-7.2.noarch.rpm15.4 KiB2024-07-02 19:01:49
perl-Module-Implementation-0.09-1.30.noarch.rpm19.4 KiB2024-07-02 19:01:49
perl-Carp-Always-0.16-1.25.noarch.rpm22.1 KiB2024-07-02 19:01:49
perl-JSON-Any-1.400.0-2.2.noarch.rpm32.0 KiB2024-07-02 19:01:49
perl-HTML-Selector-XPath-0.280.0-2.2.noarch.rpm20.4 KiB2024-07-02 19:01:48
perl-Iterator-0.03-14.31.noarch.rpm25.8 KiB2024-07-02 19:01:48
perl-Eval-Closure-0.14-1.28.noarch.rpm24.6 KiB2024-07-02 19:01:48
perl-Test-ClassAPI-1.07-1.26.noarch.rpm23.8 KiB2024-07-02 19:01:48
perl-Test-File-Contents-0.242-1.7.noarch.rpm23.3 KiB2024-07-02 19:01:48
perl-Test-YAML-1.07-1.25.noarch.rpm19.5 KiB2024-07-02 19:01:48
perl-Task-Kensho-Config-0.41-1.15.noarch.rpm26.6 KiB2024-07-02 19:01:48
perl-FileHandle-Unget-0.1634-1.25.noarch.rpm29.6 KiB2024-07-02 19:01:48
perl-Text-SimpleTable-AutoWidth-0.09-1.17.noarch.rpm19.1 KiB2024-07-02 19:01:48
perl-CPAN-Changes-0.500004-1.2.noarch.rpm47.9 KiB2024-07-02 19:01:48
perl-Data-Entropy-0.007-1.29.noarch.rpm43.1 KiB2024-07-02 19:01:48
perl-Lingua-EN-Number-IsOrdinal-0.05-1.32.noarch.rpm18.3 KiB2024-07-02 19:01:48
perl-Module-Build-Tiny-0.47.0-2.2.noarch.rpm25.9 KiB2024-07-02 19:01:48
perl-Statistics-Descriptive-3.0801-1.5.noarch.rpm74.7 KiB2024-07-02 19:01:48
perl-File-Find-Object-0.3.8-1.5.noarch.rpm38.8 KiB2024-07-02 19:01:47
perl-MIME-Lite-3.033-1.15.noarch.rpm91.4 KiB2024-07-02 19:01:47
perl-LWP-MediaTypes-6.04-1.23.noarch.rpm34.0 KiB2024-07-02 19:01:47
perl-Locale-US-3.04-1.33.noarch.rpm19.4 KiB2024-07-02 19:01:47
perl-Import-Into-1.002005-1.30.noarch.rpm17.3 KiB2024-07-02 19:01:47
perl-Data-Perl-0.002011-1.20.noarch.rpm53.1 KiB2024-07-02 19:01:46
perl-Class-Base-0.09-1.26.noarch.rpm35.7 KiB2024-07-02 19:01:46
perl-ExtUtils-MakeMaker-CPANfile-0.09-1.25.noarch.rpm20.3 KiB2024-07-02 19:01:46
perl-Config-Std-0.903-1.26.noarch.rpm35.7 KiB2024-07-02 19:01:46
check_postgres-2.26.0-1.7.noarch.rpm171.2 KiB2024-07-02 19:01:44
perl-Benchmark-Timer-0.7112-1.25.noarch.rpm30.7 KiB2024-07-02 19:01:44
perl-Class-Mix-0.006-1.27.noarch.rpm14.5 KiB2024-07-02 19:01:44
perl-Data-Compare-1.29-1.6.noarch.rpm36.1 KiB2024-07-02 19:01:44
monitoring-plugins-postgres-2.26.0-1.7.noarch.rpm17.8 KiB2024-07-02 19:01:44
perl-XML-Filter-BufferText-1.01-9.31.noarch.rpm12.0 KiB2024-07-02 19:01:43
perl-Crypt-SaltedHash-0.09-5.32.noarch.rpm24.7 KiB2024-07-02 19:01:43
perl-Test-Exception-0.430000-1.30.noarch.rpm27.1 KiB2024-07-02 19:01:42
strip-nondeterminism-1.13.1-1.5.noarch.rpm59.4 KiB2024-07-02 19:01:31
perl-URI-5.280.0-1.2.noarch.rpm120.9 KiB2024-07-02 18:59:50
perl-Test-Base-0.89-1.26.noarch.rpm50.6 KiB2024-07-02 18:58:17
perl-File-Copy-Recursive-0.45-1.22.noarch.rpm27.7 KiB2024-07-02 18:58:09
perl-Dist-CheckConflicts-0.11-1.32.noarch.rpm24.3 KiB2024-07-02 18:57:27
perl-Data-OptList-0.114-1.6.noarch.rpm23.8 KiB2024-07-02 18:57:25
perl-Sub-Override-0.120.0-1.2.noarch.rpm18.7 KiB2024-07-02 18:56:38
ghc-pandoc-doc-3.2-1.9.noarch.rpm2.4 MiB2024-07-02 18:28:00
libspf2-apidocs-1.2.11-7.2.noarch.rpm1.5 MiB2024-07-02 18:20:05
apparmor-utils-lang-4.0.1-8.2.noarch.rpm79.1 KiB2024-07-02 18:18:36
apparmor-docs-4.0.1-8.2.noarch.rpm60.0 KiB2024-07-02 18:18:35
apparmor-parser-lang-4.0.1-8.2.noarch.rpm123.5 KiB2024-07-02 18:18:35
apparmor-profiles-4.0.1-8.2.noarch.rpm97.7 KiB2024-07-02 18:18:35
apparmor-utils-4.0.1-8.2.noarch.rpm90.7 KiB2024-07-02 18:18:35
apparmor-abstractions-4.0.1-8.2.noarch.rpm74.0 KiB2024-07-02 18:18:35
slurm-webdoc-23.11.5-1.3.noarch.rpm139.3 KiB2024-07-02 18:15:32
slurm-seff-23.11.5-1.3.noarch.rpm142.7 KiB2024-07-02 18:15:31
slurm-sjstat-23.11.5-1.3.noarch.rpm144.0 KiB2024-07-02 18:15:31
slurm-openlava-23.11.5-1.3.noarch.rpm145.1 KiB2024-07-02 18:15:30
slurm-config-man-23.11.5-1.3.noarch.rpm251.0 KiB2024-07-02 18:15:29
slurm-config-23.11.5-1.3.noarch.rpm143.9 KiB2024-07-02 18:15:29
slurm-doc-23.11.5-1.3.noarch.rpm1.8 MiB2024-07-02 18:15:29
perl-POE-1.370-1.14.noarch.rpm460.1 KiB2024-07-02 18:13:32
ghc-hledger-doc-1.34-1.6.noarch.rpm527.7 KiB2024-07-02 18:13:26
perl-Test-SharedFork-0.35-1.30.noarch.rpm22.6 KiB2024-07-02 18:13:12
perl-Type-Tiny-2.004000-1.6.noarch.rpm412.4 KiB2024-07-02 18:12:59
perl-Expect-1.380.0-1.2.noarch.rpm68.8 KiB2024-07-02 18:12:53
perl-Text-Template-1.61-1.11.noarch.rpm64.4 KiB2024-07-02 18:12:43
perl-Log-Log4perl-1.57-1.7.noarch.rpm371.6 KiB2024-07-02 18:12:42
perl-Test-Trap-0.3.5-1.7.noarch.rpm60.0 KiB2024-07-02 18:12:40
perl-Time-Duration-Parse-0.16-1.15.noarch.rpm21.7 KiB2024-07-02 18:12:39
perl-Test-Fatal-0.017-1.7.noarch.rpm26.3 KiB2024-07-02 18:12:37
perl-JSON-Validator-5.14-1.6.noarch.rpm108.8 KiB2024-07-02 18:12:37
perl-Test-SubCalls-1.10-1.26.noarch.rpm21.0 KiB2024-07-02 18:12:36
perl-Tree-DAG_Node-1.32-1.17.noarch.rpm73.2 KiB2024-07-02 18:12:36
perl-Test-Strict-0.52-2.4.noarch.rpm28.1 KiB2024-07-02 18:12:35
perl-local-lib-2.000029-1.4.noarch.rpm80.7 KiB2024-07-02 18:12:35
perl-XML-CommonNS-0.06-1.32.noarch.rpm12.6 KiB2024-07-02 18:12:35
perl-homedir-2.000029-1.4.noarch.rpm14.4 KiB2024-07-02 18:12:35
perl-Tie-Hash-DBD-0.24-1.6.noarch.rpm31.7 KiB2024-07-02 18:12:34
perl-Text-Capitalize-1.5-1.22.noarch.rpm26.7 KiB2024-07-02 18:12:34
perl-Quantum-Superpositions-2.03-1.25.noarch.rpm29.2 KiB2024-07-02 18:12:34
perl-Text-Aligner-0.16-1.20.noarch.rpm20.9 KiB2024-07-02 18:12:34
perl-Proc-Fork-0.808-1.7.noarch.rpm24.2 KiB2024-07-02 18:12:33
perl-Test-Script-1.29-1.15.noarch.rpm31.1 KiB2024-07-02 18:12:33
perl-XML-Generator-PerlData-0.95-1.30.noarch.rpm26.5 KiB2024-07-02 18:12:33
perl-Test-Memory-Cycle-1.06-2.30.noarch.rpm16.6 KiB2024-07-02 18:12:33
perl-List-MoreUtils-0.430-1.19.noarch.rpm66.2 KiB2024-07-02 18:12:32
perl-Minion-10.300.0-1.2.noarch.rpm1.4 MiB2024-07-02 18:12:32
perl-Ref-Util-0.204-1.19.noarch.rpm26.4 KiB2024-07-02 18:12:31
perl-Test2-Plugin-NoWarnings-0.100.0-1.2.noarch.rpm23.3 KiB2024-07-02 18:12:31
perl-Types-Serialiser-1.01-1.18.noarch.rpm19.0 KiB2024-07-02 18:12:31
perl-Text-Diff-1.45-1.27.noarch.rpm40.9 KiB2024-07-02 18:12:30
perl-WebService-MusicBrainz-1.0.6-1.7.noarch.rpm18.0 KiB2024-07-02 18:12:30
perl-App-Ack-3.7.0-2.2.noarch.rpm45.2 KiB2024-07-02 18:12:30
perl-Protocol-Redis-Faster-0.003-1.22.noarch.rpm17.3 KiB2024-07-02 18:12:30
perl-Spreadsheet-ParseExcel-0.660.0-2.2.noarch.rpm121.6 KiB2024-07-02 18:12:30
perl-Mojolicious-Plugin-Webpack-1.02-1.7.noarch.rpm97.7 KiB2024-07-02 18:12:30
perl-Test-TempDir-Tiny-0.018-1.26.noarch.rpm24.2 KiB2024-07-02 18:12:30
perl-SUPER-1.20190531-1.22.noarch.rpm22.4 KiB2024-07-02 18:12:29
perl-Router-Simple-0.17-1.32.noarch.rpm32.5 KiB2024-07-02 18:12:29
ack-3.7.0-2.2.noarch.rpm47.8 KiB2024-07-02 18:12:29
perl-Unicode-Stringprep-1.105-1.32.noarch.rpm42.4 KiB2024-07-02 18:12:29
perl-Pod-Coverage-0.23-6.18.noarch.rpm26.3 KiB2024-07-02 18:12:28
perl-Net-DNS-1.450.0-1.2.noarch.rpm359.5 KiB2024-07-02 18:12:28
perl-Time-Mock-0.0.2-1.35.noarch.rpm13.3 KiB2024-07-02 18:12:28
perl-Text-Reform-1.20-24.31.noarch.rpm42.6 KiB2024-07-02 18:12:28
perl-Term-Size-Any-0.002-1.17.noarch.rpm12.7 KiB2024-07-02 18:12:28
perl-Sub-Info-0.002-1.28.noarch.rpm18.7 KiB2024-07-02 18:12:28
perl-Test-Unit-Lite-0.1202-5.32.noarch.rpm30.6 KiB2024-07-02 18:12:27
perl-Snowball-Norwegian-1.2-14.34.noarch.rpm21.3 KiB2024-07-02 18:12:27
perl-Mojolicious-Plugin-AssetPack-2.14-3.2.noarch.rpm96.4 KiB2024-07-02 18:12:27
perl-Test-FailWarnings-0.008-3.31.noarch.rpm20.1 KiB2024-07-02 18:12:27
perl-XML-Parser-Lite-0.722-1.25.noarch.rpm16.7 KiB2024-07-02 18:12:26
perl-Symbol-Util-0.0203-5.32.noarch.rpm29.1 KiB2024-07-02 18:12:26
perl-Test-Command-0.11-5.32.noarch.rpm21.2 KiB2024-07-02 18:12:26
perl-Pod-MinimumVersion-50-2.19.noarch.rpm33.1 KiB2024-07-02 18:12:26
perl-Test-Refcount-0.10-1.22.noarch.rpm25.2 KiB2024-07-02 18:12:25
perl-Net-SNMP-6.0.1-20.33.noarch.rpm103.9 KiB2024-07-02 18:12:25
perl-Test-Compile-3.3.3-1.2.noarch.rpm26.8 KiB2024-07-02 18:12:24
perl-Lingua-EN-FindNumber-1.32-1.30.noarch.rpm18.4 KiB2024-07-02 18:12:24
perl-SemVer-0.10.0-1.7.noarch.rpm18.6 KiB2024-07-02 18:12:24
perl-PAR-1.20.0-1.2.noarch.rpm102.5 KiB2024-07-02 18:12:24
perl-Config-AutoConf-0.320-1.15.noarch.rpm57.8 KiB2024-07-02 18:12:24
perl-Test-Fork-0.02-1.12.noarch.rpm12.0 KiB2024-07-02 18:12:24
perl-Mojolicious-Plugin-RenderFile-0.12-3.26.noarch.rpm14.1 KiB2024-07-02 18:12:23
perl-Image-Size-3.300-3.17.noarch.rpm51.0 KiB2024-07-02 18:12:22
perl-Snowball-Swedish-1.2-14.34.noarch.rpm21.5 KiB2024-07-02 18:12:22
perl-Test-Identity-0.01-1.32.noarch.rpm17.6 KiB2024-07-02 18:12:22
perl-Struct-Dumb-0.14-1.6.noarch.rpm28.5 KiB2024-07-02 18:12:22
perl-Sub-Spec-1.0.7-9.32.noarch.rpm41.2 KiB2024-07-02 18:12:22
perl-Sub-Retry-0.06-1.25.noarch.rpm17.0 KiB2024-07-02 18:12:21
perl-Test-Future-IO-Impl-0.14-1.6.noarch.rpm18.7 KiB2024-07-02 18:12:20
perl-Sub-Uplevel-0.2800-1.25.noarch.rpm31.1 KiB2024-07-02 18:12:20
perl-Module-Path-0.19-1.33.noarch.rpm23.9 KiB2024-07-02 18:12:20
perl-Log-Message-Simple-0.10-3.31.noarch.rpm13.3 KiB2024-07-02 18:12:19
perl-Module-CPANfile-1.1004-1.26.noarch.rpm38.6 KiB2024-07-02 18:12:19
perl-Role-Hooks-0.008-1.8.noarch.rpm24.6 KiB2024-07-02 18:12:19
perl-Test-Output-1.034-1.5.noarch.rpm22.4 KiB2024-07-02 18:12:17
perl-Moo-2.005005-1.6.noarch.rpm75.9 KiB2024-07-02 18:12:17
perl-Module-Runtime-0.016-1.25.noarch.rpm25.9 KiB2024-07-02 18:12:16
perl-Pod-AsciiDoctor-0.102002-1.2.noarch.rpm23.0 KiB2024-07-02 18:12:15
perl-Module-Build-Deprecated-0.4210-1.29.noarch.rpm21.4 KiB2024-07-02 18:12:15
perl-IO-Pager-2.10-1.18.noarch.rpm66.9 KiB2024-07-02 18:12:15
perl-Test-DiagINC-0.010-1.8.noarch.rpm22.3 KiB2024-07-02 18:12:15
perl-Linux-DesktopFiles-0.25-1.26.noarch.rpm22.1 KiB2024-07-02 18:12:15
nginx-source-1.27.0-1.2.noarch.rpm865.9 KiB2024-07-02 18:12:14
perl-List-Compare-0.55-1.19.noarch.rpm71.5 KiB2024-07-02 18:12:12
perl-Metrics-Any-0.100.0-2.2.noarch.rpm52.0 KiB2024-07-02 18:12:11
perl-Log-Any-Adapter-Callback-0.102.0-2.2.noarch.rpm21.2 KiB2024-07-02 18:12:11
perl-Devel-GlobalDestruction-0.14-1.28.noarch.rpm14.3 KiB2024-07-02 18:12:11
perl-Path-Class-0.37-1.28.noarch.rpm56.3 KiB2024-07-02 18:12:11
perl-Locale-Maketext-Gettext-1.32-1.17.noarch.rpm50.0 KiB2024-07-02 18:12:11
perl-Module-Util-1.09-1.24.noarch.rpm20.0 KiB2024-07-02 18:12:10
perl-File-Find-Rule-0.34-2.11.noarch.rpm31.8 KiB2024-07-02 18:12:10
perl-Net-Netmask-2.0002-1.7.noarch.rpm42.8 KiB2024-07-02 18:12:10
perl-List-BinarySearch-0.25-1.20.noarch.rpm31.6 KiB2024-07-02 18:12:10
perl-HTTP-MultiPartParser-0.02-1.21.noarch.rpm14.7 KiB2024-07-02 18:12:10
perl-Font-TTF-1.06-1.28.noarch.rpm322.8 KiB2024-07-02 18:12:10
perl-Lingua-EN-Inflect-Number-1.12-1.31.noarch.rpm18.3 KiB2024-07-02 18:12:10
perl-File-Slurp-Unicode-0.7.1-12.31.noarch.rpm12.2 KiB2024-07-02 18:12:09
perl-Locale-Codes-3.790.0-1.2.noarch.rpm303.5 KiB2024-07-02 18:12:09
perl-File-Temp-0.2311-1.19.noarch.rpm61.9 KiB2024-07-02 18:12:09
perl-ExtUtils-F77-1.26-1.17.noarch.rpm25.9 KiB2024-07-02 18:12:09
perl-File-ShareDir-1.118-1.19.noarch.rpm33.7 KiB2024-07-02 18:12:08
perl-List-UtilsBy-0.12-1.11.noarch.rpm28.8 KiB2024-07-02 18:12:08
perl-Data-Random-0.13-1.26.noarch.rpm143.9 KiB2024-07-02 18:12:08
perl-Lingua-EN-Sentence-0.34-1.5.noarch.rpm28.4 KiB2024-07-02 18:12:07
perl-Exception-Class-1.45-1.15.noarch.rpm46.8 KiB2024-07-02 18:12:07
perl-Data-Section-Simple-0.07-1.32.noarch.rpm19.2 KiB2024-07-02 18:12:07
perl-Data-Validate-Domain-0.15-1.15.noarch.rpm29.3 KiB2024-07-02 18:12:07
perl-MIME-EncWords-1.15.0-1.2.noarch.rpm57.5 KiB2024-07-02 18:12:07
perl-Math-Random-ISAAC-1.004-2.26.noarch.rpm36.4 KiB2024-07-02 18:12:07
perl-Git-Version-Compare-1.005-1.6.noarch.rpm22.0 KiB2024-07-02 18:12:05
perl-Date-Range-1.41-1.14.noarch.rpm13.0 KiB2024-07-02 18:12:04
perl-DBIx-Connector-0.59-1.5.noarch.rpm55.6 KiB2024-07-02 18:12:04
perl-Net-CIDR-Set-0.13-1.31.noarch.rpm25.0 KiB2024-07-02 18:12:04
perl-Module-Build-Using-PkgConfig-0.03-1.18.noarch.rpm23.4 KiB2024-07-02 18:12:04
perl-FFI-CheckLib-0.31-1.7.noarch.rpm34.0 KiB2024-07-02 18:12:04
perl-File-Finder-0.53-1.29.noarch.rpm31.4 KiB2024-07-02 18:12:03
perl-File-Rename-2.20.0-2.2.noarch.rpm29.7 KiB2024-07-02 18:12:03
perl-File-Rsync-0.49-1.29.noarch.rpm34.7 KiB2024-07-02 18:12:03
perl-DBIx-Simple-1.37-1.26.noarch.rpm40.9 KiB2024-07-02 18:12:02
perl-File-BaseDir-0.09-1.15.noarch.rpm28.7 KiB2024-07-02 18:12:02
perl-File-HomeDir-1.006-1.19.noarch.rpm57.5 KiB2024-07-02 18:12:01
perl-Data-Integer-0.006-1.27.noarch.rpm24.8 KiB2024-07-02 18:12:01
perl-HTTP-Date-6.06-1.5.noarch.rpm28.2 KiB2024-07-02 18:12:01
perl-Data-Float-0.013-1.27.noarch.rpm30.9 KiB2024-07-02 18:12:01
perl-Config-IniFiles-3.000003-1.20.noarch.rpm59.4 KiB2024-07-02 18:12:00
hivex-lang-1.3.23-2.12.noarch.rpm33.0 KiB2024-07-02 18:12:00
perl-ExtUtils-InstallPaths-0.13.0-1.2.noarch.rpm27.8 KiB2024-07-02 18:12:00
perl-Devel-TakeHashArgs-0.006-1.31.noarch.rpm17.0 KiB2024-07-02 18:12:00
perl-ExtUtils-CChecker-0.120.0-1.2.noarch.rpm29.4 KiB2024-07-02 18:11:59
perl-Fennec-Lite-0.004-9.32.noarch.rpm19.8 KiB2024-07-02 18:11:59
perl-File-Slurper-0.014-1.7.noarch.rpm21.2 KiB2024-07-02 18:11:59
perl-File-TreeCreate-0.0.1-1.13.noarch.rpm13.8 KiB2024-07-02 18:11:59
perl-ExtUtils-Typemaps-Default-1.05-3.31.noarch.rpm34.5 KiB2024-07-02 18:11:59
perl-File-Copy-Recursive-Reduced-0.8.0-1.2.noarch.rpm28.0 KiB2024-07-02 18:11:58
perl-Email-Simple-2.218-1.6.noarch.rpm37.1 KiB2024-07-02 18:11:58
perl-Contextual-Return-0.004014-1.28.noarch.rpm62.8 KiB2024-07-02 18:11:58
perl-Crypt-JWT-0.35.0-2.2.noarch.rpm39.4 KiB2024-07-02 18:11:58
perl-Business-ISBN-3.9.0-2.2.noarch.rpm206.7 KiB2024-07-02 18:11:57
perl-DBIx-ContextualFetch-1.03-5.32.noarch.rpm13.0 KiB2024-07-02 18:11:57
perl-HTTP-Tinyish-0.190.0-1.2.noarch.rpm24.5 KiB2024-07-02 18:11:57
perl-File-Remove-1.61-1.9.noarch.rpm28.1 KiB2024-07-02 18:11:56
perl-Future-0.50-1.6.noarch.rpm94.5 KiB2024-07-02 18:11:55
perl-Class-Unload-0.11-1.29.noarch.rpm17.9 KiB2024-07-02 18:11:55
perl-Email-MIME-ContentType-1.028-1.6.noarch.rpm27.0 KiB2024-07-02 18:11:55
perl-Data-Validate-IP-0.31-1.7.noarch.rpm36.2 KiB2024-07-02 18:11:55
perl-Devel-StackTrace-AsHTML-0.15-1.29.noarch.rpm20.8 KiB2024-07-02 18:11:54
perl-ExtUtils-LibBuilder-0.08-1.31.noarch.rpm13.6 KiB2024-07-02 18:11:53
perl-CursesWidgets-1.997-164.33.noarch.rpm79.8 KiB2024-07-02 18:11:53
perl-Class-Trigger-0.15-1.20.noarch.rpm23.3 KiB2024-07-02 18:11:53
perl-Cache-Memcached-1.30-1.26.noarch.rpm29.5 KiB2024-07-02 18:11:53
perl-Config-Any-0.33-1.6.noarch.rpm43.6 KiB2024-07-02 18:11:51
perl-App-rsync-retry-0.007-1.12.noarch.rpm24.2 KiB2024-07-02 18:11:51
perl-Class-ReturnValue-0.55-15.26.noarch.rpm14.0 KiB2024-07-02 18:11:50
perl-Class-C3-0.35-1.18.noarch.rpm35.1 KiB2024-07-02 18:11:50
perl-Business-ISMN-1.204.0-2.2.noarch.rpm24.3 KiB2024-07-02 18:11:50
perl-Array-Unique-0.09-1.6.noarch.rpm22.5 KiB2024-07-02 18:11:48
perl-Algorithm-CheckDigits-1.3.6-1.13.noarch.rpm128.2 KiB2024-07-02 18:11:48
perl-JSON-MaybeXS-1.004005-1.6.noarch.rpm27.5 KiB2024-07-02 18:11:47
perl-Class-Factory-Util-1.7-14.32.noarch.rpm18.5 KiB2024-07-02 18:11:47
perl-App-Rad-Plugin-MoreHelp-0.0001-2.28.noarch.rpm17.0 KiB2024-07-02 18:11:46
perl-Class-Std-0.013-1.31.noarch.rpm50.9 KiB2024-07-02 18:11:46
perl-Calendar-Simple-2.1.0-1.2.noarch.rpm16.1 KiB2024-07-02 18:11:45
perl-CPAN-Meta-Check-0.18.0-2.2.noarch.rpm20.9 KiB2024-07-02 18:11:44
perl-Cwd-Guard-0.05-1.29.noarch.rpm16.9 KiB2024-07-02 18:11:44
perl-Array-Diff-0.09-1.14.noarch.rpm20.6 KiB2024-07-02 18:11:43
perl-Apache-DBI-1.12-2.2.noarch.rpm50.0 KiB2024-07-02 18:11:43
perl-Algorithm-Annotate-0.10-163.32.noarch.rpm9.7 KiB2024-07-02 18:11:42
perl-Crypt-SmbHash-0.12-159.22.noarch.rpm17.9 KiB2024-07-02 18:11:42
perl-AppConfig-1.71-1.33.noarch.rpm77.6 KiB2024-07-02 18:11:42
perl-MLDBM-2.05-5.33.noarch.rpm23.3 KiB2024-07-02 18:11:42
perl-Cache-LRU-0.04-3.2.noarch.rpm11.0 KiB2024-07-02 18:11:41
perl-XML-SAX-1.02-2.2.noarch.rpm55.6 KiB2024-07-02 18:11:37
perl-MailTools-2.21-1.23.noarch.rpm100.6 KiB2024-07-02 18:11:35
perl-Text-WrapI18N-0.06-9.31.noarch.rpm12.7 KiB2024-07-02 18:11:35
perl-Tie-IxHash-1.23-5.33.noarch.rpm17.1 KiB2024-07-02 18:11:35
perl-Error-0.17029-1.20.noarch.rpm41.7 KiB2024-07-02 18:11:32
makeinfo-lang-7.0.3-1.12.noarch.rpm52.4 KiB2024-07-02 18:09:33
info-lang-7.0.3-1.12.noarch.rpm395.5 KiB2024-07-02 18:09:32
info-std-7.0.3-1.12.noarch.rpm44.4 KiB2024-07-02 18:09:32
postgresql11-docs-11.22-2.4.noarch.rpm1.9 MiB2024-07-02 17:29:17
postgresql15-docs-15.7-1.3.noarch.rpm2.1 MiB2024-07-02 17:29:12
subversion-bash-completion-1.14.3-2.2.noarch.rpm23.1 KiB2024-07-02 17:28:58
postgresql14-docs-14.12-1.3.noarch.rpm2.1 MiB2024-07-02 17:28:52
postgresql12-docs-12.19-1.3.noarch.rpm2.0 MiB2024-07-02 17:28:43
postgresql13-docs-13.15-1.3.noarch.rpm2.0 MiB2024-07-02 17:28:40
texlive-hopatch-2024.213.1.5svn65491-55.3.noarch.rpm36.0 KiB2024-07-02 17:27:03
texlive-href-ul-2024.213.0.0.4.0svn69359-55.3.noarch.rpm35.3 KiB2024-07-02 17:27:03
texlive-hpsdiss-2024.213.1.0svn15878-55.3.noarch.rpm39.5 KiB2024-07-02 17:27:03
texlive-hrefhide-doc-2024.213.1.1asvn66189-55.3.noarch.rpm451.6 KiB2024-07-02 17:27:03
texlive-hopatch-doc-2024.213.1.5svn65491-55.3.noarch.rpm342.3 KiB2024-07-02 17:27:03
texlive-href-ul-doc-2024.213.0.0.4.0svn69359-55.3.noarch.rpm310.8 KiB2024-07-02 17:27:03
texlive-horoscop-doc-2024.213.1.01svn56021-55.3.noarch.rpm702.3 KiB2024-07-02 17:27:03
texlive-hrefhide-2024.213.1.1asvn66189-55.3.noarch.rpm36.6 KiB2024-07-02 17:27:03
texlive-hpsdiss-doc-2024.213.1.0svn15878-55.3.noarch.rpm140.5 KiB2024-07-02 17:27:03
texlive-horoscop-2024.213.1.01svn56021-55.3.noarch.rpm44.4 KiB2024-07-02 17:27:03
texlive-hobete-doc-2024.213.svn27036-55.3.noarch.rpm389.3 KiB2024-07-02 17:27:02
texlive-robust-externalize-doc-2024.213.2.7svn70598-55.3.noarch.rpm1.3 MiB2024-07-02 17:27:02
texlive-hologo-2024.213.1.15svn61719-55.3.noarch.rpm43.7 KiB2024-07-02 17:27:02
texlive-homework-doc-2024.213.svn70044-55.3.noarch.rpm399.7 KiB2024-07-02 17:27:02
texlive-hmtrump-fonts-2024.213.1.2asvn54512-55.3.noarch.rpm53.4 KiB2024-07-02 17:27:02
texlive-hologo-doc-2024.213.1.15svn61719-55.3.noarch.rpm593.2 KiB2024-07-02 17:27:02
texlive-homework-2024.213.svn70044-55.3.noarch.rpm37.8 KiB2024-07-02 17:27:02
texlive-robustcommand-2024.213.0.0.1svn15878-55.3.noarch.rpm34.9 KiB2024-07-02 17:27:02
texlive-hook-pre-commit-pkg-2024.213.1.1.2svn41378-55.3.noarch.rpm37.3 KiB2024-07-02 17:27:02
texlive-hmtrump-2024.213.1.2asvn54512-55.3.noarch.rpm36.9 KiB2024-07-02 17:27:02
texlive-hobete-2024.213.svn27036-55.3.noarch.rpm40.7 KiB2024-07-02 17:27:02
texlive-hobby-2024.213.1.12svn68137-55.3.noarch.rpm44.0 KiB2024-07-02 17:27:02
texlive-roboto-fonts-2024.213.svn64350-55.3.noarch.rpm22.9 MiB2024-07-02 17:27:02
texlive-robust-externalize-2024.213.2.7svn70598-55.3.noarch.rpm70.1 KiB2024-07-02 17:27:02
texlive-robustcommand-doc-2024.213.0.0.1svn15878-55.3.noarch.rpm89.7 KiB2024-07-02 17:27:02
texlive-hobsub-2024.213.svn52810-55.3.noarch.rpm35.7 KiB2024-07-02 17:27:02
texlive-hobby-doc-2024.213.1.12svn68137-55.3.noarch.rpm972.4 KiB2024-07-02 17:27:02
texlive-hobsub-doc-2024.213.svn52810-55.3.noarch.rpm92.0 KiB2024-07-02 17:27:02
texlive-hmtrump-doc-2024.213.1.2asvn54512-55.3.noarch.rpm983.9 KiB2024-07-02 17:27:02
texlive-hitszbeamer-doc-2024.213.1.0.0svn54381-55.3.noarch.rpm1.1 MiB2024-07-02 17:27:01
texlive-hletter-2024.213.4.2svn30002-55.3.noarch.rpm43.4 KiB2024-07-02 17:27:01
texlive-hlist-2024.213.0.0.11svn44983-55.3.noarch.rpm42.9 KiB2024-07-02 17:27:01
texlive-hitszthesis-doc-2024.213.3.2.1svn61073-55.3.noarch.rpm1.6 MiB2024-07-02 17:27:01
texlive-hitreport-2024.213.1.0.0svn58357-55.3.noarch.rpm45.5 KiB2024-07-02 17:27:01
texlive-hlist-doc-2024.213.0.0.11svn44983-55.3.noarch.rpm410.4 KiB2024-07-02 17:27:01
texlive-rmpage-doc-2024.213.0.0.92svn54080-55.3.noarch.rpm571.9 KiB2024-07-02 17:27:01
texlive-roboto-2024.213.svn64350-55.3.noarch.rpm3.6 MiB2024-07-02 17:27:01
texlive-rmpage-2024.213.0.0.92svn54080-55.3.noarch.rpm97.0 KiB2024-07-02 17:27:01
texlive-robotarm-doc-2024.213.0.0.1svn63116-55.3.noarch.rpm211.7 KiB2024-07-02 17:27:01
texlive-hithesis-doc-2024.213.2.0.11svn64005-55.3.noarch.rpm994.5 KiB2024-07-02 17:27:01
texlive-rlepsf-doc-2024.213.svn19082-55.3.noarch.rpm93.9 KiB2024-07-02 17:27:01
texlive-rmathbr-2024.213.1.1.1svn57173-55.3.noarch.rpm42.6 KiB2024-07-02 17:27:01
texlive-hletter-doc-2024.213.4.2svn30002-55.3.noarch.rpm2.5 MiB2024-07-02 17:27:01
texlive-hithesis-2024.213.2.0.11svn64005-55.3.noarch.rpm61.8 KiB2024-07-02 17:27:01
texlive-hitszbeamer-2024.213.1.0.0svn54381-55.3.noarch.rpm46.0 KiB2024-07-02 17:27:01
texlive-roboto-doc-2024.213.svn64350-55.3.noarch.rpm534.9 KiB2024-07-02 17:27:01
texlive-hitszthesis-2024.213.3.2.1svn61073-55.3.noarch.rpm60.8 KiB2024-07-02 17:27:01
texlive-robotarm-2024.213.0.0.1svn63116-55.3.noarch.rpm36.5 KiB2024-07-02 17:27:01
texlive-rmathbr-doc-2024.213.1.1.1svn57173-55.3.noarch.rpm278.6 KiB2024-07-02 17:27:01
texlive-hitreport-doc-2024.213.1.0.0svn58357-55.3.noarch.rpm1.3 MiB2024-07-02 17:27:01
texlive-hindawi-latex-template-2024.213.1.0svn57757-55.3.noarch.rpm78.0 KiB2024-07-02 17:27:00
texlive-histogr-2024.213.1.01svn15878-55.3.noarch.rpm34.8 KiB2024-07-02 17:27:00
texlive-ribbonproofs-doc-2024.213.1.0svn31137-55.3.noarch.rpm358.5 KiB2024-07-02 17:27:00
texlive-revtex4-2024.213.4.0asvn56589-55.3.noarch.rpm81.9 KiB2024-07-02 17:27:00
texlive-rjlparshap-2024.213.1.0svn15878-55.3.noarch.rpm35.6 KiB2024-07-02 17:27:00
texlive-histogr-doc-2024.213.1.01svn15878-55.3.noarch.rpm123.0 KiB2024-07-02 17:27:00
texlive-rgltxdoc-doc-2024.213.1.3svn53858-55.3.noarch.rpm188.9 KiB2024-07-02 17:27:00
texlive-hitec-doc-2024.213.0.0.0betasvn15878-55.3.noarch.rpm49.2 KiB2024-07-02 17:27:00
texlive-historische-zeitschrift-doc-2024.213.1.2svn42635-55.3.noarch.rpm36.9 KiB2024-07-02 17:27:00
texlive-hindmadurai-fonts-2024.213.0.0.0.1svn57360-55.3.noarch.rpm1.2 MiB2024-07-02 17:27:00
texlive-hindmadurai-2024.213.0.0.0.1svn57360-55.3.noarch.rpm76.9 KiB2024-07-02 17:27:00
texlive-hindmadurai-doc-2024.213.0.0.0.1svn57360-55.3.noarch.rpm116.3 KiB2024-07-02 17:27:00
texlive-rjlparshap-doc-2024.213.1.0svn15878-55.3.noarch.rpm140.7 KiB2024-07-02 17:27:00
texlive-rit-fonts-fonts-2024.213.0.0.9svn67659-55.3.noarch.rpm1.8 MiB2024-07-02 17:27:00
texlive-rlepsf-2024.213.svn19082-55.3.noarch.rpm36.8 KiB2024-07-02 17:27:00
texlive-hitec-2024.213.0.0.0betasvn15878-55.3.noarch.rpm39.5 KiB2024-07-02 17:27:00
texlive-historische-zeitschrift-2024.213.1.2svn42635-55.3.noarch.rpm39.5 KiB2024-07-02 17:27:00
texlive-rit-fonts-2024.213.0.0.9svn67659-55.3.noarch.rpm1.7 MiB2024-07-02 17:27:00
texlive-hitex-doc-2024.213.svn70015-55.3.noarch.rpm2.5 MiB2024-07-02 17:27:00
texlive-ribbonproofs-2024.213.1.0svn31137-55.3.noarch.rpm45.1 KiB2024-07-02 17:27:00
texlive-hitex-2024.213.svn70015-55.3.noarch.rpm42.2 KiB2024-07-02 17:27:00
texlive-rit-fonts-doc-2024.213.0.0.9svn67659-55.3.noarch.rpm336.9 KiB2024-07-02 17:27:00
texlive-revtex4-doc-2024.213.4.0asvn56589-55.3.noarch.rpm1.4 MiB2024-07-02 17:27:00
texlive-rgltxdoc-2024.213.1.3svn53858-55.3.noarch.rpm37.6 KiB2024-07-02 17:27:00
texlive-hfutexam-doc-2024.213.1.9svn68829-55.3.noarch.rpm554.4 KiB2024-07-02 17:26:59
texlive-resumemac-doc-2024.213.svn15878-55.3.noarch.rpm34.7 KiB2024-07-02 17:26:59
texlive-revtex4-1-2024.213.4.1ssvn56590-55.3.noarch.rpm96.3 KiB2024-07-02 17:26:59
texlive-revtex4-1-doc-2024.213.4.1ssvn56590-55.3.noarch.rpm5.2 MiB2024-07-02 17:26:59
texlive-hideanswer-doc-2024.213.1.1svn63852-55.3.noarch.rpm149.9 KiB2024-07-02 17:26:59
texlive-revtex-doc-2024.213.4.2fsvn67271-55.3.noarch.rpm4.8 MiB2024-07-02 17:26:59
texlive-revtex-2024.213.4.2fsvn67271-55.3.noarch.rpm103.7 KiB2024-07-02 17:26:59
texlive-revquantum-doc-2024.213.0.0.11svn43505-55.3.noarch.rpm278.0 KiB2024-07-02 17:26:59
texlive-highlightlatex-2024.213.svn58392-55.3.noarch.rpm37.3 KiB2024-07-02 17:26:59
texlive-hfutthesis-doc-2024.213.1.0.4svn64025-55.3.noarch.rpm813.2 KiB2024-07-02 17:26:59
texlive-returntogrid-2024.213.0.0.2svn48485-55.3.noarch.rpm37.7 KiB2024-07-02 17:26:59
texlive-hfbright-fonts-2024.213.svn29349-55.3.noarch.rpm817.2 KiB2024-07-02 17:26:59
texlive-hhtensor-2024.213.0.0.61svn54080-55.3.noarch.rpm34.9 KiB2024-07-02 17:26:59
texlive-revquantum-2024.213.0.0.11svn43505-55.3.noarch.rpm38.2 KiB2024-07-02 17:26:59
texlive-hhtensor-doc-2024.213.0.0.61svn54080-55.3.noarch.rpm384.9 KiB2024-07-02 17:26:59
texlive-highlightlatex-doc-2024.213.svn58392-55.3.noarch.rpm250.1 KiB2024-07-02 17:26:59
texlive-reverxii-doc-2024.213.svn63753-55.3.noarch.rpm255.2 KiB2024-07-02 17:26:59
texlive-hideanswer-2024.213.1.1svn63852-55.3.noarch.rpm35.0 KiB2024-07-02 17:26:59
texlive-reverxii-2024.213.svn63753-55.3.noarch.rpm34.8 KiB2024-07-02 17:26:59
texlive-hfutthesis-2024.213.1.0.4svn64025-55.3.noarch.rpm60.3 KiB2024-07-02 17:26:59
texlive-hfutexam-2024.213.1.9svn68829-55.3.noarch.rpm38.5 KiB2024-07-02 17:26:59
texlive-hfoldsty-doc-2024.213.1.15svn29349-55.3.noarch.rpm373.0 KiB2024-07-02 17:26:59
texlive-returntogrid-doc-2024.213.0.0.2svn48485-55.3.noarch.rpm177.9 KiB2024-07-02 17:26:59
texlive-resumemac-2024.213.svn15878-55.3.noarch.rpm36.6 KiB2024-07-02 17:26:59
texlive-highlightx-2024.213.0.0.1.5svn68756-55.3.noarch.rpm36.5 KiB2024-07-02 17:26:59
texlive-hfoldsty-2024.213.1.15svn29349-55.3.noarch.rpm349.4 KiB2024-07-02 17:26:59
texlive-highlightx-doc-2024.213.0.0.1.5svn68756-55.3.noarch.rpm214.7 KiB2024-07-02 17:26:59
texlive-heuristica-doc-2024.213.1.093svn69649-55.3.noarch.rpm252.8 KiB2024-07-02 17:26:58
texlive-hexgame-doc-2024.213.1.0svn15878-55.3.noarch.rpm61.7 KiB2024-07-02 17:26:58
texlive-resumecls-2024.213.0.0.4.1svn54815-55.3.noarch.rpm35.4 KiB2024-07-02 17:26:58
texlive-resumecls-doc-2024.213.0.0.4.1svn54815-55.3.noarch.rpm186.9 KiB2024-07-02 17:26:58
texlive-hf-tikz-doc-2024.213.0.0.3asvn34733-55.3.noarch.rpm152.1 KiB2024-07-02 17:26:58
texlive-resolsysteme-doc-2024.213.0.0.1.5svn66192-55.3.noarch.rpm494.7 KiB2024-07-02 17:26:58
texlive-resphilosophica-doc-2024.213.1.35svn50935-55.3.noarch.rpm542.1 KiB2024-07-02 17:26:58
texlive-hexboard-doc-2024.213.1.0svn62102-55.3.noarch.rpm300.7 KiB2024-07-02 17:26:58
texlive-responsive-doc-2024.213.0.0.1svn69147-55.3.noarch.rpm115.0 KiB2024-07-02 17:26:58
texlive-heuristica-fonts-2024.213.1.093svn69649-55.3.noarch.rpm1.0 MiB2024-07-02 17:26:58
texlive-responsive-2024.213.0.0.1svn69147-55.3.noarch.rpm38.0 KiB2024-07-02 17:26:58
texlive-rest-api-2024.213.1.4svn57068-55.3.noarch.rpm36.8 KiB2024-07-02 17:26:58
texlive-heuristica-2024.213.1.093svn69649-55.3.noarch.rpm157.5 KiB2024-07-02 17:26:58
texlive-rescansync-2024.213.0.0.0.0svn63856-55.3.noarch.rpm35.7 KiB2024-07-02 17:26:58
texlive-hfbright-2024.213.svn29349-55.3.noarch.rpm74.7 KiB2024-07-02 17:26:58
texlive-hf-tikz-2024.213.0.0.3asvn34733-55.3.noarch.rpm37.0 KiB2024-07-02 17:26:58
texlive-resmes-2024.213.1.0svn65375-55.3.noarch.rpm34.5 KiB2024-07-02 17:26:58
texlive-resolsysteme-2024.213.0.0.1.5svn66192-55.3.noarch.rpm42.5 KiB2024-07-02 17:26:58
texlive-resphilosophica-2024.213.1.35svn50935-55.3.noarch.rpm46.0 KiB2024-07-02 17:26:58
texlive-resmes-doc-2024.213.1.0svn65375-55.3.noarch.rpm98.6 KiB2024-07-02 17:26:58
texlive-rescansync-doc-2024.213.0.0.0.0svn63856-55.3.noarch.rpm403.0 KiB2024-07-02 17:26:58
texlive-hfbright-doc-2024.213.svn29349-55.3.noarch.rpm38.3 KiB2024-07-02 17:26:58
texlive-hexgame-2024.213.1.0svn15878-55.3.noarch.rpm35.4 KiB2024-07-02 17:26:58
texlive-hexboard-2024.213.1.0svn62102-55.3.noarch.rpm36.8 KiB2024-07-02 17:26:58
texlive-hershey-mp-2024.213.2022_1.0svn64878-55.3.noarch.rpm35.3 KiB2024-07-02 17:26:58
texlive-hershey-mp-doc-2024.213.2022_1.0svn64878-55.3.noarch.rpm298.9 KiB2024-07-02 17:26:58
texlive-rest-api-doc-2024.213.1.4svn57068-55.3.noarch.rpm171.1 KiB2024-07-02 17:26:58
texlive-reotex-2024.213.1.1svn34924-55.3.noarch.rpm37.7 KiB2024-07-02 17:26:57
texlive-here-2024.213.svn16135-55.3.noarch.rpm34.6 KiB2024-07-02 17:26:57
texlive-heros-otf-doc-2024.213.0.0.01svn64695-55.3.noarch.rpm247.9 KiB2024-07-02 17:26:57
texlive-relsize-doc-2024.213.4.1svn30707-55.3.noarch.rpm333.0 KiB2024-07-02 17:26:57
texlive-heria-doc-2024.213.3.2.1.0svn69058-55.3.noarch.rpm624.8 KiB2024-07-02 17:26:57
texlive-hepnames-2024.213.2.0svn35722-55.3.noarch.rpm41.1 KiB2024-07-02 17:26:57
texlive-repere-doc-2024.213.23.05.bsvn66998-55.3.noarch.rpm729.9 KiB2024-07-02 17:26:57
texlive-relenc-doc-2024.213.svn22050-55.3.noarch.rpm60.1 KiB2024-07-02 17:26:57
texlive-hepunits-2024.213.2.0.0svn54758-55.3.noarch.rpm35.6 KiB2024-07-02 17:26:57
texlive-rerunfilecheck-2024.213.1.10svn63869-55.3.noarch.rpm36.9 KiB2024-07-02 17:26:57
texlive-repeatindex-doc-2024.213.0.0.01svn24305-55.3.noarch.rpm34.3 KiB2024-07-02 17:26:57
texlive-repltext-doc-2024.213.1.1svn56433-55.3.noarch.rpm445.9 KiB2024-07-02 17:26:57
texlive-reledmac-doc-2024.213.2.40.0svn70202-55.3.noarch.rpm10.0 MiB2024-07-02 17:26:57
texlive-hepnames-doc-2024.213.2.0svn35722-55.3.noarch.rpm980.7 KiB2024-07-02 17:26:57
texlive-repeatindex-2024.213.0.0.01svn24305-55.3.noarch.rpm35.8 KiB2024-07-02 17:26:57
texlive-hereapplies-doc-2024.213.1.0.2svn68638-55.3.noarch.rpm445.5 KiB2024-07-02 17:26:57
texlive-hepunits-doc-2024.213.2.0.0svn54758-55.3.noarch.rpm130.4 KiB2024-07-02 17:26:57
texlive-hereapplies-2024.213.1.0.2svn68638-55.3.noarch.rpm39.1 KiB2024-07-02 17:26:57
texlive-hepparticles-doc-2024.213.2.0svn35723-55.3.noarch.rpm115.4 KiB2024-07-02 17:26:57
texlive-hepthesis-2024.213.1.5.2svn46054-55.3.noarch.rpm41.5 KiB2024-07-02 17:26:57
texlive-heros-otf-2024.213.0.0.01svn64695-55.3.noarch.rpm36.1 KiB2024-07-02 17:26:57
texlive-hepthesis-doc-2024.213.1.5.2svn46054-55.3.noarch.rpm705.8 KiB2024-07-02 17:26:57
texlive-relsize-2024.213.4.1svn30707-55.3.noarch.rpm39.4 KiB2024-07-02 17:26:57
texlive-here-doc-2024.213.svn16135-55.3.noarch.rpm33.5 KiB2024-07-02 17:26:57
texlive-relenc-2024.213.svn22050-55.3.noarch.rpm46.9 KiB2024-07-02 17:26:57
texlive-rerunfilecheck-doc-2024.213.1.10svn63869-55.3.noarch.rpm353.8 KiB2024-07-02 17:26:57
texlive-heria-2024.213.3.2.1.0svn69058-55.3.noarch.rpm55.6 KiB2024-07-02 17:26:57
texlive-reotex-doc-2024.213.1.1svn34924-55.3.noarch.rpm227.4 KiB2024-07-02 17:26:57
texlive-repere-2024.213.23.05.bsvn66998-55.3.noarch.rpm62.2 KiB2024-07-02 17:26:57
texlive-hepparticles-2024.213.2.0svn35723-55.3.noarch.rpm38.5 KiB2024-07-02 17:26:57
texlive-repltext-2024.213.1.1svn56433-55.3.noarch.rpm35.2 KiB2024-07-02 17:26:57
texlive-hep-title-2024.213.1.2svn67632-55.3.noarch.rpm37.2 KiB2024-07-02 17:26:56
texlive-hep-title-doc-2024.213.1.2svn67632-55.3.noarch.rpm588.7 KiB2024-07-02 17:26:56
texlive-hep-math-2024.213.1.2svn67632-55.3.noarch.rpm37.3 KiB2024-07-02 17:26:56
texlive-hep-math-doc-2024.213.1.2svn67632-55.3.noarch.rpm681.2 KiB2024-07-02 17:26:56
texlive-regexpatch-doc-2024.213.0.0.2fsvn58668-55.3.noarch.rpm548.9 KiB2024-07-02 17:26:56
texlive-regcount-2024.213.1.0svn19979-55.3.noarch.rpm35.4 KiB2024-07-02 17:26:56
texlive-regulatory-doc-2024.213.0.0.0.3svn69611-55.3.noarch.rpm484.5 KiB2024-07-02 17:26:56
texlive-regcount-doc-2024.213.1.0svn19979-55.3.noarch.rpm223.6 KiB2024-07-02 17:26:56
texlive-regstats-2024.213.1.1asvn66795-55.3.noarch.rpm37.9 KiB2024-07-02 17:26:56
texlive-hep-reference-doc-2024.213.1.2svn67632-55.3.noarch.rpm534.4 KiB2024-07-02 17:26:56
texlive-hep-math-font-2024.213.1.2svn67632-55.3.noarch.rpm37.0 KiB2024-07-02 17:26:56
texlive-regstats-doc-2024.213.1.1asvn66795-55.3.noarch.rpm533.3 KiB2024-07-02 17:26:56
texlive-register-2024.213.2.0svn54485-55.3.noarch.rpm38.6 KiB2024-07-02 17:26:56
texlive-register-doc-2024.213.2.0svn54485-55.3.noarch.rpm338.6 KiB2024-07-02 17:26:56
texlive-reledmac-2024.213.2.40.0svn70202-55.3.noarch.rpm89.5 KiB2024-07-02 17:26:56
texlive-regexpatch-2024.213.0.0.2fsvn58668-55.3.noarch.rpm37.3 KiB2024-07-02 17:26:56
texlive-hep-paper-2024.213.2.2svn67632-55.3.noarch.rpm36.9 KiB2024-07-02 17:26:56
texlive-hep-text-2024.213.1.2svn67632-55.3.noarch.rpm35.6 KiB2024-07-02 17:26:56
texlive-regulatory-2024.213.0.0.0.3svn69611-55.3.noarch.rpm41.3 KiB2024-07-02 17:26:56
texlive-hep-text-doc-2024.213.1.2svn67632-55.3.noarch.rpm598.8 KiB2024-07-02 17:26:56
texlive-hep-math-font-doc-2024.213.1.2svn67632-55.3.noarch.rpm1.2 MiB2024-07-02 17:26:56
texlive-hep-paper-doc-2024.213.2.2svn67632-55.3.noarch.rpm804.0 KiB2024-07-02 17:26:56
texlive-hep-reference-2024.213.1.2svn67632-55.3.noarch.rpm35.7 KiB2024-07-02 17:26:56
texlive-refman-doc-2024.213.2.0esvn15878-55.3.noarch.rpm660.2 KiB2024-07-02 17:26:55
texlive-refcount-2024.213.3.6svn53164-55.3.noarch.rpm36.9 KiB2024-07-02 17:26:55
texlive-hep-font-doc-2024.213.1.2svn67632-55.3.noarch.rpm585.0 KiB2024-07-02 17:26:55
texlive-hep-font-2024.213.1.2svn67632-55.3.noarch.rpm36.3 KiB2024-07-02 17:26:55
texlive-helvetic-2024.213.svn61719-55.3.noarch.rpm263.5 KiB2024-07-02 17:26:55
texlive-refstyle-doc-2024.213.0.0.6bsvn69680-55.3.noarch.rpm744.7 KiB2024-07-02 17:26:55
texlive-refenums-2024.213.1.1.2svn44131-55.3.noarch.rpm36.1 KiB2024-07-02 17:26:55
texlive-hep-acronym-2024.213.1.2svn67632-55.3.noarch.rpm36.5 KiB2024-07-02 17:26:55
texlive-hep-graphic-2024.213.1.2svn67641-55.3.noarch.rpm36.8 KiB2024-07-02 17:26:55
texlive-reflectgraphics-2024.213.0.0.2csvn40612-55.3.noarch.rpm36.1 KiB2024-07-02 17:26:55
texlive-refman-2024.213.2.0esvn15878-55.3.noarch.rpm43.2 KiB2024-07-02 17:26:55
texlive-hep-bibliography-2024.213.1.2svn67632-55.3.noarch.rpm37.4 KiB2024-07-02 17:26:55
texlive-helvetic-fonts-2024.213.svn61719-55.3.noarch.rpm406.2 KiB2024-07-02 17:26:55
texlive-refstyle-2024.213.0.0.6bsvn69680-55.3.noarch.rpm40.2 KiB2024-07-02 17:26:55
texlive-refcheck-doc-2024.213.1.9.1svn29128-55.3.noarch.rpm75.4 KiB2024-07-02 17:26:55
texlive-refcount-doc-2024.213.3.6svn53164-55.3.noarch.rpm347.8 KiB2024-07-02 17:26:55
texlive-hep-acronym-doc-2024.213.1.2svn67632-55.3.noarch.rpm550.8 KiB2024-07-02 17:26:55
texlive-hep-2024.213.1.0svn15878-55.3.noarch.rpm36.2 KiB2024-07-02 17:26:55
texlive-refcheck-2024.213.1.9.1svn29128-55.3.noarch.rpm37.3 KiB2024-07-02 17:26:55
texlive-hep-float-doc-2024.213.1.2svn67632-55.3.noarch.rpm574.1 KiB2024-07-02 17:26:55
texlive-reflectgraphics-doc-2024.213.0.0.2csvn40612-55.3.noarch.rpm262.5 KiB2024-07-02 17:26:55
texlive-recycle-fonts-2024.213.svn15878-55.3.noarch.rpm42.6 KiB2024-07-02 17:26:55
texlive-refenums-doc-2024.213.1.1.2svn44131-55.3.noarch.rpm216.7 KiB2024-07-02 17:26:55
texlive-hep-graphic-doc-2024.213.1.2svn67641-55.3.noarch.rpm509.4 KiB2024-07-02 17:26:55
texlive-hep-bibliography-doc-2024.213.1.2svn67632-55.3.noarch.rpm560.4 KiB2024-07-02 17:26:55
texlive-hep-doc-2024.213.1.0svn15878-55.3.noarch.rpm34.7 KiB2024-07-02 17:26:55
texlive-hep-float-2024.213.1.2svn67632-55.3.noarch.rpm35.7 KiB2024-07-02 17:26:55
texlive-hc-2024.213.svn15878-55.3.noarch.rpm47.3 KiB2024-07-02 17:26:54
texlive-helmholtz-ellis-ji-notation-2024.213.1.1svn55213-55.3.noarch.rpm36.3 KiB2024-07-02 17:26:54
texlive-recipe-2024.213.0.0.9svn54080-55.3.noarch.rpm35.6 KiB2024-07-02 17:26:54
texlive-havannah-doc-2024.213.svn36348-55.3.noarch.rpm248.7 KiB2024-07-02 17:26:54
texlive-helmholtz-ellis-ji-notation-doc-2024.213.1.1svn55213-55.3.noarch.rpm109.1 KiB2024-07-02 17:26:54
texlive-he-she-doc-2024.213.1.3svn41359-55.3.noarch.rpm239.8 KiB2024-07-02 17:26:54
texlive-rec-thy-2024.213.3.8.2svn63982-55.3.noarch.rpm49.5 KiB2024-07-02 17:26:54
texlive-hc-doc-2024.213.svn15878-55.3.noarch.rpm77.7 KiB2024-07-02 17:26:54
texlive-hecthese-doc-2024.213.2.0svn68584-55.3.noarch.rpm901.2 KiB2024-07-02 17:26:54
texlive-hebrew-fonts-doc-2024.213.1.3svn68038-55.3.noarch.rpm425.5 KiB2024-07-02 17:26:54
texlive-helmholtz-ellis-ji-notation-fonts-2024.213.1.1svn55213-55.3.noarch.rpm51.0 KiB2024-07-02 17:26:54
texlive-hecthese-2024.213.2.0svn68584-55.3.noarch.rpm38.0 KiB2024-07-02 17:26:54
texlive-hebrew-fonts-2024.213.1.3svn68038-55.3.noarch.rpm42.9 KiB2024-07-02 17:26:54
texlive-recipecard-2024.213.2.0svn15878-55.3.noarch.rpm36.3 KiB2024-07-02 17:26:54
texlive-rectopma-doc-2024.213.svn19980-55.3.noarch.rpm144.7 KiB2024-07-02 17:26:54
texlive-rec-thy-doc-2024.213.3.8.2svn63982-55.3.noarch.rpm153.9 KiB2024-07-02 17:26:54
texlive-recycle-2024.213.svn15878-55.3.noarch.rpm37.4 KiB2024-07-02 17:26:54
texlive-recipecard-doc-2024.213.2.0svn15878-55.3.noarch.rpm214.9 KiB2024-07-02 17:26:54
texlive-recycle-doc-2024.213.svn15878-55.3.noarch.rpm33.6 KiB2024-07-02 17:26:54
texlive-recorder-fingering-2024.213.1.3bsvn68595-55.3.noarch.rpm39.8 KiB2024-07-02 17:26:54
texlive-recipebook-doc-2024.213.svn37026-55.3.noarch.rpm940.0 KiB2024-07-02 17:26:54
texlive-recorder-fingering-doc-2024.213.1.3bsvn68595-55.3.noarch.rpm207.7 KiB2024-07-02 17:26:54
texlive-rectopma-2024.213.svn19980-55.3.noarch.rpm35.3 KiB2024-07-02 17:26:54
texlive-recipe-doc-2024.213.0.0.9svn54080-55.3.noarch.rpm56.7 KiB2024-07-02 17:26:54
texlive-havannah-2024.213.svn36348-55.3.noarch.rpm36.4 KiB2024-07-02 17:26:54
texlive-recipebook-2024.213.svn37026-55.3.noarch.rpm38.5 KiB2024-07-02 17:26:54
texlive-hausarbeit-jura-doc-2024.213.2.1.0svn56070-55.3.noarch.rpm367.1 KiB2024-07-02 17:26:54
texlive-he-she-2024.213.1.3svn41359-55.3.noarch.rpm36.8 KiB2024-07-02 17:26:54
texlive-harnon-cv-2024.213.1.0svn26543-55.3.noarch.rpm36.0 KiB2024-07-02 17:26:53
texlive-harvmac-2024.213.svn15878-55.3.noarch.rpm39.1 KiB2024-07-02 17:26:53
texlive-harvmac-doc-2024.213.svn15878-55.3.noarch.rpm38.8 KiB2024-07-02 17:26:53
texlive-harpoon-doc-2024.213.1.0svn21327-55.3.noarch.rpm52.2 KiB2024-07-02 17:26:53
texlive-realhats-doc-2024.213.7.1svn66924-55.3.noarch.rpm1.8 MiB2024-07-02 17:26:53
texlive-realscripts-doc-2024.213.0.0.3dsvn56594-55.3.noarch.rpm134.4 KiB2024-07-02 17:26:53
texlive-realtranspose-doc-2024.213.1.1svn56623-55.3.noarch.rpm119.5 KiB2024-07-02 17:26:53
texlive-hausarbeit-jura-2024.213.2.1.0svn56070-55.3.noarch.rpm39.4 KiB2024-07-02 17:26:53
texlive-realscripts-2024.213.0.0.3dsvn56594-55.3.noarch.rpm35.8 KiB2024-07-02 17:26:53
texlive-hatching-2024.213.0.0.11svn23818-55.3.noarch.rpm35.1 KiB2024-07-02 17:26:53
texlive-realhats-2024.213.7.1svn66924-55.3.noarch.rpm1.7 MiB2024-07-02 17:26:53
texlive-readablecv-2024.213.4.0svn67986-55.3.noarch.rpm37.8 KiB2024-07-02 17:26:53
texlive-realboxes-2024.213.0.0.2svn64967-55.3.noarch.rpm37.0 KiB2024-07-02 17:26:53
texlive-readablecv-doc-2024.213.4.0svn67986-55.3.noarch.rpm235.2 KiB2024-07-02 17:26:53
texlive-readarray-doc-2024.213.3.1svn60540-55.3.noarch.rpm524.5 KiB2024-07-02 17:26:53
texlive-harpoon-2024.213.1.0svn21327-55.3.noarch.rpm34.9 KiB2024-07-02 17:26:53
texlive-harveyballs-doc-2024.213.1.1svn32003-55.3.noarch.rpm168.0 KiB2024-07-02 17:26:53
texlive-harveyballs-2024.213.1.1svn32003-55.3.noarch.rpm34.9 KiB2024-07-02 17:26:53
texlive-realboxes-doc-2024.213.0.0.2svn64967-55.3.noarch.rpm203.9 KiB2024-07-02 17:26:53
texlive-realtranspose-2024.213.1.1svn56623-55.3.noarch.rpm35.2 KiB2024-07-02 17:26:53
texlive-harvard-doc-2024.213.2.0.5svn15878-55.3.noarch.rpm107.4 KiB2024-07-02 17:26:53
texlive-hatching-doc-2024.213.0.0.11svn23818-55.3.noarch.rpm35.5 KiB2024-07-02 17:26:53
texlive-harvard-2024.213.2.0.5svn15878-55.3.noarch.rpm51.4 KiB2024-07-02 17:26:53
texlive-readarray-2024.213.3.1svn60540-55.3.noarch.rpm39.4 KiB2024-07-02 17:26:53
texlive-harnon-cv-doc-2024.213.1.0svn26543-55.3.noarch.rpm82.7 KiB2024-07-02 17:26:53
texlive-rcs-multi-2024.213.0.0.1asvn64967-55.3.noarch.rpm36.6 KiB2024-07-02 17:26:52
texlive-rcs-multi-doc-2024.213.0.0.1asvn64967-55.3.noarch.rpm667.9 KiB2024-07-02 17:26:52
texlive-rbt-mathnotes-doc-2024.213.1.0.2svn61193-55.3.noarch.rpm243.2 KiB2024-07-02 17:26:52
texlive-hardwrap-doc-2024.213.0.0.2svn21396-55.3.noarch.rpm149.1 KiB2024-07-02 17:26:52
texlive-rank-2-roots-2024.213.1.2svn68161-55.3.noarch.rpm38.1 KiB2024-07-02 17:26:52
texlive-harmony-2024.213.svn15878-55.3.noarch.rpm36.1 KiB2024-07-02 17:26:52
texlive-rccol-2024.213.1.2csvn15878-55.3.noarch.rpm35.9 KiB2024-07-02 17:26:52
texlive-rcs-doc-2024.213.svn15878-55.3.noarch.rpm152.2 KiB2024-07-02 17:26:52
texlive-hardwrap-2024.213.0.0.2svn21396-55.3.noarch.rpm36.5 KiB2024-07-02 17:26:52
texlive-rbt-mathnotes-2024.213.1.0.2svn61193-55.3.noarch.rpm47.2 KiB2024-07-02 17:26:52
texlive-haranoaji-fonts-2024.213.20231009svn68501-55.3.noarch.rpm27.0 MiB2024-07-02 17:26:52
texlive-haranoaji-extra-fonts-2024.213.20231009svn68500-55.3.noarch.rpm26.9 MiB2024-07-02 17:26:52
texlive-rcs-2024.213.svn15878-55.3.noarch.rpm46.5 KiB2024-07-02 17:26:52
texlive-harmony-doc-2024.213.svn15878-55.3.noarch.rpm168.1 KiB2024-07-02 17:26:52
texlive-rcsinfo-2024.213.1.11svn15878-55.3.noarch.rpm36.9 KiB2024-07-02 17:26:52
texlive-rank-2-roots-doc-2024.213.1.2svn68161-55.3.noarch.rpm468.1 KiB2024-07-02 17:26:52
texlive-rcsinfo-doc-2024.213.1.11svn15878-55.3.noarch.rpm178.0 KiB2024-07-02 17:26:52
texlive-rccol-doc-2024.213.1.2csvn15878-55.3.noarch.rpm172.3 KiB2024-07-02 17:26:52
texlive-hanzibox-doc-2024.213.2.3.0svn63062-55.3.noarch.rpm611.2 KiB2024-07-02 17:26:51
texlive-randomwalk-2024.213.0.0.6svn49513-55.3.noarch.rpm35.9 KiB2024-07-02 17:26:51
texlive-haranoaji-2024.213.20231009svn68501-55.3.noarch.rpm39.5 KiB2024-07-02 17:26:51
texlive-ran_toks-doc-2024.213.svn59515-55.3.noarch.rpm545.4 KiB2024-07-02 17:26:51
texlive-randtext-doc-2024.213.svn15878-55.3.noarch.rpm33.5 KiB2024-07-02 17:26:51
texlive-randexam-doc-2024.213.2024esvn69960-55.3.noarch.rpm257.8 KiB2024-07-02 17:26:51
texlive-har2nat-doc-2024.213.1.0svn54080-55.3.noarch.rpm242.9 KiB2024-07-02 17:26:51
texlive-randtext-2024.213.svn15878-55.3.noarch.rpm36.5 KiB2024-07-02 17:26:51
texlive-haranoaji-extra-2024.213.20231009svn68500-55.3.noarch.rpm35.3 KiB2024-07-02 17:26:51
texlive-randbild-doc-2024.213.0.0.2svn15878-55.3.noarch.rpm101.4 KiB2024-07-02 17:26:51
texlive-raleway-fonts-2024.213.1.4svn42629-55.3.noarch.rpm2.0 MiB2024-07-02 17:26:51
texlive-randexam-2024.213.2024esvn69960-55.3.noarch.rpm46.1 KiB2024-07-02 17:26:51
texlive-random-doc-2024.213.0.0.2svn54723-55.3.noarch.rpm109.0 KiB2024-07-02 17:26:51
texlive-ran_toks-2024.213.svn59515-55.3.noarch.rpm39.3 KiB2024-07-02 17:26:51
texlive-randomlist-doc-2024.213.1.3svn45281-55.3.noarch.rpm415.4 KiB2024-07-02 17:26:51
texlive-randbild-2024.213.0.0.2svn15878-55.3.noarch.rpm35.2 KiB2024-07-02 17:26:51
texlive-haranoaji-doc-2024.213.20231009svn68501-55.3.noarch.rpm36.1 KiB2024-07-02 17:26:51
texlive-random-2024.213.0.0.2svn54723-55.3.noarch.rpm35.9 KiB2024-07-02 17:26:51
texlive-happy4th-2024.213.20120102svn25020-55.3.noarch.rpm85.5 KiB2024-07-02 17:26:51
texlive-haranoaji-extra-doc-2024.213.20231009svn68500-55.3.noarch.rpm36.1 KiB2024-07-02 17:26:51
texlive-randomwalk-doc-2024.213.0.0.6svn49513-55.3.noarch.rpm498.3 KiB2024-07-02 17:26:51
texlive-har2nat-2024.213.1.0svn54080-55.3.noarch.rpm35.0 KiB2024-07-02 17:26:51
texlive-randomlist-2024.213.1.3svn45281-55.3.noarch.rpm38.8 KiB2024-07-02 17:26:51
texlive-quran-en-doc-2024.213.0.0.1svn68790-55.3.noarch.rpm178.1 KiB2024-07-02 17:26:50
texlive-ragged2e-doc-2024.213.3.6svn67441-55.3.noarch.rpm740.6 KiB2024-07-02 17:26:50
texlive-hands-2024.213.svn13293-55.3.noarch.rpm36.8 KiB2024-07-02 17:26:50
texlive-raleway-doc-2024.213.1.4svn42629-55.3.noarch.rpm213.9 KiB2024-07-02 17:26:50
texlive-hang-doc-2024.213.2.1svn43280-55.3.noarch.rpm85.9 KiB2024-07-02 17:26:50
texlive-raleway-2024.213.1.4svn42629-55.3.noarch.rpm631.1 KiB2024-07-02 17:26:50
texlive-handin-2024.213.0.0.1.1svn48255-55.3.noarch.rpm37.4 KiB2024-07-02 17:26:50
texlive-hanzibox-2024.213.2.3.0svn63062-55.3.noarch.rpm41.5 KiB2024-07-02 17:26:50
texlive-handoutwithnotes-2024.213.1.3svn62140-55.3.noarch.rpm37.3 KiB2024-07-02 17:26:50
texlive-hanging-doc-2024.213.1.2bsvn15878-55.3.noarch.rpm174.7 KiB2024-07-02 17:26:50
texlive-hang-2024.213.2.1svn43280-55.3.noarch.rpm34.7 KiB2024-07-02 17:26:50
texlive-hanoi-2024.213.20120101svn25019-55.3.noarch.rpm35.1 KiB2024-07-02 17:26:50
texlive-ragged2e-2024.213.3.6svn67441-55.3.noarch.rpm36.8 KiB2024-07-02 17:26:50
texlive-r_und_s-doc-2024.213.1.3isvn15878-55.3.noarch.rpm36.4 KiB2024-07-02 17:26:50
texlive-qyxf-book-doc-2024.213.3.1.0svn56319-55.3.noarch.rpm617.6 KiB2024-07-02 17:26:50
texlive-quran-id-doc-2024.213.0.0.1svn68747-55.3.noarch.rpm154.9 KiB2024-07-02 17:26:50
texlive-handin-doc-2024.213.0.0.1.1svn48255-55.3.noarch.rpm461.1 KiB2024-07-02 17:26:50
texlive-r_und_s-2024.213.1.3isvn15878-55.3.noarch.rpm50.6 KiB2024-07-02 17:26:50
texlive-hanging-2024.213.1.2bsvn15878-55.3.noarch.rpm35.7 KiB2024-07-02 17:26:50
texlive-hamnosys-fonts-2024.213.1.0.3svn61941-55.3.noarch.rpm55.2 KiB2024-07-02 17:26:50
texlive-handout-doc-2024.213.1.6.0svn43962-55.3.noarch.rpm226.8 KiB2024-07-02 17:26:50
texlive-quran-id-2024.213.0.0.1svn68747-55.3.noarch.rpm822.4 KiB2024-07-02 17:26:50
texlive-quran-ur-2024.213.0.0.22svn68314-55.3.noarch.rpm1.8 MiB2024-07-02 17:26:50
texlive-handout-2024.213.1.6.0svn43962-55.3.noarch.rpm35.8 KiB2024-07-02 17:26:50
texlive-qyxf-book-2024.213.3.1.0svn56319-55.3.noarch.rpm39.8 KiB2024-07-02 17:26:50
texlive-handoutwithnotes-doc-2024.213.1.3svn62140-55.3.noarch.rpm341.1 KiB2024-07-02 17:26:50
texlive-quran-ur-doc-2024.213.0.0.22svn68314-55.3.noarch.rpm183.4 KiB2024-07-02 17:26:50
texlive-quotmark-doc-2024.213.1.0svn15878-55.3.noarch.rpm171.2 KiB2024-07-02 17:26:49
texlive-halloweenmath-doc-2024.213.0.0.11svn52602-55.3.noarch.rpm894.5 KiB2024-07-02 17:26:49
texlive-hackthefootline-2024.213.svn46494-55.3.noarch.rpm38.3 KiB2024-07-02 17:26:49
texlive-quran-doc-2024.213.2.2svn67791-55.3.noarch.rpm1.0 MiB2024-07-02 17:26:49
texlive-quran-2024.213.2.2svn67791-55.3.noarch.rpm1.6 MiB2024-07-02 17:26:49
texlive-quotmark-2024.213.1.0svn15878-55.3.noarch.rpm44.3 KiB2024-07-02 17:26:49
texlive-hackthefootline-doc-2024.213.svn46494-55.3.noarch.rpm211.6 KiB2024-07-02 17:26:49
texlive-hamnosys-2024.213.1.0.3svn61941-55.3.noarch.rpm37.2 KiB2024-07-02 17:26:49
texlive-quran-en-2024.213.0.0.1svn68790-55.3.noarch.rpm2.6 MiB2024-07-02 17:26:49
texlive-quran-bn-2024.213.0.0.2svn68345-55.3.noarch.rpm561.4 KiB2024-07-02 17:26:49
texlive-quotchap-doc-2024.213.1.3svn56926-55.3.noarch.rpm317.5 KiB2024-07-02 17:26:49
texlive-hacm-2024.213.0.0.1svn27671-55.3.noarch.rpm51.3 KiB2024-07-02 17:26:49
texlive-quoting-2024.213.0.0.1csvn32818-55.3.noarch.rpm35.7 KiB2024-07-02 17:26:49
texlive-hacm-fonts-2024.213.0.0.1svn27671-55.3.noarch.rpm247.5 KiB2024-07-02 17:26:49
texlive-hamnosys-doc-2024.213.1.0.3svn61941-55.3.noarch.rpm208.5 KiB2024-07-02 17:26:49
texlive-quran-de-doc-2024.213.0.0.2svn54191-55.3.noarch.rpm159.9 KiB2024-07-02 17:26:49
texlive-hacm-doc-2024.213.0.0.1svn27671-55.3.noarch.rpm232.7 KiB2024-07-02 17:26:49
texlive-quoting-doc-2024.213.0.0.1csvn32818-55.3.noarch.rpm330.3 KiB2024-07-02 17:26:49
texlive-halloweenmath-2024.213.0.0.11svn52602-55.3.noarch.rpm43.1 KiB2024-07-02 17:26:49
texlive-ha-prosper-2024.213.4.21svn59651-55.3.noarch.rpm65.2 KiB2024-07-02 17:26:49
texlive-hagenberg-thesis-doc-2024.213.svn65819-55.3.noarch.rpm2.5 MiB2024-07-02 17:26:49
texlive-quran-de-2024.213.0.0.2svn54191-55.3.noarch.rpm651.4 KiB2024-07-02 17:26:49
texlive-hagenberg-thesis-2024.213.svn65819-55.3.noarch.rpm56.0 KiB2024-07-02 17:26:49
texlive-quran-bn-doc-2024.213.0.0.2svn68345-55.3.noarch.rpm175.6 KiB2024-07-02 17:26:49
texlive-ha-prosper-doc-2024.213.4.21svn59651-55.3.noarch.rpm232.6 KiB2024-07-02 17:26:49
texlive-quiz2socrative-doc-2024.213.1.0svn52276-55.3.noarch.rpm240.2 KiB2024-07-02 17:26:48
texlive-quicktype-2024.213.0.0.1svn42183-55.3.noarch.rpm34.7 KiB2024-07-02 17:26:48
texlive-quiver-2024.213.1.3.0svn67779-55.3.noarch.rpm35.1 KiB2024-07-02 17:26:48
texlive-quattrocento-2024.213.svn64372-55.3.noarch.rpm184.6 KiB2024-07-02 17:26:48
texlive-guitartabs-doc-2024.213.svn48102-55.3.noarch.rpm232.4 KiB2024-07-02 17:26:48
texlive-h2020proposal-doc-2024.213.1.0svn38428-55.3.noarch.rpm376.1 KiB2024-07-02 17:26:48
texlive-guitarchordschemes-doc-2024.213.0.0.7svn54512-55.3.noarch.rpm446.8 KiB2024-07-02 17:26:48
texlive-quotchap-2024.213.1.3svn56926-55.3.noarch.rpm36.6 KiB2024-07-02 17:26:48
texlive-gustlib-2024.213.svn54074-55.3.noarch.rpm78.4 KiB2024-07-02 17:26:48
texlive-quizztex-2024.213.0.0.1.2svn68823-55.3.noarch.rpm39.4 KiB2024-07-02 17:26:48
texlive-gzt-2024.213.1.1.4svn70532-55.3.noarch.rpm70.3 KiB2024-07-02 17:26:48
texlive-quicktype-doc-2024.213.0.0.1svn42183-55.3.noarch.rpm209.0 KiB2024-07-02 17:26:48
texlive-quizztex-doc-2024.213.0.0.1.2svn68823-55.3.noarch.rpm555.2 KiB2024-07-02 17:26:48
texlive-guitartabs-2024.213.svn48102-55.3.noarch.rpm36.4 KiB2024-07-02 17:26:48
texlive-gustprog-2024.213.svn54074-55.3.noarch.rpm325.5 KiB2024-07-02 17:26:48
texlive-h2020proposal-2024.213.1.0svn38428-55.3.noarch.rpm42.2 KiB2024-07-02 17:26:48
texlive-quiver-doc-2024.213.1.3.0svn67779-55.3.noarch.rpm211.8 KiB2024-07-02 17:26:48
texlive-quickreaction-doc-2024.213.1.02.01svn66867-55.3.noarch.rpm277.8 KiB2024-07-02 17:26:48
texlive-guitlogo-2024.213.1.0.0_alpha.4svn55741-55.3.noarch.rpm37.6 KiB2024-07-02 17:26:48
texlive-gzt-doc-2024.213.1.1.4svn70532-55.3.noarch.rpm1.2 MiB2024-07-02 17:26:48
texlive-gustlib-doc-2024.213.svn54074-55.3.noarch.rpm37.5 KiB2024-07-02 17:26:48
texlive-quattrocento-fonts-2024.213.svn64372-55.3.noarch.rpm675.1 KiB2024-07-02 17:26:48
texlive-quattrocento-doc-2024.213.svn64372-55.3.noarch.rpm176.5 KiB2024-07-02 17:26:48
texlive-quiz2socrative-2024.213.1.0svn52276-55.3.noarch.rpm36.4 KiB2024-07-02 17:26:48
texlive-guitlogo-doc-2024.213.1.0.0_alpha.4svn55741-55.3.noarch.rpm489.9 KiB2024-07-02 17:26:48
texlive-quickreaction-2024.213.1.02.01svn66867-55.3.noarch.rpm35.5 KiB2024-07-02 17:26:48
texlive-guitarchordschemes-2024.213.0.0.7svn54512-55.3.noarch.rpm38.8 KiB2024-07-02 17:26:48
texlive-qtree-2024.213.3.1bsvn15878-55.3.noarch.rpm41.9 KiB2024-07-02 17:26:47
texlive-gtl-doc-2024.213.0.0.6svn69297-55.3.noarch.rpm595.6 KiB2024-07-02 17:26:47
texlive-gtl-2024.213.0.0.6svn69297-55.3.noarch.rpm37.6 KiB2024-07-02 17:26:47
texlive-gtrcrd-doc-2024.213.1.1svn32484-55.3.noarch.rpm176.4 KiB2024-07-02 17:26:47
texlive-quantikz-2024.213.1.0.1svn67206-55.3.noarch.rpm54.1 KiB2024-07-02 17:26:47
texlive-gtrcrd-2024.213.1.1svn32484-55.3.noarch.rpm36.9 KiB2024-07-02 17:26:47
texlive-gu-doc-2024.213.svn15878-55.3.noarch.rpm736.5 KiB2024-07-02 17:26:47
texlive-qualitype-doc-2024.213.svn54512-55.3.noarch.rpm59.5 KiB2024-07-02 17:26:47
texlive-qsymbols-2024.213.svn15878-55.3.noarch.rpm41.5 KiB2024-07-02 17:26:47
texlive-gu-2024.213.svn15878-55.3.noarch.rpm40.0 KiB2024-07-02 17:26:47
texlive-quantumarticle-2024.213.6.1svn65242-55.3.noarch.rpm59.6 KiB2024-07-02 17:26:47
texlive-gudea-fonts-2024.213.0.0.0.1svn57359-55.3.noarch.rpm200.6 KiB2024-07-02 17:26:47
texlive-qstest-doc-2024.213.svn15878-55.3.noarch.rpm246.7 KiB2024-07-02 17:26:47
texlive-qualitype-2024.213.svn54512-55.3.noarch.rpm54.0 KiB2024-07-02 17:26:47
texlive-quantumarticle-doc-2024.213.6.1svn65242-55.3.noarch.rpm1.3 MiB2024-07-02 17:26:47
texlive-gtrlib-largetrees-doc-2024.213.1.2bsvn49062-55.3.noarch.rpm336.7 KiB2024-07-02 17:26:47
texlive-guitar-2024.213.1.6svn32258-55.3.noarch.rpm36.1 KiB2024-07-02 17:26:47
texlive-guitar-doc-2024.213.1.6svn32258-55.3.noarch.rpm121.7 KiB2024-07-02 17:26:47
texlive-qsymbols-doc-2024.213.svn15878-55.3.noarch.rpm160.4 KiB2024-07-02 17:26:47
texlive-gudea-doc-2024.213.0.0.0.1svn57359-55.3.noarch.rpm81.3 KiB2024-07-02 17:26:47
texlive-qtree-doc-2024.213.3.1bsvn15878-55.3.noarch.rpm239.1 KiB2024-07-02 17:26:47
texlive-guide-to-latex-2024.213.svn45712-55.3.noarch.rpm223.7 KiB2024-07-02 17:26:47
texlive-qualitype-fonts-2024.213.svn54512-55.3.noarch.rpm2.6 MiB2024-07-02 17:26:47
texlive-gudea-2024.213.0.0.0.1svn57359-55.3.noarch.rpm61.4 KiB2024-07-02 17:26:47
texlive-gtrlib-largetrees-2024.213.1.2bsvn49062-55.3.noarch.rpm36.2 KiB2024-07-02 17:26:47
texlive-quantikz-doc-2024.213.1.0.1svn67206-55.3.noarch.rpm608.2 KiB2024-07-02 17:26:47
texlive-grotesq-doc-2024.213.svn35859-55.3.noarch.rpm35.8 KiB2024-07-02 17:26:46
texlive-grotesq-2024.213.svn35859-55.3.noarch.rpm57.5 KiB2024-07-02 17:26:46
texlive-gs1-2024.213.23svn59620-55.3.noarch.rpm37.3 KiB2024-07-02 17:26:46
texlive-gsftopk-2024.213.1.19.2svn52851-55.3.noarch.rpm37.2 KiB2024-07-02 17:26:46
texlive-qpxqtx-2024.213.svn45797-55.3.noarch.rpm51.6 KiB2024-07-02 17:26:46
texlive-qpxqtx-doc-2024.213.svn45797-55.3.noarch.rpm40.8 KiB2024-07-02 17:26:46
texlive-qrbill-2024.213.2.01svn67724-55.3.noarch.rpm58.7 KiB2024-07-02 17:26:46
texlive-qrbill-doc-2024.213.2.01svn67724-55.3.noarch.rpm123.4 KiB2024-07-02 17:26:46
texlive-gs1-doc-2024.213.23svn59620-55.3.noarch.rpm1.0 MiB2024-07-02 17:26:46
texlive-qobitree-2024.213.svn15878-55.3.noarch.rpm36.5 KiB2024-07-02 17:26:46
texlive-gsemthesis-2024.213.0.0.9.4svn56291-55.3.noarch.rpm37.2 KiB2024-07-02 17:26:46
texlive-qstest-2024.213.svn15878-55.3.noarch.rpm38.9 KiB2024-07-02 17:26:46
texlive-qrcode-2024.213.1.51svn36065-55.3.noarch.rpm53.2 KiB2024-07-02 17:26:46
texlive-qcircuit-doc-2024.213.2.6.0svn48400-55.3.noarch.rpm321.9 KiB2024-07-02 17:26:46
texlive-qrcode-doc-2024.213.1.51svn36065-55.3.noarch.rpm272.7 KiB2024-07-02 17:26:46
texlive-gridslides-doc-2024.213.0.0.1.1svn54512-55.3.noarch.rpm588.5 KiB2024-07-02 17:26:46
texlive-grotesq-fonts-2024.213.svn35859-55.3.noarch.rpm66.2 KiB2024-07-02 17:26:46
texlive-qcm-2024.213.2.1svn63833-55.3.noarch.rpm37.6 KiB2024-07-02 17:26:46
texlive-qsharp-doc-2024.213.0.0.3.1901.1401svn49722-55.3.noarch.rpm40.3 KiB2024-07-02 17:26:46
texlive-qcm-doc-2024.213.2.1svn63833-55.3.noarch.rpm126.4 KiB2024-07-02 17:26:46
texlive-qobitree-doc-2024.213.svn15878-55.3.noarch.rpm36.7 KiB2024-07-02 17:26:46
texlive-qsharp-2024.213.0.0.3.1901.1401svn49722-55.3.noarch.rpm34.8 KiB2024-07-02 17:26:46
texlive-gsftopk-doc-2024.213.1.19.2svn52851-55.3.noarch.rpm36.5 KiB2024-07-02 17:26:46
texlive-gsemthesis-doc-2024.213.0.0.9.4svn56291-55.3.noarch.rpm320.5 KiB2024-07-02 17:26:46
texlive-gridslides-2024.213.0.0.1.1svn54512-55.3.noarch.rpm36.8 KiB2024-07-02 17:26:46
texlive-grundgesetze-doc-2024.213.1.03svn58997-55.3.noarch.rpm252.5 KiB2024-07-02 17:26:46
texlive-qcircuit-2024.213.2.6.0svn48400-55.3.noarch.rpm38.1 KiB2024-07-02 17:26:46
texlive-grundgesetze-2024.213.1.03svn58997-55.3.noarch.rpm36.1 KiB2024-07-02 17:26:46
texlive-grid-system-doc-2024.213.0.0.3.0svn32981-55.3.noarch.rpm89.7 KiB2024-07-02 17:26:45
texlive-pythontex-2024.213.0.0.18svn59514-55.3.noarch.rpm96.6 KiB2024-07-02 17:26:45
texlive-grfext-doc-2024.213.1.3svn53024-55.3.noarch.rpm331.1 KiB2024-07-02 17:26:45
texlive-grid-2024.213.1.0svn61719-55.3.noarch.rpm36.8 KiB2024-07-02 17:26:45
texlive-gridpapers-2024.213.1.0.2svn58723-55.3.noarch.rpm39.1 KiB2024-07-02 17:26:45
texlive-gridset-doc-2024.213.0.0.3svn53762-55.3.noarch.rpm250.3 KiB2024-07-02 17:26:45
texlive-python-2024.213.0.0.22svn60162-55.3.noarch.rpm35.6 KiB2024-07-02 17:26:45
texlive-python-doc-2024.213.0.0.22svn60162-55.3.noarch.rpm33.7 KiB2024-07-02 17:26:45
texlive-pythonhighlight-doc-2024.213.svn43191-55.3.noarch.rpm34.5 KiB2024-07-02 17:26:45
texlive-gridpapers-doc-2024.213.1.0.2svn58723-55.3.noarch.rpm253.2 KiB2024-07-02 17:26:45
texlive-grid-system-2024.213.0.0.3.0svn32981-55.3.noarch.rpm35.1 KiB2024-07-02 17:26:45
texlive-q-and-a-2024.213.svn69164-55.3.noarch.rpm43.2 KiB2024-07-02 17:26:45
texlive-pyluatex-2024.213.0.0.6.3svn69372-55.3.noarch.rpm39.4 KiB2024-07-02 17:26:45
texlive-pythonhighlight-2024.213.svn43191-55.3.noarch.rpm35.9 KiB2024-07-02 17:26:45
texlive-grfpaste-doc-2024.213.0.0.2svn17354-55.3.noarch.rpm394.2 KiB2024-07-02 17:26:45
texlive-pyluatex-doc-2024.213.0.0.6.3svn69372-55.3.noarch.rpm134.3 KiB2024-07-02 17:26:45
texlive-pythonimmediate-doc-2024.213.0.0.5.0svn69487-55.3.noarch.rpm464.7 KiB2024-07-02 17:26:45
texlive-grffile-doc-2024.213.2.1svn52756-55.3.noarch.rpm372.2 KiB2024-07-02 17:26:45
texlive-pythonimmediate-2024.213.0.0.5.0svn69487-55.3.noarch.rpm38.9 KiB2024-07-02 17:26:45
texlive-pynotebook-doc-2024.213.0.0.1.1svn69985-55.3.noarch.rpm529.3 KiB2024-07-02 17:26:45
texlive-q-and-a-doc-2024.213.svn69164-55.3.noarch.rpm608.0 KiB2024-07-02 17:26:45
texlive-pynotebook-2024.213.0.0.1.1svn69985-55.3.noarch.rpm36.7 KiB2024-07-02 17:26:45
texlive-gregoriotex-fonts-2024.213.6.0.0svn58331-55.3.noarch.rpm711.9 KiB2024-07-02 17:26:45
texlive-gridset-2024.213.0.0.3svn53762-55.3.noarch.rpm36.5 KiB2024-07-02 17:26:45
texlive-grffile-2024.213.2.1svn52756-55.3.noarch.rpm38.0 KiB2024-07-02 17:26:45
texlive-grid-doc-2024.213.1.0svn61719-55.3.noarch.rpm164.9 KiB2024-07-02 17:26:45
texlive-pythontex-doc-2024.213.0.0.18svn59514-55.3.noarch.rpm1.5 MiB2024-07-02 17:26:45
texlive-grfpaste-2024.213.0.0.2svn17354-55.3.noarch.rpm36.9 KiB2024-07-02 17:26:45
texlive-grfext-2024.213.1.3svn53024-55.3.noarch.rpm36.0 KiB2024-07-02 17:26:45
texlive-greektonoi-doc-2024.213.svn39419-55.3.noarch.rpm262.4 KiB2024-07-02 17:26:44
texlive-pxrubrica-doc-2024.213.1.3esvn66298-55.3.noarch.rpm743.0 KiB2024-07-02 17:26:44
texlive-pxpic-2024.213.1.5svn67955-55.3.noarch.rpm36.8 KiB2024-07-02 17:26:44
texlive-greekdates-doc-2024.213.1.0svn15878-55.3.noarch.rpm128.6 KiB2024-07-02 17:26:44
texlive-pxtxalfa-doc-2024.213.2svn60847-55.3.noarch.rpm236.9 KiB2024-07-02 17:26:44
texlive-greenpoint-2024.213.svn15878-55.3.noarch.rpm35.6 KiB2024-07-02 17:26:44
texlive-pxufont-2024.213.0.0.7svn67573-55.3.noarch.rpm374.8 KiB2024-07-02 17:26:44
texlive-pxpgfmark-doc-2024.213.0.0.2svn30212-55.3.noarch.rpm34.8 KiB2024-07-02 17:26:44
texlive-pygmentex-doc-2024.213.0.0.11svn64131-55.3.noarch.rpm729.2 KiB2024-07-02 17:26:44
texlive-pxtatescale-2024.213.0.0.4svn63967-55.3.noarch.rpm34.7 KiB2024-07-02 17:26:44
texlive-greektex-doc-2024.213.svn28327-55.3.noarch.rpm343.8 KiB2024-07-02 17:26:44
texlive-pxufont-doc-2024.213.0.0.7svn67573-55.3.noarch.rpm35.3 KiB2024-07-02 17:26:44
texlive-pxrubrica-2024.213.1.3esvn66298-55.3.noarch.rpm47.4 KiB2024-07-02 17:26:44
texlive-greektonoi-2024.213.svn39419-55.3.noarch.rpm72.3 KiB2024-07-02 17:26:44
texlive-gregoriotex-doc-2024.213.6.0.0svn58331-55.3.noarch.rpm1.4 MiB2024-07-02 17:26:44
texlive-greenpoint-doc-2024.213.svn15878-55.3.noarch.rpm33.9 KiB2024-07-02 17:26:44
texlive-pxtxalfa-2024.213.2svn60847-55.3.noarch.rpm47.2 KiB2024-07-02 17:26:44
texlive-pxpic-doc-2024.213.1.5svn67955-55.3.noarch.rpm381.4 KiB2024-07-02 17:26:44
texlive-pxtatescale-doc-2024.213.0.0.4svn63967-55.3.noarch.rpm34.7 KiB2024-07-02 17:26:44
texlive-greektex-2024.213.svn28327-55.3.noarch.rpm40.0 KiB2024-07-02 17:26:44
texlive-gregoriotex-2024.213.6.0.0svn58331-55.3.noarch.rpm16.3 MiB2024-07-02 17:26:44
texlive-pygmentex-2024.213.0.0.11svn64131-55.3.noarch.rpm41.6 KiB2024-07-02 17:26:44
texlive-pxfonts-doc-2024.213.svn15878-55.3.noarch.rpm444.8 KiB2024-07-02 17:26:43
texlive-greek-inputenc-2024.213.1.9svn66634-55.3.noarch.rpm41.3 KiB2024-07-02 17:26:43
texlive-greek-fontenc-2024.213.2.6svn68877-55.3.noarch.rpm69.9 KiB2024-07-02 17:26:43
texlive-pxjodel-doc-2024.213.0.0.3svn64072-55.3.noarch.rpm140.0 KiB2024-07-02 17:26:43
texlive-pxjodel-2024.213.0.0.3svn64072-55.3.noarch.rpm61.6 KiB2024-07-02 17:26:43
texlive-pxjahyper-2024.213.1.3svn66272-55.3.noarch.rpm54.5 KiB2024-07-02 17:26:43
texlive-greek-fontenc-doc-2024.213.2.6svn68877-55.3.noarch.rpm3.0 MiB2024-07-02 17:26:43
texlive-grayhints-2024.213.svn49052-55.3.noarch.rpm37.1 KiB2024-07-02 17:26:43
texlive-graphviz-doc-2024.213.0.0.94svn31517-55.3.noarch.rpm120.8 KiB2024-07-02 17:26:43
texlive-graphicxpsd-2024.213.1.2svn57341-55.3.noarch.rpm35.6 KiB2024-07-02 17:26:43
texlive-graphicxpsd-doc-2024.213.1.2svn57341-55.3.noarch.rpm450.9 KiB2024-07-02 17:26:43
texlive-graphpaper-doc-2024.213.1.1svn63116-55.3.noarch.rpm446.9 KiB2024-07-02 17:26:43
texlive-greek-inputenc-doc-2024.213.1.9svn66634-55.3.noarch.rpm676.8 KiB2024-07-02 17:26:43
texlive-pxpgfmark-2024.213.0.0.2svn30212-55.3.noarch.rpm34.4 KiB2024-07-02 17:26:43
texlive-pxgreeks-2024.213.1.0svn21838-55.3.noarch.rpm35.9 KiB2024-07-02 17:26:43
texlive-pxchfon-2024.213.2.0svn68103-55.3.noarch.rpm67.5 KiB2024-07-02 17:26:43
texlive-greekdates-2024.213.1.0svn15878-55.3.noarch.rpm37.6 KiB2024-07-02 17:26:43
texlive-pxcjkcat-doc-2024.213.1.4svn63967-55.3.noarch.rpm239.8 KiB2024-07-02 17:26:43
texlive-graphviz-2024.213.0.0.94svn31517-55.3.noarch.rpm35.6 KiB2024-07-02 17:26:43
texlive-grayhints-doc-2024.213.svn49052-55.3.noarch.rpm517.3 KiB2024-07-02 17:26:43
texlive-pxjahyper-doc-2024.213.1.3svn66272-55.3.noarch.rpm192.9 KiB2024-07-02 17:26:43
texlive-graphicxbox-doc-2024.213.1.0svn32630-55.3.noarch.rpm466.3 KiB2024-07-02 17:26:43
texlive-pxfonts-fonts-2024.213.svn15878-55.3.noarch.rpm425.2 KiB2024-07-02 17:26:43
texlive-pxfonts-2024.213.svn15878-55.3.noarch.rpm126.2 KiB2024-07-02 17:26:43
texlive-pxgreeks-doc-2024.213.1.0svn21838-55.3.noarch.rpm88.4 KiB2024-07-02 17:26:43
texlive-graphpaper-2024.213.1.1svn63116-55.3.noarch.rpm38.8 KiB2024-07-02 17:26:43
texlive-pxchfon-doc-2024.213.2.0svn68103-55.3.noarch.rpm362.0 KiB2024-07-02 17:26:43
texlive-pxcjkcat-2024.213.1.4svn63967-55.3.noarch.rpm44.2 KiB2024-07-02 17:26:43
texlive-pwebmac-2024.213.4.11svn69027-55.3.noarch.rpm43.1 KiB2024-07-02 17:26:42
texlive-graphics-def-2024.213.svn64487-55.3.noarch.rpm45.0 KiB2024-07-02 17:26:42
texlive-graphicscache-doc-2024.213.0.0.4svn65318-55.3.noarch.rpm204.0 KiB2024-07-02 17:26:42
texlive-graphics-cfg-doc-2024.213.svn41448-55.3.noarch.rpm33.8 KiB2024-07-02 17:26:42
texlive-pxbase-doc-2024.213.1.4svn66187-55.3.noarch.rpm196.9 KiB2024-07-02 17:26:42
texlive-pwebmac-doc-2024.213.4.11svn69027-55.3.noarch.rpm49.3 KiB2024-07-02 17:26:42
texlive-pxbase-2024.213.1.4svn66187-55.3.noarch.rpm47.2 KiB2024-07-02 17:26:42
texlive-graphics-2024.213.svn66204-55.3.noarch.rpm52.1 KiB2024-07-02 17:26:42
texlive-graphics-cfg-2024.213.svn41448-55.3.noarch.rpm35.0 KiB2024-07-02 17:26:42
texlive-punknova-doc-2024.213.1.003svn24649-55.3.noarch.rpm172.1 KiB2024-07-02 17:26:42
texlive-purifyeps-2024.213.1.1svn29725-55.3.noarch.rpm40.5 KiB2024-07-02 17:26:42
texlive-graphics-pln-doc-2024.213.svn68760-55.3.noarch.rpm35.5 KiB2024-07-02 17:26:42
texlive-graphicx-psmin-doc-2024.213.1.2svn56931-55.3.noarch.rpm112.9 KiB2024-07-02 17:26:42
texlive-punknova-fonts-2024.213.1.003svn24649-55.3.noarch.rpm909.1 KiB2024-07-02 17:26:42
texlive-graphics-def-doc-2024.213.svn64487-55.3.noarch.rpm33.5 KiB2024-07-02 17:26:42
texlive-graphics-pln-2024.213.svn68760-55.3.noarch.rpm43.4 KiB2024-07-02 17:26:42
texlive-puyotikz-doc-2024.213.1.0.1svn57254-55.3.noarch.rpm228.7 KiB2024-07-02 17:26:42
texlive-graphicxbox-2024.213.1.0svn32630-55.3.noarch.rpm35.2 KiB2024-07-02 17:26:42
texlive-punk-doc-2024.213.svn27388-55.3.noarch.rpm34.0 KiB2024-07-02 17:26:42
texlive-graphicscache-2024.213.0.0.4svn65318-55.3.noarch.rpm37.7 KiB2024-07-02 17:26:42
texlive-graphicx-psmin-2024.213.1.2svn56931-55.3.noarch.rpm36.5 KiB2024-07-02 17:26:42
texlive-purifyeps-doc-2024.213.1.1svn29725-55.3.noarch.rpm39.2 KiB2024-07-02 17:26:42
texlive-punknova-2024.213.1.003svn24649-55.3.noarch.rpm34.8 KiB2024-07-02 17:26:42
texlive-graphics-doc-2024.213.svn66204-55.3.noarch.rpm2.4 MiB2024-07-02 17:26:42
texlive-puyotikz-2024.213.1.0.1svn57254-55.3.noarch.rpm38.0 KiB2024-07-02 17:26:42
texlive-punk-latex-doc-2024.213.1.1svn27389-55.3.noarch.rpm178.9 KiB2024-07-02 17:26:42
texlive-punk-latex-2024.213.1.1svn27389-55.3.noarch.rpm34.7 KiB2024-07-02 17:26:42
texlive-gradstudentresume-2024.213.svn38832-55.3.noarch.rpm35.4 KiB2024-07-02 17:26:41
texlive-ptext-2024.213.1.1svn30171-55.3.noarch.rpm55.3 KiB2024-07-02 17:26:41
texlive-grading-scheme-2024.213.0.0.1.1svn62505-55.3.noarch.rpm38.7 KiB2024-07-02 17:26:41
texlive-ptptex-doc-2024.213.0.0.91svn19440-55.3.noarch.rpm221.3 KiB2024-07-02 17:26:41
texlive-grading-scheme-doc-2024.213.0.0.1.1svn62505-55.3.noarch.rpm779.4 KiB2024-07-02 17:26:41
texlive-graphbox-doc-2024.213.1.1svn46360-55.3.noarch.rpm299.5 KiB2024-07-02 17:26:41
texlive-gradientframe-2024.213.0.0.2svn21387-55.3.noarch.rpm35.1 KiB2024-07-02 17:26:41
texlive-gradstudentresume-doc-2024.213.svn38832-55.3.noarch.rpm36.0 KiB2024-07-02 17:26:41
texlive-ptex-fonts-doc-2024.213.svn64330-55.3.noarch.rpm34.6 KiB2024-07-02 17:26:41
texlive-ptptex-2024.213.0.0.91svn19440-55.3.noarch.rpm43.3 KiB2024-07-02 17:26:41
texlive-ptext-doc-2024.213.1.1svn30171-55.3.noarch.rpm87.8 KiB2024-07-02 17:26:41
texlive-graphbox-2024.213.1.1svn46360-55.3.noarch.rpm35.7 KiB2024-07-02 17:26:41
texlive-grant-2024.213.0.0.0.5svn56852-55.3.noarch.rpm40.8 KiB2024-07-02 17:26:41
texlive-graph35-doc-2024.213.0.0.1.4svn66772-55.3.noarch.rpm2.2 MiB2024-07-02 17:26:41
texlive-ptlatexcommands-2024.213.0.0.1svn67125-55.3.noarch.rpm37.2 KiB2024-07-02 17:26:41
texlive-ptex-manual-2024.213.svn68147-55.3.noarch.rpm2.9 MiB2024-07-02 17:26:41
texlive-grafcet-doc-2024.213.1.3.5svn22509-55.3.noarch.rpm324.1 KiB2024-07-02 17:26:41
texlive-punk-2024.213.svn27388-55.3.noarch.rpm42.0 KiB2024-07-02 17:26:41
texlive-gradientframe-doc-2024.213.0.0.2svn21387-55.3.noarch.rpm261.6 KiB2024-07-02 17:26:41
texlive-grant-doc-2024.213.0.0.0.5svn56852-55.3.noarch.rpm140.4 KiB2024-07-02 17:26:41
texlive-ptolemaicastronomy-2024.213.1.0svn50810-55.3.noarch.rpm35.6 KiB2024-07-02 17:26:41
texlive-ptex2pdf-2024.213.20200520.0svn65953-55.3.noarch.rpm42.2 KiB2024-07-02 17:26:41
texlive-ptolemaicastronomy-doc-2024.213.1.0svn50810-55.3.noarch.rpm271.3 KiB2024-07-02 17:26:41
texlive-grafcet-2024.213.1.3.5svn22509-55.3.noarch.rpm37.3 KiB2024-07-02 17:26:41
texlive-ptlatexcommands-doc-2024.213.0.0.1svn67125-55.3.noarch.rpm160.8 KiB2024-07-02 17:26:41
texlive-graph35-2024.213.0.0.1.4svn66772-55.3.noarch.rpm57.1 KiB2024-07-02 17:26:41
texlive-ptex2pdf-doc-2024.213.20200520.0svn65953-55.3.noarch.rpm41.7 KiB2024-07-02 17:26:41
texlive-gradient-text-doc-2024.213.1.2svn65567-55.3.noarch.rpm162.1 KiB2024-07-02 17:26:40
texlive-ptex-2024.213.svn70058-55.3.noarch.rpm51.1 KiB2024-07-02 17:26:40
texlive-pstricks-add-doc-2024.213.3.94svn66887-55.3.noarch.rpm10.5 MiB2024-07-02 17:26:40
texlive-pstricks-doc-2024.213.3.19csvn69674-55.3.noarch.rpm7.3 MiB2024-07-02 17:26:40
texlive-gotoh-doc-2024.213.1.1svn44764-55.3.noarch.rpm315.5 KiB2024-07-02 17:26:40
texlive-grabbox-2024.213.1.4svn65223-55.3.noarch.rpm35.2 KiB2024-07-02 17:26:40
texlive-ptex-fonts-2024.213.svn64330-55.3.noarch.rpm74.0 KiB2024-07-02 17:26:40
texlive-ptex-base-doc-2024.213.svn64072-55.3.noarch.rpm34.5 KiB2024-07-02 17:26:40
texlive-pstring-2024.213.svn42857-55.3.noarch.rpm41.2 KiB2024-07-02 17:26:40
texlive-gradient-text-2024.213.1.2svn65567-55.3.noarch.rpm34.7 KiB2024-07-02 17:26:40
texlive-pstring-doc-2024.213.svn42857-55.3.noarch.rpm153.7 KiB2024-07-02 17:26:40
texlive-ptex-fontmaps-2024.213.20210625.0svn65953-55.3.noarch.rpm115.6 KiB2024-07-02 17:26:40
texlive-ptex-base-2024.213.svn64072-55.3.noarch.rpm44.6 KiB2024-07-02 17:26:40
texlive-gofonts-2024.213.svn64358-55.3.noarch.rpm113.2 KiB2024-07-02 17:26:40
texlive-gothic-doc-2024.213.svn49869-55.3.noarch.rpm223.3 KiB2024-07-02 17:26:40
texlive-gofonts-fonts-2024.213.svn64358-55.3.noarch.rpm1.3 MiB2024-07-02 17:26:40
texlive-grabbox-doc-2024.213.1.4svn65223-55.3.noarch.rpm375.5 KiB2024-07-02 17:26:40
texlive-gotoh-2024.213.1.1svn44764-55.3.noarch.rpm36.3 KiB2024-07-02 17:26:40
texlive-gothic-2024.213.svn49869-55.3.noarch.rpm175.6 KiB2024-07-02 17:26:40
texlive-gofonts-doc-2024.213.svn64358-55.3.noarch.rpm329.0 KiB2024-07-02 17:26:40
texlive-ptex-fontmaps-doc-2024.213.20210625.0svn65953-55.3.noarch.rpm186.5 KiB2024-07-02 17:26:40
texlive-gost-doc-2024.213.1.2lsvn57616-55.3.noarch.rpm1.8 MiB2024-07-02 17:26:40
texlive-gost-2024.213.1.2lsvn57616-55.3.noarch.rpm53.5 KiB2024-07-02 17:26:40
texlive-pstricks_calcnotes-2024.213.1.2svn34363-55.3.noarch.rpm1.1 MiB2024-07-02 17:26:40
texlive-gmverse-2024.213.0.0.73svn29803-55.3.noarch.rpm44.3 KiB2024-07-02 17:26:39
texlive-pstool-2024.213.1.5esvn46393-55.3.noarch.rpm40.8 KiB2024-07-02 17:26:39
texlive-gmverse-doc-2024.213.0.0.73svn29803-55.3.noarch.rpm132.3 KiB2024-07-02 17:26:39
texlive-gnu-freefont-2024.213.svn68624-55.3.noarch.rpm37.5 KiB2024-07-02 17:26:39
texlive-gnuplottex-2024.213.0.0.9.5svn54758-55.3.noarch.rpm37.2 KiB2024-07-02 17:26:39
texlive-pst2pdf-2024.213.0.0.20svn56172-55.3.noarch.rpm55.2 KiB2024-07-02 17:26:39
texlive-gobble-2024.213.0.0.2svn64967-55.3.noarch.rpm36.0 KiB2024-07-02 17:26:39
texlive-gnu-freefont-doc-2024.213.svn68624-55.3.noarch.rpm205.4 KiB2024-07-02 17:26:39
texlive-gnu-freefont-fonts-2024.213.svn68624-55.3.noarch.rpm7.4 MiB2024-07-02 17:26:39
texlive-gobble-doc-2024.213.0.0.2svn64967-55.3.noarch.rpm185.9 KiB2024-07-02 17:26:39
texlive-pstool-doc-2024.213.1.5esvn46393-55.3.noarch.rpm395.8 KiB2024-07-02 17:26:39
texlive-go-doc-2024.213.svn28628-55.3.noarch.rpm36.6 KiB2024-07-02 17:26:39
texlive-pstricks-2024.213.3.19csvn69674-55.3.noarch.rpm128.6 KiB2024-07-02 17:26:39
texlive-gnuplottex-doc-2024.213.0.0.9.5svn54758-55.3.noarch.rpm440.3 KiB2024-07-02 17:26:39
texlive-pst-vowel-doc-2024.213.1.0svn25228-55.3.noarch.rpm113.7 KiB2024-07-02 17:26:39
texlive-go-2024.213.svn28628-55.3.noarch.rpm47.4 KiB2024-07-02 17:26:39
texlive-pst2pdf-doc-2024.213.0.0.20svn56172-55.3.noarch.rpm366.6 KiB2024-07-02 17:26:39
texlive-pstricks-add-2024.213.3.94svn66887-55.3.noarch.rpm56.3 KiB2024-07-02 17:26:39
texlive-pst-vowel-2024.213.1.0svn25228-55.3.noarch.rpm35.7 KiB2024-07-02 17:26:39
texlive-pst-venn-doc-2024.213.0.0.01svn49316-55.3.noarch.rpm69.2 KiB2024-07-02 17:26:39
texlive-gmutils-doc-2024.213.0.0.996svn24287-55.3.noarch.rpm1.6 MiB2024-07-02 17:26:38
texlive-gmverb-2024.213.0.0.98svn24288-55.3.noarch.rpm50.2 KiB2024-07-02 17:26:38
texlive-pst-uml-2024.213.0.0.83svn15878-55.3.noarch.rpm41.1 KiB2024-07-02 17:26:38
texlive-gmp-doc-2024.213.1.0svn21691-55.3.noarch.rpm810.5 KiB2024-07-02 17:26:38
texlive-gmiflink-doc-2024.213.0.0.97svn15878-55.3.noarch.rpm74.4 KiB2024-07-02 17:26:38
texlive-pst-vehicle-doc-2024.213.1.3svn61438-55.3.noarch.rpm2.6 MiB2024-07-02 17:26:38
texlive-gmdoc-2024.213.0.0.993svn21292-55.3.noarch.rpm80.8 KiB2024-07-02 17:26:38
texlive-pst-vectorian-2024.213.0.0.41svn60488-55.3.noarch.rpm590.4 KiB2024-07-02 17:26:38
texlive-gmverb-doc-2024.213.0.0.98svn24288-55.3.noarch.rpm238.6 KiB2024-07-02 17:26:38
texlive-pst-vehicle-2024.213.1.3svn61438-55.3.noarch.rpm42.9 KiB2024-07-02 17:26:38
texlive-pst-tree-2024.213.1.14svn60421-55.3.noarch.rpm40.5 KiB2024-07-02 17:26:38
texlive-gmdoc-doc-2024.213.0.0.993svn21292-55.3.noarch.rpm970.6 KiB2024-07-02 17:26:38
texlive-gmdoc-enhance-2024.213.0.0.2svn15878-55.3.noarch.rpm37.3 KiB2024-07-02 17:26:38
texlive-pst-turtle-doc-2024.213.0.0.02svn52261-55.3.noarch.rpm79.2 KiB2024-07-02 17:26:38
texlive-gmutils-2024.213.0.0.996svn24287-55.3.noarch.rpm101.3 KiB2024-07-02 17:26:38
texlive-pst-turtle-2024.213.0.0.02svn52261-55.3.noarch.rpm37.8 KiB2024-07-02 17:26:38
texlive-gmiflink-2024.213.0.0.97svn15878-55.3.noarch.rpm37.2 KiB2024-07-02 17:26:38
texlive-glossaries-spanish-doc-2024.213.1.0svn35665-55.3.noarch.rpm157.5 KiB2024-07-02 17:26:38
texlive-glyphlist-2024.213.svn54074-55.3.noarch.rpm60.3 KiB2024-07-02 17:26:38
texlive-pst-tools-doc-2024.213.0.0.12svn60621-55.3.noarch.rpm138.9 KiB2024-07-02 17:26:38
texlive-pst-vectorian-doc-2024.213.0.0.41svn60488-55.3.noarch.rpm752.6 KiB2024-07-02 17:26:38
texlive-pst-tree-doc-2024.213.1.14svn60421-55.3.noarch.rpm233.3 KiB2024-07-02 17:26:38
texlive-pst-uml-doc-2024.213.0.0.83svn15878-55.3.noarch.rpm433.6 KiB2024-07-02 17:26:38
texlive-pst-venn-2024.213.0.0.01svn49316-55.3.noarch.rpm35.1 KiB2024-07-02 17:26:38
texlive-pst-tvz-doc-2024.213.1.01svn23451-55.3.noarch.rpm303.6 KiB2024-07-02 17:26:38
texlive-gmdoc-enhance-doc-2024.213.0.0.2svn15878-55.3.noarch.rpm154.9 KiB2024-07-02 17:26:38
texlive-gmp-2024.213.1.0svn21691-55.3.noarch.rpm37.6 KiB2024-07-02 17:26:38
texlive-pst-tvz-2024.213.1.01svn23451-55.3.noarch.rpm49.9 KiB2024-07-02 17:26:38
texlive-glossaries-slovene-2024.213.1.0svn51211-55.3.noarch.rpm35.4 KiB2024-07-02 17:26:37
texlive-glossaries-magyar-doc-2024.213.1.0svn35665-55.3.noarch.rpm160.1 KiB2024-07-02 17:26:37
texlive-pst-spinner-doc-2024.213.1.02svn66115-55.3.noarch.rpm1.4 MiB2024-07-02 17:26:37
texlive-pst-tools-2024.213.0.0.12svn60621-55.3.noarch.rpm40.5 KiB2024-07-02 17:26:37
texlive-glossaries-serbian-doc-2024.213.1.0svn35665-55.3.noarch.rpm158.0 KiB2024-07-02 17:26:37
texlive-pst-thick-doc-2024.213.1.0svn16369-55.3.noarch.rpm494.1 KiB2024-07-02 17:26:37
texlive-pst-spectra-doc-2024.213.0.0.91svn15878-55.3.noarch.rpm214.5 KiB2024-07-02 17:26:37
texlive-pst-stru-2024.213.0.0.13svn38613-55.3.noarch.rpm37.2 KiB2024-07-02 17:26:37
texlive-glossaries-norsk-doc-2024.213.1.0svn67141-55.3.noarch.rpm34.9 KiB2024-07-02 17:26:37
texlive-pst-soroban-doc-2024.213.1.0svn15878-55.3.noarch.rpm116.4 KiB2024-07-02 17:26:37
texlive-glossaries-italian-doc-2024.213.1.0svn35665-55.3.noarch.rpm153.2 KiB2024-07-02 17:26:37
texlive-pst-text-doc-2024.213.1.02svn49542-55.3.noarch.rpm200.1 KiB2024-07-02 17:26:37
texlive-glossaries-polish-2024.213.1.0svn35665-55.3.noarch.rpm35.9 KiB2024-07-02 17:26:37
texlive-pst-solides3d-doc-2024.213.4.35asvn68786-55.3.noarch.rpm5.6 MiB2024-07-02 17:26:37
texlive-glossaries-spanish-2024.213.1.0svn35665-55.3.noarch.rpm36.0 KiB2024-07-02 17:26:37
texlive-glossaries-portuges-doc-2024.213.1.1svn36064-55.3.noarch.rpm192.7 KiB2024-07-02 17:26:37
texlive-glossaries-norsk-2024.213.1.0svn67141-55.3.noarch.rpm35.5 KiB2024-07-02 17:26:37
texlive-glossaries-nynorsk-doc-2024.213.1.0svn67201-55.3.noarch.rpm154.0 KiB2024-07-02 17:26:37
texlive-glossaries-portuges-2024.213.1.1svn36064-55.3.noarch.rpm36.3 KiB2024-07-02 17:26:37
texlive-pst-support-2024.213.svn15878-55.3.noarch.rpm41.0 KiB2024-07-02 17:26:37
texlive-pst-soroban-2024.213.1.0svn15878-55.3.noarch.rpm35.3 KiB2024-07-02 17:26:37
texlive-glossaries-serbian-2024.213.1.0svn35665-55.3.noarch.rpm35.9 KiB2024-07-02 17:26:37
texlive-pst-stru-doc-2024.213.0.0.13svn38613-55.3.noarch.rpm191.8 KiB2024-07-02 17:26:37
texlive-glossaries-slovene-doc-2024.213.1.0svn51211-55.3.noarch.rpm153.6 KiB2024-07-02 17:26:37
texlive-glossaries-nynorsk-2024.213.1.0svn67201-55.3.noarch.rpm35.4 KiB2024-07-02 17:26:37
texlive-glossaries-magyar-2024.213.1.0svn35665-55.3.noarch.rpm36.0 KiB2024-07-02 17:26:37
texlive-pst-spectra-2024.213.0.0.91svn15878-55.3.noarch.rpm117.1 KiB2024-07-02 17:26:37
texlive-glossaries-polish-doc-2024.213.1.0svn35665-55.3.noarch.rpm157.3 KiB2024-07-02 17:26:37
texlive-pst-text-2024.213.1.02svn49542-55.3.noarch.rpm38.3 KiB2024-07-02 17:26:37
texlive-pst-thick-2024.213.1.0svn16369-55.3.noarch.rpm35.8 KiB2024-07-02 17:26:37
texlive-pst-spinner-2024.213.1.02svn66115-55.3.noarch.rpm36.8 KiB2024-07-02 17:26:37
texlive-pst-solarsystem-2024.213.0.0.15svn69675-55.3.noarch.rpm39.5 KiB2024-07-02 17:26:36
texlive-pst-slpe-2024.213.1.31svn24391-55.3.noarch.rpm37.3 KiB2024-07-02 17:26:36
texlive-pst-sigsys-2024.213.1.4svn21667-55.3.noarch.rpm38.7 KiB2024-07-02 17:26:36
texlive-pst-solarsystem-doc-2024.213.0.0.15svn69675-55.3.noarch.rpm489.8 KiB2024-07-02 17:26:36
texlive-glossaries-irish-2024.213.1.0svn35665-55.3.noarch.rpm35.9 KiB2024-07-02 17:26:36
texlive-glossaries-extra-doc-2024.213.1.53svn68409-55.3.noarch.rpm16.9 MiB2024-07-02 17:26:36
texlive-glossaries-irish-doc-2024.213.1.0svn35665-55.3.noarch.rpm157.8 KiB2024-07-02 17:26:36
texlive-glossaries-french-2024.213.1.1svn42873-55.3.noarch.rpm35.3 KiB2024-07-02 17:26:36
texlive-pst-slpe-doc-2024.213.1.31svn24391-55.3.noarch.rpm272.2 KiB2024-07-02 17:26:36
texlive-glossaries-french-doc-2024.213.1.1svn42873-55.3.noarch.rpm221.3 KiB2024-07-02 17:26:36
texlive-glossaries-finnish-doc-2024.213.1.0svn54080-55.3.noarch.rpm168.6 KiB2024-07-02 17:26:36
texlive-glossaries-german-2024.213.1.0svn35665-55.3.noarch.rpm35.3 KiB2024-07-02 17:26:36
texlive-glossaries-finnish-2024.213.1.0svn54080-55.3.noarch.rpm35.9 KiB2024-07-02 17:26:36
texlive-glossaries-german-doc-2024.213.1.0svn35665-55.3.noarch.rpm153.7 KiB2024-07-02 17:26:36
texlive-pst-solides3d-2024.213.4.35asvn68786-55.3.noarch.rpm90.5 KiB2024-07-02 17:26:36
texlive-pst-sigsys-doc-2024.213.1.4svn21667-55.3.noarch.rpm317.3 KiB2024-07-02 17:26:36
texlive-glossaries-italian-2024.213.1.0svn35665-55.3.noarch.rpm35.3 KiB2024-07-02 17:26:36
texlive-pst-shell-doc-2024.213.0.0.03svn56070-55.3.noarch.rpm15.3 MiB2024-07-02 17:26:36
texlive-pst-pulley-2024.213.0.0.02svn62977-55.3.noarch.rpm38.7 KiB2024-07-02 17:26:35
texlive-pst-rputover-2024.213.1.0svn44724-55.3.noarch.rpm36.5 KiB2024-07-02 17:26:35
texlive-pst-qtree-2024.213.svn15878-55.3.noarch.rpm35.7 KiB2024-07-02 17:26:35
texlive-pst-shell-2024.213.0.0.03svn56070-55.3.noarch.rpm37.3 KiB2024-07-02 17:26:35
texlive-pst-rubans-doc-2024.213.1.2svn23464-55.3.noarch.rpm584.6 KiB2024-07-02 17:26:35
texlive-pst-rputover-doc-2024.213.1.0svn44724-55.3.noarch.rpm117.7 KiB2024-07-02 17:26:35
texlive-glossaries-dutch-doc-2024.213.1.1svn35685-55.3.noarch.rpm183.7 KiB2024-07-02 17:26:35
texlive-glossaries-danish-2024.213.1.0svn35665-55.3.noarch.rpm35.3 KiB2024-07-02 17:26:35
texlive-glossaries-english-doc-2024.213.1.0svn35665-55.3.noarch.rpm152.9 KiB2024-07-02 17:26:35
texlive-pst-pulley-doc-2024.213.0.0.02svn62977-55.3.noarch.rpm154.1 KiB2024-07-02 17:26:35
texlive-pst-poly-doc-2024.213.1.63svn35062-55.3.noarch.rpm172.4 KiB2024-07-02 17:26:35
texlive-glossaries-danish-doc-2024.213.1.0svn35665-55.3.noarch.rpm153.4 KiB2024-07-02 17:26:35
texlive-pst-rubans-2024.213.1.2svn23464-55.3.noarch.rpm37.1 KiB2024-07-02 17:26:35
texlive-pst-poly-2024.213.1.63svn35062-55.3.noarch.rpm37.1 KiB2024-07-02 17:26:35
texlive-glossaries-estonian-2024.213.1.0svn49928-55.3.noarch.rpm36.0 KiB2024-07-02 17:26:35
texlive-pst-qtree-doc-2024.213.svn15878-55.3.noarch.rpm57.6 KiB2024-07-02 17:26:35
texlive-glossaries-english-2024.213.1.0svn35665-55.3.noarch.rpm35.3 KiB2024-07-02 17:26:35
texlive-glossaries-2024.213.4.53svn68437-55.3.noarch.rpm141.5 KiB2024-07-02 17:26:35
texlive-glossaries-estonian-doc-2024.213.1.0svn49928-55.3.noarch.rpm54.9 KiB2024-07-02 17:26:35
texlive-glossaries-dutch-2024.213.1.1svn35685-55.3.noarch.rpm35.3 KiB2024-07-02 17:26:35
texlive-glossaries-extra-2024.213.1.53svn68409-55.3.noarch.rpm141.7 KiB2024-07-02 17:26:35
texlive-glossaries-doc-2024.213.4.53svn68437-55.3.noarch.rpm10.5 MiB2024-07-02 17:26:35
texlive-gitstatus-doc-2024.213.1.1svn64662-55.3.noarch.rpm314.9 KiB2024-07-02 17:26:34
texlive-gloss-occitan-2024.213.0.0.1svn52593-55.3.noarch.rpm40.0 KiB2024-07-02 17:26:34
texlive-gitstatus-2024.213.1.1svn64662-55.3.noarch.rpm35.4 KiB2024-07-02 17:26:34
texlive-glosmathtools-2024.213.1.0.0svn55920-55.3.noarch.rpm37.8 KiB2024-07-02 17:26:34
texlive-pst-poker-doc-2024.213.0.0.03bsvn65818-55.3.noarch.rpm718.5 KiB2024-07-02 17:26:34
texlive-globalvals-doc-2024.213.1.1svn49962-55.3.noarch.rpm185.6 KiB2024-07-02 17:26:34
texlive-pst-platon-doc-2024.213.0.0.01svn16538-55.3.noarch.rpm123.4 KiB2024-07-02 17:26:34
texlive-pst-platon-2024.213.0.0.01svn16538-55.3.noarch.rpm36.5 KiB2024-07-02 17:26:34
texlive-gitver-2024.213.1.4svn63920-55.3.noarch.rpm36.8 KiB2024-07-02 17:26:34
texlive-gitlog-doc-2024.213.0.0.0.betasvn38932-55.3.noarch.rpm130.5 KiB2024-07-02 17:26:34
texlive-pst-perspective-doc-2024.213.1.05svn39585-55.3.noarch.rpm1.2 MiB2024-07-02 17:26:34
texlive-pst-pdgr-doc-2024.213.0.0.4svn45875-55.3.noarch.rpm200.4 KiB2024-07-02 17:26:34
texlive-pst-perspective-2024.213.1.05svn39585-55.3.noarch.rpm37.4 KiB2024-07-02 17:26:34
texlive-gitver-doc-2024.213.1.4svn63920-55.3.noarch.rpm170.1 KiB2024-07-02 17:26:34
texlive-pst-pdf-doc-2024.213.1.2fsvn56622-55.3.noarch.rpm967.1 KiB2024-07-02 17:26:34
texlive-pst-plot-doc-2024.213.1.94svn65346-55.3.noarch.rpm1.3 MiB2024-07-02 17:26:34
texlive-glosmathtools-doc-2024.213.1.0.0svn55920-55.3.noarch.rpm549.2 KiB2024-07-02 17:26:34
texlive-gloss-2024.213.1.5.2svn15878-55.3.noarch.rpm39.7 KiB2024-07-02 17:26:34
texlive-pst-pdgr-2024.213.0.0.4svn45875-55.3.noarch.rpm37.4 KiB2024-07-02 17:26:34
texlive-pst-poker-2024.213.0.0.03bsvn65818-55.3.noarch.rpm2.3 MiB2024-07-02 17:26:34
texlive-globalvals-2024.213.1.1svn49962-55.3.noarch.rpm35.0 KiB2024-07-02 17:26:34
texlive-gloss-occitan-doc-2024.213.0.0.1svn52593-55.3.noarch.rpm100.5 KiB2024-07-02 17:26:34
texlive-gloss-doc-2024.213.1.5.2svn15878-55.3.noarch.rpm134.1 KiB2024-07-02 17:26:34
texlive-pst-plot-2024.213.1.94svn65346-55.3.noarch.rpm56.8 KiB2024-07-02 17:26:34
texlive-gitlog-2024.213.0.0.0.betasvn38932-55.3.noarch.rpm36.4 KiB2024-07-02 17:26:33
texlive-gitinfo2-2024.213.2.0.7svn38913-55.3.noarch.rpm37.6 KiB2024-07-02 17:26:33
texlive-gitinfo2-doc-2024.213.2.0.7svn38913-55.3.noarch.rpm167.6 KiB2024-07-02 17:26:33
texlive-gitinfo-lua-doc-2024.213.1.0.2svn70112-55.3.noarch.rpm147.6 KiB2024-07-02 17:26:33
texlive-pst-pdf-2024.213.1.2fsvn56622-55.3.noarch.rpm41.8 KiB2024-07-02 17:26:33
texlive-gitinfo-lua-2024.213.1.0.2svn70112-55.3.noarch.rpm39.1 KiB2024-07-02 17:26:33
texlive-gitinfo-doc-2024.213.1.0svn34049-55.3.noarch.rpm115.2 KiB2024-07-02 17:26:33
texlive-gitinfo-2024.213.1.0svn34049-55.3.noarch.rpm35.9 KiB2024-07-02 17:26:33
texlive-gitfile-info-doc-2024.213.0.0.5svn51928-55.3.noarch.rpm586.5 KiB2024-07-02 17:26:33
texlive-gitfile-info-2024.213.0.0.5svn51928-55.3.noarch.rpm36.7 KiB2024-07-02 17:26:33
texlive-zxjafbfont-2024.213.0.0.2svn28539-54.3.noarch.rpm34.7 KiB2024-07-02 17:26:31
texlive-zxjafbfont-doc-2024.213.0.0.2svn28539-54.3.noarch.rpm34.8 KiB2024-07-02 17:26:31
texlive-zxjafont-doc-2024.213.1.3svn62864-54.3.noarch.rpm200.6 KiB2024-07-02 17:26:31
texlive-zxjatype-2024.213.0.0.7svn53500-54.3.noarch.rpm42.4 KiB2024-07-02 17:26:31
texlive-zxjafont-2024.213.1.3svn62864-54.3.noarch.rpm38.9 KiB2024-07-02 17:26:31
texlive-zx-calculus-doc-2024.213.2.2svn70591-54.3.noarch.rpm1.2 MiB2024-07-02 17:26:31
texlive-zztex-doc-2024.213.17.7svn55862-54.3.noarch.rpm81.2 KiB2024-07-02 17:26:31
texlive-zxjatype-doc-2024.213.0.0.7svn53500-54.3.noarch.rpm168.3 KiB2024-07-02 17:26:31
texlive-zztex-2024.213.17.7svn55862-54.3.noarch.rpm142.3 KiB2024-07-02 17:26:31
texlive-zref-vario-2024.213.0.0.1.10svn68846-54.3.noarch.rpm38.4 KiB2024-07-02 17:26:30
texlive-zref-clever-2024.213.0.0.4.3svn68846-54.3.noarch.rpm57.7 KiB2024-07-02 17:26:30
texlive-zref-clever-doc-2024.213.0.0.4.3svn68846-54.3.noarch.rpm1.5 MiB2024-07-02 17:26:30
texlive-zwpagelayout-2024.213.1.4esvn63074-54.3.noarch.rpm42.6 KiB2024-07-02 17:26:30
texlive-zref-vario-doc-2024.213.0.0.1.10svn68846-54.3.noarch.rpm738.9 KiB2024-07-02 17:26:30
texlive-zwpagelayout-doc-2024.213.1.4esvn63074-54.3.noarch.rpm661.2 KiB2024-07-02 17:26:30
texlive-zref-doc-2024.213.2.35svn68278-54.3.noarch.rpm681.9 KiB2024-07-02 17:26:30
texlive-zx-calculus-2024.213.2.2svn70591-54.3.noarch.rpm72.4 KiB2024-07-02 17:26:30
texlive-zwgetfdate-2024.213.svn15878-54.3.noarch.rpm35.1 KiB2024-07-02 17:26:30
texlive-zref-check-doc-2024.213.0.0.3.5svn68846-54.3.noarch.rpm1019.6 KiB2024-07-02 17:26:30
texlive-zwgetfdate-doc-2024.213.svn15878-54.3.noarch.rpm271.8 KiB2024-07-02 17:26:30
texlive-zhspacing-doc-2024.213.svn41145-54.3.noarch.rpm197.7 KiB2024-07-02 17:26:29
texlive-ziffer-doc-2024.213.2.1svn32279-54.3.noarch.rpm33.5 KiB2024-07-02 17:26:29
texlive-zhspacing-2024.213.svn41145-54.3.noarch.rpm47.1 KiB2024-07-02 17:26:29
texlive-zref-check-2024.213.0.0.3.5svn68846-54.3.noarch.rpm39.5 KiB2024-07-02 17:26:29
texlive-zhnumber-doc-2024.213.3.0svn66115-54.3.noarch.rpm318.2 KiB2024-07-02 17:26:29
texlive-zref-2024.213.2.35svn68278-54.3.noarch.rpm51.8 KiB2024-07-02 17:26:29
texlive-zootaxa-bst-doc-2024.213.1.0svn50619-54.3.noarch.rpm165.8 KiB2024-07-02 17:26:29
texlive-zitie-doc-2024.213.1.4.0svn60676-54.3.noarch.rpm369.2 KiB2024-07-02 17:26:29
texlive-zootaxa-bst-2024.213.1.0svn50619-54.3.noarch.rpm39.9 KiB2024-07-02 17:26:29
texlive-zlmtt-doc-2024.213.1.032svn64076-54.3.noarch.rpm261.5 KiB2024-07-02 17:26:29
texlive-ziffer-2024.213.2.1svn32279-54.3.noarch.rpm35.6 KiB2024-07-02 17:26:29
texlive-zitie-2024.213.1.4.0svn60676-54.3.noarch.rpm43.5 KiB2024-07-02 17:26:29
texlive-zlmtt-2024.213.1.032svn64076-54.3.noarch.rpm39.3 KiB2024-07-02 17:26:29
texlive-zhmetrics-2024.213.r206svn22207-54.3.noarch.rpm793.5 KiB2024-07-02 17:26:28
texlive-zennote-2024.213.1.0.0svn65549-54.3.noarch.rpm35.3 KiB2024-07-02 17:26:28
texlive-zhlipsum-doc-2024.213.1.2.0svn54994-54.3.noarch.rpm431.9 KiB2024-07-02 17:26:28
texlive-zennote-doc-2024.213.1.0.0svn65549-54.3.noarch.rpm89.5 KiB2024-07-02 17:26:28
texlive-zhmetrics-doc-2024.213.r206svn22207-54.3.noarch.rpm34.3 KiB2024-07-02 17:26:28
texlive-zed-csp-2024.213.svn17258-54.3.noarch.rpm41.7 KiB2024-07-02 17:26:28
texlive-zhlineskip-2024.213.1.0esvn51142-54.3.noarch.rpm36.2 KiB2024-07-02 17:26:28
texlive-zhmetrics-uptex-2024.213.1.0svn40728-54.3.noarch.rpm89.3 KiB2024-07-02 17:26:28
texlive-zhmetrics-uptex-doc-2024.213.1.0svn40728-54.3.noarch.rpm120.6 KiB2024-07-02 17:26:28
texlive-zhnumber-2024.213.3.0svn66115-54.3.noarch.rpm43.0 KiB2024-07-02 17:26:28
texlive-zhlineskip-doc-2024.213.1.0esvn51142-54.3.noarch.rpm309.8 KiB2024-07-02 17:26:28
texlive-zed-csp-doc-2024.213.svn17258-54.3.noarch.rpm262.2 KiB2024-07-02 17:26:28
texlive-zhlipsum-2024.213.1.2.0svn54994-54.3.noarch.rpm248.2 KiB2024-07-02 17:26:28
texlive-zebra-goodies-doc-2024.213.0.0.8.1svn66630-54.3.noarch.rpm142.8 KiB2024-07-02 17:26:27
texlive-ysabeau-doc-2024.213.1.1svn69663-54.3.noarch.rpm786.9 KiB2024-07-02 17:26:27
texlive-zapfding-fonts-2024.213.svn61719-54.3.noarch.rpm76.6 KiB2024-07-02 17:26:27
texlive-zbmath-review-template-2024.213.2.1svn59693-54.3.noarch.rpm36.7 KiB2024-07-02 17:26:27
texlive-ytableau-doc-2024.213.1.4svn59580-54.3.noarch.rpm399.5 KiB2024-07-02 17:26:27
texlive-ytableau-2024.213.1.4svn59580-54.3.noarch.rpm36.8 KiB2024-07-02 17:26:27
texlive-ysabeau-fonts-2024.213.1.1svn69663-54.3.noarch.rpm7.7 MiB2024-07-02 17:26:27
texlive-zapfchan-fonts-2024.213.svn61719-54.3.noarch.rpm85.0 KiB2024-07-02 17:26:27
texlive-zapfchan-2024.213.svn61719-54.3.noarch.rpm74.0 KiB2024-07-02 17:26:27
texlive-zapfding-2024.213.svn61719-54.3.noarch.rpm40.4 KiB2024-07-02 17:26:27
texlive-zebra-goodies-2024.213.0.0.8.1svn66630-54.3.noarch.rpm36.3 KiB2024-07-02 17:26:27
texlive-zbmath-review-template-doc-2024.213.2.1svn59693-54.3.noarch.rpm236.7 KiB2024-07-02 17:26:27
texlive-yinit-otf-doc-2024.213.1.0svn40207-54.3.noarch.rpm33.5 KiB2024-07-02 17:26:26
texlive-york-thesis-doc-2024.213.3.6svn23348-54.3.noarch.rpm141.4 KiB2024-07-02 17:26:26
texlive-yquant-doc-2024.213.0.0.7.5svn68997-54.3.noarch.rpm846.8 KiB2024-07-02 17:26:26
texlive-ysabeau-2024.213.1.1svn69663-54.3.noarch.rpm3.5 MiB2024-07-02 17:26:26
texlive-yinit-otf-2024.213.1.0svn40207-54.3.noarch.rpm34.2 KiB2024-07-02 17:26:26
texlive-yplan-2024.213.svn34398-54.3.noarch.rpm40.3 KiB2024-07-02 17:26:26
texlive-yquant-2024.213.0.0.7.5svn68997-54.3.noarch.rpm93.4 KiB2024-07-02 17:26:26
texlive-youngtab-2024.213.1.1svn56500-54.3.noarch.rpm35.7 KiB2024-07-02 17:26:26
texlive-yinit-otf-fonts-2024.213.1.0svn40207-54.3.noarch.rpm295.4 KiB2024-07-02 17:26:26
texlive-youngtab-doc-2024.213.1.1svn56500-54.3.noarch.rpm174.2 KiB2024-07-02 17:26:26
texlive-york-thesis-2024.213.3.6svn23348-54.3.noarch.rpm38.0 KiB2024-07-02 17:26:26
texlive-yplan-doc-2024.213.svn34398-54.3.noarch.rpm37.9 KiB2024-07-02 17:26:26
texlive-yhmath-doc-2024.213.1.6svn54377-54.3.noarch.rpm310.0 KiB2024-07-02 17:26:25
texlive-yfonts-otf-fonts-2024.213.0.0.43svn65030-54.3.noarch.rpm93.8 KiB2024-07-02 17:26:25
texlive-yfonts-otf-2024.213.0.0.43svn65030-54.3.noarch.rpm35.7 KiB2024-07-02 17:26:25
texlive-ydoc-2024.213.0.0.7alphasvn64887-54.3.noarch.rpm44.7 KiB2024-07-02 17:26:25
texlive-yhmath-fonts-2024.213.1.6svn54377-54.3.noarch.rpm62.2 KiB2024-07-02 17:26:25
texlive-yfonts-t1-2024.213.1.0svn36013-54.3.noarch.rpm40.9 KiB2024-07-02 17:26:25
texlive-yfonts-t1-doc-2024.213.1.0svn36013-54.3.noarch.rpm33.8 KiB2024-07-02 17:26:25
texlive-yfonts-2024.213.1.4svn50755-54.3.noarch.rpm35.4 KiB2024-07-02 17:26:25
texlive-yfonts-t1-fonts-2024.213.1.0svn36013-54.3.noarch.rpm174.8 KiB2024-07-02 17:26:25
texlive-yfonts-otf-doc-2024.213.0.0.43svn65030-54.3.noarch.rpm186.8 KiB2024-07-02 17:26:25
texlive-yet-another-guide-latex2e-2024.213.1.2svn68564-54.3.noarch.rpm909.0 KiB2024-07-02 17:26:25
texlive-yhmath-2024.213.1.6svn54377-54.3.noarch.rpm48.5 KiB2024-07-02 17:26:25
texlive-ydoc-doc-2024.213.0.0.7alphasvn64887-54.3.noarch.rpm355.1 KiB2024-07-02 17:26:25
texlive-yfonts-doc-2024.213.1.4svn50755-54.3.noarch.rpm219.9 KiB2024-07-02 17:26:25
texlive-ycbook-2024.213.svn46201-54.3.noarch.rpm38.6 KiB2024-07-02 17:26:24
texlive-yax-2024.213.1.03svn54080-54.3.noarch.rpm39.9 KiB2024-07-02 17:26:24
texlive-yannisgr-doc-2024.213.svn22613-54.3.noarch.rpm64.7 KiB2024-07-02 17:26:24
texlive-yathesis-doc-2024.213.1.0.12svn70511-54.3.noarch.rpm5.0 MiB2024-07-02 17:26:24
texlive-yb-book-2024.213.0.0.3.0svn67188-54.3.noarch.rpm38.7 KiB2024-07-02 17:26:24
texlive-ycbook-doc-2024.213.svn46201-54.3.noarch.rpm154.6 KiB2024-07-02 17:26:24
texlive-yax-doc-2024.213.1.03svn54080-54.3.noarch.rpm153.2 KiB2024-07-02 17:26:24
texlive-yathesis-2024.213.1.0.12svn70511-54.3.noarch.rpm58.8 KiB2024-07-02 17:26:24
texlive-yazd-thesis-2024.213.0.0.3svn61719-54.3.noarch.rpm40.1 KiB2024-07-02 17:26:24
texlive-yb-book-doc-2024.213.0.0.3.0svn67188-54.3.noarch.rpm309.2 KiB2024-07-02 17:26:24
texlive-yazd-thesis-doc-2024.213.0.0.3svn61719-54.3.noarch.rpm2.1 MiB2024-07-02 17:26:24
texlive-yagusylo-2024.213.1.2svn29803-54.3.noarch.rpm39.7 KiB2024-07-02 17:26:23
texlive-xypic-fonts-2024.213.3.8.9svn61719-54.3.noarch.rpm295.9 KiB2024-07-02 17:26:23
texlive-xypic-tut-pt-2024.213.svn15878-54.3.noarch.rpm254.1 KiB2024-07-02 17:26:23
texlive-yannisgr-2024.213.svn22613-54.3.noarch.rpm76.3 KiB2024-07-02 17:26:23
texlive-yagusylo-doc-2024.213.1.2svn29803-54.3.noarch.rpm1.6 MiB2024-07-02 17:26:23
texlive-xypic-doc-2024.213.3.8.9svn61719-54.3.noarch.rpm3.8 MiB2024-07-02 17:26:23
texlive-yaletter-doc-2024.213.1.1svn42830-54.3.noarch.rpm512.7 KiB2024-07-02 17:26:23
texlive-yamlvars-2024.213.svn69071-54.3.noarch.rpm39.7 KiB2024-07-02 17:26:23
texlive-yamlvars-doc-2024.213.svn69071-54.3.noarch.rpm111.1 KiB2024-07-02 17:26:23
texlive-yafoot-doc-2024.213.1.1svn48568-54.3.noarch.rpm290.7 KiB2024-07-02 17:26:23
texlive-yafoot-2024.213.1.1svn48568-54.3.noarch.rpm37.7 KiB2024-07-02 17:26:23
texlive-xytree-doc-2024.213.1.5svn15878-54.3.noarch.rpm259.2 KiB2024-07-02 17:26:23
texlive-yaletter-2024.213.1.1svn42830-54.3.noarch.rpm37.8 KiB2024-07-02 17:26:23
texlive-xytree-2024.213.1.5svn15878-54.3.noarch.rpm37.2 KiB2024-07-02 17:26:23
texlive-xtuthesis-doc-2024.213.1.0svn47049-54.3.noarch.rpm851.8 KiB2024-07-02 17:26:22
texlive-xwatermark-2024.213.1.5.2dsvn61719-54.3.noarch.rpm50.1 KiB2024-07-02 17:26:22
texlive-xurl-2024.213.0.0.10svn61553-54.3.noarch.rpm35.4 KiB2024-07-02 17:26:22
texlive-xyling-2024.213.1.1svn15878-54.3.noarch.rpm44.5 KiB2024-07-02 17:26:22
texlive-xymtex-2024.213.5.06svn32182-54.3.noarch.rpm126.7 KiB2024-07-02 17:26:22
texlive-xwatermark-doc-2024.213.1.5.2dsvn61719-54.3.noarch.rpm602.8 KiB2024-07-02 17:26:22
texlive-xunicode-2024.213.0.0.981svn30466-54.3.noarch.rpm61.1 KiB2024-07-02 17:26:22
texlive-xtuthesis-2024.213.1.0svn47049-54.3.noarch.rpm37.5 KiB2024-07-02 17:26:22
texlive-xymtex-doc-2024.213.5.06svn32182-54.3.noarch.rpm48.5 KiB2024-07-02 17:26:22
texlive-xyling-doc-2024.213.1.1svn15878-54.3.noarch.rpm178.0 KiB2024-07-02 17:26:22
texlive-xurl-doc-2024.213.0.0.10svn61553-54.3.noarch.rpm81.1 KiB2024-07-02 17:26:22
texlive-xunicode-doc-2024.213.0.0.981svn30466-54.3.noarch.rpm33.5 KiB2024-07-02 17:26:22
texlive-xypic-2024.213.3.8.9svn61719-54.3.noarch.rpm499.1 KiB2024-07-02 17:26:22
texlive-xpunctuate-doc-2024.213.2.0svn67918-54.3.noarch.rpm244.8 KiB2024-07-02 17:26:21
texlive-xsavebox-2024.213.0.0.18svn64049-54.3.noarch.rpm38.0 KiB2024-07-02 17:26:21
texlive-xsavebox-doc-2024.213.0.0.18svn64049-54.3.noarch.rpm399.6 KiB2024-07-02 17:26:21
texlive-xstring-doc-2024.213.1.86svn68015-54.3.noarch.rpm584.9 KiB2024-07-02 17:26:21
texlive-xsim-2024.213.0.0.21svn61988-54.3.noarch.rpm66.9 KiB2024-07-02 17:26:21
texlive-xtab-2024.213.2.3fsvn23347-54.3.noarch.rpm38.2 KiB2024-07-02 17:26:21
texlive-xq-2024.213.0.0.4svn35211-54.3.noarch.rpm87.5 KiB2024-07-02 17:26:21
texlive-xtab-doc-2024.213.2.3fsvn23347-54.3.noarch.rpm383.7 KiB2024-07-02 17:26:21
texlive-xskak-2024.213.1.5svn51432-54.3.noarch.rpm47.8 KiB2024-07-02 17:26:21
texlive-xstring-2024.213.1.86svn68015-54.3.noarch.rpm45.4 KiB2024-07-02 17:26:21
texlive-xskak-doc-2024.213.1.5svn51432-54.3.noarch.rpm802.4 KiB2024-07-02 17:26:21
texlive-xq-doc-2024.213.0.0.4svn35211-54.3.noarch.rpm237.6 KiB2024-07-02 17:26:21
texlive-xpunctuate-2024.213.2.0svn67918-54.3.noarch.rpm35.4 KiB2024-07-02 17:26:21
texlive-xsim-doc-2024.213.0.0.21svn61988-54.3.noarch.rpm2.9 MiB2024-07-02 17:26:21
texlive-xprintlen-doc-2024.213.1.0svn35928-54.3.noarch.rpm169.6 KiB2024-07-02 17:26:20
texlive-xpatch-2024.213.0.0.3svn69768-54.3.noarch.rpm35.6 KiB2024-07-02 17:26:20
texlive-xpicture-2024.213.1.2asvn28770-54.3.noarch.rpm42.7 KiB2024-07-02 17:26:20
texlive-xpiano-doc-2024.213.1.0svn61719-54.3.noarch.rpm572.2 KiB2024-07-02 17:26:20
texlive-xpeek-2024.213.0.0.2svn61719-54.3.noarch.rpm35.1 KiB2024-07-02 17:26:20
texlive-xpatch-doc-2024.213.0.0.3svn69768-54.3.noarch.rpm488.8 KiB2024-07-02 17:26:20
texlive-xpicture-doc-2024.213.1.2asvn28770-54.3.noarch.rpm1.3 MiB2024-07-02 17:26:20
texlive-xpeek-doc-2024.213.0.0.2svn61719-54.3.noarch.rpm571.1 KiB2024-07-02 17:26:20
texlive-xpiano-2024.213.1.0svn61719-54.3.noarch.rpm36.7 KiB2024-07-02 17:26:20
texlive-xpinyin-doc-2024.213.3.1svn66115-54.3.noarch.rpm232.9 KiB2024-07-02 17:26:20
texlive-xpdfopen-2024.213.0.0.86svn65952-54.3.noarch.rpm37.4 KiB2024-07-02 17:26:20
texlive-xprintlen-2024.213.1.0svn35928-54.3.noarch.rpm34.8 KiB2024-07-02 17:26:20
texlive-xoptarg-doc-2024.213.1.0svn15878-54.3.noarch.rpm391.6 KiB2024-07-02 17:26:20
texlive-xpinyin-2024.213.3.1svn66115-54.3.noarch.rpm296.7 KiB2024-07-02 17:26:20
texlive-xltxtra-doc-2024.213.0.0.7svn56594-54.3.noarch.rpm130.9 KiB2024-07-02 17:26:19
texlive-xmuthesis-doc-2024.213.0.0.4.1svn56614-54.3.noarch.rpm455.2 KiB2024-07-02 17:26:19
texlive-xltabular-doc-2024.213.0.0.2esvn56855-54.3.noarch.rpm105.5 KiB2024-07-02 17:26:19
texlive-xmpincl-2024.213.2.4svn60593-54.3.noarch.rpm35.7 KiB2024-07-02 17:26:19
texlive-xnewcommand-doc-2024.213.1.2svn15878-54.3.noarch.rpm291.5 KiB2024-07-02 17:26:19
texlive-xmltexconfig-2024.213.svn68933-54.3.noarch.rpm33.4 KiB2024-07-02 17:26:19
texlive-xoptarg-2024.213.1.0svn15878-54.3.noarch.rpm35.5 KiB2024-07-02 17:26:19
texlive-xltabular-2024.213.0.0.2esvn56855-54.3.noarch.rpm35.5 KiB2024-07-02 17:26:19
texlive-xmpincl-doc-2024.213.2.4svn60593-54.3.noarch.rpm129.2 KiB2024-07-02 17:26:19
texlive-xmltex-doc-2024.213.0.0.8svn70002-54.3.noarch.rpm52.1 KiB2024-07-02 17:26:19
texlive-xnewcommand-2024.213.1.2svn15878-54.3.noarch.rpm34.5 KiB2024-07-02 17:26:19
texlive-xml2pmx-2024.213.svn57972-54.3.noarch.rpm34.9 KiB2024-07-02 17:26:19
texlive-xltxtra-2024.213.0.0.7svn56594-54.3.noarch.rpm36.4 KiB2024-07-02 17:26:19
texlive-xmuthesis-2024.213.0.0.4.1svn56614-54.3.noarch.rpm86.3 KiB2024-07-02 17:26:19
texlive-xmltex-2024.213.0.0.8svn70002-54.3.noarch.rpm57.6 KiB2024-07-02 17:26:19
texlive-xkcdcolors-2024.213.1.0.2svn67895-54.3.noarch.rpm42.7 KiB2024-07-02 17:26:18
texlive-xits-2024.213.1.302svn55730-54.3.noarch.rpm34.9 KiB2024-07-02 17:26:18
texlive-xistercian-2024.213.1.2svn61366-54.3.noarch.rpm38.7 KiB2024-07-02 17:26:18
texlive-xkeymask-doc-2024.213.1.0svn69223-54.3.noarch.rpm156.8 KiB2024-07-02 17:26:18
texlive-xkeyval-doc-2024.213.2.9svn63616-54.3.noarch.rpm453.0 KiB2024-07-02 17:26:18
texlive-xistercian-doc-2024.213.1.2svn61366-54.3.noarch.rpm362.6 KiB2024-07-02 17:26:18
texlive-xits-doc-2024.213.1.302svn55730-54.3.noarch.rpm39.2 KiB2024-07-02 17:26:18
texlive-xkeyval-2024.213.2.9svn63616-54.3.noarch.rpm43.9 KiB2024-07-02 17:26:18
texlive-xintsession-doc-2024.213.0.0.4alphasvn60926-54.3.noarch.rpm35.8 KiB2024-07-02 17:26:18
texlive-xkeymask-2024.213.1.0svn69223-54.3.noarch.rpm35.5 KiB2024-07-02 17:26:18
texlive-xkcdcolors-doc-2024.213.1.0.2svn67895-54.3.noarch.rpm251.8 KiB2024-07-02 17:26:18
texlive-xlop-2024.213.0.0.28svn56910-54.3.noarch.rpm50.0 KiB2024-07-02 17:26:18
texlive-xlop-doc-2024.213.0.0.28svn56910-54.3.noarch.rpm559.6 KiB2024-07-02 17:26:18
texlive-xits-fonts-2024.213.1.302svn55730-54.3.noarch.rpm629.1 KiB2024-07-02 17:26:18
texlive-xint-doc-2024.213.1.4msvn63562-54.3.noarch.rpm3.4 MiB2024-07-02 17:26:17
texlive-xifthen-doc-2024.213.1.4.0svn38929-54.3.noarch.rpm501.2 KiB2024-07-02 17:26:17
texlive-xii-2024.213.svn45804-54.3.noarch.rpm34.9 KiB2024-07-02 17:26:17
texlive-xindex-2024.213.0.0.55svn67771-54.3.noarch.rpm74.1 KiB2024-07-02 17:26:17
texlive-xifthen-2024.213.1.4.0svn38929-54.3.noarch.rpm35.9 KiB2024-07-02 17:26:17
texlive-xhfill-2024.213.1.01svn22575-54.3.noarch.rpm34.9 KiB2024-07-02 17:26:17
texlive-xhfill-doc-2024.213.1.01svn22575-54.3.noarch.rpm71.4 KiB2024-07-02 17:26:17
texlive-xgreek-doc-2024.213.3.4.0svn69652-54.3.noarch.rpm103.5 KiB2024-07-02 17:26:17
texlive-xii-lat-2024.213.svn45805-54.3.noarch.rpm35.1 KiB2024-07-02 17:26:17
texlive-xindex-doc-2024.213.0.0.55svn67771-54.3.noarch.rpm630.3 KiB2024-07-02 17:26:17
texlive-xintsession-2024.213.0.0.4alphasvn60926-54.3.noarch.rpm40.9 KiB2024-07-02 17:26:17
texlive-xint-2024.213.1.4msvn63562-54.3.noarch.rpm117.8 KiB2024-07-02 17:26:17
texlive-xgreek-2024.213.3.4.0svn69652-54.3.noarch.rpm38.8 KiB2024-07-02 17:26:17
texlive-xevlna-2024.213.1.1svn43864-54.3.noarch.rpm35.1 KiB2024-07-02 17:26:16
texlive-xevlna-doc-2024.213.1.1svn43864-54.3.noarch.rpm87.4 KiB2024-07-02 17:26:16
texlive-xfakebold-2024.213.0.0.10svn68929-54.3.noarch.rpm35.2 KiB2024-07-02 17:26:16
texlive-xfrac-doc-2024.213.svn69841-54.3.noarch.rpm654.3 KiB2024-07-02 17:26:16
texlive-xetexconfig-2024.213.svn45845-54.3.noarch.rpm34.1 KiB2024-07-02 17:26:16
texlive-xfrac-2024.213.svn69841-54.3.noarch.rpm36.9 KiB2024-07-02 17:26:16
texlive-xfor-2024.213.1.05svn15878-54.3.noarch.rpm35.4 KiB2024-07-02 17:26:16
texlive-xetex-tibetan-doc-2024.213.0.0.1svn28847-54.3.noarch.rpm34.3 KiB2024-07-02 17:26:16
texlive-xetexref-2024.213.svn70299-54.3.noarch.rpm193.6 KiB2024-07-02 17:26:16
texlive-xetexfontinfo-2024.213.svn15878-54.3.noarch.rpm36.2 KiB2024-07-02 17:26:16
texlive-xetexfontinfo-doc-2024.213.svn15878-54.3.noarch.rpm33.5 KiB2024-07-02 17:26:16
texlive-xetexko-doc-2024.213.4.3svn70315-54.3.noarch.rpm293.4 KiB2024-07-02 17:26:16
texlive-xetexko-2024.213.4.3svn70315-54.3.noarch.rpm93.0 KiB2024-07-02 17:26:16
texlive-xetex-tibetan-2024.213.0.0.1svn28847-54.3.noarch.rpm41.0 KiB2024-07-02 17:26:16
texlive-xfakebold-doc-2024.213.0.0.10svn68929-54.3.noarch.rpm130.2 KiB2024-07-02 17:26:16
texlive-xfor-doc-2024.213.1.05svn15878-54.3.noarch.rpm132.9 KiB2024-07-02 17:26:16
texlive-xepersian-hm-2024.213.1.1asvn56272-54.3.noarch.rpm40.1 KiB2024-07-02 17:26:15
texlive-xesearch-doc-2024.213.0.0.2svn51908-54.3.noarch.rpm630.7 KiB2024-07-02 17:26:15
texlive-xetex-itrans-2024.213.4.2svn55475-54.3.noarch.rpm60.1 KiB2024-07-02 17:26:15
texlive-xetex-pstricks-2024.213.svn17055-54.3.noarch.rpm34.6 KiB2024-07-02 17:26:15
texlive-xesearch-2024.213.0.0.2svn51908-54.3.noarch.rpm39.7 KiB2024-07-02 17:26:15
texlive-xetex-devanagari-2024.213.0.0.5svn34296-54.3.noarch.rpm47.7 KiB2024-07-02 17:26:15
texlive-xetex-itrans-doc-2024.213.4.2svn55475-54.3.noarch.rpm53.8 KiB2024-07-02 17:26:15
texlive-xespotcolor-2024.213.2.1svn58212-54.3.noarch.rpm36.1 KiB2024-07-02 17:26:15
texlive-xetex-2024.213.svn70088-54.3.noarch.rpm46.1 KiB2024-07-02 17:26:15
texlive-xetex-pstricks-doc-2024.213.svn17055-54.3.noarch.rpm33.8 KiB2024-07-02 17:26:15
texlive-xetex-devanagari-doc-2024.213.0.0.5svn34296-54.3.noarch.rpm34.0 KiB2024-07-02 17:26:15
texlive-xespotcolor-doc-2024.213.2.1svn58212-54.3.noarch.rpm168.5 KiB2024-07-02 17:26:15
texlive-xepersian-hm-doc-2024.213.1.1asvn56272-54.3.noarch.rpm1.3 MiB2024-07-02 17:26:15
texlive-xetex-doc-2024.213.svn70088-54.3.noarch.rpm604.6 KiB2024-07-02 17:26:15
texlive-xellipsis-2024.213.2.0svn47546-54.3.noarch.rpm35.5 KiB2024-07-02 17:26:14
texlive-xecyr-2024.213.1.2svn54308-54.3.noarch.rpm37.5 KiB2024-07-02 17:26:14
texlive-xecyr-doc-2024.213.1.2svn54308-54.3.noarch.rpm678.6 KiB2024-07-02 17:26:14
texlive-xecyrmongolian-doc-2024.213.1.0svn53160-54.3.noarch.rpm92.9 KiB2024-07-02 17:26:14
texlive-xepersian-2024.213.25.0svn68117-54.3.noarch.rpm105.2 KiB2024-07-02 17:26:14
texlive-xecolor-doc-2024.213.0.0.1svn29660-54.3.noarch.rpm33.9 KiB2024-07-02 17:26:14
texlive-xecjk-doc-2024.213.3.9.1svn64059-54.3.noarch.rpm1.6 MiB2024-07-02 17:26:14
texlive-xeindex-2024.213.0.0.3svn35756-54.3.noarch.rpm35.4 KiB2024-07-02 17:26:14
texlive-xellipsis-doc-2024.213.2.0svn47546-54.3.noarch.rpm371.8 KiB2024-07-02 17:26:14
texlive-xecolor-2024.213.0.0.1svn29660-54.3.noarch.rpm35.9 KiB2024-07-02 17:26:14
texlive-xelatex-dev-2024.213.svn70002-54.3.noarch.rpm36.4 KiB2024-07-02 17:26:14
texlive-xeindex-doc-2024.213.0.0.3svn35756-54.3.noarch.rpm109.8 KiB2024-07-02 17:26:14
texlive-xecyrmongolian-2024.213.1.0svn53160-54.3.noarch.rpm36.2 KiB2024-07-02 17:26:14
texlive-xepersian-doc-2024.213.25.0svn68117-54.3.noarch.rpm1015.7 KiB2024-07-02 17:26:14
texlive-xdoc-2024.213.prot2.5svn15878-54.3.noarch.rpm46.7 KiB2024-07-02 17:26:13
texlive-xebaposter-doc-2024.213.2.53svn63513-54.3.noarch.rpm529.9 KiB2024-07-02 17:26:13
texlive-xdvi-doc-2024.213.svn62387-54.3.noarch.rpm69.6 KiB2024-07-02 17:26:13
texlive-xduts-doc-2024.213.6.1.4.2svn66661-54.3.noarch.rpm356.2 KiB2024-07-02 17:26:13
texlive-xechangebar-2024.213.1.0svn54080-54.3.noarch.rpm40.5 KiB2024-07-02 17:26:13
texlive-xdvi-2024.213.svn62387-54.3.noarch.rpm41.3 KiB2024-07-02 17:26:13
texlive-xduts-2024.213.6.1.4.2svn66661-54.3.noarch.rpm546.3 KiB2024-07-02 17:26:13
texlive-xcpdftips-doc-2024.213.1.1svn50449-54.3.noarch.rpm171.0 KiB2024-07-02 17:26:13
texlive-xebaposter-2024.213.2.53svn63513-54.3.noarch.rpm44.0 KiB2024-07-02 17:26:13
texlive-xecjk-2024.213.3.9.1svn64059-54.3.noarch.rpm260.5 KiB2024-07-02 17:26:13
texlive-xdoc-doc-2024.213.prot2.5svn15878-54.3.noarch.rpm848.3 KiB2024-07-02 17:26:13
texlive-xduthesis-doc-2024.213.1.00svn63116-54.3.noarch.rpm711.2 KiB2024-07-02 17:26:13
texlive-xduthesis-2024.213.1.00svn63116-54.3.noarch.rpm144.4 KiB2024-07-02 17:26:13
texlive-xechangebar-doc-2024.213.1.0svn54080-54.3.noarch.rpm35.4 KiB2024-07-02 17:26:13
texlive-xcntperchap-doc-2024.213.0.0.5svn54080-54.3.noarch.rpm368.1 KiB2024-07-02 17:26:12
texlive-xcomment-2024.213.1.3svn20031-54.3.noarch.rpm36.4 KiB2024-07-02 17:26:12
texlive-xcolor-solarized-2024.213.0.0.4svn61719-54.3.noarch.rpm35.4 KiB2024-07-02 17:26:12
texlive-xcolor-2024.213.3.01svn68864-54.3.noarch.rpm52.8 KiB2024-07-02 17:26:12
texlive-xcookybooky-doc-2024.213.1.5svn36435-54.3.noarch.rpm874.2 KiB2024-07-02 17:26:12
texlive-xcolor-solarized-doc-2024.213.0.0.4svn61719-54.3.noarch.rpm488.2 KiB2024-07-02 17:26:12
texlive-xcolor-material-doc-2024.213.0.0.1svn42289-54.3.noarch.rpm593.1 KiB2024-07-02 17:26:12
texlive-xcjk2uni-doc-2024.213.1.0svn54958-54.3.noarch.rpm153.3 KiB2024-07-02 17:26:12
texlive-xcolor-material-2024.213.0.0.1svn42289-54.3.noarch.rpm38.3 KiB2024-07-02 17:26:12
texlive-xcolor-doc-2024.213.3.01svn68864-54.3.noarch.rpm937.5 KiB2024-07-02 17:26:12
texlive-xcomment-doc-2024.213.1.3svn20031-54.3.noarch.rpm113.3 KiB2024-07-02 17:26:12
texlive-xcookybooky-2024.213.1.5svn36435-54.3.noarch.rpm40.5 KiB2024-07-02 17:26:12
texlive-xcntperchap-2024.213.0.0.5svn54080-54.3.noarch.rpm37.0 KiB2024-07-02 17:26:12
texlive-xcpdftips-2024.213.1.1svn50449-54.3.noarch.rpm36.9 KiB2024-07-02 17:26:12
texlive-xcharter-math-2024.213.0.0.62svn70298-54.3.noarch.rpm36.5 KiB2024-07-02 17:26:11
texlive-xcharter-fonts-2024.213.1.25svn67742-54.3.noarch.rpm1.7 MiB2024-07-02 17:26:11
texlive-xcjk2uni-2024.213.1.0svn54958-54.3.noarch.rpm338.9 KiB2024-07-02 17:26:11
texlive-xcharter-math-fonts-2024.213.0.0.62svn70298-54.3.noarch.rpm320.2 KiB2024-07-02 17:26:11
texlive-xbmks-doc-2024.213.svn53448-54.3.noarch.rpm390.6 KiB2024-07-02 17:26:11
texlive-xcite-doc-2024.213.16383.99998svn53486-54.3.noarch.rpm187.0 KiB2024-07-02 17:26:11
texlive-xcharter-doc-2024.213.1.25svn67742-54.3.noarch.rpm433.4 KiB2024-07-02 17:26:11
texlive-xassoccnt-2024.213.2.0svn61112-54.3.noarch.rpm53.3 KiB2024-07-02 17:26:11
texlive-xcharter-math-doc-2024.213.0.0.62svn70298-54.3.noarch.rpm1.9 MiB2024-07-02 17:26:11
texlive-xbmks-2024.213.svn53448-54.3.noarch.rpm38.4 KiB2024-07-02 17:26:11
texlive-xcite-2024.213.16383.99998svn53486-54.3.noarch.rpm34.7 KiB2024-07-02 17:26:11
texlive-xassoccnt-doc-2024.213.2.0svn61112-54.3.noarch.rpm1.1 MiB2024-07-02 17:26:11
texlive-xcharter-2024.213.1.25svn67742-54.3.noarch.rpm898.3 KiB2024-07-02 17:26:11
texlive-writeongrid-2024.213.0.0.1.5svn68863-54.3.noarch.rpm38.5 KiB2024-07-02 17:26:10
texlive-wsemclassic-doc-2024.213.1.0.1svn31532-54.3.noarch.rpm422.7 KiB2024-07-02 17:26:10
texlive-xargs-doc-2024.213.1.1svn15878-54.3.noarch.rpm210.8 KiB2024-07-02 17:26:10
texlive-wtref-doc-2024.213.1.0.0svn69214-54.3.noarch.rpm361.7 KiB2024-07-02 17:26:10
texlive-wtref-2024.213.1.0.0svn69214-54.3.noarch.rpm35.8 KiB2024-07-02 17:26:10
texlive-wrapstuff-doc-2024.213.0.0.3svn64058-54.3.noarch.rpm458.6 KiB2024-07-02 17:26:10
texlive-wsuipa-doc-2024.213.svn25469-54.3.noarch.rpm114.6 KiB2024-07-02 17:26:10
texlive-wrapfig2-2024.213.7.0.0svn69513-54.3.noarch.rpm40.4 KiB2024-07-02 17:26:10
texlive-xargs-2024.213.1.1svn15878-54.3.noarch.rpm37.0 KiB2024-07-02 17:26:10
texlive-writeongrid-doc-2024.213.0.0.1.5svn68863-54.3.noarch.rpm1.1 MiB2024-07-02 17:26:10
texlive-wrapstuff-2024.213.0.0.3svn64058-54.3.noarch.rpm45.2 KiB2024-07-02 17:26:10
texlive-wrapfig2-doc-2024.213.7.0.0svn69513-54.3.noarch.rpm866.4 KiB2024-07-02 17:26:10
texlive-esint-type1-fonts-2024.213.svn15878-56.3.noarch.rpm67.5 KiB2024-07-02 17:26:10
texlive-esk-doc-2024.213.1.0svn18115-56.3.noarch.rpm436.0 KiB2024-07-02 17:26:10
texlive-wsemclassic-2024.213.1.0.1svn31532-54.3.noarch.rpm37.9 KiB2024-07-02 17:26:10
texlive-wsuipa-2024.213.svn25469-54.3.noarch.rpm77.3 KiB2024-07-02 17:26:10
texlive-esk-2024.213.1.0svn18115-56.3.noarch.rpm37.7 KiB2024-07-02 17:26:10
texlive-esint-doc-2024.213.1.2dsvn52240-56.3.noarch.rpm89.3 KiB2024-07-02 17:26:09
texlive-wrapfig-doc-2024.213.3.6svn61719-54.3.noarch.rpm361.5 KiB2024-07-02 17:26:09
texlive-erw-l3-doc-2024.213.4.2svn61799-56.3.noarch.rpm501.8 KiB2024-07-02 17:26:09
texlive-esindex-doc-2024.213.1.7svn52342-56.3.noarch.rpm100.1 KiB2024-07-02 17:26:09
texlive-erw-l3-2024.213.4.2svn61799-56.3.noarch.rpm37.5 KiB2024-07-02 17:26:09
texlive-esdiff-doc-2024.213.1.2svn21385-56.3.noarch.rpm113.7 KiB2024-07-02 17:26:09
texlive-esami-2024.213.2.8svn67707-56.3.noarch.rpm56.4 KiB2024-07-02 17:26:09
texlive-esint-type1-2024.213.svn15878-56.3.noarch.rpm36.0 KiB2024-07-02 17:26:09
texlive-esami-doc-2024.213.2.8svn67707-56.3.noarch.rpm1.4 MiB2024-07-02 17:26:09
texlive-esindex-2024.213.1.7svn52342-56.3.noarch.rpm37.5 KiB2024-07-02 17:26:09
texlive-esieecv-doc-2024.213.svn59638-56.3.noarch.rpm161.5 KiB2024-07-02 17:26:09
texlive-esieecv-2024.213.svn59638-56.3.noarch.rpm35.2 KiB2024-07-02 17:26:09
texlive-esdiff-2024.213.1.2svn21385-56.3.noarch.rpm35.3 KiB2024-07-02 17:26:09
texlive-esint-type1-doc-2024.213.svn15878-56.3.noarch.rpm73.3 KiB2024-07-02 17:26:09
texlive-wrapfig-2024.213.3.6svn61719-54.3.noarch.rpm43.0 KiB2024-07-02 17:26:09
texlive-esint-2024.213.1.2dsvn52240-56.3.noarch.rpm40.3 KiB2024-07-02 17:26:09
texlive-es-tex-faq-2024.213.1.97svn15878-56.3.noarch.rpm524.7 KiB2024-07-02 17:26:09
texlive-erewhon-math-doc-2024.213.0.0.66svn70295-56.3.noarch.rpm1.9 MiB2024-07-02 17:26:08
texlive-eqnnumwarn-doc-2024.213.1.0svn45511-56.3.noarch.rpm123.7 KiB2024-07-02 17:26:08
texlive-erdc-2024.213.1.1svn15878-56.3.noarch.rpm40.0 KiB2024-07-02 17:26:08
texlive-errata-2024.213.0.0.3svn42428-56.3.noarch.rpm35.4 KiB2024-07-02 17:26:08
texlive-erewhon-math-2024.213.0.0.66svn70295-56.3.noarch.rpm36.8 KiB2024-07-02 17:26:08
texlive-eqparbox-doc-2024.213.4.1svn45215-56.3.noarch.rpm240.5 KiB2024-07-02 17:26:08
texlive-errata-doc-2024.213.0.0.3svn42428-56.3.noarch.rpm176.7 KiB2024-07-02 17:26:08
texlive-eqnnumwarn-2024.213.1.0svn45511-56.3.noarch.rpm37.1 KiB2024-07-02 17:26:08
texlive-erdc-doc-2024.213.1.1svn15878-56.3.noarch.rpm702.4 KiB2024-07-02 17:26:08
texlive-eqparbox-2024.213.4.1svn45215-56.3.noarch.rpm36.6 KiB2024-07-02 17:26:08
texlive-erewhon-doc-2024.213.1.12svn63312-56.3.noarch.rpm407.6 KiB2024-07-02 17:26:08
texlive-erewhon-fonts-2024.213.1.12svn63312-56.3.noarch.rpm2.1 MiB2024-07-02 17:26:08
texlive-erewhon-math-fonts-2024.213.0.0.66svn70295-56.3.noarch.rpm355.8 KiB2024-07-02 17:26:08
texlive-erewhon-2024.213.1.12svn63312-56.3.noarch.rpm797.7 KiB2024-07-02 17:26:08
texlive-eqexpl-2024.213.1.1.1svn63629-56.3.noarch.rpm34.9 KiB2024-07-02 17:26:07
texlive-eqlist-doc-2024.213.2.1svn32257-56.3.noarch.rpm96.3 KiB2024-07-02 17:26:07
texlive-eqell-2024.213.svn22931-56.3.noarch.rpm34.3 KiB2024-07-02 17:26:07
texlive-eqnalign-doc-2024.213.1.0asvn43278-56.3.noarch.rpm312.8 KiB2024-07-02 17:26:07
texlive-eqnarray-doc-2024.213.1.3svn20641-56.3.noarch.rpm132.2 KiB2024-07-02 17:26:07
texlive-eqexpl-doc-2024.213.1.1.1svn63629-56.3.noarch.rpm119.2 KiB2024-07-02 17:26:07
texlive-eqlist-2024.213.2.1svn32257-56.3.noarch.rpm34.9 KiB2024-07-02 17:26:07
texlive-eq-pin2corr-doc-2024.213.svn59477-56.3.noarch.rpm580.6 KiB2024-07-02 17:26:07
texlive-eqname-2024.213.svn20678-56.3.noarch.rpm34.5 KiB2024-07-02 17:26:07
texlive-eq-pin2corr-2024.213.svn59477-56.3.noarch.rpm37.2 KiB2024-07-02 17:26:07
texlive-epstopdf-pkg-doc-2024.213.2.11svn53546-56.3.noarch.rpm375.8 KiB2024-07-02 17:26:07
texlive-eqell-doc-2024.213.svn22931-56.3.noarch.rpm210.6 KiB2024-07-02 17:26:07
texlive-eqnalign-2024.213.1.0asvn43278-56.3.noarch.rpm35.4 KiB2024-07-02 17:26:07
texlive-eqnarray-2024.213.1.3svn20641-56.3.noarch.rpm35.9 KiB2024-07-02 17:26:07
texlive-epspdf-doc-2024.213.0.0.6.5.1svn66115-56.3.noarch.rpm278.3 KiB2024-07-02 17:26:06
texlive-epsf-doc-2024.213.2.7.4svn21461-56.3.noarch.rpm301.4 KiB2024-07-02 17:26:06
texlive-epspdfconversion-doc-2024.213.0.0.61svn18703-56.3.noarch.rpm439.0 KiB2024-07-02 17:26:06
texlive-epspdf-2024.213.0.0.6.5.1svn66115-56.3.noarch.rpm66.0 KiB2024-07-02 17:26:06
texlive-epstopdf-2024.213.2.33svn68301-56.3.noarch.rpm47.8 KiB2024-07-02 17:26:06
texlive-epspdfconversion-2024.213.0.0.61svn18703-56.3.noarch.rpm37.4 KiB2024-07-02 17:26:06
texlive-epslatex-fr-2024.213.svn19440-56.3.noarch.rpm1.0 MiB2024-07-02 17:26:06
texlive-epsf-dvipdfmx-doc-2024.213.2014svn35575-56.3.noarch.rpm35.2 KiB2024-07-02 17:26:06
texlive-epsincl-doc-2024.213.0.0.2svn29349-56.3.noarch.rpm37.8 KiB2024-07-02 17:26:06
texlive-epsincl-2024.213.0.0.2svn29349-56.3.noarch.rpm35.5 KiB2024-07-02 17:26:06
texlive-epsf-dvipdfmx-2024.213.2014svn35575-56.3.noarch.rpm34.8 KiB2024-07-02 17:26:06
texlive-epsf-2024.213.2.7.4svn21461-56.3.noarch.rpm41.4 KiB2024-07-02 17:26:06
texlive-epstopdf-doc-2024.213.2.33svn68301-56.3.noarch.rpm37.5 KiB2024-07-02 17:26:06
texlive-epstopdf-pkg-2024.213.2.11svn53546-56.3.noarch.rpm38.1 KiB2024-07-02 17:26:06
texlive-epigrafica-fonts-2024.213.1.01svn17210-56.3.noarch.rpm334.6 KiB2024-07-02 17:26:05
texlive-epiolmec-fonts-2024.213.svn15878-56.3.noarch.rpm137.3 KiB2024-07-02 17:26:05
texlive-epigrafica-2024.213.1.01svn17210-56.3.noarch.rpm85.2 KiB2024-07-02 17:26:05
texlive-epigram-2024.213.svn20513-56.3.noarch.rpm34.4 KiB2024-07-02 17:26:05
texlive-epsdice-2024.213.2.1svn15878-56.3.noarch.rpm39.6 KiB2024-07-02 17:26:05
texlive-epiolmec-doc-2024.213.svn15878-56.3.noarch.rpm151.6 KiB2024-07-02 17:26:05
texlive-epiolmec-2024.213.svn15878-56.3.noarch.rpm39.1 KiB2024-07-02 17:26:05
texlive-epigrafica-doc-2024.213.1.01svn17210-56.3.noarch.rpm292.5 KiB2024-07-02 17:26:05
texlive-epigraph-doc-2024.213.1.5esvn54857-56.3.noarch.rpm337.8 KiB2024-07-02 17:26:05
texlive-epsdice-doc-2024.213.2.1svn15878-56.3.noarch.rpm98.1 KiB2024-07-02 17:26:05
texlive-eplain-2024.213.3.13svn70002-56.3.noarch.rpm80.0 KiB2024-07-02 17:26:05
texlive-epigraph-keys-2024.213.1.0svn61719-56.3.noarch.rpm35.6 KiB2024-07-02 17:26:05
texlive-epigraph-2024.213.1.5esvn54857-56.3.noarch.rpm35.6 KiB2024-07-02 17:26:05
texlive-eplain-doc-2024.213.3.13svn70002-56.3.noarch.rpm1.1 MiB2024-07-02 17:26:05
texlive-epigraph-keys-doc-2024.213.1.0svn61719-56.3.noarch.rpm335.5 KiB2024-07-02 17:26:05
texlive-envlab-doc-2024.213.1.2svn61937-56.3.noarch.rpm365.9 KiB2024-07-02 17:26:04
texlive-envbig-doc-2024.213.svn15878-56.3.noarch.rpm33.3 KiB2024-07-02 17:26:04
texlive-enumitem-2024.213.3.9svn51423-56.3.noarch.rpm47.4 KiB2024-07-02 17:26:04
texlive-eolang-2024.213.0.0.18.1svn69857-56.3.noarch.rpm43.5 KiB2024-07-02 17:26:04
texlive-eolang-doc-2024.213.0.0.18.1svn69857-56.3.noarch.rpm1.4 MiB2024-07-02 17:26:04
texlive-environ-doc-2024.213.0.0.3svn56615-56.3.noarch.rpm184.1 KiB2024-07-02 17:26:04
texlive-enumitem-zref-doc-2024.213.1.8svn21472-56.3.noarch.rpm702.2 KiB2024-07-02 17:26:04
texlive-enotez-doc-2024.213.0.0.10dsvn61490-56.3.noarch.rpm491.2 KiB2024-07-02 17:26:04
texlive-enotez-2024.213.0.0.10dsvn61490-56.3.noarch.rpm41.1 KiB2024-07-02 17:26:04
texlive-enumitem-doc-2024.213.3.9svn51423-56.3.noarch.rpm191.9 KiB2024-07-02 17:26:04
texlive-environ-2024.213.0.0.3svn56615-56.3.noarch.rpm35.7 KiB2024-07-02 17:26:04
texlive-envbig-2024.213.svn15878-56.3.noarch.rpm34.9 KiB2024-07-02 17:26:04
texlive-enumitem-zref-2024.213.1.8svn21472-56.3.noarch.rpm41.2 KiB2024-07-02 17:26:04
texlive-envlab-2024.213.1.2svn61937-56.3.noarch.rpm39.3 KiB2024-07-02 17:26:04
texlive-engrec-2024.213.1.1svn15878-56.3.noarch.rpm35.6 KiB2024-07-02 17:26:03
texlive-enigma-2024.213.0.0.1svn29802-56.3.noarch.rpm52.9 KiB2024-07-02 17:26:03
texlive-engrec-doc-2024.213.1.1svn15878-56.3.noarch.rpm295.0 KiB2024-07-02 17:26:03
texlive-endnotes-hy-2024.213.svn54758-56.3.noarch.rpm35.4 KiB2024-07-02 17:26:03
texlive-engpron-doc-2024.213.2svn16558-56.3.noarch.rpm1.9 MiB2024-07-02 17:26:03
texlive-endnotesj-2024.213.3.0svn47703-56.3.noarch.rpm38.9 KiB2024-07-02 17:26:03
texlive-endofproofwd-doc-2024.213.svn55643-56.3.noarch.rpm33.6 KiB2024-07-02 17:26:03
texlive-endofproofwd-2024.213.svn55643-56.3.noarch.rpm36.0 KiB2024-07-02 17:26:03
texlive-engpron-2024.213.2svn16558-56.3.noarch.rpm37.8 KiB2024-07-02 17:26:03
texlive-engtlc-doc-2024.213.3.2svn28571-56.3.noarch.rpm614.7 KiB2024-07-02 17:26:03
texlive-engtlc-2024.213.3.2svn28571-56.3.noarch.rpm37.4 KiB2024-07-02 17:26:03
texlive-endnotes-hy-doc-2024.213.svn54758-56.3.noarch.rpm328.2 KiB2024-07-02 17:26:03
texlive-enigma-doc-2024.213.0.0.1svn29802-56.3.noarch.rpm292.2 KiB2024-07-02 17:26:03
texlive-endnotesj-doc-2024.213.3.0svn47703-56.3.noarch.rpm182.0 KiB2024-07-02 17:26:03
texlive-endheads-doc-2024.213.1.6svn43750-56.3.noarch.rpm255.1 KiB2024-07-02 17:26:02
texlive-emulateapj-doc-2024.213.svn28469-56.3.noarch.rpm177.9 KiB2024-07-02 17:26:02
texlive-emptypage-doc-2024.213.1.2svn18064-56.3.noarch.rpm82.0 KiB2024-07-02 17:26:02
texlive-endfloat-2024.213.2.7svn57090-56.3.noarch.rpm38.9 KiB2024-07-02 17:26:02
texlive-endiagram-2024.213.0.0.1dsvn34486-56.3.noarch.rpm42.5 KiB2024-07-02 17:26:02
texlive-enctex-doc-2024.213.svn34957-56.3.noarch.rpm283.9 KiB2024-07-02 17:26:02
texlive-endiagram-doc-2024.213.0.0.1dsvn34486-56.3.noarch.rpm659.5 KiB2024-07-02 17:26:02
texlive-endheads-2024.213.1.6svn43750-56.3.noarch.rpm36.3 KiB2024-07-02 17:26:02
texlive-enctex-2024.213.svn34957-56.3.noarch.rpm64.4 KiB2024-07-02 17:26:02
texlive-encxvlna-2024.213.1.1svn34087-56.3.noarch.rpm36.4 KiB2024-07-02 17:26:02
texlive-endfloat-doc-2024.213.2.7svn57090-56.3.noarch.rpm210.8 KiB2024-07-02 17:26:02
texlive-endnotes-doc-2024.213.svn53319-56.3.noarch.rpm305.8 KiB2024-07-02 17:26:02
texlive-endnotes-2024.213.svn53319-56.3.noarch.rpm39.1 KiB2024-07-02 17:26:02
texlive-encxvlna-doc-2024.213.1.1svn34087-56.3.noarch.rpm277.5 KiB2024-07-02 17:26:02
texlive-emulateapj-2024.213.svn28469-56.3.noarch.rpm51.5 KiB2024-07-02 17:26:02
texlive-emisa-2024.213.2.3.0svn60068-56.3.noarch.rpm50.1 KiB2024-07-02 17:26:01
texlive-emojicite-2024.213.0.0.3svn55131-56.3.noarch.rpm34.9 KiB2024-07-02 17:26:01
texlive-emptypage-2024.213.1.2svn18064-56.3.noarch.rpm34.7 KiB2024-07-02 17:26:01
texlive-emojicite-doc-2024.213.0.0.3svn55131-56.3.noarch.rpm201.8 KiB2024-07-02 17:26:01
texlive-emf-doc-2024.213.1svn42023-56.3.noarch.rpm349.7 KiB2024-07-02 17:26:01
texlive-emisa-doc-2024.213.2.3.0svn60068-56.3.noarch.rpm532.2 KiB2024-07-02 17:26:01
texlive-emp-doc-2024.213.svn23483-56.3.noarch.rpm241.3 KiB2024-07-02 17:26:01
texlive-emo-fonts-2024.213.0.0.4svn66944-56.3.noarch.rpm37.3 KiB2024-07-02 17:26:01
texlive-emo-doc-2024.213.0.0.4svn66944-56.3.noarch.rpm317.7 KiB2024-07-02 17:26:01
texlive-emoji-doc-2024.213.0.0.2.2svn59961-56.3.noarch.rpm1.1 MiB2024-07-02 17:26:01
texlive-emp-2024.213.svn23483-56.3.noarch.rpm37.2 KiB2024-07-02 17:26:01
texlive-emotion-doc-2024.213.0.0.2svn69834-56.3.noarch.rpm67.6 KiB2024-07-02 17:26:01
texlive-emoji-2024.213.0.0.2.2svn59961-56.3.noarch.rpm77.7 KiB2024-07-02 17:26:01
texlive-emo-2024.213.0.0.4svn66944-56.3.noarch.rpm156.9 KiB2024-07-02 17:26:01
texlive-emotion-2024.213.0.0.2svn69834-56.3.noarch.rpm35.0 KiB2024-07-02 17:26:01
texlive-emarks-doc-2024.213.1.0svn24504-56.3.noarch.rpm1.4 MiB2024-07-02 17:26:00
texlive-elzcards-doc-2024.213.1.60svn51894-56.3.noarch.rpm216.1 KiB2024-07-02 17:26:00
texlive-embedall-2024.213.2.0svn51177-56.3.noarch.rpm35.6 KiB2024-07-02 17:26:00
texlive-emf-2024.213.1svn42023-56.3.noarch.rpm35.2 KiB2024-07-02 17:26:00
texlive-emarks-2024.213.1.0svn24504-56.3.noarch.rpm35.8 KiB2024-07-02 17:26:00
texlive-embrac-2024.213.0.0.9asvn57814-56.3.noarch.rpm37.7 KiB2024-07-02 17:26:00
texlive-embedall-doc-2024.213.2.0svn51177-56.3.noarch.rpm261.1 KiB2024-07-02 17:26:00
texlive-elvish-2024.213.svn15878-56.3.noarch.rpm45.3 KiB2024-07-02 17:26:00
texlive-elvish-doc-2024.213.svn15878-56.3.noarch.rpm35.3 KiB2024-07-02 17:26:00
texlive-elzcards-2024.213.1.60svn51894-56.3.noarch.rpm39.1 KiB2024-07-02 17:26:00
texlive-embrac-doc-2024.213.0.0.9asvn57814-56.3.noarch.rpm486.3 KiB2024-07-02 17:26:00
texlive-embedfile-doc-2024.213.2.12svn65528-56.3.noarch.rpm428.1 KiB2024-07-02 17:26:00
texlive-embedfile-2024.213.2.12svn65528-56.3.noarch.rpm39.0 KiB2024-07-02 17:26:00
texlive-elteikthesis-2024.213.2.3.1svn66820-56.3.noarch.rpm40.6 KiB2024-07-02 17:25:59
texlive-elteiktdk-doc-2024.213.2.0svn66821-56.3.noarch.rpm1.0 MiB2024-07-02 17:25:59
texlive-els-cas-templates-2024.213.2.3svn62931-56.3.noarch.rpm90.0 KiB2024-07-02 17:25:59
texlive-elteiktdk-2024.213.2.0svn66821-56.3.noarch.rpm36.9 KiB2024-07-02 17:25:59
texlive-elsarticle-2024.213.3.3svn56999-56.3.noarch.rpm53.2 KiB2024-07-02 17:25:59
texlive-elsarticle-doc-2024.213.3.3svn56999-56.3.noarch.rpm820.0 KiB2024-07-02 17:25:59
texlive-eltex-2024.213.2.0svn15878-56.3.noarch.rpm47.4 KiB2024-07-02 17:25:59
texlive-elteikthesis-doc-2024.213.2.3.1svn66820-56.3.noarch.rpm1.1 MiB2024-07-02 17:25:59
texlive-eltex-doc-2024.213.2.0svn15878-56.3.noarch.rpm205.4 KiB2024-07-02 17:25:59
texlive-elpres-2024.213.1.0.1svn60209-56.3.noarch.rpm112.0 KiB2024-07-02 17:25:59
texlive-elocalloc-doc-2024.213.0.0.03svn42712-56.3.noarch.rpm181.9 KiB2024-07-02 17:25:59
texlive-els-cas-templates-doc-2024.213.2.3svn62931-56.3.noarch.rpm375.8 KiB2024-07-02 17:25:59
texlive-elpres-doc-2024.213.1.0.1svn60209-56.3.noarch.rpm410.5 KiB2024-07-02 17:25:59
texlive-elocalloc-2024.213.0.0.03svn42712-56.3.noarch.rpm34.8 KiB2024-07-02 17:25:59
texlive-ellipse-doc-2024.213.1.0svn39025-56.3.noarch.rpm438.7 KiB2024-07-02 17:25:58
texlive-elmath-doc-2024.213.1.2svn15878-56.3.noarch.rpm94.5 KiB2024-07-02 17:25:58
texlive-eledform-2024.213.1.1asvn38114-56.3.noarch.rpm35.1 KiB2024-07-02 17:25:58
texlive-ellipse-2024.213.1.0svn39025-56.3.noarch.rpm36.6 KiB2024-07-02 17:25:58
texlive-elmath-2024.213.1.2svn15878-56.3.noarch.rpm35.8 KiB2024-07-02 17:25:58
texlive-eledmac-doc-2024.213.1.24.12svn45418-56.3.noarch.rpm1.8 MiB2024-07-02 17:25:58
texlive-elements-2024.213.0.0.4svn61792-56.3.noarch.rpm44.3 KiB2024-07-02 17:25:58
texlive-elements-doc-2024.213.0.0.4svn61792-56.3.noarch.rpm436.2 KiB2024-07-02 17:25:58
texlive-ellipsis-doc-2024.213.1.8svn55418-56.3.noarch.rpm243.6 KiB2024-07-02 17:25:58
texlive-electrum-doc-2024.213.1.005_bsvn19705-56.3.noarch.rpm306.1 KiB2024-07-02 17:25:58
texlive-eledform-doc-2024.213.1.1asvn38114-56.3.noarch.rpm157.4 KiB2024-07-02 17:25:58
texlive-electrum-fonts-2024.213.1.005_bsvn19705-56.3.noarch.rpm613.5 KiB2024-07-02 17:25:58
texlive-electrum-2024.213.1.005_bsvn19705-56.3.noarch.rpm229.8 KiB2024-07-02 17:25:58
texlive-ellipsis-2024.213.1.8svn55418-56.3.noarch.rpm35.4 KiB2024-07-02 17:25:58
texlive-eledmac-2024.213.1.24.12svn45418-56.3.noarch.rpm73.2 KiB2024-07-02 17:25:58
texlive-ejpecp-doc-2024.213.1.11.3svn60950-56.3.noarch.rpm310.3 KiB2024-07-02 17:25:57
texlive-ejpecp-2024.213.1.11.3svn60950-56.3.noarch.rpm39.9 KiB2024-07-02 17:25:57
texlive-einfart-doc-2024.213.svn70313-56.3.noarch.rpm280.3 KiB2024-07-02 17:25:57
texlive-ekaia-2024.213.1.06svn49594-56.3.noarch.rpm36.5 KiB2024-07-02 17:25:57
texlive-ektype-tanka-fonts-2024.213.0.0.2svn63255-56.3.noarch.rpm2.0 MiB2024-07-02 17:25:57
texlive-ektype-tanka-doc-2024.213.0.0.2svn63255-56.3.noarch.rpm85.0 KiB2024-07-02 17:25:57
texlive-ekaia-doc-2024.213.1.06svn49594-56.3.noarch.rpm248.2 KiB2024-07-02 17:25:57
texlive-elbioimp-doc-2024.213.1.2svn21758-56.3.noarch.rpm313.9 KiB2024-07-02 17:25:57
texlive-einfart-2024.213.svn70313-56.3.noarch.rpm39.6 KiB2024-07-02 17:25:57
texlive-ekdosis-2024.213.1.4svn69568-56.3.noarch.rpm55.8 KiB2024-07-02 17:25:57
texlive-ekdosis-doc-2024.213.1.4svn69568-56.3.noarch.rpm827.4 KiB2024-07-02 17:25:57
texlive-ektype-tanka-2024.213.0.0.2svn63255-56.3.noarch.rpm36.4 KiB2024-07-02 17:25:57
texlive-elbioimp-2024.213.1.2svn21758-56.3.noarch.rpm35.9 KiB2024-07-02 17:25:57
texlive-ehhline-doc-2024.213.1.1svn54676-56.3.noarch.rpm63.5 KiB2024-07-02 17:25:56
texlive-ehhline-2024.213.1.1svn54676-56.3.noarch.rpm35.2 KiB2024-07-02 17:25:56
texlive-eiad-2024.213.svn15878-56.3.noarch.rpm70.5 KiB2024-07-02 17:25:56
texlive-eijkhout-2024.213.svn15878-56.3.noarch.rpm40.9 KiB2024-07-02 17:25:56
texlive-egameps-doc-2024.213.1.1svn15878-56.3.noarch.rpm167.4 KiB2024-07-02 17:25:56
texlive-egameps-2024.213.1.1svn15878-56.3.noarch.rpm40.2 KiB2024-07-02 17:25:56
texlive-egplot-2024.213.1.02asvn20617-56.3.noarch.rpm37.3 KiB2024-07-02 17:25:56
texlive-egpeirce-doc-2024.213.1.0.0svn66924-56.3.noarch.rpm4.8 MiB2024-07-02 17:25:56
texlive-egplot-doc-2024.213.1.02asvn20617-56.3.noarch.rpm502.2 KiB2024-07-02 17:25:56
texlive-eiad-ltx-2024.213.1.0svn15878-56.3.noarch.rpm37.6 KiB2024-07-02 17:25:56
texlive-egpeirce-2024.213.1.0.0svn66924-56.3.noarch.rpm55.5 KiB2024-07-02 17:25:56
texlive-eiad-doc-2024.213.svn15878-56.3.noarch.rpm156.9 KiB2024-07-02 17:25:56
texlive-eiad-ltx-doc-2024.213.1.0svn15878-56.3.noarch.rpm34.8 KiB2024-07-02 17:25:56
texlive-efbox-doc-2024.213.1.0svn33236-56.3.noarch.rpm174.4 KiB2024-07-02 17:25:55
texlive-efbox-2024.213.1.0svn33236-56.3.noarch.rpm35.5 KiB2024-07-02 17:25:55
texlive-edmac-doc-2024.213.3.17svn61719-56.3.noarch.rpm123.7 KiB2024-07-02 17:25:55
texlive-edmargin-2024.213.1.2svn27599-56.3.noarch.rpm38.4 KiB2024-07-02 17:25:55
texlive-edmac-2024.213.3.17svn61719-56.3.noarch.rpm47.1 KiB2024-07-02 17:25:55
texlive-edichokey-doc-2024.213.2.01ysvn56223-56.3.noarch.rpm168.1 KiB2024-07-02 17:25:55
texlive-eepic-2024.213.1.1esvn15878-56.3.noarch.rpm45.8 KiB2024-07-02 17:25:55
texlive-eemeir-doc-2024.213.1.1bsvn15878-56.3.noarch.rpm164.8 KiB2024-07-02 17:25:55
texlive-edmargin-doc-2024.213.1.2svn27599-56.3.noarch.rpm324.1 KiB2024-07-02 17:25:55
texlive-edfnotes-doc-2024.213.0.0.6bsvn21540-56.3.noarch.rpm309.4 KiB2024-07-02 17:25:55
texlive-eemeir-2024.213.1.1bsvn15878-56.3.noarch.rpm35.7 KiB2024-07-02 17:25:55
texlive-eepic-doc-2024.213.1.1esvn15878-56.3.noarch.rpm129.4 KiB2024-07-02 17:25:55
texlive-edichokey-2024.213.2.01ysvn56223-56.3.noarch.rpm35.5 KiB2024-07-02 17:25:55
texlive-edfnotes-2024.213.0.0.6bsvn21540-56.3.noarch.rpm47.6 KiB2024-07-02 17:25:55
texlive-econ-bst-doc-2024.213.3.2svn68761-56.3.noarch.rpm984.3 KiB2024-07-02 17:25:54
texlive-ed-2024.213.1.8svn25231-56.3.noarch.rpm36.5 KiB2024-07-02 17:25:54
texlive-economic-doc-2024.213.svn32639-56.3.noarch.rpm832.3 KiB2024-07-02 17:25:54
texlive-econometrics-doc-2024.213.1.0svn39396-56.3.noarch.rpm218.5 KiB2024-07-02 17:25:54
texlive-econlipsum-2024.213.0.0.8.2svn58390-56.3.noarch.rpm113.6 KiB2024-07-02 17:25:54
texlive-eczar-doc-2024.213.0.0.1svn57716-56.3.noarch.rpm77.7 KiB2024-07-02 17:25:54
texlive-ecothesis-2024.213.1.2svn48007-56.3.noarch.rpm367.3 KiB2024-07-02 17:25:54
texlive-ed-doc-2024.213.1.8svn25231-56.3.noarch.rpm316.0 KiB2024-07-02 17:25:54
texlive-ecv-2024.213.0.0.3svn24928-56.3.noarch.rpm38.2 KiB2024-07-02 17:25:54
texlive-ecv-doc-2024.213.0.0.3svn24928-56.3.noarch.rpm280.3 KiB2024-07-02 17:25:54
texlive-econlipsum-doc-2024.213.0.0.8.2svn58390-56.3.noarch.rpm582.9 KiB2024-07-02 17:25:54
texlive-economic-2024.213.svn32639-56.3.noarch.rpm68.2 KiB2024-07-02 17:25:54
texlive-econometrics-2024.213.1.0svn39396-56.3.noarch.rpm36.5 KiB2024-07-02 17:25:54
texlive-eczar-fonts-2024.213.0.0.1svn57716-56.3.noarch.rpm486.2 KiB2024-07-02 17:25:54
texlive-eczar-2024.213.0.0.1svn57716-56.3.noarch.rpm35.3 KiB2024-07-02 17:25:54
texlive-ec-2024.213.1.0svn25033-56.3.noarch.rpm503.9 KiB2024-07-02 17:25:53
texlive-eco-doc-2024.213.1.3svn29349-56.3.noarch.rpm41.6 KiB2024-07-02 17:25:53
texlive-ecltree-doc-2024.213.1.1asvn15878-56.3.noarch.rpm65.1 KiB2024-07-02 17:25:53
texlive-eco-2024.213.1.3svn29349-56.3.noarch.rpm290.9 KiB2024-07-02 17:25:53
texlive-ecobiblatex-2024.213.1.0svn39233-56.3.noarch.rpm35.6 KiB2024-07-02 17:25:53
texlive-ecclesiastic-doc-2024.213.0.0.3svn38172-56.3.noarch.rpm392.2 KiB2024-07-02 17:25:53
texlive-ecclesiastic-2024.213.0.0.3svn38172-56.3.noarch.rpm36.5 KiB2024-07-02 17:25:53
texlive-ec-doc-2024.213.1.0svn25033-56.3.noarch.rpm57.2 KiB2024-07-02 17:25:53
texlive-ecobiblatex-doc-2024.213.1.0svn39233-56.3.noarch.rpm456.3 KiB2024-07-02 17:25:53
texlive-ecgdraw-2024.213.0.0.1svn41617-56.3.noarch.rpm36.9 KiB2024-07-02 17:25:53
texlive-ecc-doc-2024.213.svn15878-56.3.noarch.rpm35.9 KiB2024-07-02 17:25:53
texlive-ecc-2024.213.svn15878-56.3.noarch.rpm61.0 KiB2024-07-02 17:25:53
texlive-ecgdraw-doc-2024.213.0.0.1svn41617-56.3.noarch.rpm736.4 KiB2024-07-02 17:25:53
texlive-ecltree-2024.213.1.1asvn15878-56.3.noarch.rpm35.8 KiB2024-07-02 17:25:53
texlive-econ-bst-2024.213.3.2svn68761-56.3.noarch.rpm55.0 KiB2024-07-02 17:25:53
texlive-ebezier-doc-2024.213.4svn15878-56.3.noarch.rpm313.2 KiB2024-07-02 17:25:52
texlive-ebsthesis-2024.213.1.0svn15878-56.3.noarch.rpm40.2 KiB2024-07-02 17:25:52
texlive-ebsthesis-doc-2024.213.1.0svn15878-56.3.noarch.rpm276.7 KiB2024-07-02 17:25:52
texlive-ebproof-doc-2024.213.2.1.1svn57544-56.3.noarch.rpm514.0 KiB2024-07-02 17:25:52
texlive-ebgaramond-doc-2024.213.svn66604-56.3.noarch.rpm543.3 KiB2024-07-02 17:25:52
texlive-ebgaramond-maths-doc-2024.213.1.2svn52168-56.3.noarch.rpm396.9 KiB2024-07-02 17:25:52
texlive-ebgaramond-fonts-2024.213.svn66604-56.3.noarch.rpm7.9 MiB2024-07-02 17:25:52
texlive-ebgaramond-2024.213.svn66604-56.3.noarch.rpm814.8 KiB2024-07-02 17:25:52
texlive-ebook-doc-2024.213.svn29466-56.3.noarch.rpm33.7 KiB2024-07-02 17:25:52
texlive-ebproof-2024.213.2.1.1svn57544-56.3.noarch.rpm37.9 KiB2024-07-02 17:25:52
texlive-ebook-2024.213.svn29466-56.3.noarch.rpm35.3 KiB2024-07-02 17:25:52
texlive-ebgaramond-maths-2024.213.1.2svn52168-56.3.noarch.rpm38.5 KiB2024-07-02 17:25:52
texlive-ebezier-2024.213.4svn15878-56.3.noarch.rpm37.8 KiB2024-07-02 17:25:52
texlive-easylist-doc-2024.213.1.3svn32661-56.3.noarch.rpm622.4 KiB2024-07-02 17:25:51
texlive-easybook-2024.213.2024ansvn70230-56.3.noarch.rpm50.9 KiB2024-07-02 17:25:51
texlive-easyfloats-2024.213.1.0.0svn57204-56.3.noarch.rpm42.8 KiB2024-07-02 17:25:51
texlive-easyfig-2024.213.1.2asvn64967-56.3.noarch.rpm35.8 KiB2024-07-02 17:25:51
texlive-easyfloats-doc-2024.213.1.0.0svn57204-56.3.noarch.rpm607.0 KiB2024-07-02 17:25:51
texlive-easybook-doc-2024.213.2024ansvn70230-56.3.noarch.rpm645.2 KiB2024-07-02 17:25:51
texlive-easyformat-doc-2024.213.1.4.0svn44543-56.3.noarch.rpm81.7 KiB2024-07-02 17:25:51
texlive-easyreview-doc-2024.213.1.0svn38352-56.3.noarch.rpm354.3 KiB2024-07-02 17:25:51
texlive-easyformat-2024.213.1.4.0svn44543-56.3.noarch.rpm36.1 KiB2024-07-02 17:25:51
texlive-easylist-2024.213.1.3svn32661-56.3.noarch.rpm39.5 KiB2024-07-02 17:25:51
texlive-easyfig-doc-2024.213.1.2asvn64967-56.3.noarch.rpm203.8 KiB2024-07-02 17:25:51
texlive-easydtx-2024.213.0.0.1.0svn68514-56.3.noarch.rpm35.7 KiB2024-07-02 17:25:51
texlive-easyreview-2024.213.1.0svn38352-56.3.noarch.rpm35.3 KiB2024-07-02 17:25:51
texlive-easydtx-doc-2024.213.0.0.1.0svn68514-56.3.noarch.rpm48.2 KiB2024-07-02 17:25:51
texlive-ean-doc-2024.213.svn20851-56.3.noarch.rpm33.9 KiB2024-07-02 17:25:50
texlive-e-french-doc-2024.213.6.11svn52027-56.3.noarch.rpm2.7 MiB2024-07-02 17:25:50
texlive-easy-todo-doc-2024.213.svn32677-56.3.noarch.rpm168.9 KiB2024-07-02 17:25:50
texlive-easy-2024.213.0.0.99svn19440-56.3.noarch.rpm47.0 KiB2024-07-02 17:25:50
texlive-e-french-2024.213.6.11svn52027-56.3.noarch.rpm89.5 KiB2024-07-02 17:25:50
texlive-easing-doc-2024.213.0.0.1svn59975-56.3.noarch.rpm336.1 KiB2024-07-02 17:25:50
texlive-ean-2024.213.svn20851-56.3.noarch.rpm36.9 KiB2024-07-02 17:25:50
texlive-ean13isbn-doc-2024.213.svn57514-56.3.noarch.rpm346.1 KiB2024-07-02 17:25:50
texlive-easy-doc-2024.213.0.0.99svn19440-56.3.noarch.rpm38.4 KiB2024-07-02 17:25:50
texlive-dyntree-doc-2024.213.1.0svn67016-56.3.noarch.rpm157.3 KiB2024-07-02 17:25:50
texlive-easy-todo-2024.213.svn32677-56.3.noarch.rpm35.0 KiB2024-07-02 17:25:50
texlive-easing-2024.213.0.0.1svn59975-56.3.noarch.rpm35.8 KiB2024-07-02 17:25:50
texlive-ean13isbn-2024.213.svn57514-56.3.noarch.rpm35.5 KiB2024-07-02 17:25:50
texlive-dvipng-2024.213.1.17svn70015-56.3.noarch.rpm288.0 KiB2024-07-02 17:25:49
texlive-dvipos-2024.213.svn66186-56.3.noarch.rpm35.7 KiB2024-07-02 17:25:49
texlive-dynamicnumber-2024.213.0.0.1.3svn38726-56.3.noarch.rpm35.4 KiB2024-07-02 17:25:49
texlive-dvips-doc-2024.213.svn70015-56.3.noarch.rpm543.5 KiB2024-07-02 17:25:49
texlive-dynkin-diagrams-doc-2024.213.3.1415926535897932384svn67267-56.3.noarch.rpm900.1 KiB2024-07-02 17:25:49
texlive-dynblocks-2024.213.0.0.2bsvn35193-56.3.noarch.rpm35.8 KiB2024-07-02 17:25:49
texlive-dvipdfmx-doc-2024.213.svn69127-56.3.noarch.rpm3.0 MiB2024-07-02 17:25:49
texlive-dynamicnumber-doc-2024.213.0.0.1.3svn38726-56.3.noarch.rpm187.1 KiB2024-07-02 17:25:49
texlive-dynkin-diagrams-2024.213.3.1415926535897932384svn67267-56.3.noarch.rpm54.5 KiB2024-07-02 17:25:49
texlive-dvipsconfig-2024.213.1.6svn13293-56.3.noarch.rpm49.3 KiB2024-07-02 17:25:49
texlive-dynblocks-doc-2024.213.0.0.2bsvn35193-56.3.noarch.rpm402.2 KiB2024-07-02 17:25:49
texlive-dvisvgm-2024.213.3.2.2svn70501-56.3.noarch.rpm57.5 KiB2024-07-02 17:25:49
texlive-dvips-2024.213.svn70015-56.3.noarch.rpm104.9 KiB2024-07-02 17:25:49
texlive-dyntree-2024.213.1.0svn67016-56.3.noarch.rpm37.0 KiB2024-07-02 17:25:49
texlive-dviasm-2024.213.svn68043-56.3.noarch.rpm44.2 KiB2024-07-02 17:25:48
texlive-dviinfox-2024.213.1.06svn59216-56.3.noarch.rpm37.4 KiB2024-07-02 17:25:48
texlive-dvipdfmx-2024.213.svn69127-56.3.noarch.rpm65.9 KiB2024-07-02 17:25:48
texlive-dvgloss-2024.213.0.0.1svn29103-56.3.noarch.rpm35.7 KiB2024-07-02 17:25:48
texlive-dvidvi-2024.213.svn65952-56.3.noarch.rpm36.3 KiB2024-07-02 17:25:48
texlive-dviout-util-2024.213.svn66186-56.3.noarch.rpm37.3 KiB2024-07-02 17:25:48
texlive-dviinfox-doc-2024.213.1.06svn59216-56.3.noarch.rpm35.2 KiB2024-07-02 17:25:48
texlive-dvdcoll-doc-2024.213.1.1asvn15878-56.3.noarch.rpm234.0 KiB2024-07-02 17:25:48
texlive-dviljk-2024.213.svn66186-56.3.noarch.rpm46.0 KiB2024-07-02 17:25:48
texlive-dvicopy-2024.213.1.5svn70015-56.3.noarch.rpm34.9 KiB2024-07-02 17:25:48
texlive-dviincl-2024.213.1.00svn29349-56.3.noarch.rpm34.8 KiB2024-07-02 17:25:48
texlive-dviincl-doc-2024.213.1.00svn29349-56.3.noarch.rpm37.2 KiB2024-07-02 17:25:48
texlive-dviasm-doc-2024.213.svn68043-56.3.noarch.rpm36.1 KiB2024-07-02 17:25:48
texlive-dvgloss-doc-2024.213.0.0.1svn29103-56.3.noarch.rpm231.7 KiB2024-07-02 17:25:48
texlive-dvdcoll-2024.213.1.1asvn15878-56.3.noarch.rpm53.5 KiB2024-07-02 17:25:47
epiphany-branding-openSUSE-46.2-1.5.noarch.rpm16.0 KiB2024-07-02 17:23:44
postgresql16-docs-16.3-1.3.noarch.rpm2.1 MiB2024-07-02 17:22:21
ghc-hledger-lib-doc-1.34-1.6.noarch.rpm866.9 KiB2024-07-02 17:21:51
ghc-skylighting-doc-0.14.2-1.1.noarch.rpm968.8 KiB2024-07-02 17:21:06
vim-data-9.1.0512-1.2.noarch.rpm7.7 MiB2024-07-02 17:19:23
vim-data-common-9.1.0512-1.2.noarch.rpm437.1 KiB2024-07-02 17:19:23
ghc-xmobar-doc-0.48.1-1.12.noarch.rpm357.8 KiB2024-07-02 17:19:04
weechat-lang-4.3.1-1.2.noarch.rpm695.7 KiB2024-07-02 17:17:55
winrs-2.7.2-3.3.noarch.rpm12.5 KiB2024-07-02 17:17:49
openwsman-java-2.7.2-3.3.noarch.rpm211.7 KiB2024-07-02 17:17:48
openwsman-ruby-docs-2.7.2-3.3.noarch.rpm298.4 KiB2024-07-02 17:17:48
subunit-shell-1.4.2-3.7.noarch.rpm16.4 KiB2024-07-02 17:17:30
subunit-filters-1.4.2-3.7.noarch.rpm11.7 KiB2024-07-02 17:17:30
python312-python-subunit-1.4.2-3.7.noarch.rpm131.4 KiB2024-07-02 17:17:29
perl-subunit-1.4.2-3.7.noarch.rpm17.4 KiB2024-07-02 17:17:29
python310-python-subunit-1.4.2-3.7.noarch.rpm110.9 KiB2024-07-02 17:17:29
python311-python-subunit-1.4.2-3.7.noarch.rpm135.5 KiB2024-07-02 17:17:29
ghc-skylighting-format-context-doc-0.1.0.2-1.42.noarch.rpm43.7 KiB2024-07-02 17:17:25
ghc-skylighting-format-latex-doc-0.1-2.42.noarch.rpm44.4 KiB2024-07-02 17:17:23
ghc-skylighting-format-ansi-doc-0.1-2.43.noarch.rpm49.2 KiB2024-07-02 17:17:23
perl-Graph-0.9729-1.1.noarch.rpm122.2 KiB2024-07-02 17:17:20
ghc-skylighting-format-blaze-html-doc-0.1.1.2-1.17.noarch.rpm47.8 KiB2024-07-02 17:17:20
ghc-tasty-quickcheck-doc-0.10.3-2.3.noarch.rpm80.8 KiB2024-07-02 17:17:18
ghc-tasty-rerun-doc-1.1.19-4.4.noarch.rpm51.8 KiB2024-07-02 17:17:17
openldap2-doc-2.6.7-2.2.noarch.rpm1018.3 KiB2024-07-02 17:14:10
libldap-data-2.6.7-2.2.noarch.rpm28.4 KiB2024-07-02 17:14:09
perl-Net-Daemon-0.49-1.19.noarch.rpm44.4 KiB2024-07-02 17:13:54
warewulf-doc-3.8.1-13.2.noarch.rpm23.4 KiB2024-07-02 17:13:51
warewulf-common-3.8.1-13.2.noarch.rpm27.3 KiB2024-07-02 17:13:51
perl-warewulf-common-3.8.1-13.2.noarch.rpm79.1 KiB2024-07-02 17:13:50
rpmlint-2.5.0+git20240624.609e1aa-1.2.noarch.rpm460.8 KiB2024-07-02 17:13:49
shorewall-docs-5.2.8-6.3.noarch.rpm3.9 MiB2024-07-02 17:13:44
shorewall-lite-5.2.8-6.3.noarch.rpm51.9 KiB2024-07-02 17:13:44
shorewall-core-5.2.8-6.3.noarch.rpm82.2 KiB2024-07-02 17:13:44
shorewall6-5.2.8-6.3.noarch.rpm132.3 KiB2024-07-02 17:13:44
shorewall6-lite-5.2.8-6.3.noarch.rpm52.0 KiB2024-07-02 17:13:44
shorewall-5.2.8-6.3.noarch.rpm576.9 KiB2024-07-02 17:13:44
shorewall-init-5.2.8-6.3.noarch.rpm49.5 KiB2024-07-02 17:13:44
perl-Test-MockTime-0.17-1.26.noarch.rpm14.9 KiB2024-07-02 17:13:40
perl-File-Tail-1.3-1.31.noarch.rpm28.6 KiB2024-07-02 17:13:38
whohas-0.29.1-1.27.noarch.rpm193.3 KiB2024-07-02 17:13:34
perl-experimental-0.32.0-1.2.noarch.rpm28.0 KiB2024-07-02 17:13:33
sypper-0.06-1.2.noarch.rpm23.3 KiB2024-07-02 17:13:33
perl-asa-1.04-1.22.noarch.rpm23.8 KiB2024-07-02 17:13:32
perl-prefork-1.05-1.22.noarch.rpm24.4 KiB2024-07-02 17:13:32
perl-UNIVERSAL-moniker-0.08-13.31.noarch.rpm11.5 KiB2024-07-02 17:13:32
perl-Test2-Suite-0.000163-1.2.noarch.rpm424.7 KiB2024-07-02 17:13:31
perl-Perl-Tidy-20240511.0.0-1.2.noarch.rpm812.9 KiB2024-07-02 17:13:31
perl-XML-Atom-SimpleFeed-0.905-1.7.noarch.rpm32.6 KiB2024-07-02 17:13:31
perl-XML-Namespace-0.02-1.31.noarch.rpm13.7 KiB2024-07-02 17:13:31
perl-Time-Clock-1.03-3.32.noarch.rpm16.8 KiB2024-07-02 17:13:30
perl-boolean-0.46-1.28.noarch.rpm24.0 KiB2024-07-02 17:13:30
perl-lib-relative-1.2.0-2.2.noarch.rpm18.9 KiB2024-07-02 17:13:30
perl-Tie-Handle-Offset-0.004-1.17.noarch.rpm19.2 KiB2024-07-02 17:13:30
perl-Text-CSV-2.40.0-2.2.noarch.rpm116.4 KiB2024-07-02 17:13:28
perl-strictures-2.000006-1.24.noarch.rpm32.4 KiB2024-07-02 17:13:28
unpack-install-jammer-0.2.0-1.12.noarch.rpm25.2 KiB2024-07-02 17:13:28
perl-Test-Simple-1.302199-1.2.noarch.rpm392.8 KiB2024-07-02 17:13:28
perl-X11-Protocol-0.56-16.2.noarch.rpm98.5 KiB2024-07-02 17:13:28
perl-Time-Period-1.25-1.32.noarch.rpm25.4 KiB2024-07-02 17:13:28
perl-Text-Roman-3.5-1.30.noarch.rpm21.7 KiB2024-07-02 17:13:27
perl-UUID-Tiny-1.04-1.9.noarch.rpm23.6 KiB2024-07-02 17:13:27
perl-Text-Glob-0.11-1.28.noarch.rpm13.2 KiB2024-07-02 17:13:27
sendxmpp-1.24-3.7.noarch.rpm17.2 KiB2024-07-02 17:13:27
perl-UNIVERSAL-isa-1.20171012-1.26.noarch.rpm22.1 KiB2024-07-02 17:13:26
perl-curry-2.000001-1.12.noarch.rpm17.9 KiB2024-07-02 17:13:26
perl-UNIVERSAL-can-1.20140328-3.32.noarch.rpm21.3 KiB2024-07-02 17:13:26
perl-Tie-Simple-1.04-1.31.noarch.rpm26.3 KiB2024-07-02 17:13:26
perl-constant-defer-6-2.31.noarch.rpm31.8 KiB2024-07-02 17:13:26
perl-Time-Local-1.35-1.6.noarch.rpm35.8 KiB2024-07-02 17:13:26
perl-Mojolicious-9.370.0-1.2.noarch.rpm1004.8 KiB2024-07-02 17:13:25
perl-Text-SimpleTable-2.07-1.17.noarch.rpm17.7 KiB2024-07-02 17:13:25
perl-Text-German-0.06-1.32.noarch.rpm20.4 KiB2024-07-02 17:13:25
perl-UNIVERSAL-require-0.19-1.16.noarch.rpm16.1 KiB2024-07-02 17:13:25
perl-Text-TabularDisplay-1.38-3.31.noarch.rpm26.4 KiB2024-07-02 17:13:25
perl-XML-SAX-Base-1.09-1.29.noarch.rpm31.6 KiB2024-07-02 17:13:24
perl-Tie-ToObject-0.03-13.32.noarch.rpm10.6 KiB2024-07-02 17:13:24
perl-Try-Tiny-0.31-1.13.noarch.rpm31.8 KiB2024-07-02 17:13:24
perl-Time-Duration-1.210000-1.24.noarch.rpm25.9 KiB2024-07-02 17:13:24
perl-Time-Tiny-1.08-1.26.noarch.rpm24.2 KiB2024-07-02 17:13:24
perl-Test-API-0.010-1.18.noarch.rpm19.9 KiB2024-07-02 17:13:24
perl-Tie-Hash-Method-0.02-1.26.noarch.rpm15.1 KiB2024-07-02 17:13:24
perl-Text-Levenshtein-0.15-1.4.noarch.rpm23.2 KiB2024-07-02 17:13:23
perl-XML-NamespaceFactory-1.02-1.32.noarch.rpm18.9 KiB2024-07-02 17:13:23
perl-Tie-Cycle-1.228.0-2.2.noarch.rpm19.2 KiB2024-07-02 17:13:23
perl-Test-NoWarnings-1.06-1.15.noarch.rpm27.5 KiB2024-07-02 17:13:22
perl-Test-LongString-0.17-1.32.noarch.rpm16.6 KiB2024-07-02 17:13:22
perl-Test-Warnings-0.33.0-2.2.noarch.rpm35.6 KiB2024-07-02 17:13:22
perl-Test-Needs-0.002010-1.6.noarch.rpm23.3 KiB2024-07-02 17:13:22
perl-XML-RegExp-0.04-9.31.noarch.rpm12.5 KiB2024-07-02 17:13:22
perl-Test-EOL-2.02-1.18.noarch.rpm25.1 KiB2024-07-02 17:13:22
perl-Proc-Simple-1.32-1.32.noarch.rpm24.3 KiB2024-07-02 17:13:22
perl-Test-Lib-0.003-1.9.noarch.rpm17.1 KiB2024-07-02 17:13:21
perl-TAP-Formatter-GitHubActions-0.3.4-1.4.noarch.rpm23.8 KiB2024-07-02 17:13:21
perl-Text-Brew-0.02-3.31.noarch.rpm14.7 KiB2024-07-02 17:13:21
perl-Sys-Hostname-Long-1.5-2.28.noarch.rpm16.2 KiB2024-07-02 17:13:20
perl-Test-Inter-1.110.0-2.2.noarch.rpm52.5 KiB2024-07-02 17:13:20
perl-Test-Synopsis-0.17-1.12.noarch.rpm27.3 KiB2024-07-02 17:13:20
perl-Test-InDistDir-1.112071-9.32.noarch.rpm12.5 KiB2024-07-02 17:13:20
perl-Test-RequiresInternet-0.05-1.31.noarch.rpm18.7 KiB2024-07-02 17:13:20
perl-Regexp-Common-2017060201-1.27.noarch.rpm186.2 KiB2024-07-02 17:13:20
perl-Sys-SigAction-0.23-1.28.noarch.rpm34.9 KiB2024-07-02 17:13:20
perl-Test-NoTabs-2.02-1.26.noarch.rpm22.3 KiB2024-07-02 17:13:20
perl-Unicode-EastAsianWidth-12.0-1.19.noarch.rpm19.4 KiB2024-07-02 17:13:20
perl-Test-Manifest-2.24.0-2.2.noarch.rpm24.2 KiB2024-07-02 17:13:19
perl-Test-utf8-1.02-1.20.noarch.rpm16.6 KiB2024-07-02 17:13:19
perl-Test-HasVersion-0.014-1.31.noarch.rpm21.5 KiB2024-07-02 17:13:19
perl-Term-Encoding-0.03-1.24.noarch.rpm17.0 KiB2024-07-02 17:13:19
perl-Term-Table-0.18.0-2.2.noarch.rpm43.2 KiB2024-07-02 17:13:18
perl-Test-Deep-1.204-2.2.noarch.rpm108.3 KiB2024-07-02 17:13:18
perl-Test-MockRandom-1.01-1.27.noarch.rpm27.7 KiB2024-07-02 17:13:18
perl-Test-Time-0.092-1.9.noarch.rpm18.7 KiB2024-07-02 17:13:18
perl-Sub-Quote-2.006008-1.6.noarch.rpm37.3 KiB2024-07-02 17:13:18
perl-Sort-Versions-1.62-1.29.noarch.rpm22.2 KiB2024-07-02 17:13:18
perl-Test-More-UTF8-0.05-1.26.noarch.rpm10.6 KiB2024-07-02 17:13:18
perl-Test2-Formatter-YAMLEnhancedTAP-0.0.5-1.4.noarch.rpm11.9 KiB2024-07-02 17:13:17
perl-Test-LectroTest-0.5001-1.27.noarch.rpm84.4 KiB2024-07-02 17:13:17
perl-Test-Requires-0.11-1.20.noarch.rpm19.1 KiB2024-07-02 17:13:17
perl-Test-Object-0.08-1.26.noarch.rpm22.3 KiB2024-07-02 17:13:17
perl-Test-Without-Module-0.21-1.7.noarch.rpm14.6 KiB2024-07-02 17:13:17
perl-Term-Size-Perl-0.031-2.15.noarch.rpm20.2 KiB2024-07-02 17:13:17
perl-Test-Number-Delta-1.060000-1.31.noarch.rpm24.7 KiB2024-07-02 17:13:16
perl-Smart-Comments-1.06-1.30.noarch.rpm31.7 KiB2024-07-02 17:13:16
perl-Test-CPAN-Meta-0.25-2.21.noarch.rpm25.3 KiB2024-07-02 17:13:16
perl-Sub-Exporter-Progressive-0.001013-1.28.noarch.rpm20.1 KiB2024-07-02 17:13:13
perl-Stream-Buffered-0.03-1.33.noarch.rpm18.1 KiB2024-07-02 17:13:13
perl-Test-UseAllModules-0.17-1.32.noarch.rpm13.3 KiB2024-07-02 17:13:13
perl-Return-Value-1.666005-1.26.noarch.rpm24.2 KiB2024-07-02 17:13:12
perl-Probe-Perl-0.03-3.31.noarch.rpm20.2 KiB2024-07-02 17:13:12
perl-Proc-SyncExec-1.01-1.18.noarch.rpm14.8 KiB2024-07-02 17:13:11
perl-Template-Tiny-1.14-1.15.noarch.rpm23.7 KiB2024-07-02 17:13:11
perl-Role-Tiny-2.002004-1.17.noarch.rpm36.0 KiB2024-07-02 17:13:10
perl-Set-Tiny-0.50.0-1.2.noarch.rpm22.5 KiB2024-07-02 17:13:10
perl-Rose-Object-0.860-1.32.noarch.rpm59.7 KiB2024-07-02 17:13:10
perl-String-Trim-0.005-1.17.noarch.rpm18.9 KiB2024-07-02 17:13:08
perl-Set-IntSpan-1.19-1.20.noarch.rpm31.3 KiB2024-07-02 17:13:06
perl-Regexp-IPv6-0.03-5.32.noarch.rpm10.7 KiB2024-07-02 17:13:05
perl-PostScript-Simple-0.09-1.31.noarch.rpm44.4 KiB2024-07-02 17:13:04
perl-SQL-Tokenizer-0.24-1.31.noarch.rpm13.0 KiB2024-07-02 17:13:03
perl-SVG-2.87-1.9.noarch.rpm70.7 KiB2024-07-02 17:13:01
perl-Sort-Naturally-1.03-5.33.noarch.rpm20.7 KiB2024-07-02 17:13:01
perl-Log-Any-1.717.0-2.2.noarch.rpm98.1 KiB2024-07-02 17:13:01
perl-String-Format-1.18-1.26.noarch.rpm22.0 KiB2024-07-02 17:13:01
perl-Safe-Isa-1.000010-1.26.noarch.rpm15.7 KiB2024-07-02 17:13:01
perl-Protocol-Redis-1.0011-1.21.noarch.rpm16.7 KiB2024-07-02 17:13:00
perl-Sub-Install-0.929-1.7.noarch.rpm22.7 KiB2024-07-02 17:13:00
perl-Spiffy-0.46-1.31.noarch.rpm43.0 KiB2024-07-02 17:13:00
perl-String-ShellQuote-1.04-6.26.noarch.rpm17.6 KiB2024-07-02 17:13:00
perl-Scope-Guard-0.21-1.31.noarch.rpm13.0 KiB2024-07-02 17:12:59
perl-String-CamelCase-0.04-1.27.noarch.rpm11.6 KiB2024-07-02 17:12:59
perl-Math-BigInt-2.3.3-1.2.noarch.rpm236.5 KiB2024-07-02 17:12:58
perl-String-Escape-2010.002-14.33.noarch.rpm22.5 KiB2024-07-02 17:12:58
perl-Number-Compare-0.03-11.11.noarch.rpm11.8 KiB2024-07-02 17:12:58
perl-Set-Scalar-1.29-1.32.noarch.rpm37.2 KiB2024-07-02 17:12:57
perl-Net-IP-1.26-9.2.noarch.rpm35.7 KiB2024-07-02 17:12:57
perl-Regexp-Assemble-0.38-1.26.noarch.rpm91.4 KiB2024-07-02 17:12:56
perl-Sub-Delete-1.00002-1.22.noarch.rpm13.2 KiB2024-07-02 17:12:56
perl-Net-INET6Glue-0.604-1.16.noarch.rpm17.4 KiB2024-07-02 17:12:54
perl-Perl6-Junction-1.60000-3.32.noarch.rpm16.1 KiB2024-07-02 17:12:54
perl-Parse-MIME-1.006-1.7.noarch.rpm19.7 KiB2024-07-02 17:12:53
perl-PAR-Dist-0.530.0-1.2.noarch.rpm36.0 KiB2024-07-02 17:12:52
perl-Regexp-Trie-0.02-1.15.noarch.rpm11.5 KiB2024-07-02 17:12:52
perl-Path-Tiny-0.146.0-1.2.noarch.rpm78.1 KiB2024-07-02 17:12:51
perl-Number-Bytes-Human-0.11-1.13.noarch.rpm20.3 KiB2024-07-02 17:12:50
perl-PatchReader-0.9.6-1.26.noarch.rpm19.4 KiB2024-07-02 17:12:50
perl-POE-Test-Loops-1.360-1.31.noarch.rpm76.4 KiB2024-07-02 17:12:50
perl-NetPacket-1.7.2-1.22.noarch.rpm72.7 KiB2024-07-02 17:12:49
perl-Object-Signature-1.08-1.26.noarch.rpm22.9 KiB2024-07-02 17:12:49
perl-Net-CIDR-0.21-1.16.noarch.rpm21.4 KiB2024-07-02 17:12:49
perl-Pod-Parser-1.670.0-2.2.noarch.rpm100.0 KiB2024-07-02 17:12:48
perl-Net-Ident-1.25-1.20.noarch.rpm29.8 KiB2024-07-02 17:12:48
perl-Net-Domain-TLD-1.75-1.29.noarch.rpm43.4 KiB2024-07-02 17:12:48
perl-Locale-Maketext-Lexicon-1.00-1.32.noarch.rpm132.1 KiB2024-07-02 17:12:47
perl-Number-Format-1.76-1.6.noarch.rpm36.4 KiB2024-07-02 17:12:47
perl-Perl-Version-1.17.0-1.2.noarch.rpm38.7 KiB2024-07-02 17:12:47
perl-PHP-Serialization-0.34-13.31.noarch.rpm16.5 KiB2024-07-02 17:12:47
perl-Mozilla-CA-20240313.0.0-1.2.noarch.rpm140.4 KiB2024-07-02 17:12:47
perl-Module-Metadata-1.000038-1.6.noarch.rpm38.9 KiB2024-07-02 17:12:46
perl-Lingua-Stem-Fr-0.02-9.31.noarch.rpm14.6 KiB2024-07-02 17:12:46
perl-Pod-Usage-2.03-1.9.noarch.rpm43.8 KiB2024-07-02 17:12:45
perl-MCE-1.897.0-1.2.noarch.rpm302.8 KiB2024-07-02 17:12:45
perl-Parse-Win32Registry-1.1-1.19.noarch.rpm86.9 KiB2024-07-02 17:12:45
perl-Net-CIDR-Lite-0.22-1.16.noarch.rpm19.7 KiB2024-07-02 17:12:45
perl-PerlIO-via-dynamic-0.14-6.26.noarch.rpm13.0 KiB2024-07-02 17:12:44
perl-Module-Find-0.16-1.7.noarch.rpm17.5 KiB2024-07-02 17:12:43
perl-IO-Multiplex-1.16-1.31.noarch.rpm25.7 KiB2024-07-02 17:12:42
perl-IP-Country-2.28-1.31.noarch.rpm286.2 KiB2024-07-02 17:12:42
perl-PerlX-Maybe-1.202-1.12.noarch.rpm27.7 KiB2024-07-02 17:12:42
perl-OLE-Storage_Lite-0.22-1.6.noarch.rpm24.2 KiB2024-07-02 17:12:41
perl-IPC-Run3-0.49.0-2.2.noarch.rpm37.6 KiB2024-07-02 17:12:41
perl-Mojo-DOM58-3.001-1.15.noarch.rpm66.2 KiB2024-07-02 17:12:41
perl-Importer-0.026-1.19.noarch.rpm41.7 KiB2024-07-02 17:12:40
perl-Log-Message-0.08-3.31.noarch.rpm28.1 KiB2024-07-02 17:12:40
perl-Package-Generator-1.106-3.32.noarch.rpm21.8 KiB2024-07-02 17:12:39
perl-Module-Install-ExtraTests-0.008-6.28.noarch.rpm19.6 KiB2024-07-02 17:12:39
perl-Mail-Sender-0.903-1.28.noarch.rpm57.6 KiB2024-07-02 17:12:39
perl-Lingua-Stem-It-0.02-1.31.noarch.rpm13.9 KiB2024-07-02 17:12:38
perl-Lingua-PT-Stemmer-0.02-1.29.noarch.rpm21.8 KiB2024-07-02 17:12:38
perl-Lingua-EN-Inflect-1.905-1.18.noarch.rpm59.9 KiB2024-07-02 17:12:38
perl-MIME-Types-2.260.0-2.2.noarch.rpm78.2 KiB2024-07-02 17:12:38
perl-Lingua-Stem-Ru-0.04-1.29.noarch.rpm20.0 KiB2024-07-02 17:12:37
perl-Module-Pluggable-5.2-1.31.noarch.rpm32.6 KiB2024-07-02 17:12:37
perl-Image-Info-1.440.0-2.2.noarch.rpm85.7 KiB2024-07-02 17:12:36
perl-IPC-System-Simple-1.30-1.20.noarch.rpm39.5 KiB2024-07-02 17:12:36
perl-MIME-Charset-1.013.1-1.7.noarch.rpm50.4 KiB2024-07-02 17:12:36
perl-Geography-Countries-2009041301-1.31.noarch.rpm20.1 KiB2024-07-02 17:12:35
perl-Locale-Msgfmt-0.15-8.27.noarch.rpm16.7 KiB2024-07-02 17:12:35
perl-Math-Round-0.80.0-2.2.noarch.rpm20.6 KiB2024-07-02 17:12:35
perl-GD-Barcode-2.0.0-2.2.noarch.rpm577.3 KiB2024-07-02 17:12:34
perl-Lingua-EN-Words2Nums-0.18-1.32.noarch.rpm14.4 KiB2024-07-02 17:12:34
perl-MRO-Compat-0.15-1.12.noarch.rpm24.8 KiB2024-07-02 17:12:34
perl-Module-Reader-0.003003-2.4.noarch.rpm20.7 KiB2024-07-02 17:12:34
perl-Modern-Perl-1.20240115-1.2.noarch.rpm25.8 KiB2024-07-02 17:12:33
perl-File-chdir-0.1011-1.17.noarch.rpm27.1 KiB2024-07-02 17:12:33
perl-Math-Base-Convert-0.11-3.2.noarch.rpm38.8 KiB2024-07-02 17:12:33
perl-Lingua-Stem-Snowball-Da-1.01-1.34.noarch.rpm99.3 KiB2024-07-02 17:12:33
perl-Mail-Sendmail-0.80-1.27.noarch.rpm35.1 KiB2024-07-02 17:12:33
perl-Lingua-Translit-0.29-1.9.noarch.rpm34.1 KiB2024-07-02 17:12:32
perl-Mo-0.40-1.31.noarch.rpm64.0 KiB2024-07-02 17:12:32
perl-Mock-Config-0.03-1.27.noarch.rpm12.9 KiB2024-07-02 17:12:32
perl-HTML-Clean-1.4-1.22.noarch.rpm24.3 KiB2024-07-02 17:12:31
perl-IO-TieCombine-1.005-1.31.noarch.rpm22.5 KiB2024-07-02 17:12:31
perl-File-RandomAccess-12.87-1.2.noarch.rpm62.2 KiB2024-07-02 17:12:31
exiftool-12.87-1.2.noarch.rpm194.7 KiB2024-07-02 17:12:31
perl-Image-ExifTool-12.87-1.2.noarch.rpm5.3 MiB2024-07-02 17:12:31
perl-Memoize-ExpireLRU-0.56-1.28.noarch.rpm21.9 KiB2024-07-02 17:12:30
perl-Math-ConvexHull-1.04-3.31.noarch.rpm14.2 KiB2024-07-02 17:12:30
perl-IO-All-0.87-1.27.noarch.rpm85.4 KiB2024-07-02 17:12:29
perl-HTML-SimpleParse-0.12-284.22.noarch.rpm20.7 KiB2024-07-02 17:12:29
perl-IO-SessionData-1.03-3.32.noarch.rpm11.4 KiB2024-07-02 17:12:29
perl-HTML-Stream-1.60-1.26.noarch.rpm55.0 KiB2024-07-02 17:12:29
perl-Module-Load-Conditional-0.74-1.19.noarch.rpm21.7 KiB2024-07-02 17:12:29
perl-IO-stringy-2.113-1.20.noarch.rpm62.1 KiB2024-07-02 17:12:29
perl-Module-Build-0.423400-1.6.noarch.rpm244.8 KiB2024-07-02 17:12:28
perl-File-Slurp-Tiny-0.004-1.31.noarch.rpm18.5 KiB2024-07-02 17:12:28
perl-IO-Tee-0.66-1.20.noarch.rpm23.3 KiB2024-07-02 17:12:28
perl-IO-Socket-PortState-0.03-3.32.noarch.rpm13.1 KiB2024-07-02 17:12:28
perl-Geo-Coordinates-UTM-0.11-5.32.noarch.rpm22.4 KiB2024-07-02 17:12:28
perl-Font-AFM-1.20-51.22.noarch.rpm20.3 KiB2024-07-02 17:12:27
perl-Hash-Util-FieldHash-Compat-0.11-1.28.noarch.rpm23.9 KiB2024-07-02 17:12:27
perl-HTTP-Tiny-0.88.0-2.2.noarch.rpm57.3 KiB2024-07-02 17:12:27
perl-Geo-IP2Location-8.70-1.6.noarch.rpm405.4 KiB2024-07-02 17:12:27
perl-Hash-MoreUtils-0.06-1.25.noarch.rpm17.3 KiB2024-07-02 17:12:27
perl-ExtUtils-Manifest-1.75-1.6.noarch.rpm34.6 KiB2024-07-02 17:12:26
perl-Hash-MultiValue-0.16-1.31.noarch.rpm26.1 KiB2024-07-02 17:12:26
perl-File-Path-2.180000-1.18.noarch.rpm38.4 KiB2024-07-02 17:12:26
perl-IO-Pipely-0.006-1.12.noarch.rpm26.8 KiB2024-07-02 17:12:25
perl-ExtUtils-MakeMaker-7.70-1.6.noarch.rpm300.5 KiB2024-07-02 17:12:25
perl-Hook-LexWrap-0.26-1.28.noarch.rpm26.6 KiB2024-07-02 17:12:25
perl-File-Touch-0.12-1.16.noarch.rpm22.7 KiB2024-07-02 17:12:25
perl-ExtUtils-PkgConfig-1.160000-1.28.noarch.rpm17.1 KiB2024-07-02 17:12:25
perl-ExtUtils-Helpers-0.27.0-1.2.noarch.rpm26.0 KiB2024-07-02 17:12:25
perl-Encode-Locale-1.05-1.30.noarch.rpm22.2 KiB2024-07-02 17:12:24
perl-IO-Interactive-1.025-1.5.noarch.rpm22.6 KiB2024-07-02 17:12:24
perl-File-Which-1.27-1.15.noarch.rpm31.3 KiB2024-07-02 17:12:24
perl-Heap-0.80-1.19.noarch.rpm39.6 KiB2024-07-02 17:12:23
perl-File-MMagic-1.30-5.32.noarch.rpm32.6 KiB2024-07-02 17:12:23
perl-Graphics-ColorUtils-0.17-1.22.noarch.rpm29.0 KiB2024-07-02 17:12:23
perl-IO-HTML-1.004-1.18.noarch.rpm28.3 KiB2024-07-02 17:12:22
perl-IO-Stty-0.04-1.20.noarch.rpm19.7 KiB2024-07-02 17:12:22
perl-File-ShareDir-Install-0.14-1.9.noarch.rpm25.0 KiB2024-07-02 17:12:22
perl-Getopt-Tabular-0.3-1.32.noarch.rpm46.7 KiB2024-07-02 17:12:21
perl-Data-Printer-1.002001-1.2.noarch.rpm158.1 KiB2024-07-02 17:12:21
perl-HTTP-Lite-2.44-1.31.noarch.rpm30.3 KiB2024-07-02 17:12:21
perl-Date-Tiny-1.07-1.28.noarch.rpm24.0 KiB2024-07-02 17:12:21
perl-ExtUtils-Config-0.9.0-1.2.noarch.rpm21.2 KiB2024-07-02 17:12:21
perl-File-ReadBackwards-1.06-1.15.noarch.rpm17.5 KiB2024-07-02 17:12:21
perl-Devel-CheckBin-0.04-1.31.noarch.rpm17.2 KiB2024-07-02 17:12:21
perl-DateTime-Tiny-1.07-1.26.noarch.rpm25.3 KiB2024-07-02 17:12:20
perl-File-pushd-1.016-1.25.noarch.rpm25.3 KiB2024-07-02 17:12:20
perl-Digest-Perl-MD5-1.9-3.31.noarch.rpm43.0 KiB2024-07-02 17:12:19
perl-Devel-StackTrace-2.50.0-2.2.noarch.rpm37.0 KiB2024-07-02 17:12:19
perl-Data-Uniqid-0.12-1.28.noarch.rpm11.3 KiB2024-07-02 17:12:18
perl-Devel-Cycle-1.12-2.2.noarch.rpm16.6 KiB2024-07-02 17:12:18
perl-Capture-Tiny-0.48-1.26.noarch.rpm37.8 KiB2024-07-02 17:12:17
perl-Devel-Hide-0.0015-1.13.noarch.rpm21.1 KiB2024-07-02 17:12:17
perl-Class-Inspector-1.36-1.22.noarch.rpm31.7 KiB2024-07-02 17:12:17
perl-Devel-GlobalPhase-0.003003-1.25.noarch.rpm12.8 KiB2024-07-02 17:12:17
perl-Exporter-Lite-0.09-1.12.noarch.rpm16.6 KiB2024-07-02 17:12:17
perl-JSON-4.10-1.7.noarch.rpm96.1 KiB2024-07-02 17:12:16
perl-Email-Address-1.913-1.6.noarch.rpm32.1 KiB2024-07-02 17:12:16
perl-ExtUtils-Depends-0.8001-1.15.noarch.rpm27.7 KiB2024-07-02 17:12:15
perl-Data-ShowTable-4.6-3.33.noarch.rpm68.8 KiB2024-07-02 17:12:14
perl-Digest-HMAC-1.04-1.16.noarch.rpm22.1 KiB2024-07-02 17:12:14
perl-Devel-Confess-0.009004-1.28.noarch.rpm30.0 KiB2024-07-02 17:12:14
perl-Debug-Trace-0.05-3.31.noarch.rpm14.6 KiB2024-07-02 17:12:13
perl-Crypt-Rot13-0.6-22.32.noarch.rpm19.6 KiB2024-07-02 17:12:13
perl-Eval-LineNumbers-0.35-1.15.noarch.rpm20.6 KiB2024-07-02 17:12:11
perl-Email-Date-Format-1.008-1.6.noarch.rpm20.2 KiB2024-07-02 17:12:11
perl-Devel-FindPerl-0.016-1.9.noarch.rpm21.4 KiB2024-07-02 17:12:11
perl-Class-Accessor-0.51-1.26.noarch.rpm29.4 KiB2024-07-02 17:12:11
perl-Data-Hexify-1.00-15.31.noarch.rpm16.1 KiB2024-07-02 17:12:11
perl-Convert-ASN1-0.340.0-2.2.noarch.rpm62.0 KiB2024-07-02 17:12:10
perl-Crypt-OpenSSL-Guess-0.15-1.12.noarch.rpm21.3 KiB2024-07-02 17:12:09
perl-Class-Spiffy-0.15-138.26.noarch.rpm28.6 KiB2024-07-02 17:12:09
perl-CPAN-DistnameInfo-0.12-13.31.noarch.rpm14.7 KiB2024-07-02 17:12:07
perl-Data-Dump-1.25-1.15.noarch.rpm34.4 KiB2024-07-02 17:12:07
perl-Email-MessageID-1.408-1.7.noarch.rpm20.1 KiB2024-07-02 17:12:07
perl-Class-Multimethods-1.701-1.26.noarch.rpm37.7 KiB2024-07-02 17:12:07
perl-Exporter-Tidy-0.08-1.31.noarch.rpm14.5 KiB2024-07-02 17:12:07
perl-Devel-Trace-0.12-1.28.noarch.rpm13.0 KiB2024-07-02 17:12:07
perl-Email-MIME-Encodings-1.317-1.7.noarch.rpm19.3 KiB2024-07-02 17:12:06
perl-Archive-Zip-1.68-1.20.noarch.rpm108.4 KiB2024-07-02 17:12:06
perl-Config-Tiny-2.300.0-2.2.noarch.rpm34.9 KiB2024-07-02 17:12:06
perl-Data-Dumper-Concise-2.023-1.27.noarch.rpm21.9 KiB2024-07-02 17:12:06
perl-Exporter-Tiny-1.006002-1.6.noarch.rpm55.2 KiB2024-07-02 17:12:05
perl-Data-Hexdumper-3.0001-1.7.noarch.rpm26.3 KiB2024-07-02 17:12:05
perl-Devel-Symdump-2.18-1.28.noarch.rpm21.3 KiB2024-07-02 17:12:04
byobu-6.12-1.2.noarch.rpm134.2 KiB2024-07-02 17:12:04
perl-CLASS-1.1.8-1.4.noarch.rpm12.0 KiB2024-07-02 17:12:04
byobu-doc-6.12-1.2.noarch.rpm78.9 KiB2024-07-02 17:12:04
perl-Crypt-PasswdMD5-1.42-1.8.noarch.rpm22.7 KiB2024-07-02 17:12:04
perl-Class-MakeMethods-1.01-9.32.noarch.rpm330.4 KiB2024-07-02 17:12:03
perl-Clone-PP-1.08-1.19.noarch.rpm16.5 KiB2024-07-02 17:12:03
perl-Browser-Open-0.04-5.32.noarch.rpm12.3 KiB2024-07-02 17:12:03
perl-Data-Binary-0.01-1.15.noarch.rpm11.0 KiB2024-07-02 17:12:03
perl-CPAN-Perl-Releases-5.20240609-1.2.noarch.rpm30.3 KiB2024-07-02 17:12:03
perl-Class-Singleton-1.6-1.18.noarch.rpm25.1 KiB2024-07-02 17:12:02
perl-Config-Grammar-1.13-1.24.noarch.rpm34.9 KiB2024-07-02 17:12:02
perl-Class-Tiny-1.008-1.19.noarch.rpm30.4 KiB2024-07-02 17:12:01
perl-CSS-Tiny-1.20-1.29.noarch.rpm16.9 KiB2024-07-02 17:12:01
perl-Class-ISA-0.36-10.32.noarch.rpm14.9 KiB2024-07-02 17:12:01
perl-Catalyst-Manual-5.9013-1.2.noarch.rpm371.1 KiB2024-07-02 17:12:01
perl-B-Keywords-1.270.0-1.2.noarch.rpm20.4 KiB2024-07-02 17:12:00
perl-Carp-Clan-6.08-1.22.noarch.rpm28.1 KiB2024-07-02 17:12:00
perl-Carp-Assert-0.22-1.6.noarch.rpm25.2 KiB2024-07-02 17:12:00
perl-B-Debug-1.26-1.25.noarch.rpm23.0 KiB2024-07-02 17:12:00
perl-CDDB_get-2.28-2.2.noarch.rpm30.9 KiB2024-07-02 17:12:00
perl-DBD-XBase-1.08-1.28.noarch.rpm103.9 KiB2024-07-02 17:12:00
perl-XML-XPathEngine-0.14-5.32.noarch.rpm38.9 KiB2024-07-02 17:12:00
perl-Business-ISBN-Data-20240614.1.0-1.2.noarch.rpm42.1 KiB2024-07-02 17:11:57
perl-Class-Adapter-1.09-1.26.noarch.rpm32.7 KiB2024-07-02 17:11:57
perl-Class-ErrorHandler-0.04-1.24.noarch.rpm18.7 KiB2024-07-02 17:11:57
perl-Class-Autouse-2.01-11.27.noarch.rpm40.3 KiB2024-07-02 17:11:56
perl-Class-Method-Modifiers-2.15-1.6.noarch.rpm32.2 KiB2024-07-02 17:11:56
perl-Text-Wrapper-1.05-3.31.noarch.rpm22.2 KiB2024-07-02 17:11:55
perl-Class-Inner-0.200001-13.31.noarch.rpm13.2 KiB2024-07-02 17:11:55
perl-Canary-Stability-2013-1.24.noarch.rpm15.0 KiB2024-07-02 17:11:55
perl-CGI-FastTemplate-1.09-21.26.noarch.rpm27.2 KiB2024-07-02 17:11:55
perl-App-FatPacker-0.010008-1.24.noarch.rpm25.8 KiB2024-07-02 17:11:54
perl-Class-Accessor-Lite-0.08-2.26.noarch.rpm13.9 KiB2024-07-02 17:11:54
gscan2pdf-2.13.2-1.7.noarch.rpm230.4 KiB2024-07-02 17:11:53
perl-Algorithm-C3-0.11-1.18.noarch.rpm23.6 KiB2024-07-02 17:11:53
perl-CPAN-Meta-Requirements-2.143000-1.5.noarch.rpm37.8 KiB2024-07-02 17:11:53
perl-App-Rad-1.05-1.28.noarch.rpm52.9 KiB2024-07-02 17:11:53
gscan2pdf-lang-2.13.2-1.7.noarch.rpm235.3 KiB2024-07-02 17:11:53
perl-Business-ISSN-1.005-1.12.noarch.rpm18.3 KiB2024-07-02 17:11:52
perl-Archive-Cpio-0.10-1.28.noarch.rpm16.8 KiB2024-07-02 17:11:52
perl-Class-Data-Inheritable-0.09-1.15.noarch.rpm16.5 KiB2024-07-02 17:11:51
perl-Algorithm-Diff-1.201-1.18.noarch.rpm39.7 KiB2024-07-02 17:11:51
perl-IO-CaptureOutput-1.1105-1.22.noarch.rpm27.6 KiB2024-07-02 17:11:51
perl-Archive-Extract-0.88-1.15.noarch.rpm32.0 KiB2024-07-02 17:11:50
perl-XML-NamespaceSupport-1.12-1.28.noarch.rpm25.7 KiB2024-07-02 17:11:50
mytop-1.6-105.2.noarch.rpm34.1 KiB2024-07-02 17:11:49
perl-Tie-Cache-0.21-1.34.noarch.rpm22.0 KiB2024-07-02 17:11:49
perl-File-Slurp-9999.32-1.20.noarch.rpm30.9 KiB2024-07-02 17:11:49
mirror-2.9-912.4.noarch.rpm101.4 KiB2024-07-02 17:11:49
mpi-selector-1.0.3-15.4.noarch.rpm27.5 KiB2024-07-02 17:11:48
diffmk-1.0-161.35.noarch.rpm56.8 KiB2024-07-02 17:11:48
perl-Parse-Yapp-1.21-1.27.noarch.rpm103.4 KiB2024-07-02 17:11:48
perl-HTML-Tagset-3.240.0-1.2.noarch.rpm18.5 KiB2024-07-02 17:11:48
perl-Switch-2.17-1.32.noarch.rpm27.2 KiB2024-07-02 17:11:48
checkbashisms-2.22.2-3.2.noarch.rpm35.0 KiB2024-07-02 17:11:47
clamtk-6.16-2.3.noarch.rpm71.0 KiB2024-07-02 17:11:47
clamtk-lang-6.16-2.3.noarch.rpm124.9 KiB2024-07-02 17:11:47
perl-Net-Telnet-3.05-1.15.noarch.rpm64.4 KiB2024-07-02 17:11:47
perl-Config-Crontab-1.45-1.28.noarch.rpm59.0 KiB2024-07-02 17:11:45
debhelper-13.15.3-1.2.noarch.rpm476.2 KiB2024-07-02 17:11:45
perl-Net-Server-2.014-1.6.noarch.rpm203.6 KiB2024-07-02 17:11:45
whois-bash-completion-5.5.23-1.2.noarch.rpm19.3 KiB2024-07-02 17:11:45
postgresql-llvmjit-16-3.4.noarch.rpm9.9 KiB2024-07-02 17:11:44
postgresql-pltcl-16-3.4.noarch.rpm9.8 KiB2024-07-02 17:11:44
perl-Test-Cmd-1.09-1.2.noarch.rpm50.5 KiB2024-07-02 17:11:44
postgresql-16-3.4.noarch.rpm12.8 KiB2024-07-02 17:11:44
postgresql-server-16-3.4.noarch.rpm17.1 KiB2024-07-02 17:11:44
postgresql-docs-16-3.4.noarch.rpm9.9 KiB2024-07-02 17:11:44
perl-TimeDate-2.33-1.19.noarch.rpm49.1 KiB2024-07-02 17:11:44
postgresql-plpython-16-3.4.noarch.rpm9.9 KiB2024-07-02 17:11:44
postgresql-devel-16-3.4.noarch.rpm10.1 KiB2024-07-02 17:11:44
postgresql-plperl-16-3.4.noarch.rpm9.9 KiB2024-07-02 17:11:44
postgresql-server-devel-16-3.4.noarch.rpm11.8 KiB2024-07-02 17:11:44
perl-FindBin-Real-1.05-14.31.noarch.rpm13.3 KiB2024-07-02 17:11:44
postgresql-test-16-3.4.noarch.rpm9.6 KiB2024-07-02 17:11:44
postgresql-llvmjit-devel-16-3.4.noarch.rpm9.9 KiB2024-07-02 17:11:44
colormake-0.9.20140503-4.3.noarch.rpm19.2 KiB2024-07-02 17:11:44
postgresql-contrib-16-3.4.noarch.rpm10.0 KiB2024-07-02 17:11:44
cowsay-3.7.0-1.11.noarch.rpm45.4 KiB2024-07-02 17:11:43
perl-YAML-Tiny-1.74-1.6.noarch.rpm45.9 KiB2024-07-02 17:11:42
perl-XML-Writer-0.900-1.19.noarch.rpm34.1 KiB2024-07-02 17:11:42
perl-Test-Pod-1.52-1.26.noarch.rpm19.6 KiB2024-07-02 17:11:38
perl-Text-Unidecode-1.30-2.55.noarch.rpm137.9 KiB2024-07-02 17:09:54
rygel-lang-0.43.0-1.1.noarch.rpm300.4 KiB2024-07-02 16:53:27
gnome-shell-lang-46.3.1-1.1.noarch.rpm740.3 KiB2024-07-02 16:53:21
calls-lang-46.3-1.1.noarch.rpm130.6 KiB2024-07-02 16:53:12
gvfs-lang-1.54.2-1.1.noarch.rpm558.8 KiB2024-07-02 16:52:45
gvfs-devel-1.54.2-1.1.noarch.rpm62.6 KiB2024-07-02 16:52:44
gnome-initial-setup-lang-46.3-1.1.noarch.rpm231.1 KiB2024-07-02 16:52:40
cherrytree-lang-1.1.4+1-1.1.noarch.rpm353.3 KiB2024-07-02 16:51:32
gnome-software-lang-46.3-1.1.noarch.rpm906.6 KiB2024-07-02 16:51:02
epiphany-lang-46.2-1.1.noarch.rpm1.3 MiB2024-07-02 16:50:59
epiphany-branding-upstream-46.2-1.1.noarch.rpm31.2 KiB2024-07-02 16:50:59
gnome-online-accounts-lang-3.50.3-1.1.noarch.rpm211.2 KiB2024-07-02 16:50:36
clapper-lang-0.6.1-1.1.noarch.rpm49.1 KiB2024-07-02 16:50:30
gnome-sudoku-lang-46.3-1.1.noarch.rpm258.1 KiB2024-07-02 16:50:23
shotcut-lang-24.06.26-1.1.noarch.rpm1.2 MiB2024-07-02 16:49:39
mutter-lang-46.3-1.1.noarch.rpm485.5 KiB2024-07-02 16:49:36
shotwell-lang-0.32.7-1.1.noarch.rpm1.3 MiB2024-07-02 16:49:34
borgbackup-zsh-completion-1.2.8-1.1.noarch.rpm49.6 KiB2024-07-02 16:49:14
borgbackup-fish-completion-1.2.8-1.1.noarch.rpm41.1 KiB2024-07-02 16:49:14
borgbackup-doc-1.2.8-1.1.noarch.rpm3.0 MiB2024-07-02 16:49:14
borgbackup-bash-completion-1.2.8-1.1.noarch.rpm38.4 KiB2024-07-02 16:49:13
kdiff3-lang-1.11.2-1.1.noarch.rpm850.8 KiB2024-07-02 16:49:13
picard-lang-2.12-1.1.noarch.rpm982.0 KiB2024-07-02 16:48:50
libadwaita-lang-1.5.2-1.1.noarch.rpm111.0 KiB2024-07-02 16:48:45
libadwaita-docs-1.5.2-1.1.noarch.rpm3.2 MiB2024-07-02 16:48:45
gnome-remote-desktop-lang-46.3-1.1.noarch.rpm126.8 KiB2024-07-02 16:48:29
ghc-skylighting-core-doc-0.14.2-1.1.noarch.rpm161.5 KiB2024-07-02 16:47:29
ghc-unicode-transforms-doc-0.4.0.1-6.1.noarch.rpm58.5 KiB2024-07-02 16:47:19
system-user-hyperkitty-1.3.10-1.1.noarch.rpm15.9 KiB2024-07-02 16:46:17
HyperKitty-web-1.3.10-1.1.noarch.rpm2.1 MiB2024-07-02 16:46:17
HyperKitty-1.3.10-1.1.noarch.rpm2.0 MiB2024-07-02 16:46:17
HyperKitty-web-uwsgi-1.3.10-1.1.noarch.rpm16.1 KiB2024-07-02 16:46:17
osc-plugin-origin-20240625.9e0d0ae-1.1.noarch.rpm87.1 KiB2024-07-02 16:46:10
osc-plugin-staging-20240625.9e0d0ae-1.1.noarch.rpm90.3 KiB2024-07-02 16:46:10
osclib-20240625.9e0d0ae-1.1.noarch.rpm157.0 KiB2024-07-02 16:46:10
osc-plugin-pcheck-20240625.9e0d0ae-1.1.noarch.rpm85.4 KiB2024-07-02 16:46:10
openSUSE-release-tools-repo-checker-20240625.9e0d0ae-1.1.noarch.rpm93.3 KiB2024-07-02 16:46:09
openSUSE-release-tools-pkglistgen-20240625.9e0d0ae-1.1.noarch.rpm104.7 KiB2024-07-02 16:46:09
osc-plugin-cycle-20240625.9e0d0ae-1.1.noarch.rpm84.1 KiB2024-07-02 16:46:09
openSUSE-release-tools-check-source-20240625.9e0d0ae-1.1.noarch.rpm92.2 KiB2024-07-02 16:46:09
ghc-tasty-hunit-doc-0.10.2-1.1.noarch.rpm55.3 KiB2024-07-02 16:46:09
openSUSE-release-tools-slsa-build-service-20240625.9e0d0ae-1.1.noarch.rpm92.6 KiB2024-07-02 16:46:09
openSUSE-release-tools-publish-distro-20240625.9e0d0ae-1.1.noarch.rpm86.0 KiB2024-07-02 16:46:09
openSUSE-release-tools-metrics-20240625.9e0d0ae-1.1.noarch.rpm103.0 KiB2024-07-02 16:46:09
openSUSE-release-tools-abichecker-20240625.9e0d0ae-1.1.noarch.rpm98.7 KiB2024-07-02 16:46:09
openSUSE-release-tools-staging-bot-20240625.9e0d0ae-1.1.noarch.rpm89.1 KiB2024-07-02 16:46:09
openSUSE-release-tools-announcer-20240625.9e0d0ae-1.1.noarch.rpm92.5 KiB2024-07-02 16:46:09
openSUSE-release-tools-metrics-access-20240625.9e0d0ae-1.1.noarch.rpm96.6 KiB2024-07-02 16:46:09
openSUSE-release-tools-maintenance-20240625.9e0d0ae-1.1.noarch.rpm85.3 KiB2024-07-02 16:46:09
openSUSE-release-tools-origin-manager-20240625.9e0d0ae-1.1.noarch.rpm86.6 KiB2024-07-02 16:46:09
openSUSE-release-tools-docker-publisher-20240625.9e0d0ae-1.1.noarch.rpm91.5 KiB2024-07-02 16:46:09
openSUSE-release-tools-20240625.9e0d0ae-1.1.noarch.rpm136.7 KiB2024-07-02 16:46:08
gstreamer-plugins-bad-lang-1.24.5-1.1.noarch.rpm81.3 KiB2024-07-02 16:45:28
gstreamer-plugins-good-lang-1.24.5-1.1.noarch.rpm113.4 KiB2024-07-02 16:43:28
python312-fs-2.4.16-4.1.noarch.rpm278.0 KiB2024-07-02 16:43:24
python311-fs-2.4.16-4.1.noarch.rpm287.5 KiB2024-07-02 16:43:24
python310-fs-2.4.16-4.1.noarch.rpm223.8 KiB2024-07-02 16:43:24
python311-django-mailman3-1.3.14-1.1.noarch.rpm517.6 KiB2024-07-02 16:43:04
python310-django-mailman3-1.3.14-1.1.noarch.rpm497.5 KiB2024-07-02 16:43:04
python312-django-mailman3-1.3.14-1.1.noarch.rpm514.5 KiB2024-07-02 16:43:04
highlight-bash-completion-4.12-1.1.noarch.rpm14.4 KiB2024-07-02 16:42:53
highlight-gui-lang-4.12-1.1.noarch.rpm58.3 KiB2024-07-02 16:42:53
highlight-zsh-completion-4.12-1.1.noarch.rpm15.6 KiB2024-07-02 16:42:53
highlight-common-4.12-1.1.noarch.rpm330.2 KiB2024-07-02 16:42:53
highlight-fish-completion-4.12-1.1.noarch.rpm15.5 KiB2024-07-02 16:42:53
orca-lang-46.2-1.1.noarch.rpm1.7 MiB2024-07-02 16:42:48
orca-46.2-1.1.noarch.rpm1.3 MiB2024-07-02 16:42:48
oci-cli-3.43.2-1.1.noarch.rpm5.9 MiB2024-07-02 16:42:43
ghc-unicode-data-doc-0.4.0.1-5.1.noarch.rpm266.7 KiB2024-07-02 16:42:36
osc-1.8.2-1.1.noarch.rpm847.3 KiB2024-07-02 16:42:26
tryton-6.0.40-1.1.noarch.rpm903.9 KiB2024-07-02 16:42:24
python311-email-validator-2.2.0-1.1.noarch.rpm66.6 KiB2024-07-02 16:42:12
python310-email-validator-2.2.0-1.1.noarch.rpm58.2 KiB2024-07-02 16:42:12
python312-email-validator-2.2.0-1.1.noarch.rpm65.4 KiB2024-07-02 16:42:12
ghc-libmpd-doc-0.10.0.1-1.1.noarch.rpm163.0 KiB2024-07-02 16:42:11
trytond-6.0.48-1.1.noarch.rpm1.4 MiB2024-07-02 16:42:11
ghc-tasty-doc-1.5.1-1.1.noarch.rpm194.8 KiB2024-07-02 16:42:06
python3-gexiv2-0.14.3-1.1.noarch.rpm13.8 KiB2024-07-02 16:42:04
frogr-lang-1.8.1-1.1.noarch.rpm195.2 KiB2024-07-02 16:41:58
ghc-zlib-doc-0.6.3.0-6.1.noarch.rpm103.5 KiB2024-07-02 16:41:56
ghc-network-bsd-doc-2.8.1.0-9.1.noarch.rpm59.5 KiB2024-07-02 16:41:54
gstreamer-plugins-ugly-lang-1.24.5-1.1.noarch.rpm40.1 KiB2024-07-02 16:40:15
clamav-docs-html-1.3.1-1.1.noarch.rpm2.0 MiB2024-07-02 16:39:21
valkey-compat-redis-7.2.5-4.1.noarch.rpm9.3 KiB2024-07-02 16:37:30
gstreamer-plugins-base-lang-1.24.5-1.1.noarch.rpm152.4 KiB2024-07-02 16:36:54
libvirt-doc-10.5.0-1.1.noarch.rpm1.8 MiB2024-07-02 16:35:52
python312-podman-compose-1.2.0-1.1.noarch.rpm101.9 KiB2024-07-02 16:35:28
python311-podman-compose-1.2.0-1.1.noarch.rpm103.6 KiB2024-07-02 16:35:28
python310-podman-compose-1.2.0-1.1.noarch.rpm78.1 KiB2024-07-02 16:35:28
gstreamer-lang-1.24.5-1.1.noarch.rpm313.3 KiB2024-07-02 16:32:47
python312-distlib-0.3.8-2.1.noarch.rpm264.0 KiB2024-07-02 16:32:42
python310-distlib-0.3.8-2.1.noarch.rpm204.2 KiB2024-07-02 16:32:42
python311-distlib-0.3.8-2.1.noarch.rpm272.9 KiB2024-07-02 16:32:42
python312-freezegun-1.5.1-2.1.noarch.rpm46.8 KiB2024-07-02 16:32:03
python311-freezegun-1.5.1-2.1.noarch.rpm47.6 KiB2024-07-02 16:32:02
python310-freezegun-1.5.1-2.1.noarch.rpm39.0 KiB2024-07-02 16:32:02
gstreamer-docs-1.24.5-1.1.noarch.rpm8.8 MiB2024-07-02 16:30:17
google-noto-serif-toto-fonts-20240601-2.1.noarch.rpm25.4 KiB2024-07-02 16:29:54
google-noto-serif-yezidi-fonts-20240601-2.1.noarch.rpm35.8 KiB2024-07-02 16:29:54
google-noto-traditionalnushu-fonts-20240601-2.1.noarch.rpm191.6 KiB2024-07-02 16:29:54
google-noto-serif-tamil-fonts-20240601-2.1.noarch.rpm1.4 MiB2024-07-02 16:29:54
google-noto-serif-thai-fonts-20240601-2.1.noarch.rpm362.3 KiB2024-07-02 16:29:54
google-noto-serif-tangut-fonts-20240601-2.1.noarch.rpm2.3 MiB2024-07-02 16:29:54
google-noto-serif-sinhala-fonts-20240601-2.1.noarch.rpm2.1 MiB2024-07-02 16:29:54
google-noto-serif-telugu-fonts-20240601-2.1.noarch.rpm602.9 KiB2024-07-02 16:29:54
google-noto-serif-tibetan-fonts-20240601-2.1.noarch.rpm1.6 MiB2024-07-02 16:29:54
google-noto-serif-vithkuqi-fonts-20240601-2.1.noarch.rpm49.9 KiB2024-07-02 16:29:54
google-noto-znamennymusicalnotation-fonts-20240601-2.1.noarch.rpm29.2 KiB2024-07-02 16:29:54
google-noto-serif-khitansmallscript-fonts-20240601-2.1.noarch.rpm196.6 KiB2024-07-02 16:29:53
google-noto-serif-malayalam-fonts-20240601-2.1.noarch.rpm289.5 KiB2024-07-02 16:29:53
google-noto-serif-oriya-fonts-20240601-2.1.noarch.rpm214.1 KiB2024-07-02 16:29:53
google-noto-serif-nphmong-fonts-20240601-2.1.noarch.rpm48.2 KiB2024-07-02 16:29:53
google-noto-serif-olduyghur-fonts-20240601-2.1.noarch.rpm31.6 KiB2024-07-02 16:29:53
google-noto-serif-hebrew-fonts-20240601-2.1.noarch.rpm238.1 KiB2024-07-02 16:29:53
google-noto-serif-gurmukhi-fonts-20240601-2.1.noarch.rpm150.5 KiB2024-07-02 16:29:53
google-noto-serif-khojki-fonts-20240601-2.1.noarch.rpm113.6 KiB2024-07-02 16:29:53
google-noto-serif-makasar-fonts-20240601-2.1.noarch.rpm18.9 KiB2024-07-02 16:29:53
google-noto-serif-khmer-fonts-20240601-2.1.noarch.rpm956.9 KiB2024-07-02 16:29:53
google-noto-serif-myanmar-fonts-20240601-2.1.noarch.rpm1.7 MiB2024-07-02 16:29:53
google-noto-serif-lao-fonts-20240601-2.1.noarch.rpm340.9 KiB2024-07-02 16:29:53
google-noto-serif-kannada-fonts-20240601-2.1.noarch.rpm391.4 KiB2024-07-02 16:29:53
google-noto-serif-ottomansiyaq-fonts-20240601-2.1.noarch.rpm21.8 KiB2024-07-02 16:29:53
google-noto-serif-grantha-fonts-20240601-2.1.noarch.rpm136.1 KiB2024-07-02 16:29:52
google-noto-serif-ethiopic-fonts-20240601-2.1.noarch.rpm2.4 MiB2024-07-02 16:29:52
google-noto-serif-dogra-fonts-20240601-2.1.noarch.rpm29.3 KiB2024-07-02 16:29:52
google-noto-serif-display-fonts-20240601-2.1.noarch.rpm11.7 MiB2024-07-02 16:29:52
google-noto-serif-gujarati-fonts-20240601-2.1.noarch.rpm413.8 KiB2024-07-02 16:29:52
google-noto-serif-georgian-fonts-20240601-2.1.noarch.rpm665.9 KiB2024-07-02 16:29:52
google-noto-serif-fonts-20240601-2.1.noarch.rpm13.1 MiB2024-07-02 16:29:52
google-noto-serif-divesakuru-fonts-20240601-2.1.noarch.rpm34.4 KiB2024-07-02 16:29:52
google-noto-sans-vai-fonts-20240601-2.1.noarch.rpm52.8 KiB2024-07-02 16:29:51
google-noto-sans-warangciti-fonts-20240601-2.1.noarch.rpm29.1 KiB2024-07-02 16:29:51
google-noto-sans-tirhuta-fonts-20240601-2.1.noarch.rpm63.7 KiB2024-07-02 16:29:51
google-noto-serif-devanagari-fonts-20240601-2.1.noarch.rpm1.9 MiB2024-07-02 16:29:51
google-noto-serif-armenian-fonts-20240601-2.1.noarch.rpm287.4 KiB2024-07-02 16:29:51
google-noto-serif-balinese-fonts-20240601-2.1.noarch.rpm39.7 KiB2024-07-02 16:29:51
google-noto-sans-ugaritic-fonts-20240601-2.1.noarch.rpm18.1 KiB2024-07-02 16:29:51
google-noto-serif-bengali-fonts-20240601-2.1.noarch.rpm2.3 MiB2024-07-02 16:29:51
google-noto-sans-zanabazarsquare-fonts-20240601-2.1.noarch.rpm23.4 KiB2024-07-02 16:29:51
google-noto-serif-ahom-fonts-20240601-2.1.noarch.rpm25.9 KiB2024-07-02 16:29:51
google-noto-sans-wancho-fonts-20240601-2.1.noarch.rpm24.7 KiB2024-07-02 16:29:51
google-noto-sans-yi-fonts-20240601-2.1.noarch.rpm87.4 KiB2024-07-02 16:29:51
google-noto-sans-vithkuqi-fonts-20240601-2.1.noarch.rpm50.4 KiB2024-07-02 16:29:51
google-noto-sans-tagalog-fonts-20240601-2.1.noarch.rpm19.2 KiB2024-07-02 16:29:50
google-noto-sans-tagbanwa-fonts-20240601-2.1.noarch.rpm18.5 KiB2024-07-02 16:29:50
google-noto-sans-taile-fonts-20240601-2.1.noarch.rpm25.7 KiB2024-07-02 16:29:50
google-noto-sans-thaana-fonts-20240601-2.1.noarch.rpm97.0 KiB2024-07-02 16:29:50
google-noto-sans-thai-fonts-20240601-2.1.noarch.rpm277.5 KiB2024-07-02 16:29:50
google-noto-sans-taiviet-fonts-20240601-2.1.noarch.rpm30.4 KiB2024-07-02 16:29:50
google-noto-sans-taitham-fonts-20240601-2.1.noarch.rpm142.3 KiB2024-07-02 16:29:50
google-noto-sans-tamilsupplement-fonts-20240601-2.1.noarch.rpm23.4 KiB2024-07-02 16:29:50
google-noto-sans-tamil-fonts-20240601-2.1.noarch.rpm753.0 KiB2024-07-02 16:29:50
google-noto-sans-syriacwestern-fonts-20240601-2.1.noarch.rpm81.7 KiB2024-07-02 16:29:50
google-noto-sans-tifinagh-fonts-20240601-2.1.noarch.rpm72.8 KiB2024-07-02 16:29:50
google-noto-sans-tangsa-fonts-20240601-2.1.noarch.rpm58.9 KiB2024-07-02 16:29:50
google-noto-sans-thailooped-fonts-20240601-2.1.noarch.rpm552.2 KiB2024-07-02 16:29:50
google-noto-sans-takri-fonts-20240601-2.1.noarch.rpm24.9 KiB2024-07-02 16:29:50
google-noto-sans-telugu-fonts-20240601-2.1.noarch.rpm2.5 MiB2024-07-02 16:29:50
google-noto-sans-syriaceastern-fonts-20240601-2.1.noarch.rpm69.7 KiB2024-07-02 16:29:49
google-noto-sans-symbols2-fonts-20240601-2.1.noarch.rpm285.6 KiB2024-07-02 16:29:49
google-noto-sans-sinhala-fonts-20240601-2.1.noarch.rpm4.3 MiB2024-07-02 16:29:49
google-noto-sans-sundanese-fonts-20240601-2.1.noarch.rpm40.8 KiB2024-07-02 16:29:49
google-noto-sans-signwriting-fonts-20240601-2.1.noarch.rpm1.2 MiB2024-07-02 16:29:49
google-noto-sans-sorasompeng-fonts-20240601-2.1.noarch.rpm30.4 KiB2024-07-02 16:29:49
google-noto-sans-syriac-fonts-20240601-2.1.noarch.rpm78.0 KiB2024-07-02 16:29:49
google-noto-sans-sylotinagri-fonts-20240601-2.1.noarch.rpm24.7 KiB2024-07-02 16:29:49
google-noto-sans-shavian-fonts-20240601-2.1.noarch.rpm22.1 KiB2024-07-02 16:29:49
google-noto-sans-soyombo-fonts-20240601-2.1.noarch.rpm40.5 KiB2024-07-02 16:29:49
google-noto-sans-sogdian-fonts-20240601-2.1.noarch.rpm50.6 KiB2024-07-02 16:29:49
google-noto-sans-siddham-fonts-20240601-2.1.noarch.rpm70.0 KiB2024-07-02 16:29:49
google-noto-sans-symbols-fonts-20240601-2.1.noarch.rpm580.8 KiB2024-07-02 16:29:49
google-noto-sans-oldturkic-fonts-20240601-2.1.noarch.rpm23.2 KiB2024-07-02 16:29:48
google-noto-sans-samaritan-fonts-20240601-2.1.noarch.rpm21.5 KiB2024-07-02 16:29:48
google-noto-sans-psalterpahlavi-fonts-20240601-2.1.noarch.rpm29.8 KiB2024-07-02 16:29:48
google-noto-sans-paucinhau-fonts-20240601-2.1.noarch.rpm20.0 KiB2024-07-02 16:29:48
google-noto-sans-osmanya-fonts-20240601-2.1.noarch.rpm24.0 KiB2024-07-02 16:29:48
google-noto-sans-osage-fonts-20240601-2.1.noarch.rpm25.8 KiB2024-07-02 16:29:48
google-noto-sans-palmyrene-fonts-20240601-2.1.noarch.rpm21.2 KiB2024-07-02 16:29:48
google-noto-sans-runic-fonts-20240601-2.1.noarch.rpm20.3 KiB2024-07-02 16:29:48
google-noto-sans-rejang-fonts-20240601-2.1.noarch.rpm19.1 KiB2024-07-02 16:29:48
google-noto-sans-pahawhhmong-fonts-20240601-2.1.noarch.rpm24.9 KiB2024-07-02 16:29:48
google-noto-sans-saurashtra-fonts-20240601-2.1.noarch.rpm35.0 KiB2024-07-02 16:29:48
google-noto-sans-phoenician-fonts-20240601-2.1.noarch.rpm18.7 KiB2024-07-02 16:29:48
google-noto-sans-phagspa-fonts-20240601-2.1.noarch.rpm29.9 KiB2024-07-02 16:29:48
google-noto-sans-oriya-fonts-20240601-2.1.noarch.rpm411.6 KiB2024-07-02 16:29:48
google-noto-sans-sharada-fonts-20240601-2.1.noarch.rpm41.1 KiB2024-07-02 16:29:48
google-noto-sans-nushu-fonts-20240601-2.1.noarch.rpm73.5 KiB2024-07-02 16:29:47
google-noto-sans-oldsoutharabian-fonts-20240601-2.1.noarch.rpm17.7 KiB2024-07-02 16:29:47
google-noto-sans-ogham-fonts-20240601-2.1.noarch.rpm16.7 KiB2024-07-02 16:29:47
google-noto-sans-newtailue-fonts-20240601-2.1.noarch.rpm44.3 KiB2024-07-02 16:29:47
google-noto-sans-oldnortharabian-fonts-20240601-2.1.noarch.rpm18.9 KiB2024-07-02 16:29:47
google-noto-sans-oldhungarian-fonts-20240601-2.1.noarch.rpm37.4 KiB2024-07-02 16:29:47
google-noto-sans-oldpersian-fonts-20240601-2.1.noarch.rpm20.5 KiB2024-07-02 16:29:47
google-noto-sans-olditalic-fonts-20240601-2.1.noarch.rpm19.4 KiB2024-07-02 16:29:47
google-noto-sans-oldsogdian-fonts-20240601-2.1.noarch.rpm22.9 KiB2024-07-02 16:29:47
google-noto-sans-nko-fonts-20240601-2.1.noarch.rpm33.0 KiB2024-07-02 16:29:47
google-noto-sans-nandinagari-fonts-20240601-2.1.noarch.rpm99.2 KiB2024-07-02 16:29:47
google-noto-sans-nkounjoined-fonts-20240601-2.1.noarch.rpm30.7 KiB2024-07-02 16:29:47
google-noto-sans-olchiki-fonts-20240601-2.1.noarch.rpm38.0 KiB2024-07-02 16:29:47
google-noto-sans-newa-fonts-20240601-2.1.noarch.rpm75.3 KiB2024-07-02 16:29:47
google-noto-sans-oldpermic-fonts-20240601-2.1.noarch.rpm20.2 KiB2024-07-02 16:29:47
google-noto-sans-meeteimayek-fonts-20240601-2.1.noarch.rpm77.3 KiB2024-07-02 16:29:46
google-noto-sans-mro-fonts-20240601-2.1.noarch.rpm18.8 KiB2024-07-02 16:29:46
google-noto-sans-myanmar-fonts-20240601-2.1.noarch.rpm1.5 MiB2024-07-02 16:29:46
google-noto-sans-mono-fonts-20240601-2.1.noarch.rpm4.8 MiB2024-07-02 16:29:46
google-noto-sans-medefaidrin-fonts-20240601-2.1.noarch.rpm76.6 KiB2024-07-02 16:29:46
google-noto-sans-modi-fonts-20240601-2.1.noarch.rpm37.8 KiB2024-07-02 16:29:46
google-noto-sans-meroitic-fonts-20240601-2.1.noarch.rpm30.2 KiB2024-07-02 16:29:46
google-noto-sans-mongolian-fonts-20240601-2.1.noarch.rpm124.4 KiB2024-07-02 16:29:46
google-noto-sans-miao-fonts-20240601-2.1.noarch.rpm28.9 KiB2024-07-02 16:29:46
google-noto-sans-nabataean-fonts-20240601-2.1.noarch.rpm19.5 KiB2024-07-02 16:29:46
google-noto-sans-mendekikakui-fonts-20240601-2.1.noarch.rpm32.1 KiB2024-07-02 16:29:46
google-noto-sans-multani-fonts-20240601-2.1.noarch.rpm24.8 KiB2024-07-02 16:29:46
google-noto-sans-nagmundari-fonts-20240601-2.1.noarch.rpm31.2 KiB2024-07-02 16:29:46
google-noto-sans-marchen-fonts-20240601-2.1.noarch.rpm50.3 KiB2024-07-02 16:29:45
google-noto-sans-math-fonts-20240601-2.1.noarch.rpm416.0 KiB2024-07-02 16:29:45
google-noto-sans-limbu-fonts-20240601-2.1.noarch.rpm22.9 KiB2024-07-02 16:29:45
google-noto-sans-manichaean-fonts-20240601-2.1.noarch.rpm35.7 KiB2024-07-02 16:29:45
google-noto-sans-lineara-fonts-20240601-2.1.noarch.rpm43.6 KiB2024-07-02 16:29:45
google-noto-sans-mayannumerals-fonts-20240601-2.1.noarch.rpm16.7 KiB2024-07-02 16:29:45
google-noto-sans-lycian-fonts-20240601-2.1.noarch.rpm17.4 KiB2024-07-02 16:29:45
google-noto-sans-masaramgondi-fonts-20240601-2.1.noarch.rpm28.6 KiB2024-07-02 16:29:45
google-noto-sans-lisu-fonts-20240601-2.1.noarch.rpm29.3 KiB2024-07-02 16:29:45
google-noto-sans-malayalam-fonts-20240601-2.1.noarch.rpm1.1 MiB2024-07-02 16:29:45
google-noto-sans-mahajani-fonts-20240601-2.1.noarch.rpm27.6 KiB2024-07-02 16:29:45
google-noto-sans-lydian-fonts-20240601-2.1.noarch.rpm17.6 KiB2024-07-02 16:29:45
google-noto-sans-mandaic-fonts-20240601-2.1.noarch.rpm27.9 KiB2024-07-02 16:29:45
google-noto-sans-linearb-fonts-20240601-2.1.noarch.rpm47.1 KiB2024-07-02 16:29:45
google-noto-sans-kharoshthi-fonts-20240601-2.1.noarch.rpm34.3 KiB2024-07-02 16:29:44
google-noto-sans-laolooped-fonts-20240601-2.1.noarch.rpm475.2 KiB2024-07-02 16:29:44
google-noto-sans-inscriptionalparthian-fonts-20240601-2.1.noarch.rpm19.5 KiB2024-07-02 16:29:44
google-noto-sans-kawi-fonts-20240601-2.1.noarch.rpm43.9 KiB2024-07-02 16:29:44
google-noto-sans-khmer-fonts-20240601-2.1.noarch.rpm645.9 KiB2024-07-02 16:29:44
google-noto-sans-kannada-fonts-20240601-2.1.noarch.rpm1.5 MiB2024-07-02 16:29:44
google-noto-sans-kaithi-fonts-20240601-2.1.noarch.rpm43.2 KiB2024-07-02 16:29:44
google-noto-sans-lepcha-fonts-20240601-2.1.noarch.rpm28.3 KiB2024-07-02 16:29:44
google-noto-sans-kayahli-fonts-20240601-2.1.noarch.rpm35.8 KiB2024-07-02 16:29:44
google-noto-sans-lao-fonts-20240601-2.1.noarch.rpm284.8 KiB2024-07-02 16:29:44
google-noto-sans-khudawadi-fonts-20240601-2.1.noarch.rpm25.3 KiB2024-07-02 16:29:44
google-noto-sans-javanese-fonts-20240601-2.1.noarch.rpm89.6 KiB2024-07-02 16:29:44
google-noto-sans-khojki-fonts-20240601-2.1.noarch.rpm48.0 KiB2024-07-02 16:29:44
google-noto-sans-hanifirohingya-fonts-20240601-2.1.noarch.rpm43.1 KiB2024-07-02 16:29:43
google-noto-sans-hebrew-fonts-20240601-2.1.noarch.rpm180.8 KiB2024-07-02 16:29:43
google-noto-sans-gothic-fonts-20240601-2.1.noarch.rpm21.4 KiB2024-07-02 16:29:43
google-noto-sans-inscriptionalpahlavi-fonts-20240601-2.1.noarch.rpm18.3 KiB2024-07-02 16:29:43
google-noto-sans-hanunoo-fonts-20240601-2.1.noarch.rpm19.4 KiB2024-07-02 16:29:43
google-noto-sans-georgian-fonts-20240601-2.1.noarch.rpm538.1 KiB2024-07-02 16:29:43
google-noto-sans-grantha-fonts-20240601-2.1.noarch.rpm135.9 KiB2024-07-02 16:29:43
google-noto-sans-imperialaramaic-fonts-20240601-2.1.noarch.rpm19.0 KiB2024-07-02 16:29:43
google-noto-sans-glagolitic-fonts-20240601-2.1.noarch.rpm35.8 KiB2024-07-02 16:29:43
google-noto-sans-indicsiyaqnumbers-fonts-20240601-2.1.noarch.rpm31.6 KiB2024-07-02 16:29:43
google-noto-sans-gujarati-fonts-20240601-2.1.noarch.rpm1.4 MiB2024-07-02 16:29:43
google-noto-sans-hatran-fonts-20240601-2.1.noarch.rpm17.4 KiB2024-07-02 16:29:43
google-noto-sans-gurmukhi-fonts-20240601-2.1.noarch.rpm520.9 KiB2024-07-02 16:29:43
google-noto-sans-fonts-20240601-2.1.noarch.rpm11.1 MiB2024-07-02 16:29:43
google-noto-sans-gunjalagondi-fonts-20240601-2.1.noarch.rpm97.5 KiB2024-07-02 16:29:43
google-noto-sans-deseret-fonts-20240601-2.1.noarch.rpm25.9 KiB2024-07-02 16:29:42
google-noto-sans-cyprominoan-fonts-20240601-2.1.noarch.rpm21.8 KiB2024-07-02 16:29:42
google-noto-sans-egyptianhieroglyphs-fonts-20240601-2.1.noarch.rpm313.6 KiB2024-07-02 16:29:42
google-noto-sans-ethiopic-fonts-20240601-2.1.noarch.rpm1.9 MiB2024-07-02 16:29:42
google-noto-sans-devanagari-fonts-20240601-2.1.noarch.rpm3.1 MiB2024-07-02 16:29:42
google-noto-sans-duployan-fonts-20240601-2.1.noarch.rpm874.1 KiB2024-07-02 16:29:42
google-noto-sans-cuneiform-fonts-20240601-2.1.noarch.rpm353.4 KiB2024-07-02 16:29:42
google-noto-sans-elbasan-fonts-20240601-2.1.noarch.rpm25.6 KiB2024-07-02 16:29:42
google-noto-sans-cypriot-fonts-20240601-2.1.noarch.rpm23.5 KiB2024-07-02 16:29:42
google-noto-sans-elymaic-fonts-20240601-2.1.noarch.rpm20.2 KiB2024-07-02 16:29:42
google-noto-sans-caucasianalbanian-fonts-20240601-2.1.noarch.rpm24.7 KiB2024-07-02 16:29:41
google-noto-sans-cherokee-fonts-20240601-2.1.noarch.rpm328.6 KiB2024-07-02 16:29:41
google-noto-sans-carian-fonts-20240601-2.1.noarch.rpm22.0 KiB2024-07-02 16:29:41
google-noto-sans-brahmi-fonts-20240601-2.1.noarch.rpm36.8 KiB2024-07-02 16:29:41
google-noto-sans-buhid-fonts-20240601-2.1.noarch.rpm17.7 KiB2024-07-02 16:29:41
google-noto-sans-buginese-fonts-20240601-2.1.noarch.rpm19.1 KiB2024-07-02 16:29:41
google-noto-sans-chakma-fonts-20240601-2.1.noarch.rpm53.7 KiB2024-07-02 16:29:41
google-noto-sans-cham-fonts-20240601-2.1.noarch.rpm103.4 KiB2024-07-02 16:29:41
google-noto-sans-batak-fonts-20240601-2.1.noarch.rpm25.4 KiB2024-07-02 16:29:41
google-noto-sans-canadianaboriginal-fonts-20240601-2.1.noarch.rpm325.3 KiB2024-07-02 16:29:41
google-noto-sans-bengali-fonts-20240601-2.1.noarch.rpm748.7 KiB2024-07-02 16:29:41
google-noto-sans-chorasmian-fonts-20240601-2.1.noarch.rpm22.8 KiB2024-07-02 16:29:41
google-noto-sans-coptic-fonts-20240601-2.1.noarch.rpm39.5 KiB2024-07-02 16:29:41
google-noto-sans-bhaiksuki-fonts-20240601-2.1.noarch.rpm89.7 KiB2024-07-02 16:29:41
google-noto-sans-anatolianhieroglyphs-fonts-20240601-2.1.noarch.rpm136.3 KiB2024-07-02 16:29:40
google-noto-sans-balinese-fonts-20240601-2.1.noarch.rpm118.3 KiB2024-07-02 16:29:40
google-noto-sans-armenian-fonts-20240601-2.1.noarch.rpm263.0 KiB2024-07-02 16:29:40
google-noto-sans-adlam-fonts-20240601-2.1.noarch.rpm72.6 KiB2024-07-02 16:29:40
google-noto-rashihebrew-fonts-20240601-2.1.noarch.rpm83.2 KiB2024-07-02 16:29:40
google-noto-sans-bamum-fonts-20240601-2.1.noarch.rpm171.4 KiB2024-07-02 16:29:40
google-noto-nastaliqurdu-fonts-20240601-2.1.noarch.rpm329.2 KiB2024-07-02 16:29:40
google-noto-sans-arabic-fonts-20240601-2.1.noarch.rpm1.8 MiB2024-07-02 16:29:40
google-noto-naskharabic-fonts-20240601-2.1.noarch.rpm495.7 KiB2024-07-02 16:29:40
google-noto-sans-avestan-fonts-20240601-2.1.noarch.rpm26.9 KiB2024-07-02 16:29:40
google-noto-sans-bassavah-fonts-20240601-2.1.noarch.rpm27.8 KiB2024-07-02 16:29:40
google-noto-sans-adlamunjoined-fonts-20240601-2.1.noarch.rpm46.7 KiB2024-07-02 16:29:40
google-noto-music-fonts-20240601-2.1.noarch.rpm58.1 KiB2024-07-02 16:29:39
google-noto-kufiarabic-fonts-20240601-2.1.noarch.rpm449.6 KiB2024-07-02 16:29:39
python312-validators-0.29.0-1.1.noarch.rpm77.7 KiB2024-07-02 16:29:37
python310-validators-0.29.0-1.1.noarch.rpm69.5 KiB2024-07-02 16:29:37
python311-validators-0.29.0-1.1.noarch.rpm79.2 KiB2024-07-02 16:29:37
python311-pythran-0.16.1-2.1.noarch.rpm1.1 MiB2024-07-02 16:29:29
python312-pythran-0.16.1-2.1.noarch.rpm1.1 MiB2024-07-02 16:29:29
python310-pythran-0.16.1-2.1.noarch.rpm981.9 KiB2024-07-02 16:29:28
trytond_currency-6.0.6-1.1.noarch.rpm77.2 KiB2024-07-02 16:29:24
google-noto-fonts-20240601-2.1.noarch.rpm18.2 KiB2024-07-02 16:29:22
google-noto-fangsongkssvertical-fonts-20240601-2.1.noarch.rpm114.9 KiB2024-07-02 16:29:22
google-noto-fangsongkssrotated-fonts-20240601-2.1.noarch.rpm156.4 KiB2024-07-02 16:29:21
trytond_purchase-6.0.16-1.1.noarch.rpm172.7 KiB2024-07-02 16:29:20
python310-pyproject-hooks-1.1.0-1.1.noarch.rpm25.5 KiB2024-07-02 16:29:19
python311-pyproject-hooks-1.1.0-1.1.noarch.rpm29.7 KiB2024-07-02 16:29:19
klp-build-0~20240701.f72b4a1-1.1.noarch.rpm109.6 KiB2024-07-02 16:29:19
python312-pyproject-hooks-1.1.0-1.1.noarch.rpm28.8 KiB2024-07-02 16:29:19
python-azure-agent-config-micro-2.9.1.1-7.1.noarch.rpm23.9 KiB2024-07-02 16:29:18
python-azure-agent-config-server-2.9.1.1-7.1.noarch.rpm23.9 KiB2024-07-02 16:29:18
python-azure-agent-config-default-2.9.1.1-7.1.noarch.rpm23.9 KiB2024-07-02 16:29:18
python-azure-agent-config-hpc-2.9.1.1-7.1.noarch.rpm23.9 KiB2024-07-02 16:29:18
python-azure-agent-test-2.9.1.1-7.1.noarch.rpm915.7 KiB2024-07-02 16:29:18
trytond_account-6.0.26-1.1.noarch.rpm458.1 KiB2024-07-02 16:29:18
python-azure-agent-2.9.1.1-7.1.noarch.rpm720.7 KiB2024-07-02 16:29:17
python310-gast-0.5.4-4.1.noarch.rpm52.4 KiB2024-07-02 16:29:17
python312-gast-0.5.4-4.1.noarch.rpm64.4 KiB2024-07-02 16:29:17
python311-gast-0.5.4-4.1.noarch.rpm66.3 KiB2024-07-02 16:29:17
trytond_account_invoice-6.0.18-1.1.noarch.rpm203.9 KiB2024-07-02 16:29:14
python312-more-itertools-10.3.0-1.1.noarch.rpm115.1 KiB2024-07-02 16:29:13
python310-more-itertools-10.3.0-1.1.noarch.rpm96.8 KiB2024-07-02 16:29:13
python311-more-itertools-10.3.0-1.1.noarch.rpm117.3 KiB2024-07-02 16:29:13
python312-pydantic-2.8.0-1.1.noarch.rpm846.1 KiB2024-07-02 16:29:11
python310-pydantic-2.8.0-1.1.noarch.rpm679.9 KiB2024-07-02 16:29:11
python311-pydantic-2.8.0-1.1.noarch.rpm863.1 KiB2024-07-02 16:29:11
python312-setuptools-wheel-70.1.1-1.1.noarch.rpm755.7 KiB2024-07-02 16:26:51
python312-setuptools-70.1.1-1.1.noarch.rpm1.4 MiB2024-07-02 16:26:51
python311-setuptools-70.1.1-1.1.noarch.rpm1.4 MiB2024-07-02 16:26:50
python310-setuptools-70.1.1-1.1.noarch.rpm1.1 MiB2024-07-02 16:26:50
python311-setuptools-wheel-70.1.1-1.1.noarch.rpm755.8 KiB2024-07-02 16:26:50
python310-setuptools-wheel-70.1.1-1.1.noarch.rpm755.7 KiB2024-07-02 16:26:50
wg-info-20240702.9b5c479-1.1.noarch.rpm21.6 KiB2024-07-02 16:26:40
hyprshot-1.3.0+2-1.1.noarch.rpm23.5 KiB2024-07-02 16:26:31
gap-laguna-3.9.7-1.1.noarch.rpm477.3 KiB2024-07-02 16:26:30
nodejs-electron-doc-29.4.3-1.1.noarch.rpm7.8 MiB2024-07-01 12:44:11
mame-data-0.267-1.1.noarch.rpm15.5 MiB2024-07-01 10:41:02
maxima-lang-5.47.0-2.7.noarch.rpm11.6 MiB2024-07-01 10:08:33
flocq-doc-4.1.4-1.6.noarch.rpm290.9 KiB2024-07-01 10:07:36
zola-fish-completion-0.19.1-1.1.noarch.rpm15.5 KiB2024-07-01 10:00:17
zola-zsh-completion-0.19.1-1.1.noarch.rpm16.0 KiB2024-07-01 10:00:17
zola-bash-completion-0.19.1-1.1.noarch.rpm15.4 KiB2024-07-01 10:00:16
coq-doc-8.19.2-1.1.noarch.rpm5.7 MiB2024-07-01 09:58:17
jxl-thumbnailer-0.10.3-1.1.noarch.rpm11.5 KiB2024-07-01 09:57:42
python310-django-celery-beat-2.6.0-1.1.noarch.rpm101.2 KiB2024-07-01 09:56:40
python311-django-celery-beat-2.6.0-1.1.noarch.rpm115.1 KiB2024-07-01 09:56:40
python312-django-celery-beat-2.6.0-1.1.noarch.rpm113.2 KiB2024-07-01 09:56:40
boost-gnu-hpc-devel-1.85.0-2.1.noarch.rpm12.0 KiB2024-07-01 09:54:36
boost-gnu-hpc-1.85.0-2.1.noarch.rpm11.9 KiB2024-07-01 09:54:36
gcompris-qt-lang-4.1-1.1.noarch.rpm3.4 MiB2024-07-01 09:53:21
gcompris-qt-activities-4.1-1.1.noarch.rpm38.2 MiB2024-07-01 09:53:21
python312-google-cloud-build-3.24.0-1.1.noarch.rpm175.8 KiB2024-07-01 09:52:43
python311-google-cloud-build-3.24.0-1.1.noarch.rpm176.3 KiB2024-07-01 09:52:43
xfce4-kbdleds-plugin-lang-0.3.0-1.1.noarch.rpm8.2 KiB2024-07-01 09:52:43
python310-google-cloud-build-3.24.0-1.1.noarch.rpm151.3 KiB2024-07-01 09:52:43
python312-jsonpickle-3.2.2-1.1.noarch.rpm106.8 KiB2024-07-01 09:52:40
python310-jsonpickle-3.2.2-1.1.noarch.rpm90.3 KiB2024-07-01 09:52:40
python311-jsonpickle-3.2.2-1.1.noarch.rpm110.1 KiB2024-07-01 09:52:40
git-cola-4.8.0-1.1.noarch.rpm1.1 MiB2024-07-01 09:52:39
python312-pipdeptree-2.23.0-1.1.noarch.rpm75.7 KiB2024-07-01 09:52:38
python311-pipdeptree-2.23.0-1.1.noarch.rpm77.6 KiB2024-07-01 09:52:38
python310-pipdeptree-2.23.0-1.1.noarch.rpm65.9 KiB2024-07-01 09:52:38
curtail-lang-1.10.0-2.1.noarch.rpm57.7 KiB2024-07-01 09:52:32
curtail-1.10.0-2.1.noarch.rpm46.7 KiB2024-07-01 09:52:32
boost-gnu-mvapich2-hpc-python3-1.85.0-2.1.noarch.rpm12.1 KiB2024-07-01 09:50:11
boost-gnu-mvapich2-hpc-1.85.0-2.1.noarch.rpm12.0 KiB2024-07-01 09:50:10
boost-gnu-mvapich2-hpc-devel-1.85.0-2.1.noarch.rpm12.1 KiB2024-07-01 09:50:10
boost-gnu-mpich-hpc-1.85.0-2.1.noarch.rpm12.0 KiB2024-07-01 09:50:07
boost-gnu-mpich-hpc-python3-1.85.0-2.1.noarch.rpm12.1 KiB2024-07-01 09:50:07
boost-gnu-mpich-hpc-devel-1.85.0-2.1.noarch.rpm12.0 KiB2024-07-01 09:50:07
gajim-lang-1.9.1-1.1.noarch.rpm488.4 KiB2024-07-01 09:50:06
gajim-1.9.1-1.1.noarch.rpm3.3 MiB2024-07-01 09:50:06
boost-gnu-openmpi4-hpc-1.85.0-2.1.noarch.rpm12.0 KiB2024-07-01 09:49:54
boost-gnu-openmpi4-hpc-python3-1.85.0-2.1.noarch.rpm12.1 KiB2024-07-01 09:49:54
boost-gnu-openmpi4-hpc-devel-1.85.0-2.1.noarch.rpm12.1 KiB2024-07-01 09:49:54
fiona-fio-1.9.6-1.1.noarch.rpm17.9 KiB2024-07-01 09:48:45
eza-zsh-completion-0.18.21+0-1.1.noarch.rpm24.6 KiB2024-07-01 09:48:25
eza-fish-completion-0.18.21+0-1.1.noarch.rpm24.8 KiB2024-07-01 09:48:25
eza-bash-completion-0.18.21+0-1.1.noarch.rpm23.6 KiB2024-07-01 09:48:25
smplayer-lang-24.5.0-1.1.noarch.rpm1.4 MiB2024-07-01 09:47:02
python311-django-money-3.5.2-1.1.noarch.rpm83.4 KiB2024-07-01 09:46:13
python312-django-money-3.5.2-1.1.noarch.rpm81.5 KiB2024-07-01 09:46:13
python310-django-money-3.5.2-1.1.noarch.rpm71.2 KiB2024-07-01 09:46:13
python310-weasyprint-62.3-1.1.noarch.rpm503.2 KiB2024-07-01 09:46:12
python311-weasyprint-62.3-1.1.noarch.rpm680.7 KiB2024-07-01 09:46:12
python312-weasyprint-62.3-1.1.noarch.rpm664.0 KiB2024-07-01 09:46:12
python311-param-2.1.1-1.1.noarch.rpm274.2 KiB2024-07-01 09:46:10
python310-param-2.1.1-1.1.noarch.rpm210.2 KiB2024-07-01 09:46:10
python312-param-2.1.1-1.1.noarch.rpm266.4 KiB2024-07-01 09:46:10
python312-flake8-comprehensions-3.15.0-1.1.noarch.rpm24.1 KiB2024-07-01 09:45:57
python311-flake8-comprehensions-3.15.0-1.1.noarch.rpm24.2 KiB2024-07-01 09:45:57
python310-flake8-comprehensions-3.15.0-1.1.noarch.rpm21.7 KiB2024-07-01 09:45:57
python311-zignal-0.7.0-1.1.noarch.rpm104.0 KiB2024-07-01 09:45:54
python310-zignal-0.7.0-1.1.noarch.rpm85.5 KiB2024-07-01 09:45:54
python312-zignal-0.7.0-1.1.noarch.rpm101.9 KiB2024-07-01 09:45:54
python312-twine-5.1.0-1.1.noarch.rpm81.3 KiB2024-07-01 09:45:53
python311-twine-5.1.0-1.1.noarch.rpm82.8 KiB2024-07-01 09:45:52
python310-twine-5.1.0-1.1.noarch.rpm68.7 KiB2024-07-01 09:45:52
python312-nbxmpp-5.0.1-1.1.noarch.rpm453.0 KiB2024-07-01 09:45:51
python310-nbxmpp-5.0.1-1.1.noarch.rpm364.5 KiB2024-07-01 09:45:51
python311-nbxmpp-5.0.1-1.1.noarch.rpm462.9 KiB2024-07-01 09:45:51
python310-google-api-core-2.19.1-1.1.noarch.rpm165.5 KiB2024-07-01 09:45:50
python311-google-api-core-2.19.1-1.1.noarch.rpm194.9 KiB2024-07-01 09:45:50
scrcpy-zsh-completion-2.5-1.1.noarch.rpm46.9 KiB2024-07-01 09:45:50
python312-google-api-core-2.19.1-1.1.noarch.rpm192.5 KiB2024-07-01 09:45:50
scrcpy-bash-completion-2.5-1.1.noarch.rpm45.9 KiB2024-07-01 09:45:50
python312-django-cors-headers-4.4.0-1.1.noarch.rpm31.7 KiB2024-07-01 09:45:48
python312-jsonschema-path-0.3.3-1.1.noarch.rpm38.3 KiB2024-07-01 09:45:48
python311-django-cors-headers-4.4.0-1.1.noarch.rpm32.2 KiB2024-07-01 09:45:48
python310-jsonschema-path-0.3.3-1.1.noarch.rpm34.9 KiB2024-07-01 09:45:48
python311-jsonschema-path-0.3.3-1.1.noarch.rpm39.1 KiB2024-07-01 09:45:48
python310-django-cors-headers-4.4.0-1.1.noarch.rpm29.6 KiB2024-07-01 09:45:48
python310-authheaders-0.16.3-1.1.noarch.rpm109.6 KiB2024-07-01 09:45:47
python312-authheaders-0.16.3-1.1.noarch.rpm113.7 KiB2024-07-01 09:45:47
python311-authheaders-0.16.3-1.1.noarch.rpm114.8 KiB2024-07-01 09:45:47
python312-plette-2.0.2-1.1.noarch.rpm36.3 KiB2024-07-01 09:45:46
python310-plette-2.0.2-1.1.noarch.rpm31.8 KiB2024-07-01 09:45:46
python311-plette-2.0.2-1.1.noarch.rpm37.2 KiB2024-07-01 09:45:46
dnsdiag-2.5.0-1.1.noarch.rpm37.0 KiB2024-07-01 09:45:44
python310-testrepository-0.0.21-1.1.noarch.rpm183.9 KiB2024-07-01 09:45:43
python311-testrepository-0.0.21-1.1.noarch.rpm226.4 KiB2024-07-01 09:45:43
python312-testrepository-0.0.21-1.1.noarch.rpm220.1 KiB2024-07-01 09:45:43
python312-mdit-py-plugins-0.4.1-1.1.noarch.rpm107.8 KiB2024-07-01 09:45:42
python311-mdit-py-plugins-0.4.1-1.1.noarch.rpm109.5 KiB2024-07-01 09:45:42
python310-mdit-py-plugins-0.4.1-1.1.noarch.rpm91.6 KiB2024-07-01 09:45:42
rust1.79-src-1.79.0-2.1.noarch.rpm3.1 MiB2024-07-01 09:43:27
boost1_85_0-doc-pdf-1.85.0-2.1.noarch.rpm41.2 MiB2024-07-01 09:37:05
boost1_85_0-doc-html-1.85.0-2.1.noarch.rpm51.4 MiB2024-07-01 09:37:04
python312-Faker-26.0.0-1.1.noarch.rpm3.1 MiB2024-07-01 09:32:15
python310-Faker-26.0.0-1.1.noarch.rpm3.1 MiB2024-07-01 09:32:14
python311-Faker-26.0.0-1.1.noarch.rpm3.1 MiB2024-07-01 09:32:14
python310-pip-licenses-4.4.0-1.1.noarch.rpm39.8 KiB2024-07-01 09:30:17
python311-pip-licenses-4.4.0-1.1.noarch.rpm46.5 KiB2024-07-01 09:30:17
python312-pip-licenses-4.4.0-1.1.noarch.rpm45.3 KiB2024-07-01 09:30:17
python310-dep-logic-0.3.0-1.1.noarch.rpm64.0 KiB2024-07-01 09:30:03
python311-dep-logic-0.3.0-1.1.noarch.rpm79.3 KiB2024-07-01 09:30:03
python311-pipx-1.6.0-1.1.noarch.rpm204.1 KiB2024-07-01 09:30:03
python312-pipx-1.6.0-1.1.noarch.rpm200.2 KiB2024-07-01 09:30:03
python310-pipx-1.6.0-1.1.noarch.rpm162.4 KiB2024-07-01 09:30:03
python312-dep-logic-0.3.0-1.1.noarch.rpm76.8 KiB2024-07-01 09:30:03
python311-poetry-1.8.3-1.1.noarch.rpm594.2 KiB2024-07-01 09:30:02
python312-poetry-1.8.3-1.1.noarch.rpm581.5 KiB2024-07-01 09:30:02
python310-poetry-1.8.3-1.1.noarch.rpm472.7 KiB2024-07-01 09:30:02
paexec-examples-1.1.6-1.1.noarch.rpm14.5 KiB2024-07-01 09:30:01
python311-poetry-dynamic-versioning-1.4.0-1.1.noarch.rpm49.1 KiB2024-07-01 09:30:00
python312-poetry-dynamic-versioning-1.4.0-1.1.noarch.rpm47.8 KiB2024-07-01 09:30:00
python310-poetry-dynamic-versioning-1.4.0-1.1.noarch.rpm39.9 KiB2024-07-01 09:30:00
boost-license1_85_0-1.85.0-2.1.noarch.rpm12.3 KiB2024-07-01 09:27:53
iosevka-ss18-fonts-30.3.0-1.1.noarch.rpm12.4 MiB2024-07-01 09:27:52
iosevka-ss16-fonts-30.3.0-1.1.noarch.rpm12.2 MiB2024-07-01 09:27:52
iosevka-ss17-fonts-30.3.0-1.1.noarch.rpm14.5 MiB2024-07-01 09:27:52
iosevka-ss14-fonts-30.3.0-1.1.noarch.rpm12.2 MiB2024-07-01 09:27:51
iosevka-ss13-fonts-30.3.0-1.1.noarch.rpm12.2 MiB2024-07-01 09:27:51
iosevka-ss15-fonts-30.3.0-1.1.noarch.rpm14.6 MiB2024-07-01 09:27:51
iosevka-ss12-fonts-30.3.0-1.1.noarch.rpm12.8 MiB2024-07-01 09:27:50
iosevka-ss10-fonts-30.3.0-1.1.noarch.rpm12.5 MiB2024-07-01 09:27:50
iosevka-ss11-fonts-30.3.0-1.1.noarch.rpm12.9 MiB2024-07-01 09:27:50
iosevka-ss09-fonts-30.3.0-1.1.noarch.rpm12.5 MiB2024-07-01 09:27:50
iosevka-ss08-fonts-30.3.0-1.1.noarch.rpm12.5 MiB2024-07-01 09:27:49
iosevka-ss07-fonts-30.3.0-1.1.noarch.rpm12.1 MiB2024-07-01 09:27:49
iosevka-ss04-fonts-30.3.0-1.1.noarch.rpm12.0 MiB2024-07-01 09:27:48
iosevka-ss06-fonts-30.3.0-1.1.noarch.rpm12.2 MiB2024-07-01 09:27:48
iosevka-ss05-fonts-30.3.0-1.1.noarch.rpm12.4 MiB2024-07-01 09:27:48
iosevka-ss03-fonts-30.3.0-1.1.noarch.rpm12.5 MiB2024-07-01 09:27:48
iosevka-ss02-fonts-30.3.0-1.1.noarch.rpm12.3 MiB2024-07-01 09:27:47
iosevka-slab-fonts-30.3.0-1.1.noarch.rpm59.6 MiB2024-07-01 09:27:47
iosevka-ss01-fonts-30.3.0-1.1.noarch.rpm12.3 MiB2024-07-01 09:27:47
iosevka-fonts-30.3.0-1.1.noarch.rpm55.4 MiB2024-07-01 09:27:29
iosevka-etoile-fonts-30.3.0-1.1.noarch.rpm30.4 MiB2024-07-01 09:27:28
iosevka-curly-slab-fonts-30.3.0-1.1.noarch.rpm59.6 MiB2024-07-01 09:27:27
iosevka-curly-fonts-30.3.0-1.1.noarch.rpm55.5 MiB2024-07-01 09:27:26
iosevka-aile-fonts-30.3.0-1.1.noarch.rpm27.0 MiB2024-07-01 09:27:25
python312-Js2Py-0.74-3.1.noarch.rpm2.3 MiB2024-07-01 09:25:29
python311-Js2Py-0.74-3.1.noarch.rpm2.5 MiB2024-07-01 09:25:29
python310-Js2Py-0.74-3.1.noarch.rpm1.5 MiB2024-07-01 09:25:29
rapidcsv-devel-8.83-1.1.noarch.rpm28.2 KiB2024-07-01 09:24:35
python310-portalocker-2.10.0-1.1.noarch.rpm40.9 KiB2024-07-01 09:23:52
python311-portalocker-2.10.0-1.1.noarch.rpm48.4 KiB2024-07-01 09:23:52
python312-portalocker-2.10.0-1.1.noarch.rpm47.6 KiB2024-07-01 09:23:52
python312-icalendar-5.0.13-1.1.noarch.rpm213.9 KiB2024-07-01 09:23:51
python310-icalendar-5.0.13-1.1.noarch.rpm180.8 KiB2024-07-01 09:23:51
python311-icalendar-5.0.13-1.1.noarch.rpm219.6 KiB2024-07-01 09:23:51
python312-sphinxcontrib-towncrier-0.4.0a0-1.1.noarch.rpm30.3 KiB2024-07-01 09:23:50
python312-openpyxl-3.1.5-1.1.noarch.rpm523.7 KiB2024-07-01 09:23:50
python311-openpyxl-3.1.5-1.1.noarch.rpm538.6 KiB2024-07-01 09:23:50
python311-sphinxcontrib-towncrier-0.4.0a0-1.1.noarch.rpm30.9 KiB2024-07-01 09:23:49
python310-sphinxcontrib-towncrier-0.4.0a0-1.1.noarch.rpm27.7 KiB2024-07-01 09:23:49
python310-openpyxl-3.1.5-1.1.noarch.rpm438.5 KiB2024-07-01 09:23:49
python312-astropy-iers-data-0.2024.6.24.0.31.11-1.1.noarch.rpm1.2 MiB2024-07-01 09:23:48
pyenv-bash-completion-2.4.5-1.1.noarch.rpm33.8 KiB2024-07-01 09:23:48
pyenv-fish-completion-2.4.5-1.1.noarch.rpm33.9 KiB2024-07-01 09:23:48
pyenv-zsh-completion-2.4.5-1.1.noarch.rpm33.9 KiB2024-07-01 09:23:48
python310-astropy-iers-data-0.2024.6.24.0.31.11-1.1.noarch.rpm1.2 MiB2024-07-01 09:23:47
python311-astropy-iers-data-0.2024.6.24.0.31.11-1.1.noarch.rpm1.2 MiB2024-07-01 09:23:47
gnu_parallel-zsh-completion-20240622-1.1.noarch.rpm14.4 KiB2024-07-01 09:23:46
gnu_parallel-20240622-1.1.noarch.rpm357.8 KiB2024-07-01 09:23:46
gnu_parallel-doc-20240622-1.1.noarch.rpm1.7 MiB2024-07-01 09:23:46
gnu_parallel-bash-completion-20240622-1.1.noarch.rpm15.6 KiB2024-07-01 09:23:46
rpmrebuild-2.18-1.1.noarch.rpm88.8 KiB2024-07-01 09:23:46
python310-sphinx-click-6.0.0-1.1.noarch.rpm27.2 KiB2024-07-01 09:23:44
python311-sphinx-click-6.0.0-1.1.noarch.rpm32.1 KiB2024-07-01 09:23:44
python312-sphinx-click-6.0.0-1.1.noarch.rpm31.7 KiB2024-07-01 09:23:44
papirus-folders-1.13.1-1.1.noarch.rpm17.8 KiB2024-07-01 09:23:41
gcompris-qt-voices-4.1~20240524-1.1.noarch.rpm429.8 MiB2024-07-01 09:22:55
virt-manager-common-4.1.0-23.1.noarch.rpm858.6 KiB2024-07-01 09:22:00
virt-manager-4.1.0-23.1.noarch.rpm302.5 KiB2024-07-01 09:21:59
virt-install-4.1.0-23.1.noarch.rpm59.3 KiB2024-07-01 09:21:59
python311-wurlitzer-3.1.1-1.1.noarch.rpm26.4 KiB2024-07-01 09:21:46
python310-wurlitzer-3.1.1-1.1.noarch.rpm22.6 KiB2024-07-01 09:21:46
python312-wurlitzer-3.1.1-1.1.noarch.rpm25.7 KiB2024-07-01 09:21:46
python310-djangorestframework-3.15.2-1.1.noarch.rpm1003.7 KiB2024-07-01 09:21:45
python311-djangorestframework-3.15.2-1.1.noarch.rpm1.1 MiB2024-07-01 09:21:45
python312-djangorestframework-3.15.2-1.1.noarch.rpm1.0 MiB2024-07-01 09:21:45
python310-virtualenv-20.26.3-1.1.noarch.rpm4.3 MiB2024-07-01 09:21:44
python312-virtualenv-20.26.3-1.1.noarch.rpm4.3 MiB2024-07-01 09:21:44
python311-virtualenv-20.26.3-1.1.noarch.rpm4.3 MiB2024-07-01 09:21:44
python312-webcolors-24.6.0-1.1.noarch.rpm37.5 KiB2024-07-01 09:21:43
python310-webcolors-24.6.0-1.1.noarch.rpm34.8 KiB2024-07-01 09:21:43
python311-webcolors-24.6.0-1.1.noarch.rpm38.0 KiB2024-07-01 09:21:43
python312-voluptuous-0.15.1-1.1.noarch.rpm76.7 KiB2024-07-01 09:21:42
python311-voluptuous-0.15.1-1.1.noarch.rpm78.7 KiB2024-07-01 09:21:42
python310-voluptuous-0.15.1-1.1.noarch.rpm64.6 KiB2024-07-01 09:21:42
obs-service-appimage-0.10.43-2.1.noarch.rpm12.6 KiB2024-07-01 09:21:39
obs-service-obs_scm-common-0.10.43-2.1.noarch.rpm97.9 KiB2024-07-01 09:21:39
python311-enzyme-0.5.2-1.1.noarch.rpm46.5 KiB2024-07-01 09:21:39
obs-service-obs_scm-0.10.43-2.1.noarch.rpm14.9 KiB2024-07-01 09:21:39
python312-enzyme-0.5.2-1.1.noarch.rpm45.3 KiB2024-07-01 09:21:39
obs-service-tar_scm-0.10.43-2.1.noarch.rpm14.6 KiB2024-07-01 09:21:39
python310-enzyme-0.5.2-1.1.noarch.rpm40.7 KiB2024-07-01 09:21:39
obs-service-snapcraft-0.10.43-2.1.noarch.rpm12.7 KiB2024-07-01 09:21:39
obs-service-tar-0.10.43-2.1.noarch.rpm12.6 KiB2024-07-01 09:21:39
python312-build-1.2.1-1.1.noarch.rpm62.2 KiB2024-07-01 09:21:38
python310-build-1.2.1-1.1.noarch.rpm53.0 KiB2024-07-01 09:21:38
python311-build-1.2.1-1.1.noarch.rpm63.5 KiB2024-07-01 09:21:38
openafs-kernel-source-1.8.11.g20240530-1.4.noarch.rpm1.1 MiB2024-06-29 16:22:08
gmic-data-3.4.0-1.2.noarch.rpm11.5 MiB2024-06-29 15:13:47
gmic-bash-completion-3.4.0-1.2.noarch.rpm36.9 KiB2024-06-29 15:13:46
v4l2loopback-autoload-0.13.1-2.5.noarch.rpm13.4 KiB2024-06-29 15:08:06
krita-lang-5.2.3-1.1.noarch.rpm3.4 MiB2024-06-29 14:19:55
gdal-bash-completion-3.8.5-1.2.noarch.rpm22.6 KiB2024-06-29 14:12:53
cpupower-lang-6.9.7-8.9.noarch.rpm28.3 KiB2024-06-29 14:06:23
cpupower-bash-completion-6.9.7-8.9.noarch.rpm10.4 KiB2024-06-29 14:06:23
kvm_stat-6.9.7-23.19.noarch.rpm29.2 KiB2024-06-29 14:06:08
kvm_stat-rebuild-6.9.7-23.19.noarch.rpm9.2 KiB2024-06-29 14:06:08
kwin6-lang-6.1.1.2-1.1.noarch.rpm3.3 MiB2024-06-29 13:57:11
vlc-lang-3.0.21-3.1.noarch.rpm5.4 MiB2024-06-29 13:52:44
kernel-docs-html-6.9.7-1.1.noarch.rpm24.4 MiB2024-06-29 13:51:47
kernel-docs-6.9.7-1.1.noarch.rpm3.7 MiB2024-06-29 13:51:46
waylyrics-lang-0.3.13-1.1.noarch.rpm26.0 KiB2024-06-29 13:50:24
rust1.78-src-1.78.0-3.1.noarch.rpm2.9 MiB2024-06-29 13:45:22
marknote-lang-1.3.0-1.1.noarch.rpm47.2 KiB2024-06-29 13:43:59
python312-roifile-2024.5.24-1.1.noarch.rpm47.3 KiB2024-06-29 13:41:28
python310-roifile-2024.5.24-1.1.noarch.rpm38.0 KiB2024-06-29 13:41:28
python311-roifile-2024.5.24-1.1.noarch.rpm48.0 KiB2024-06-29 13:41:28
python311-spyder-kernels-2.5.2-1.1.noarch.rpm181.4 KiB2024-06-29 13:41:11
python310-spyder-kernels-2.5.2-1.1.noarch.rpm143.2 KiB2024-06-29 13:41:11
python312-spyder-kernels-2.5.2-1.1.noarch.rpm175.8 KiB2024-06-29 13:41:11
python312-zarr-2.18.2-1.1.noarch.rpm542.6 KiB2024-06-29 13:41:05
python311-zarr-2.18.2-1.1.noarch.rpm557.8 KiB2024-06-29 13:41:05
python310-zarr-2.18.2-1.1.noarch.rpm417.0 KiB2024-06-29 13:41:05
python311-sympy-1.12.1-1.1.noarch.rpm13.9 MiB2024-06-29 13:41:01
python312-sympy-1.12.1-1.1.noarch.rpm13.6 MiB2024-06-29 13:41:01
python312-sphinxcontrib-plantuml-0.30-1.1.noarch.rpm35.8 KiB2024-06-29 13:41:01
python310-sphinxcontrib-plantuml-0.30-1.1.noarch.rpm29.5 KiB2024-06-29 13:41:01
python311-sphinxcontrib-plantuml-0.30-1.1.noarch.rpm37.0 KiB2024-06-29 13:41:01
python310-sympy-1.12.1-1.1.noarch.rpm10.3 MiB2024-06-29 13:41:00
pipewire-lang-1.2.0-1.1.noarch.rpm353.8 KiB2024-06-29 13:40:57
python312-urwid-2.6.14-1.1.noarch.rpm534.8 KiB2024-06-29 13:39:38
python310-urwid-2.6.14-1.1.noarch.rpm426.1 KiB2024-06-29 13:39:38
python311-urwid-2.6.14-1.1.noarch.rpm544.2 KiB2024-06-29 13:39:38
fastfetch-bash-completion-2.17.1-1.1.noarch.rpm46.4 KiB2024-06-29 13:39:35
fastfetch-fish-completion-2.17.1-1.1.noarch.rpm45.3 KiB2024-06-29 13:39:35
python311-tifffile-2024.6.18-1.1.noarch.rpm505.1 KiB2024-06-29 13:39:14
python312-tifffile-2024.6.18-1.1.noarch.rpm499.7 KiB2024-06-29 13:39:14
python310-tifffile-2024.6.18-1.1.noarch.rpm392.1 KiB2024-06-29 13:39:13
python312-whitenoise-6.7.0-1.1.noarch.rpm56.2 KiB2024-06-29 13:39:12
python311-whitenoise-6.7.0-1.1.noarch.rpm57.5 KiB2024-06-29 13:39:12
python310-whitenoise-6.7.0-1.1.noarch.rpm47.7 KiB2024-06-29 13:39:12
python311-tenacity-8.4.2-1.1.noarch.rpm67.8 KiB2024-06-29 13:39:06
python310-tenacity-8.4.2-1.1.noarch.rpm57.1 KiB2024-06-29 13:39:06
python312-tenacity-8.4.2-1.1.noarch.rpm67.3 KiB2024-06-29 13:39:06
python310-osc-tiny-0.10.1-1.1.noarch.rpm143.1 KiB2024-06-29 13:39:05
python311-osc-tiny-0.10.1-1.1.noarch.rpm181.1 KiB2024-06-29 13:39:05
python312-osc-tiny-0.10.1-1.1.noarch.rpm175.5 KiB2024-06-29 13:39:05
python311-webauthn-2.2.0-1.1.noarch.rpm123.0 KiB2024-06-29 13:39:04
python310-webauthn-2.2.0-1.1.noarch.rpm105.0 KiB2024-06-29 13:39:04
python312-webauthn-2.2.0-1.1.noarch.rpm121.0 KiB2024-06-29 13:39:04
armadillo-doc-14.0.0-1.1.noarch.rpm1.7 MiB2024-06-29 13:39:02
monitoring-plugins-metadata-4.14.0+git15.c784b83c-2.1.noarch.rpm41.5 KiB2024-06-29 13:33:17
sile-zsh-completion-0.15.4-1.1.noarch.rpm21.0 KiB2024-06-29 13:29:35
sile-fish-completion-0.15.4-1.1.noarch.rpm20.6 KiB2024-06-29 13:29:35
sile-bash-completion-0.15.4-1.1.noarch.rpm20.8 KiB2024-06-29 13:29:34
kernel-source-vanilla-6.9.7-1.1.noarch.rpm180.4 MiB2024-06-29 13:27:50
kernel-source-6.9.7-1.1.noarch.rpm165.6 MiB2024-06-29 13:27:44
python310-lxml_html_clean-0.1.1-1.1.noarch.rpm25.6 KiB2024-06-29 13:27:42
python311-lxml_html_clean-0.1.1-1.1.noarch.rpm19.1 KiB2024-06-29 13:27:42
python312-lxml_html_clean-0.1.1-1.1.noarch.rpm29.8 KiB2024-06-29 13:27:42
kernel-devel-6.9.7-1.1.noarch.rpm18.6 MiB2024-06-29 13:27:41
kernel-macros-6.9.7-1.1.noarch.rpm3.6 MiB2024-06-29 13:27:41
python312-robotframework-7.0.1-1.1.noarch.rpm1.1 MiB2024-06-29 13:27:35
python310-robotframework-7.0.1-1.1.noarch.rpm955.0 KiB2024-06-29 13:27:34
python311-robotframework-7.0.1-1.1.noarch.rpm1.2 MiB2024-06-29 13:27:34
python310-pytest-jupyter-server-0.10.1-1.1.noarch.rpm9.8 KiB2024-06-29 13:27:33
python312-pytest-jupyter-client-0.10.1-1.1.noarch.rpm9.7 KiB2024-06-29 13:27:33
python311-pytest-jupyter-server-0.10.1-1.1.noarch.rpm9.9 KiB2024-06-29 13:27:33
python310-pytest-jupyter-0.10.1-1.1.noarch.rpm34.2 KiB2024-06-29 13:27:33
python311-pytest-jupyter-client-0.10.1-1.1.noarch.rpm9.9 KiB2024-06-29 13:27:33
python311-pytest-jupyter-0.10.1-1.1.noarch.rpm39.4 KiB2024-06-29 13:27:33
python312-pytest-jupyter-server-0.10.1-1.1.noarch.rpm9.8 KiB2024-06-29 13:27:33
python312-pytest-jupyter-0.10.1-1.1.noarch.rpm38.8 KiB2024-06-29 13:27:33
python310-pytest-jupyter-client-0.10.1-1.1.noarch.rpm9.7 KiB2024-06-29 13:27:33
python311-wasabi-1.1.3-1.1.noarch.rpm65.1 KiB2024-06-29 13:27:27
python312-wasabi-1.1.3-1.1.noarch.rpm63.1 KiB2024-06-29 13:27:27
python310-wasabi-1.1.3-1.1.noarch.rpm55.1 KiB2024-06-29 13:27:27
kernel-source-longterm-6.6.36-1.1.noarch.rpm160.4 MiB2024-06-29 13:24:17
kernel-devel-longterm-6.6.36-1.1.noarch.rpm18.5 MiB2024-06-29 13:24:14
python-rpm-macros-20240618.c146b29-1.1.noarch.rpm46.7 KiB2024-06-29 13:16:37
python-rpm-generators-20240618.c146b29-1.1.noarch.rpm12.8 KiB2024-06-29 13:16:37
libmlt7-data-7.24.0-1.1.noarch.rpm77.1 KiB2024-06-28 15:49:19
maliit-keyboard-lang-2.3.1-2.1.noarch.rpm51.7 KiB2024-06-28 15:45:59
python312-imageio-2.34.2-1.1.noarch.rpm602.1 KiB2024-06-28 15:44:05
python311-imageio-2.34.2-1.1.noarch.rpm616.4 KiB2024-06-28 15:44:05
python310-imageio-2.34.2-1.1.noarch.rpm479.4 KiB2024-06-28 15:44:04
tik-config-Aeon-20240502-2.1.noarch.rpm8.8 KiB2024-06-28 15:43:46
plasma-branding-Kalpa-20240401-3.1.noarch.rpm22.7 KiB2024-06-28 15:43:44
nodejs22-docs-22.3.0-1.1.noarch.rpm2.3 MiB2024-06-28 15:43:02
openmpi_4_1_6-gnu-hpc-testsuite-4.1.6-4.1.noarch.rpm51.7 KiB2024-06-28 15:16:15
openmpi4-testsuite-4.1.6-4.1.noarch.rpm51.6 KiB2024-06-28 15:03:51
openmpi4-gnu-hpc-macros-devel-4.1.6-4.1.noarch.rpm22.4 KiB2024-06-28 15:03:45
openmpi4-gnu-hpc-docs-4.1.6-4.1.noarch.rpm22.3 KiB2024-06-28 15:03:45
openmpi4-gnu-hpc-devel-4.1.6-4.1.noarch.rpm22.3 KiB2024-06-28 15:03:44
lxqt-panel-lang-2.0.1-2.1.noarch.rpm468.8 KiB2024-06-28 14:55:49
lxqt-panel-devel-2.0.1-2.1.noarch.rpm15.0 KiB2024-06-28 14:55:49
qterminal-lang-2.0.1-1.1.noarch.rpm135.9 KiB2024-06-28 14:49:51
qtermwidget-data-2.0.1-1.1.noarch.rpm45.9 KiB2024-06-28 14:41:58
ghc-haddock-library-doc-1.11.0-4.1.noarch.rpm111.3 KiB2024-06-28 14:41:54
cepces-selinux-0.3.9-2.1.noarch.rpm19.4 KiB2024-06-28 14:41:48
cepces-certmonger-0.3.9-2.1.noarch.rpm11.2 KiB2024-06-28 14:41:48
python3-cepces-0.3.9-2.1.noarch.rpm105.9 KiB2024-06-28 14:41:48
cepces-0.3.9-2.1.noarch.rpm13.1 KiB2024-06-28 14:41:48
python312-dunamai-1.21.2-1.1.noarch.rpm69.1 KiB2024-06-28 14:41:45
python311-dunamai-1.21.2-1.1.noarch.rpm71.0 KiB2024-06-28 14:41:44
python310-dunamai-1.21.2-1.1.noarch.rpm55.9 KiB2024-06-28 14:41:44
python312-proto-plus-1.24.0-1.1.noarch.rpm88.5 KiB2024-06-28 14:41:34
python311-proto-plus-1.24.0-1.1.noarch.rpm90.6 KiB2024-06-28 14:41:33
python310-proto-plus-1.24.0-1.1.noarch.rpm76.4 KiB2024-06-28 14:41:33
python310-iniparse-0.5-8.1.noarch.rpm43.5 KiB2024-06-28 14:41:31
python312-iniparse-0.5-8.1.noarch.rpm50.6 KiB2024-06-28 14:41:31
python311-iniparse-0.5-8.1.noarch.rpm52.1 KiB2024-06-28 14:41:31
containerd-devel-1.7.17-2.1.noarch.rpm5.3 MiB2024-06-28 14:22:55
openssl-1_1-doc-1.1.1w-10.1.noarch.rpm2.1 MiB2024-06-28 14:22:50
firewalld-2.1.2-3.1.noarch.rpm217.5 KiB2024-06-28 14:20:42
python3-firewall-2.1.2-3.1.noarch.rpm497.9 KiB2024-06-28 14:20:42
firewall-applet-2.1.2-3.1.noarch.rpm69.3 KiB2024-06-28 14:20:42
firewalld-test-2.1.2-3.1.noarch.rpm253.4 KiB2024-06-28 14:20:42
firewalld-zsh-completion-2.1.2-3.1.noarch.rpm22.8 KiB2024-06-28 14:20:42
firewall-config-2.1.2-3.1.noarch.rpm93.9 KiB2024-06-28 14:20:42
firewalld-bash-completion-2.1.2-3.1.noarch.rpm21.0 KiB2024-06-28 14:20:42
firewalld-lang-2.1.2-3.1.noarch.rpm286.8 KiB2024-06-28 14:20:42
firewall-macros-2.1.2-3.1.noarch.rpm18.6 KiB2024-06-28 14:20:42
freecell-solver-presets-6.10.0-1.1.noarch.rpm18.9 KiB2024-06-28 14:20:18
python312-azure-mgmt-storage-21.2.1-1.1.noarch.rpm1.1 MiB2024-06-28 14:17:10
python311-azure-mgmt-storage-21.2.1-1.1.noarch.rpm1.2 MiB2024-06-28 14:17:10
python310-azure-mgmt-storage-21.2.1-1.1.noarch.rpm1.1 MiB2024-06-28 14:17:10
python312-azure-mgmt-appcomplianceautomation-1.0.0-1.1.noarch.rpm155.5 KiB2024-06-28 14:16:54
python311-azure-mgmt-appcomplianceautomation-1.0.0-1.1.noarch.rpm159.1 KiB2024-06-28 14:16:54
python310-azure-mgmt-appcomplianceautomation-1.0.0-1.1.noarch.rpm128.7 KiB2024-06-28 14:16:54
util-linux-lang-2.40.1-4.1.noarch.rpm1.6 MiB2024-06-28 13:53:21
ghc-hslua-module-doclayout-doc-1.1.1.2-1.3.noarch.rpm55.3 KiB2024-06-27 15:52:32
ghc-doctemplates-doc-0.11-1.34.noarch.rpm97.2 KiB2024-06-27 15:35:48
ghc-djot-doc-0.1.2-1.3.noarch.rpm170.0 KiB2024-06-27 15:33:15
plasma6-branding-openSUSE-84.87~git20240313T170730~9c664b7-7.1.noarch.rpm13.6 KiB2024-06-27 15:32:25
plasma6-theme-openSUSE-84.87~git20240313T170730~9c664b7-7.1.noarch.rpm877.0 KiB2024-06-27 15:32:25
plasma6-sddm-theme-openSUSE-84.87~git20240313T170730~9c664b7-7.1.noarch.rpm280.0 KiB2024-06-27 15:32:25
ghc-gridtables-doc-0.1.0.0-2.8.noarch.rpm71.6 KiB2024-06-27 15:32:04
plasma6-desktop-lang-6.1.1-1.1.noarch.rpm4.4 MiB2024-06-27 15:30:21
plasma6-mobile-lang-6.1.1-1.1.noarch.rpm569.0 KiB2024-06-27 15:28:38
powerdevil6-lang-6.1.1-1.1.noarch.rpm453.3 KiB2024-06-27 15:26:29
plasma6-browser-integration-lang-6.1.1-1.1.noarch.rpm55.9 KiB2024-06-27 15:25:18
plasma6-workspace-lang-6.1.1-1.1.noarch.rpm4.7 MiB2024-06-27 15:23:08
plasma6-session-6.1.1-1.1.noarch.rpm43.1 KiB2024-06-27 15:23:04
plasma6-nm-lang-6.1.1-1.1.noarch.rpm885.4 KiB2024-06-27 15:10:53
ksystemstats6-lang-6.1.1-1.1.noarch.rpm85.5 KiB2024-06-27 15:07:43
plasma6-vault-backend-encfs-6.1.1-1.1.noarch.rpm32.6 KiB2024-06-27 15:07:42
plasma6-vault-backend-gocryptfs-6.1.1-1.1.noarch.rpm32.7 KiB2024-06-27 15:07:42
plasma6-vault-backend-cryfs-6.1.1-1.1.noarch.rpm32.6 KiB2024-06-27 15:07:42
plasma6-vault-lang-6.1.1-1.1.noarch.rpm136.7 KiB2024-06-27 15:07:42
NetworkManager-openvpn-lang-1.12.0-1.1.noarch.rpm220.4 KiB2024-06-27 15:07:06
ghc-doclayout-doc-0.4.0.1-1.12.noarch.rpm80.9 KiB2024-06-27 15:06:07
ghc-commonmark-pandoc-doc-0.2.2.1-1.16.noarch.rpm52.4 KiB2024-06-27 15:06:06
NetworkManager-branding-openSUSE-42.1-7.6.noarch.rpm15.6 KiB2024-06-27 15:05:48
cppreference-doc-qhelp-20240610-1.1.noarch.rpm30.2 MiB2024-06-27 15:03:09
cppreference-doc-devhelp-20240610-1.1.noarch.rpm81.1 KiB2024-06-27 15:03:08
cppreference-doc-20240610-1.1.noarch.rpm6.3 MiB2024-06-27 15:03:08
openmpi_5_0_3-gnu-hpc-testsuite-5.0.3-1.1.noarch.rpm12.8 KiB2024-06-27 14:55:30
openmpi5-testsuite-5.0.3-1.1.noarch.rpm12.7 KiB2024-06-27 14:53:22
kdeplasma6-addons-lang-6.1.1-1.1.noarch.rpm685.1 KiB2024-06-27 14:51:53
wesnoth-fslayout-1.18.1-1.1.noarch.rpm31.2 KiB2024-06-27 14:51:48
wesnoth-data-1.18.1-1.1.noarch.rpm384.7 MiB2024-06-27 14:51:45
wacomtablet-kcm6-lang-6.1.1-1.1.noarch.rpm345.6 KiB2024-06-27 14:50:52
plasma6-sdk-lang-6.1.1-1.1.noarch.rpm306.6 KiB2024-06-27 14:50:23
plasma6-integration-plugin-lang-6.1.1-1.1.noarch.rpm40.0 KiB2024-06-27 14:50:14
gtk4-metatheme-breeze6-6.1.1-1.1.noarch.rpm26.4 KiB2024-06-27 14:49:34
gtk3-metatheme-breeze6-6.1.1-1.1.noarch.rpm28.4 KiB2024-06-27 14:49:34
gtk2-metatheme-breeze6-6.1.1-1.1.noarch.rpm18.4 KiB2024-06-27 14:49:34
oxygen6-style-lang-6.1.1-1.1.noarch.rpm244.4 KiB2024-06-27 14:49:00
oxygen6-cursors-6.1.1-1.1.noarch.rpm1.0 MiB2024-06-27 14:48:59
breeze6-wallpapers-6.1.1-1.1.noarch.rpm49.0 MiB2024-06-27 14:47:54
breeze6-cursors-6.1.1-1.1.noarch.rpm1.3 MiB2024-06-27 14:47:52
breeze6-style-lang-6.1.1-1.1.noarch.rpm96.4 KiB2024-06-27 14:47:52
openshot-qt-3.2.0-1.1.noarch.rpm77.0 MiB2024-06-27 14:47:23
plasma6-print-manager-lang-6.1.1-1.1.noarch.rpm250.0 KiB2024-06-27 14:47:10
plasma6-systemmonitor-lang-6.1.1-1.1.noarch.rpm131.9 KiB2024-06-27 14:47:10
bluedevil6-lang-6.1.1-1.1.noarch.rpm236.4 KiB2024-06-27 14:47:07
kscreenlocker6-lang-6.1.1-1.1.noarch.rpm85.2 KiB2024-06-27 14:46:56
plasma6-welcome-lang-6.1.1-1.1.noarch.rpm186.5 KiB2024-06-27 14:46:55
plasma6-pa-lang-6.1.1-1.1.noarch.rpm136.2 KiB2024-06-27 14:46:51
kscreen6-lang-6.1.1-1.1.noarch.rpm128.6 KiB2024-06-27 14:46:46
libPlasma5Support6-lang-6.1.1-1.1.noarch.rpm66.3 KiB2024-06-27 14:46:43
milou6-lang-6.1.1-1.1.noarch.rpm35.1 KiB2024-06-27 14:46:34
plasma6-nano-lang-6.1.1-1.1.noarch.rpm41.3 KiB2024-06-27 14:46:10
hyprland-wallpapers-0.41.2-1.1.noarch.rpm44.7 MiB2024-06-27 14:45:24
hyprland-zsh-completion-0.41.2-1.1.noarch.rpm163.9 KiB2024-06-27 14:45:24
hyprland-fish-completion-0.41.2-1.1.noarch.rpm163.7 KiB2024-06-27 14:45:23
hyprland-devel-0.41.2-1.1.noarch.rpm356.4 KiB2024-06-27 14:45:23
hyprland-bash-completion-0.41.2-1.1.noarch.rpm162.2 KiB2024-06-27 14:45:22
kinfocenter6-lang-6.1.1-1.1.noarch.rpm633.7 KiB2024-06-27 14:44:10
krdp6-lang-6.1.1-1.1.noarch.rpm36.1 KiB2024-06-27 14:43:56
openmpi5-gnu-hpc-devel-5.0.3-1.1.noarch.rpm12.1 KiB2024-06-27 14:43:56
openmpi5-gnu-hpc-docs-5.0.3-1.1.noarch.rpm12.1 KiB2024-06-27 14:43:56
openmpi5-gnu-hpc-macros-devel-5.0.3-1.1.noarch.rpm12.2 KiB2024-06-27 14:43:56
qtractor-doc-pdf-1.0.0-1.1.noarch.rpm7.0 MiB2024-06-27 14:43:36
libPlasma6-lang-6.1.1-1.1.noarch.rpm74.3 KiB2024-06-27 14:43:20
discover6-lang-6.1.1-1.1.noarch.rpm485.8 KiB2024-06-27 14:43:10
xdg-desktop-portal-kde6-lang-6.1.1-1.1.noarch.rpm86.0 KiB2024-06-27 14:42:44
drkonqi6-lang-6.1.1-1.1.noarch.rpm287.9 KiB2024-06-27 14:42:40
libksysguard6-lang-6.1.1-1.1.noarch.rpm227.5 KiB2024-06-27 14:42:28
kactivitymanagerd6-lang-6.1.1-1.1.noarch.rpm31.6 KiB2024-06-27 14:42:07
kde-cli-tools6-lang-6.1.1-1.1.noarch.rpm748.4 KiB2024-06-27 14:42:06
libKF6Screen8-lang-6.1.1-1.1.noarch.rpm22.6 KiB2024-06-27 14:42:05
libKPipeWire6-lang-6.1.1-1.1.noarch.rpm24.9 KiB2024-06-27 14:41:50
systemsettings6-lang-6.1.1-1.1.noarch.rpm199.4 KiB2024-06-27 14:41:48
plasma6-disks-lang-6.1.1-1.1.noarch.rpm50.6 KiB2024-06-27 14:41:45
plasma6-firewall-lang-6.1.1-1.1.noarch.rpm86.1 KiB2024-06-27 14:41:44
kmenuedit6-lang-6.1.1-1.1.noarch.rpm862.6 KiB2024-06-27 14:41:42
plasma6-thunderbolt-lang-6.1.1-1.1.noarch.rpm55.8 KiB2024-06-27 14:41:41
sddm-kcm6-lang-6.1.1-1.1.noarch.rpm62.0 KiB2024-06-27 14:41:40
flatpak-kcm6-lang-6.1.1-1.1.noarch.rpm52.4 KiB2024-06-27 14:41:36
qutebrowser-3.2.1-1.1.noarch.rpm2.5 MiB2024-06-27 14:41:27
ksshaskpass6-lang-6.1.1-1.1.noarch.rpm32.6 KiB2024-06-27 14:41:21
kgamma6-lang-6.1.1-1.1.noarch.rpm131.1 KiB2024-06-27 14:41:20
mingw32-binutils-devel-2.42-1.1.noarch.rpm2.6 MiB2024-06-27 14:40:34
mingw32-binutils-debug-2.42-1.1.noarch.rpm23.2 MiB2024-06-27 14:40:34
mingw32-binutils-2.42-1.1.noarch.rpm2.9 MiB2024-06-27 14:40:33
mingw64-binutils-debug-2.42-1.1.noarch.rpm30.3 MiB2024-06-27 14:40:30
mingw64-binutils-devel-2.42-1.1.noarch.rpm3.0 MiB2024-06-27 14:40:30
mingw64-binutils-2.42-1.1.noarch.rpm3.1 MiB2024-06-27 14:40:29
kirigami-addons6-lang-1.3.0-1.1.noarch.rpm82.7 KiB2024-06-27 14:38:20
polkit-kde-agent-6-lang-6.1.1-1.1.noarch.rpm45.2 KiB2024-06-27 14:37:41
plasma6-workspace-wallpapers-6.1.1-1.1.noarch.rpm95.7 MiB2024-06-27 14:37:36
libkdecorations2-6-lang-6.1.1-1.1.noarch.rpm31.2 KiB2024-06-27 14:37:30
pam_kwallet6-common-6.1.1-1.1.noarch.rpm25.0 KiB2024-06-27 14:37:23
ocean-sound-theme6-6.1.1-1.1.noarch.rpm1.1 MiB2024-06-27 14:37:21
kubernetes1.29-client-fish-completion-1.29.6-1.1.noarch.rpm17.1 KiB2024-06-27 14:35:56
kubernetes1.29-client-bash-completion-1.29.6-1.1.noarch.rpm17.9 KiB2024-06-27 14:35:56
zabbix-ui-6.0.31-1.1.noarch.rpm8.3 MiB2024-06-27 14:35:50
zabbix-java-gateway-6.0.31-1.1.noarch.rpm740.8 KiB2024-06-27 14:35:49
system-user-zabbix-6.0.31-1.1.noarch.rpm72.6 KiB2024-06-27 14:35:48
kubernetes1.28-client-fish-completion-1.28.11-1.1.noarch.rpm22.8 KiB2024-06-27 14:35:43
kubernetes1.28-client-bash-completion-1.28.11-1.1.noarch.rpm23.6 KiB2024-06-27 14:35:43
NetworkManager-branding-upstream-1.48.2-1.1.noarch.rpm45.9 KiB2024-06-27 14:35:30
NetworkManager-lang-1.48.2-1.1.noarch.rpm1.3 MiB2024-06-27 14:35:30
kubernetes1.27-client-fish-completion-1.27.15-1.1.noarch.rpm30.8 KiB2024-06-27 14:35:26
kubernetes1.27-client-bash-completion-1.27.15-1.1.noarch.rpm31.9 KiB2024-06-27 14:35:26
kubernetes1.30-client-fish-completion-1.30.2-1.1.noarch.rpm12.4 KiB2024-06-27 14:34:51
kubernetes1.30-client-bash-completion-1.30.2-1.1.noarch.rpm13.2 KiB2024-06-27 14:34:50
lxd-bash-completion-5.21.1-1.1.noarch.rpm26.6 KiB2024-06-27 14:33:28
hugo-bash-completion-0.128.0-1.1.noarch.rpm113.4 KiB2024-06-27 14:32:12
hugo-zsh-completion-0.128.0-1.1.noarch.rpm112.3 KiB2024-06-27 14:32:12
nagios-theme-exfoliation-4.5.3-1.1.noarch.rpm552.8 KiB2024-06-27 14:31:49
nagios-www-dch-4.5.3-1.1.noarch.rpm16.6 KiB2024-06-27 14:31:49
nagios-contrib-4.5.3-1.1.noarch.rpm20.3 KiB2024-06-27 14:31:48
ghc-commonmark-extensions-doc-0.2.5.5-1.1.noarch.rpm116.6 KiB2024-06-27 14:31:45
android-udev-rules-20240625-1.1.noarch.rpm34.6 KiB2024-06-27 14:30:53
nextcloud-apache-29.0.3-1.1.noarch.rpm291.4 KiB2024-06-27 14:30:39
nextcloud-29.0.3-1.1.noarch.rpm171.2 MiB2024-06-27 14:30:36
pmix-headers-3.2.5-2.1.noarch.rpm198.2 KiB2024-06-27 14:30:15
pmix-mca-params-3.2.5-2.1.noarch.rpm11.4 KiB2024-06-27 14:30:15
btrfsprogs-udev-rules-6.9-2.1.noarch.rpm37.7 KiB2024-06-27 14:30:02
ghc-emojis-doc-0.1.4.1-1.1.noarch.rpm47.7 KiB2024-06-27 14:28:40
ghc-unicode-collation-doc-0.1.3.6-2.1.noarch.rpm96.5 KiB2024-06-27 14:28:36
python312-pyspnego-0.11.0-1.1.noarch.rpm274.1 KiB2024-06-27 14:28:32
python311-pyspnego-0.11.0-1.1.noarch.rpm279.5 KiB2024-06-27 14:28:32
python310-pyspnego-0.11.0-1.1.noarch.rpm218.0 KiB2024-06-27 14:28:32
passt-selinux-20240624.1ee2eca-1.1.noarch.rpm85.7 KiB2024-06-27 14:28:26
you-get-bash-completion-0.4.1710-2.1.noarch.rpm8.5 KiB2024-06-27 14:28:24
you-get-zsh-completion-0.4.1710-2.1.noarch.rpm8.6 KiB2024-06-27 14:28:24
you-get-fish-completion-0.4.1710-2.1.noarch.rpm8.5 KiB2024-06-27 14:28:24
you-get-0.4.1710-2.1.noarch.rpm397.2 KiB2024-06-27 14:28:23
libmaa-doc-1.5.1-1.1.noarch.rpm69.0 KiB2024-06-27 14:28:22
helmfile-bash-completion-0.166.0-1.1.noarch.rpm95.6 KiB2024-06-27 14:28:19
helmfile-zsh-completion-0.166.0-1.1.noarch.rpm94.5 KiB2024-06-27 14:28:19
helmfile-fish-completion-0.166.0-1.1.noarch.rpm94.9 KiB2024-06-27 14:28:19
obs-service-go_modules-0.6.4-2.1.noarch.rpm32.2 KiB2024-06-27 14:28:05
Radicale-3.2.2-1.1.noarch.rpm288.3 KiB2024-06-27 14:28:04
libxml2-doc-2.12.8-2.1.noarch.rpm297.5 KiB2024-06-27 14:26:20
MirrorCache-1.077-1.1.noarch.rpm1.1 MiB2024-06-27 14:26:01
ufw-lang-0.36.2-1.1.noarch.rpm82.5 KiB2024-06-27 14:26:00
ufw-0.36.2-1.1.noarch.rpm165.6 KiB2024-06-27 14:26:00
python310-azure-mgmt-scvmm-1.0.0.0-1.1.noarch.rpm135.0 KiB2024-06-27 14:25:57
python311-azure-mgmt-scvmm-1.0.0.0-1.1.noarch.rpm166.9 KiB2024-06-27 14:25:57
python312-azure-mgmt-scvmm-1.0.0.0-1.1.noarch.rpm162.8 KiB2024-06-27 14:25:57
python310-jupyterlab-server-openapi-2.27.1-2.1.noarch.rpm16.8 KiB2024-06-27 14:25:50
python311-jupyterlab-server-openapi-2.27.1-2.1.noarch.rpm17.0 KiB2024-06-27 14:25:50
python312-jupyterlab-server-2.27.1-2.1.noarch.rpm128.5 KiB2024-06-27 14:25:50
python312-jupyterlab-server-test-2.27.1-2.1.noarch.rpm17.1 KiB2024-06-27 14:25:50
python310-jupyterlab-server-test-2.27.1-2.1.noarch.rpm17.2 KiB2024-06-27 14:25:50
python311-jupyterlab-server-2.27.1-2.1.noarch.rpm132.7 KiB2024-06-27 14:25:50
python311-jupyterlab-server-test-2.27.1-2.1.noarch.rpm17.3 KiB2024-06-27 14:25:50
python310-jupyterlab-server-2.27.1-2.1.noarch.rpm106.7 KiB2024-06-27 14:25:49
libcontainers-openSUSE-policy-20240618-2.1.noarch.rpm342.7 KiB2024-06-27 14:25:47
registries-conf-suse-20240618-2.1.noarch.rpm344.0 KiB2024-06-27 14:25:47
python312-nbclient-0.10.0-2.1.noarch.rpm68.0 KiB2024-06-27 14:25:47
registries-conf-default-20240618-2.1.noarch.rpm344.1 KiB2024-06-27 14:25:47
python311-nbclient-0.10.0-2.1.noarch.rpm67.8 KiB2024-06-27 14:25:47
libcontainers-common-20240618-2.1.noarch.rpm450.8 KiB2024-06-27 14:25:47
libcontainers-default-policy-20240618-2.1.noarch.rpm342.5 KiB2024-06-27 14:25:47
libcontainers-sles-mounts-20240618-2.1.noarch.rpm342.4 KiB2024-06-27 14:25:47
python310-nbclient-0.10.0-2.1.noarch.rpm56.8 KiB2024-06-27 14:25:47
systemd-doc-255.7-3.1.noarch.rpm1.8 MiB2024-06-26 06:46:51
systemd-lang-255.7-3.1.noarch.rpm263.1 KiB2024-06-26 06:46:51
libreoffice-l10n-xh-24.2.4.2-3.1.noarch.rpm257.9 KiB2024-06-25 23:53:46
libreoffice-l10n-zu-24.2.4.2-3.1.noarch.rpm276.1 KiB2024-06-25 23:53:46
libreoffice-l10n-vi-24.2.4.2-3.1.noarch.rpm2.7 MiB2024-06-25 23:53:46
libreoffice-l10n-zh_CN-24.2.4.2-3.1.noarch.rpm2.9 MiB2024-06-25 23:53:46
libreoffice-l10n-zh_TW-24.2.4.2-3.1.noarch.rpm2.9 MiB2024-06-25 23:53:46
libreoffice-l10n-th-24.2.4.2-3.1.noarch.rpm876.0 KiB2024-06-25 23:53:45
libreoffice-l10n-ts-24.2.4.2-3.1.noarch.rpm250.9 KiB2024-06-25 23:53:45
libreoffice-l10n-tt-24.2.4.2-3.1.noarch.rpm176.2 KiB2024-06-25 23:53:45
libreoffice-l10n-tg-24.2.4.2-3.1.noarch.rpm2.3 MiB2024-06-25 23:53:45
libreoffice-l10n-ug-24.2.4.2-3.1.noarch.rpm2.4 MiB2024-06-25 23:53:45
libreoffice-l10n-uk-24.2.4.2-3.1.noarch.rpm3.0 MiB2024-06-25 23:53:45
libreoffice-l10n-ve-24.2.4.2-3.1.noarch.rpm252.7 KiB2024-06-25 23:53:45
libreoffice-l10n-te-24.2.4.2-3.1.noarch.rpm417.7 KiB2024-06-25 23:53:45
libreoffice-l10n-tr-24.2.4.2-3.1.noarch.rpm3.0 MiB2024-06-25 23:53:45
libreoffice-l10n-uz-24.2.4.2-3.1.noarch.rpm273.5 KiB2024-06-25 23:53:45
libreoffice-l10n-tn-24.2.4.2-3.1.noarch.rpm240.0 KiB2024-06-25 23:53:45
libreoffice-l10n-vec-24.2.4.2-3.1.noarch.rpm592.6 KiB2024-06-25 23:53:45
libreoffice-l10n-szl-24.2.4.2-3.1.noarch.rpm581.1 KiB2024-06-25 23:53:44
libreoffice-l10n-ss-24.2.4.2-3.1.noarch.rpm255.9 KiB2024-06-25 23:53:44
libreoffice-l10n-sl-24.2.4.2-3.1.noarch.rpm3.0 MiB2024-06-25 23:53:44
libreoffice-l10n-sw_TZ-24.2.4.2-3.1.noarch.rpm281.9 KiB2024-06-25 23:53:44
libreoffice-l10n-sk-24.2.4.2-3.1.noarch.rpm3.0 MiB2024-06-25 23:53:44
libreoffice-l10n-st-24.2.4.2-3.1.noarch.rpm251.6 KiB2024-06-25 23:53:44
libreoffice-l10n-ta-24.2.4.2-3.1.noarch.rpm2.6 MiB2024-06-25 23:53:44
libreoffice-l10n-sv-24.2.4.2-3.1.noarch.rpm2.9 MiB2024-06-25 23:53:44
libreoffice-l10n-sr-24.2.4.2-3.1.noarch.rpm697.7 KiB2024-06-25 23:53:44
libreoffice-l10n-sq-24.2.4.2-3.1.noarch.rpm2.4 MiB2024-06-25 23:53:44
libreoffice-l10n-sid-24.2.4.2-3.1.noarch.rpm2.5 MiB2024-06-25 23:53:44
libreoffice-l10n-rw-24.2.4.2-3.1.noarch.rpm302.8 KiB2024-06-25 23:53:43
libreoffice-l10n-sd-24.2.4.2-3.1.noarch.rpm353.8 KiB2024-06-25 23:53:43
libreoffice-l10n-pl-24.2.4.2-3.1.noarch.rpm2.9 MiB2024-06-25 23:53:43
libreoffice-l10n-ro-24.2.4.2-3.1.noarch.rpm2.6 MiB2024-06-25 23:53:43
libreoffice-l10n-sa_IN-24.2.4.2-3.1.noarch.rpm360.0 KiB2024-06-25 23:53:43
libreoffice-l10n-pt_BR-24.2.4.2-3.1.noarch.rpm2.9 MiB2024-06-25 23:53:43
libreoffice-l10n-pt_PT-24.2.4.2-3.1.noarch.rpm2.9 MiB2024-06-25 23:53:43
libreoffice-l10n-si-24.2.4.2-3.1.noarch.rpm2.4 MiB2024-06-25 23:53:43
libreoffice-l10n-pa-24.2.4.2-3.1.noarch.rpm473.4 KiB2024-06-25 23:53:43
libreoffice-l10n-ru-24.2.4.2-3.1.noarch.rpm3.0 MiB2024-06-25 23:53:43
libreoffice-l10n-sat-24.2.4.2-3.1.noarch.rpm405.7 KiB2024-06-25 23:53:43
libreoffice-l10n-om-24.2.4.2-3.1.noarch.rpm2.5 MiB2024-06-25 23:53:42
libreoffice-l10n-nr-24.2.4.2-3.1.noarch.rpm254.7 KiB2024-06-25 23:53:42
libreoffice-l10n-ne-24.2.4.2-3.1.noarch.rpm2.5 MiB2024-06-25 23:53:42
libreoffice-l10n-or-24.2.4.2-3.1.noarch.rpm457.9 KiB2024-06-25 23:53:42
libreoffice-l10n-mr-24.2.4.2-3.1.noarch.rpm444.7 KiB2024-06-25 23:53:42
libreoffice-l10n-nb-24.2.4.2-3.1.noarch.rpm2.9 MiB2024-06-25 23:53:42
libreoffice-l10n-my-24.2.4.2-3.1.noarch.rpm365.9 KiB2024-06-25 23:53:42
libreoffice-l10n-nn-24.2.4.2-3.1.noarch.rpm2.9 MiB2024-06-25 23:53:42
libreoffice-l10n-nso-24.2.4.2-3.1.noarch.rpm281.1 KiB2024-06-25 23:53:42
libreoffice-l10n-nl-24.2.4.2-3.1.noarch.rpm3.0 MiB2024-06-25 23:53:42
libreoffice-l10n-mni-24.2.4.2-3.1.noarch.rpm328.6 KiB2024-06-25 23:53:42
libreoffice-l10n-oc-24.2.4.2-3.1.noarch.rpm591.2 KiB2024-06-25 23:53:42
libreoffice-l10n-lv-24.2.4.2-3.1.noarch.rpm2.6 MiB2024-06-25 23:53:41
libreoffice-l10n-kok-24.2.4.2-3.1.noarch.rpm333.4 KiB2024-06-25 23:53:41
libreoffice-l10n-lb-24.2.4.2-3.1.noarch.rpm153.8 KiB2024-06-25 23:53:41
libreoffice-l10n-mn-24.2.4.2-3.1.noarch.rpm685.1 KiB2024-06-25 23:53:41
libreoffice-l10n-mai-24.2.4.2-3.1.noarch.rpm283.1 KiB2024-06-25 23:53:41
libreoffice-l10n-ml-24.2.4.2-3.1.noarch.rpm415.4 KiB2024-06-25 23:53:41
libreoffice-l10n-ks-24.2.4.2-3.1.noarch.rpm287.7 KiB2024-06-25 23:53:41
libreoffice-l10n-lo-24.2.4.2-3.1.noarch.rpm2.3 MiB2024-06-25 23:53:41
libreoffice-l10n-mk-24.2.4.2-3.1.noarch.rpm2.4 MiB2024-06-25 23:53:41
libreoffice-l10n-lt-24.2.4.2-3.1.noarch.rpm2.8 MiB2024-06-25 23:53:41
libreoffice-l10n-ko-24.2.4.2-3.1.noarch.rpm2.7 MiB2024-06-25 23:53:41
libreoffice-l10n-ja-24.2.4.2-3.1.noarch.rpm2.9 MiB2024-06-25 23:53:40
libreoffice-l10n-ka-24.2.4.2-3.1.noarch.rpm2.9 MiB2024-06-25 23:53:40
libreoffice-l10n-km-24.2.4.2-3.1.noarch.rpm2.7 MiB2024-06-25 23:53:40
libreoffice-l10n-kn-24.2.4.2-3.1.noarch.rpm446.3 KiB2024-06-25 23:53:40
libreoffice-l10n-hy-24.2.4.2-3.1.noarch.rpm885.7 KiB2024-06-25 23:53:40
libreoffice-l10n-kmr_Latn-24.2.4.2-3.1.noarch.rpm289.2 KiB2024-06-25 23:53:40
libreoffice-l10n-id-24.2.4.2-3.1.noarch.rpm2.9 MiB2024-06-25 23:53:40
libreoffice-l10n-is-24.2.4.2-3.1.noarch.rpm2.7 MiB2024-06-25 23:53:40
libreoffice-l10n-it-24.2.4.2-3.1.noarch.rpm2.9 MiB2024-06-25 23:53:40
libreoffice-l10n-kab-24.2.4.2-3.1.noarch.rpm509.7 KiB2024-06-25 23:53:40
libreoffice-l10n-kk-24.2.4.2-3.1.noarch.rpm816.6 KiB2024-06-25 23:53:40
libreoffice-l10n-he-24.2.4.2-3.1.noarch.rpm2.5 MiB2024-06-25 23:53:39
libreoffice-l10n-hr-24.2.4.2-3.1.noarch.rpm2.6 MiB2024-06-25 23:53:39
libreoffice-l10n-hi-24.2.4.2-3.1.noarch.rpm2.4 MiB2024-06-25 23:53:39
libreoffice-l10n-hsb-24.2.4.2-3.1.noarch.rpm2.9 MiB2024-06-25 23:53:39
libreoffice-l10n-gu-24.2.4.2-3.1.noarch.rpm2.5 MiB2024-06-25 23:53:39
libreoffice-l10n-ga-24.2.4.2-3.1.noarch.rpm574.2 KiB2024-06-25 23:53:39
libreoffice-l10n-hu-24.2.4.2-3.1.noarch.rpm3.0 MiB2024-06-25 23:53:39
libreoffice-l10n-gl-24.2.4.2-3.1.noarch.rpm2.9 MiB2024-06-25 23:53:39
libreoffice-l10n-gd-24.2.4.2-3.1.noarch.rpm580.3 KiB2024-06-25 23:53:39
libreoffice-l10n-gug-24.2.4.2-3.1.noarch.rpm419.0 KiB2024-06-25 23:53:39
libreoffice-l10n-fy-24.2.4.2-3.1.noarch.rpm724.5 KiB2024-06-25 23:53:38
libreoffice-l10n-eu-24.2.4.2-3.1.noarch.rpm2.8 MiB2024-06-25 23:53:38
libreoffice-l10n-fr-24.2.4.2-3.1.noarch.rpm3.0 MiB2024-06-25 23:53:38
libreoffice-l10n-fa-24.2.4.2-3.1.noarch.rpm340.7 KiB2024-06-25 23:53:38
libreoffice-l10n-en_ZA-24.2.4.2-3.1.noarch.rpm2.3 MiB2024-06-25 23:53:38
libreoffice-l10n-fi-24.2.4.2-3.1.noarch.rpm2.8 MiB2024-06-25 23:53:38
libreoffice-l10n-et-24.2.4.2-3.1.noarch.rpm2.8 MiB2024-06-25 23:53:38
libreoffice-l10n-eo-24.2.4.2-3.1.noarch.rpm2.9 MiB2024-06-25 23:53:38
libreoffice-l10n-fur-24.2.4.2-3.1.noarch.rpm190.3 KiB2024-06-25 23:53:38
libreoffice-l10n-es-24.2.4.2-3.1.noarch.rpm3.0 MiB2024-06-25 23:53:38
libreoffice-l10n-en-24.2.4.2-3.1.noarch.rpm33.4 MiB2024-06-25 23:53:37
libreoffice-l10n-dz-24.2.4.2-3.1.noarch.rpm2.5 MiB2024-06-25 23:53:37
libreoffice-l10n-en_GB-24.2.4.2-3.1.noarch.rpm2.7 MiB2024-06-25 23:53:37
libreoffice-l10n-el-24.2.4.2-3.1.noarch.rpm3.0 MiB2024-06-25 23:53:37
libreoffice-l10n-dgo-24.2.4.2-3.1.noarch.rpm351.6 KiB2024-06-25 23:53:36
libreoffice-l10n-cy-24.2.4.2-3.1.noarch.rpm855.3 KiB2024-06-25 23:53:36
libreoffice-l10n-da-24.2.4.2-3.1.noarch.rpm3.0 MiB2024-06-25 23:53:36
libreoffice-l10n-de-24.2.4.2-3.1.noarch.rpm3.0 MiB2024-06-25 23:53:36
libreoffice-l10n-ca-24.2.4.2-3.1.noarch.rpm2.9 MiB2024-06-25 23:53:36
libreoffice-l10n-ckb-24.2.4.2-3.1.noarch.rpm304.9 KiB2024-06-25 23:53:36
libreoffice-l10n-dsb-24.2.4.2-3.1.noarch.rpm2.9 MiB2024-06-25 23:53:36
libreoffice-l10n-cs-24.2.4.2-3.1.noarch.rpm3.0 MiB2024-06-25 23:53:36
libreoffice-l10n-bs-24.2.4.2-3.1.noarch.rpm2.5 MiB2024-06-25 23:53:36
libreoffice-l10n-ca_valencia-24.2.4.2-3.1.noarch.rpm2.9 MiB2024-06-25 23:53:36
libreoffice-l10n-bn-24.2.4.2-3.1.noarch.rpm2.5 MiB2024-06-25 23:53:35
libreoffice-l10n-bn_IN-24.2.4.2-3.1.noarch.rpm2.6 MiB2024-06-25 23:53:35
libreoffice-l10n-am-24.2.4.2-3.1.noarch.rpm2.8 MiB2024-06-25 23:53:35
libreoffice-l10n-ar-24.2.4.2-3.1.noarch.rpm2.6 MiB2024-06-25 23:53:35
libreoffice-l10n-br-24.2.4.2-3.1.noarch.rpm504.7 KiB2024-06-25 23:53:35
libreoffice-l10n-be-24.2.4.2-3.1.noarch.rpm519.0 KiB2024-06-25 23:53:35
libreoffice-l10n-bo-24.2.4.2-3.1.noarch.rpm2.5 MiB2024-06-25 23:53:35
libreoffice-l10n-bg-24.2.4.2-3.1.noarch.rpm3.0 MiB2024-06-25 23:53:35
libreoffice-l10n-as-24.2.4.2-3.1.noarch.rpm416.5 KiB2024-06-25 23:53:35
libreoffice-l10n-brx-24.2.4.2-3.1.noarch.rpm284.8 KiB2024-06-25 23:53:35
libreoffice-l10n-ast-24.2.4.2-3.1.noarch.rpm2.6 MiB2024-06-25 23:53:35
libreoffice-l10n-af-24.2.4.2-3.1.noarch.rpm867.1 KiB2024-06-25 23:53:34
libreoffice-icon-themes-24.2.4.2-3.1.noarch.rpm53.0 MiB2024-06-25 23:53:34
libreoffice-glade-24.2.4.2-3.1.noarch.rpm32.5 KiB2024-06-25 23:53:33
libreoffice-gdb-pretty-printers-24.2.4.2-3.1.noarch.rpm46.2 KiB2024-06-25 23:53:33
libreoffice-branding-upstream-24.2.4.2-3.1.noarch.rpm260.7 KiB2024-06-25 23:53:29
mvapich2-gnu-hpc-doc-2.3.7-8.1.noarch.rpm13.4 KiB2024-06-25 22:06:50
mvapich2-gnu-hpc-macros-devel-2.3.7-8.1.noarch.rpm13.5 KiB2024-06-25 22:06:50
openvino-sample-2024.2.0-2.1.noarch.rpm2.1 MiB2024-06-25 22:04:12
mpich-ofi-gnu-hpc-macros-devel-4.1.2-3.1.noarch.rpm15.1 KiB2024-06-25 21:50:25
mpiP-gnu-mpich-hpc-3.5-6.1.noarch.rpm11.5 KiB2024-06-25 21:49:58
mpiP-gnu-mpich-hpc-doc-3.5-6.1.noarch.rpm11.3 KiB2024-06-25 21:49:58
mpiP-gnu-mpich-hpc-devel-3.5-6.1.noarch.rpm11.3 KiB2024-06-25 21:49:58
imb-gnu-mpich-hpc-2021.7-2.1.noarch.rpm8.9 KiB2024-06-25 21:49:19
mpich-gnu-hpc-macros-devel-4.1.2-3.1.noarch.rpm15.1 KiB2024-06-25 21:47:55
kea-doc-2.6.0-1.1.noarch.rpm3.5 MiB2024-06-25 21:38:36
mvapich2-psm2-gnu-hpc-doc-2.3.7-8.1.noarch.rpm13.4 KiB2024-06-25 21:32:37
mvapich2-psm2-gnu-hpc-macros-devel-2.3.7-8.1.noarch.rpm13.5 KiB2024-06-25 21:32:37
python312-certbot-apache-2.11.0-1.1.noarch.rpm350.6 KiB2024-06-25 21:31:44
python310-certbot-apache-2.11.0-1.1.noarch.rpm288.7 KiB2024-06-25 21:31:43
python311-certbot-apache-2.11.0-1.1.noarch.rpm356.9 KiB2024-06-25 21:31:43
python312-certbot-nginx-2.11.0-1.1.noarch.rpm198.0 KiB2024-06-25 21:30:41
python310-certbot-nginx-2.11.0-1.1.noarch.rpm159.3 KiB2024-06-25 21:30:41
python311-certbot-nginx-2.11.0-1.1.noarch.rpm202.8 KiB2024-06-25 21:30:41
python310-certbot-dns-route53-2.11.0-1.1.noarch.rpm31.6 KiB2024-06-25 21:30:27
python311-certbot-dns-route53-2.11.0-1.1.noarch.rpm34.9 KiB2024-06-25 21:30:27
python312-certbot-dns-route53-2.11.0-1.1.noarch.rpm34.4 KiB2024-06-25 21:30:27
python312-certbot-dns-nsone-2.11.0-1.1.noarch.rpm26.7 KiB2024-06-25 21:30:13
python312-certbot-dns-cloudflare-2.11.0-1.1.noarch.rpm31.8 KiB2024-06-25 21:30:13
python311-certbot-dns-nsone-2.11.0-1.1.noarch.rpm26.9 KiB2024-06-25 21:30:13
python311-certbot-dns-cloudflare-2.11.0-1.1.noarch.rpm32.2 KiB2024-06-25 21:30:13
python310-certbot-dns-nsone-2.11.0-1.1.noarch.rpm25.9 KiB2024-06-25 21:30:13
python310-certbot-dns-cloudflare-2.11.0-1.1.noarch.rpm28.2 KiB2024-06-25 21:30:13
python311-certbot-dns-luadns-2.11.0-1.1.noarch.rpm26.8 KiB2024-06-25 21:30:12
python312-certbot-dns-luadns-2.11.0-1.1.noarch.rpm26.5 KiB2024-06-25 21:30:12
python310-certbot-dns-luadns-2.11.0-1.1.noarch.rpm25.9 KiB2024-06-25 21:30:12
python310-certbot-dns-linode-2.11.0-1.1.noarch.rpm27.3 KiB2024-06-25 21:30:11
python312-certbot-dns-dnsimple-2.11.0-1.1.noarch.rpm26.4 KiB2024-06-25 21:30:11
python311-certbot-dns-dnsimple-2.11.0-1.1.noarch.rpm26.7 KiB2024-06-25 21:30:11
python310-certbot-dns-dnsimple-2.11.0-1.1.noarch.rpm25.8 KiB2024-06-25 21:30:11
python311-certbot-dns-linode-2.11.0-1.1.noarch.rpm28.8 KiB2024-06-25 21:30:11
python312-certbot-dns-linode-2.11.0-1.1.noarch.rpm28.4 KiB2024-06-25 21:30:11
python310-certbot-dns-google-2.11.0-1.1.noarch.rpm44.1 KiB2024-06-25 21:30:10
python310-certbot-dns-digitalocean-2.11.0-1.1.noarch.rpm29.3 KiB2024-06-25 21:30:10
python311-certbot-dns-google-2.11.0-1.1.noarch.rpm49.5 KiB2024-06-25 21:30:10
python311-certbot-dns-digitalocean-2.11.0-1.1.noarch.rpm32.3 KiB2024-06-25 21:30:10
python312-certbot-dns-google-2.11.0-1.1.noarch.rpm48.9 KiB2024-06-25 21:30:10
python312-certbot-dns-digitalocean-2.11.0-1.1.noarch.rpm31.8 KiB2024-06-25 21:30:10
python311-certbot-dns-rfc2136-2.11.0-1.1.noarch.rpm37.6 KiB2024-06-25 21:30:09
python312-certbot-dns-rfc2136-2.11.0-1.1.noarch.rpm37.1 KiB2024-06-25 21:30:09
python310-certbot-dns-rfc2136-2.11.0-1.1.noarch.rpm33.3 KiB2024-06-25 21:30:08
python310-certbot-dns-dnsmadeeasy-2.11.0-1.1.noarch.rpm26.3 KiB2024-06-25 21:30:08
python311-certbot-dns-dnsmadeeasy-2.11.0-1.1.noarch.rpm27.3 KiB2024-06-25 21:30:08
python312-certbot-dns-dnsmadeeasy-2.11.0-1.1.noarch.rpm27.0 KiB2024-06-25 21:30:08
python312-certbot-2.11.0-1.1.noarch.rpm863.4 KiB2024-06-25 21:28:46
python311-certbot-2.11.0-1.1.noarch.rpm881.5 KiB2024-06-25 21:28:46
python310-certbot-2.11.0-1.1.noarch.rpm679.3 KiB2024-06-25 21:28:46
tellico-lang-3.5.5-1.1.noarch.rpm3.4 MiB2024-06-25 21:28:05
xen-tools-xendomains-wait-disk-4.18.2_06-1.1.noarch.rpm75.8 KiB2024-06-25 21:26:34
python312-acme-2.11.0-1.1.noarch.rpm202.0 KiB2024-06-25 21:26:18
python311-acme-2.11.0-1.1.noarch.rpm206.7 KiB2024-06-25 21:26:18
python310-acme-2.11.0-1.1.noarch.rpm165.2 KiB2024-06-25 21:26:17
mpiP-gnu-openmpi4-hpc-devel-3.5-6.1.noarch.rpm11.4 KiB2024-06-25 21:23:59
mpiP-gnu-openmpi4-hpc-3.5-6.1.noarch.rpm11.5 KiB2024-06-25 21:23:59
mpiP-gnu-openmpi4-hpc-doc-3.5-6.1.noarch.rpm11.3 KiB2024-06-25 21:23:59
neovim-lang-0.10.0-3.1.noarch.rpm660.1 KiB2024-06-25 21:23:54
mpiP-gnu-mvapich2-hpc-3.5-6.1.noarch.rpm11.5 KiB2024-06-25 21:23:17
mpiP-gnu-mvapich2-hpc-devel-3.5-6.1.noarch.rpm11.4 KiB2024-06-25 21:23:17
mpiP-gnu-mvapich2-hpc-doc-3.5-6.1.noarch.rpm11.3 KiB2024-06-25 21:23:17
imb-gnu-mvapich2-hpc-2021.7-2.1.noarch.rpm8.9 KiB2024-06-25 21:22:40
imb-gnu-openmpi4-hpc-2021.7-2.1.noarch.rpm8.9 KiB2024-06-25 21:22:33
kommit-lang-1.6.0-1.1.noarch.rpm121.5 KiB2024-06-25 21:20:12
rpmlint-test-2.5.0+git20240624.609e1aa-1.1.noarch.rpm60.9 KiB2024-06-25 21:19:12
python312-djangorestframework-simplejwt-5.3.1-1.1.noarch.rpm102.9 KiB2024-06-25 21:18:44
python311-djangorestframework-simplejwt-5.3.1-1.1.noarch.rpm104.2 KiB2024-06-25 21:18:44
python310-djangorestframework-simplejwt-5.3.1-1.1.noarch.rpm94.7 KiB2024-06-25 21:18:44
python312-django-pglocks-1.0.4-3.1.noarch.rpm16.9 KiB2024-06-25 21:18:34
python310-django-pglocks-1.0.4-3.1.noarch.rpm16.1 KiB2024-06-25 21:18:34
python311-django-pglocks-1.0.4-3.1.noarch.rpm17.2 KiB2024-06-25 21:18:34
tree-sitter-vimdoc-devel-2.5.1-1.1.noarch.rpm9.6 KiB2024-06-25 21:18:20
gnu-compilers-hpc-devel-1.4-15.1.noarch.rpm8.6 KiB2024-06-25 21:18:16
gnu-compilers-hpc-macros-devel-1.4-15.1.noarch.rpm8.9 KiB2024-06-25 21:18:16
gnu-compilers-hpc-1.4-15.1.noarch.rpm10.0 KiB2024-06-25 21:18:15
python311-augeas-1.1.0-2.1.noarch.rpm36.1 KiB2024-06-25 21:15:50
python312-augeas-1.1.0-2.1.noarch.rpm35.5 KiB2024-06-25 21:15:50
python310-augeas-1.1.0-2.1.noarch.rpm33.1 KiB2024-06-25 21:15:50
kubearmor-client-bash-completion-1.2.3-1.1.noarch.rpm13.3 KiB2024-06-25 21:14:08
kubearmor-client-zsh-completion-1.2.3-1.1.noarch.rpm12.2 KiB2024-06-25 21:14:08
kubearmor-client-fish-completion-1.2.3-1.1.noarch.rpm12.6 KiB2024-06-25 21:14:08
syft-fish-completion-1.8.0-1.1.noarch.rpm84.3 KiB2024-06-25 21:13:32
syft-zsh-completion-1.8.0-1.1.noarch.rpm83.9 KiB2024-06-25 21:13:32
syft-bash-completion-1.8.0-1.1.noarch.rpm85.0 KiB2024-06-25 21:13:31
glab-bash-completion-1.43.0-1.1.noarch.rpm32.2 KiB2024-06-25 21:13:09
glab-doc-1.43.0-1.1.noarch.rpm72.5 KiB2024-06-25 21:13:09
glab-fish-completion-1.43.0-1.1.noarch.rpm31.4 KiB2024-06-25 21:13:09
glab-zsh-completion-1.43.0-1.1.noarch.rpm31.1 KiB2024-06-25 21:13:09
chezmoi-bash-completion-2.49.1-1.1.noarch.rpm30.6 KiB2024-06-25 21:12:46
chezmoi-zsh-completion-2.49.1-1.1.noarch.rpm29.7 KiB2024-06-25 21:12:46
chezmoi-fish-completion-2.49.1-1.1.noarch.rpm30.0 KiB2024-06-25 21:12:46
Vc-devel-doc-1.4.5-1.1.noarch.rpm474.4 KiB2024-06-25 21:12:37
python312-azure-identity-1.17.1-1.1.noarch.rpm221.0 KiB2024-06-25 21:12:24
python311-azure-identity-1.17.1-1.1.noarch.rpm223.8 KiB2024-06-25 21:12:24
python310-azure-identity-1.17.1-1.1.noarch.rpm186.7 KiB2024-06-25 21:12:24
python312-azure-mgmt-powerbiembedded-3.0.0-1.1.noarch.rpm107.5 KiB2024-06-25 21:12:19
python310-azure-mgmt-powerbiembedded-3.0.0-1.1.noarch.rpm89.6 KiB2024-06-25 21:12:19
python311-azure-mgmt-powerbiembedded-3.0.0-1.1.noarch.rpm110.5 KiB2024-06-25 21:12:19
python312-hatchling-1.25.0-1.1.noarch.rpm216.5 KiB2024-06-25 21:12:18
python310-hatchling-1.25.0-1.1.noarch.rpm179.0 KiB2024-06-25 21:12:18
python311-hatchling-1.25.0-1.1.noarch.rpm220.5 KiB2024-06-25 21:12:18
rpmlint-strict-2.5.0+git20240624.609e1aa-1.1.noarch.rpm62.0 KiB2024-06-25 21:12:17
novnc-1.5.0-1.1.noarch.rpm269.0 KiB2024-06-25 21:12:12
login_defs-4.16.0-2.1.noarch.rpm38.7 KiB2024-06-25 21:07:29
python312-PyQt6-doc-6.7.0-1.3.noarch.rpm378.9 KiB2024-06-25 03:05:25
python311-PyQt6-doc-6.7.0-1.3.noarch.rpm379.0 KiB2024-06-25 03:05:24
python310-PyQt6-doc-6.7.0-1.3.noarch.rpm378.9 KiB2024-06-25 03:05:23
konqueror-lang-24.05.1-1.2.noarch.rpm5.2 MiB2024-06-25 02:09:59
kdeconnect-kde-lang-24.05.1-1.2.noarch.rpm411.5 KiB2024-06-25 02:09:46
kdeconnect-kde-zsh-completion-24.05.1-1.2.noarch.rpm24.6 KiB2024-06-25 02:09:46
kate-lang-24.05.1-1.2.noarch.rpm5.7 MiB2024-06-25 02:09:42
okular-lang-24.05.1-1.2.noarch.rpm5.0 MiB2024-06-25 02:09:29
dolphin-part-lang-24.05.1-1.2.noarch.rpm3.6 MiB2024-06-25 02:08:44
dolphin-zsh-completion-24.05.1-1.2.noarch.rpm28.8 KiB2024-06-25 02:08:44
gwenview-lang-24.05.1-1.2.noarch.rpm4.6 MiB2024-06-25 02:08:35
spectacle-doc-lang-24.05.1-1.2.noarch.rpm886.5 KiB2024-06-25 02:08:14
spectacle-lang-24.05.1-1.2.noarch.rpm256.9 KiB2024-06-25 02:08:14
angelfish-lang-24.05.1-1.2.noarch.rpm115.2 KiB2024-06-25 02:08:12
koko-lang-24.05.1-1.2.noarch.rpm67.9 KiB2024-06-25 02:07:11
krfb-lang-24.05.1-1.2.noarch.rpm1.0 MiB2024-06-25 02:07:09
yakuake-lang-24.05.1-1.2.noarch.rpm262.3 KiB2024-06-25 02:07:03
libKPim6KontactInterface6-lang-24.05.1-1.2.noarch.rpm37.2 KiB2024-06-25 02:06:44
kruler-lang-24.05.1-1.2.noarch.rpm228.8 KiB2024-06-25 02:06:41
haruna-lang-1.1.2-2.1.noarch.rpm167.9 KiB2024-06-25 01:12:07
kf6-kio-lang-6.3.0-1.2.noarch.rpm1.3 MiB2024-06-25 01:10:28
kf6-qqc2-desktop-style-lang-6.3.0-1.2.noarch.rpm21.6 KiB2024-06-25 01:07:49
libKF6XmlGui6-lang-6.3.0-1.2.noarch.rpm326.0 KiB2024-06-25 01:07:38
libKF6IconThemes6-lang-6.3.0-1.2.noarch.rpm46.8 KiB2024-06-25 00:12:36
pcmanfm-qt-lang-2.0.0-1.2.noarch.rpm305.4 KiB2024-06-25 00:12:34
kf6-kirigami-lang-6.3.0-1.2.noarch.rpm44.2 KiB2024-06-24 23:08:00
libKF6ConfigWidgets6-lang-6.3.0-1.2.noarch.rpm140.1 KiB2024-06-24 23:07:58
libKF6JobWidgets6-lang-6.3.0-1.2.noarch.rpm54.9 KiB2024-06-24 23:07:55
kf6-kuserfeedback-lang-6.3.0-1.2.noarch.rpm169.7 KiB2024-06-24 23:07:41
libfm-qt6-data-2.0.2-1.2.noarch.rpm15.0 KiB2024-06-24 23:07:01
libfm-qt6-lang-2.0.2-1.2.noarch.rpm187.7 KiB2024-06-24 23:07:01
fcitx5-qt-lang-5.1.6-1.4.noarch.rpm21.7 KiB2024-06-24 23:06:51
libKF6ConfigCore6-lang-6.3.0-1.2.noarch.rpm138.1 KiB2024-06-24 23:06:34
libKF6WindowSystem6-lang-6.3.0-1.2.noarch.rpm28.6 KiB2024-06-24 23:06:33
libKF6DBusAddons6-lang-6.3.0-1.2.noarch.rpm30.8 KiB2024-06-24 23:06:10
qt6-3d-private-devel-6.7.2-1.1.noarch.rpm11.5 KiB2024-06-24 22:37:12
qt6-3d-devel-6.7.2-1.1.noarch.rpm11.3 KiB2024-06-24 22:37:11
qt6-translations-6.7.2-1.1.noarch.rpm1.8 MiB2024-06-24 22:19:32
qt6-wayland-private-devel-6.7.2-1.1.noarch.rpm11.9 KiB2024-06-24 22:14:14
qt6-declarative-private-devel-6.7.2-1.1.noarch.rpm13.5 KiB2024-06-24 21:38:10
qt6-declarative-devel-6.7.2-1.1.noarch.rpm13.1 KiB2024-06-24 21:38:09
vagrant-emacs-2.3.7-7.1.noarch.rpm32.0 KiB2024-06-24 21:01:45
vagrant-2.3.7-7.1.noarch.rpm1.6 MiB2024-06-24 21:01:45
vagrant-bash-completion-2.3.7-7.1.noarch.rpm33.7 KiB2024-06-24 21:01:45
vagrant-vim-2.3.7-7.1.noarch.rpm32.0 KiB2024-06-24 21:01:45
vagrant-doc-2.3.7-7.1.noarch.rpm1.1 MiB2024-06-24 21:01:45
ansible-builder-3.1.0-1.1.noarch.rpm88.5 KiB2024-06-24 20:52:52
qt6-docs-common-6.7.2-1.1.noarch.rpm202.8 KiB2024-06-24 20:50:44
qt6-base-private-devel-6.7.2-1.1.noarch.rpm19.4 KiB2024-06-24 20:50:44
qt6-base-devel-6.7.2-1.1.noarch.rpm19.2 KiB2024-06-24 20:50:43
emacs-info-29.4-1.1.noarch.rpm5.1 MiB2024-06-24 20:40:08
emacs-el-29.4-1.1.noarch.rpm17.4 MiB2024-06-24 20:40:07
resources-lang-1.5.0-1.1.noarch.rpm67.3 KiB2024-06-24 20:33:14
switcheroo-lang-2.2.0-1.1.noarch.rpm21.7 KiB2024-06-24 20:33:01
kitty-terminfo-0.35.2-1.1.noarch.rpm95.7 KiB2024-06-24 20:31:51
tuba-lang-0.8.1-1.1.noarch.rpm197.6 KiB2024-06-24 20:31:08
Komikku-lang-1.49.0-1.1.noarch.rpm133.7 KiB2024-06-24 20:31:05
Komikku-1.49.0-1.1.noarch.rpm1.4 MiB2024-06-24 20:31:05
celluloid-lang-0.27-1.1.noarch.rpm154.1 KiB2024-06-24 20:30:57
python312-python-mpv-1.0.7-1.1.noarch.rpm85.8 KiB2024-06-24 20:30:50
python310-python-mpv-1.0.7-1.1.noarch.rpm72.6 KiB2024-06-24 20:30:50
python311-python-mpv-1.0.7-1.1.noarch.rpm88.3 KiB2024-06-24 20:30:50
secrets-lang-9.5-1.1.noarch.rpm196.6 KiB2024-06-24 20:30:49
secrets-9.5-1.1.noarch.rpm278.3 KiB2024-06-24 20:30:49
whatsapp-for-linux-lang-1.6.5-1.1.noarch.rpm27.0 KiB2024-06-24 20:30:46
netdata-plugin-pythond-1.46.1-1.1.noarch.rpm332.2 KiB2024-06-24 20:29:00
netdata-plugin-chartsd-1.46.1-1.1.noarch.rpm136.5 KiB2024-06-24 20:28:58
mercurial-extension-hg-evolve-11.1.2-2.1.noarch.rpm485.5 KiB2024-06-24 20:28:44
python312-django-allauth-0.63.3-1.1.noarch.rpm1.4 MiB2024-06-24 20:28:04
python310-django-allauth-0.63.3-1.1.noarch.rpm1.3 MiB2024-06-24 20:28:04
python311-django-allauth-0.63.3-1.1.noarch.rpm1.5 MiB2024-06-24 20:28:04
python310-guessit-3.8.0-3.1.noarch.rpm256.3 KiB2024-06-24 20:27:46
python311-guessit-3.8.0-3.1.noarch.rpm306.6 KiB2024-06-24 20:27:46
python312-guessit-3.8.0-3.1.noarch.rpm300.1 KiB2024-06-24 20:27:46
mercurial-extension-hg-git-1.1.1-2.1.noarch.rpm172.2 KiB2024-06-24 20:27:11
python312-pytools-2024.1.5-1.1.noarch.rpm222.3 KiB2024-06-24 20:26:45
python311-pytools-2024.1.5-1.1.noarch.rpm229.7 KiB2024-06-24 20:26:44
python310-pytools-2024.1.5-1.1.noarch.rpm173.7 KiB2024-06-24 20:26:44
python312-aeidon-1.15-1.1.noarch.rpm225.8 KiB2024-06-24 20:26:42
python310-aeidon-1.15-1.1.noarch.rpm187.4 KiB2024-06-24 20:26:42
python311-aeidon-1.15-1.1.noarch.rpm231.6 KiB2024-06-24 20:26:42
gaupol-1.15-1.1.noarch.rpm525.8 KiB2024-06-24 20:26:41
gnome-shell-search-provider-lollypop-1.4.40-1.1.noarch.rpm18.7 KiB2024-06-24 20:26:31
lollypop-1.4.40-1.1.noarch.rpm345.6 KiB2024-06-24 20:26:31
lollypop-lang-1.4.40-1.1.noarch.rpm223.1 KiB2024-06-24 20:26:31
python312-datashader-0.16.2-1.1.noarch.rpm16.9 MiB2024-06-24 20:26:25
python311-datashader-0.16.2-1.1.noarch.rpm17.0 MiB2024-06-24 20:26:25
python310-datashader-0.16.2-1.1.noarch.rpm16.8 MiB2024-06-24 20:26:24
python311-proselint-0.14.0-1.1.noarch.rpm223.6 KiB2024-06-24 20:26:14
python310-proselint-0.14.0-1.1.noarch.rpm202.6 KiB2024-06-24 20:26:14
python312-proselint-0.14.0-1.1.noarch.rpm221.0 KiB2024-06-24 20:26:14
python311-qrcode-7.4.2-4.1.noarch.rpm120.3 KiB2024-06-24 20:26:13
python312-qrcode-7.4.2-4.1.noarch.rpm117.4 KiB2024-06-24 20:26:13
python310-qrcode-7.4.2-4.1.noarch.rpm97.8 KiB2024-06-24 20:26:13
python312-google-resumable-media-2.7.1-1.1.noarch.rpm88.4 KiB2024-06-24 20:26:09
python310-google-resumable-media-2.7.1-1.1.noarch.rpm78.1 KiB2024-06-24 20:26:08
python312-awx-cli-24.6.0-1.1.noarch.rpm276.0 KiB2024-06-24 20:26:08
python311-google-resumable-media-2.7.1-1.1.noarch.rpm89.4 KiB2024-06-24 20:26:08
python311-awx-cli-24.6.0-1.1.noarch.rpm283.3 KiB2024-06-24 20:26:08
python310-proton-vpn-killswitch-network-manager-0.4.5-1.1.noarch.rpm40.4 KiB2024-06-24 20:26:08
python310-awx-cli-24.6.0-1.1.noarch.rpm223.2 KiB2024-06-24 20:26:08
python311-proton-vpn-killswitch-network-manager-0.4.5-1.1.noarch.rpm45.1 KiB2024-06-24 20:26:08
python312-proton-vpn-killswitch-network-manager-0.4.5-1.1.noarch.rpm44.8 KiB2024-06-24 20:26:08
python310-googleapis-common-protos-1.63.1-1.1.noarch.rpm180.0 KiB2024-06-24 20:26:02
python312-googleapis-common-protos-1.63.1-1.1.noarch.rpm187.2 KiB2024-06-24 20:26:02
python311-googleapis-common-protos-1.63.1-1.1.noarch.rpm187.3 KiB2024-06-24 20:26:02
b4-0.14.0-1.1.noarch.rpm289.1 KiB2024-06-24 20:26:00
ansible-lint-24.6.1-1.1.noarch.rpm472.1 KiB2024-06-24 20:25:55
man-pages-uk-4.23.1-1.1.noarch.rpm689.4 KiB2024-06-24 20:25:54
man-pages-vi-4.23.1-1.1.noarch.rpm295.9 KiB2024-06-24 20:25:54
man-pages-ro-4.23.1-1.1.noarch.rpm3.3 MiB2024-06-24 20:25:53
man-pages-pt_BR-4.23.1-1.1.noarch.rpm554.7 KiB2024-06-24 20:25:53
man-pages-sv-4.23.1-1.1.noarch.rpm374.2 KiB2024-06-24 20:25:53
man-pages-nb-4.23.1-1.1.noarch.rpm260.8 KiB2024-06-24 20:25:53
man-pages-it-4.23.1-1.1.noarch.rpm505.2 KiB2024-06-24 20:25:53
man-pages-ru-4.23.1-1.1.noarch.rpm3.1 MiB2024-06-24 20:25:53
man-pages-pl-4.23.1-1.1.noarch.rpm2.5 MiB2024-06-24 20:25:53
man-pages-sr-4.23.1-1.1.noarch.rpm312.4 KiB2024-06-24 20:25:53
man-pages-ko-4.23.1-1.1.noarch.rpm248.5 KiB2024-06-24 20:25:53
man-pages-nl-4.23.1-1.1.noarch.rpm599.4 KiB2024-06-24 20:25:53
man-pages-mk-4.23.1-1.1.noarch.rpm78.2 KiB2024-06-24 20:25:53
man-pages-hu-4.23.1-1.1.noarch.rpm266.4 KiB2024-06-24 20:25:52
man-pages-de-4.23.1-1.1.noarch.rpm4.3 MiB2024-06-24 20:25:52
man-pages-cs-4.23.1-1.1.noarch.rpm362.8 KiB2024-06-24 20:25:52
man-pages-fi-4.23.1-1.1.noarch.rpm244.4 KiB2024-06-24 20:25:52
man-pages-es-4.23.1-1.1.noarch.rpm1.5 MiB2024-06-24 20:25:52
man-pages-fr-4.23.1-1.1.noarch.rpm4.9 MiB2024-06-24 20:25:52
man-pages-da-4.23.1-1.1.noarch.rpm379.8 KiB2024-06-24 20:25:52
man-pages-id-4.23.1-1.1.noarch.rpm87.8 KiB2024-06-24 20:25:52
man-pages-el-4.23.1-1.1.noarch.rpm56.8 KiB2024-06-24 20:25:52
docker-fish-completion-26.1.4_ce-1.1.noarch.rpm35.5 KiB2024-06-24 20:16:20
docker-rootless-extras-26.1.4_ce-1.1.noarch.rpm34.8 KiB2024-06-24 20:16:20
docker-zsh-completion-26.1.4_ce-1.1.noarch.rpm45.8 KiB2024-06-24 20:16:20
docker-bash-completion-26.1.4_ce-1.1.noarch.rpm45.8 KiB2024-06-24 20:16:19
newsboat-lang-2.36-1.1.noarch.rpm136.5 KiB2024-06-24 20:15:43
mercurial-lang-6.7.4-2.1.noarch.rpm1.0 MiB2024-06-24 20:15:12
python310-pyperf-2.7.0-1.1.noarch.rpm213.2 KiB2024-06-24 20:15:03
python312-pyperf-2.7.0-1.1.noarch.rpm265.8 KiB2024-06-24 20:15:03
python311-pyperf-2.7.0-1.1.noarch.rpm275.8 KiB2024-06-24 20:15:03
yaz-doc-5.34.1-1.1.noarch.rpm132.3 KiB2024-06-24 20:14:47
python310-azure-mgmt-cosmosdb-9.5.1-1.1.noarch.rpm310.4 KiB2024-06-24 20:14:35
python311-azure-mgmt-cosmosdb-9.5.1-1.1.noarch.rpm368.2 KiB2024-06-24 20:14:35
python312-azure-mgmt-cosmosdb-9.5.1-1.1.noarch.rpm359.8 KiB2024-06-24 20:14:35
typescript-5.5.2-1.1.noarch.rpm1.9 MiB2024-06-24 20:14:34
python311-trio-0.25.1-1.1.noarch.rpm953.8 KiB2024-06-24 20:14:33
python310-trio-0.25.1-1.1.noarch.rpm738.8 KiB2024-06-24 20:14:33
python312-trio-0.25.1-1.1.noarch.rpm1016.7 KiB2024-06-24 20:14:33
python312-pyupgrade-3.16.0-1.1.noarch.rpm152.9 KiB2024-06-24 20:14:29
python311-pyupgrade-3.16.0-1.1.noarch.rpm155.2 KiB2024-06-24 20:14:29
python310-pyupgrade-3.16.0-1.1.noarch.rpm123.7 KiB2024-06-24 20:14:29
tio-bash-completion-3.4-1.1.noarch.rpm19.4 KiB2024-06-24 20:14:29
python310-ansi2html-1.9.2-1.1.noarch.rpm39.8 KiB2024-06-24 20:14:28
python311-ansi2html-1.9.2-1.1.noarch.rpm46.8 KiB2024-06-24 20:14:28
opi-5.2.1-1.1.noarch.rpm94.6 KiB2024-06-24 20:14:28
python312-ansi2html-1.9.2-1.1.noarch.rpm45.8 KiB2024-06-24 20:14:28
mesheryctl-fish-completion-0.7.76-1.1.noarch.rpm185.7 KiB2024-06-24 20:09:13
mesheryctl-zsh-completion-0.7.76-1.1.noarch.rpm185.3 KiB2024-06-24 20:09:13
mesheryctl-bash-completion-0.7.76-1.1.noarch.rpm188.7 KiB2024-06-24 20:09:13
talosctl-fish-completion-1.7.5-1.1.noarch.rpm13.1 KiB2024-06-24 20:07:44
talosctl-zsh-completion-1.7.5-1.1.noarch.rpm12.7 KiB2024-06-24 20:07:44
talosctl-bash-completion-1.7.5-1.1.noarch.rpm18.7 KiB2024-06-24 20:07:43
velero-zsh-completion-1.14.0-1.1.noarch.rpm73.4 KiB2024-06-24 20:07:13
velero-fish-completion-1.14.0-1.1.noarch.rpm73.8 KiB2024-06-24 20:07:12
velero-bash-completion-1.14.0-1.1.noarch.rpm77.4 KiB2024-06-24 20:07:12
yast2-trans-zu-84.87.20240624.0295c6c7b8-1.1.noarch.rpm392.5 KiB2024-06-24 20:06:34
yast2-trans-zh_TW-84.87.20240624.0295c6c7b8-1.1.noarch.rpm798.1 KiB2024-06-24 20:06:34
yast2-trans-tr-84.87.20240624.0295c6c7b8-1.1.noarch.rpm426.4 KiB2024-06-24 20:06:33
yast2-trans-uk-84.87.20240624.0295c6c7b8-1.1.noarch.rpm758.3 KiB2024-06-24 20:06:33
yast2-trans-sr-latin-84.87.20240624.0295c6c7b8-1.1.noarch.rpm294.1 KiB2024-06-24 20:06:33
yast2-trans-th-84.87.20240624.0295c6c7b8-1.1.noarch.rpm459.1 KiB2024-06-24 20:06:33
yast2-trans-sw-84.87.20240624.0295c6c7b8-1.1.noarch.rpm238.0 KiB2024-06-24 20:06:33
yast2-trans-wa-84.87.20240624.0295c6c7b8-1.1.noarch.rpm377.6 KiB2024-06-24 20:06:33
yast2-trans-vi-84.87.20240624.0295c6c7b8-1.1.noarch.rpm290.8 KiB2024-06-24 20:06:33
yast2-trans-ta-84.87.20240624.0295c6c7b8-1.1.noarch.rpm408.0 KiB2024-06-24 20:06:33
yast2-trans-xh-84.87.20240624.0295c6c7b8-1.1.noarch.rpm397.0 KiB2024-06-24 20:06:33
yast2-trans-sv-84.87.20240624.0295c6c7b8-1.1.noarch.rpm767.3 KiB2024-06-24 20:06:33
yast2-trans-zh_CN-84.87.20240624.0295c6c7b8-1.1.noarch.rpm796.9 KiB2024-06-24 20:06:33
yast2-trans-tg-84.87.20240624.0295c6c7b8-1.1.noarch.rpm275.6 KiB2024-06-24 20:06:33
yast2-trans-sq-84.87.20240624.0295c6c7b8-1.1.noarch.rpm315.9 KiB2024-06-24 20:06:32
yast2-trans-sr-84.87.20240624.0295c6c7b8-1.1.noarch.rpm261.4 KiB2024-06-24 20:06:32
yast2-trans-ps-84.87.20240624.0295c6c7b8-1.1.noarch.rpm238.6 KiB2024-06-24 20:06:32
yast2-trans-pa-84.87.20240624.0295c6c7b8-1.1.noarch.rpm448.9 KiB2024-06-24 20:06:32
yast2-trans-sk-84.87.20240624.0295c6c7b8-1.1.noarch.rpm794.4 KiB2024-06-24 20:06:32
yast2-trans-pl-84.87.20240624.0295c6c7b8-1.1.noarch.rpm753.0 KiB2024-06-24 20:06:32
yast2-trans-nn-84.87.20240624.0295c6c7b8-1.1.noarch.rpm295.3 KiB2024-06-24 20:06:32
yast2-trans-pt-84.87.20240624.0295c6c7b8-1.1.noarch.rpm640.1 KiB2024-06-24 20:06:32
yast2-trans-sl-84.87.20240624.0295c6c7b8-1.1.noarch.rpm549.1 KiB2024-06-24 20:06:32
yast2-trans-ru-84.87.20240624.0295c6c7b8-1.1.noarch.rpm805.8 KiB2024-06-24 20:06:32
yast2-trans-pt_BR-84.87.20240624.0295c6c7b8-1.1.noarch.rpm812.4 KiB2024-06-24 20:06:32
yast2-trans-ro-84.87.20240624.0295c6c7b8-1.1.noarch.rpm553.9 KiB2024-06-24 20:06:32
yast2-trans-si-84.87.20240624.0295c6c7b8-1.1.noarch.rpm240.6 KiB2024-06-24 20:06:32
yast2-trans-mk-84.87.20240624.0295c6c7b8-1.1.noarch.rpm294.0 KiB2024-06-24 20:06:31
yast2-trans-kn-84.87.20240624.0295c6c7b8-1.1.noarch.rpm240.3 KiB2024-06-24 20:06:31
yast2-trans-nb-84.87.20240624.0295c6c7b8-1.1.noarch.rpm588.4 KiB2024-06-24 20:06:31
yast2-trans-nl-84.87.20240624.0295c6c7b8-1.1.noarch.rpm811.8 KiB2024-06-24 20:06:31
yast2-trans-mr-84.87.20240624.0295c6c7b8-1.1.noarch.rpm404.7 KiB2024-06-24 20:06:31
yast2-trans-lt-84.87.20240624.0295c6c7b8-1.1.noarch.rpm600.1 KiB2024-06-24 20:06:31
yast2-trans-ko-84.87.20240624.0295c6c7b8-1.1.noarch.rpm714.7 KiB2024-06-24 20:06:31
yast2-trans-nds-84.87.20240624.0295c6c7b8-1.1.noarch.rpm241.4 KiB2024-06-24 20:06:31
yast2-trans-lo-84.87.20240624.0295c6c7b8-1.1.noarch.rpm238.0 KiB2024-06-24 20:06:31
yast2-trans-lv-84.87.20240624.0295c6c7b8-1.1.noarch.rpm238.4 KiB2024-06-24 20:06:31
yast2-trans-ku-84.87.20240624.0295c6c7b8-1.1.noarch.rpm282.7 KiB2024-06-24 20:06:31
yast2-trans-ne-84.87.20240624.0295c6c7b8-1.1.noarch.rpm238.0 KiB2024-06-24 20:06:31
yast2-trans-gu-84.87.20240624.0295c6c7b8-1.1.noarch.rpm405.6 KiB2024-06-24 20:06:30
yast2-trans-hi-84.87.20240624.0295c6c7b8-1.1.noarch.rpm478.6 KiB2024-06-24 20:06:30
yast2-trans-hu-84.87.20240624.0295c6c7b8-1.1.noarch.rpm747.1 KiB2024-06-24 20:06:30
yast2-trans-km-84.87.20240624.0295c6c7b8-1.1.noarch.rpm609.4 KiB2024-06-24 20:06:30
yast2-trans-kab-84.87.20240624.0295c6c7b8-1.1.noarch.rpm227.3 KiB2024-06-24 20:06:30
yast2-trans-id-84.87.20240624.0295c6c7b8-1.1.noarch.rpm600.6 KiB2024-06-24 20:06:30
yast2-trans-gl-84.87.20240624.0295c6c7b8-1.1.noarch.rpm509.7 KiB2024-06-24 20:06:30
yast2-trans-ka-84.87.20240624.0295c6c7b8-1.1.noarch.rpm393.6 KiB2024-06-24 20:06:30
yast2-trans-he-84.87.20240624.0295c6c7b8-1.1.noarch.rpm269.7 KiB2024-06-24 20:06:30
yast2-trans-jv-84.87.20240624.0295c6c7b8-1.1.noarch.rpm239.6 KiB2024-06-24 20:06:30
yast2-trans-ja-84.87.20240624.0295c6c7b8-1.1.noarch.rpm817.3 KiB2024-06-24 20:06:30
yast2-trans-hr-84.87.20240624.0295c6c7b8-1.1.noarch.rpm367.3 KiB2024-06-24 20:06:30
yast2-trans-it-84.87.20240624.0295c6c7b8-1.1.noarch.rpm804.9 KiB2024-06-24 20:06:30
yast2-trans-fa-84.87.20240624.0295c6c7b8-1.1.noarch.rpm342.3 KiB2024-06-24 20:06:29
yast2-trans-et-84.87.20240624.0295c6c7b8-1.1.noarch.rpm427.8 KiB2024-06-24 20:06:29
yast2-trans-de-84.87.20240624.0295c6c7b8-1.1.noarch.rpm826.4 KiB2024-06-24 20:06:29
yast2-trans-es_AR-84.87.20240624.0295c6c7b8-1.1.noarch.rpm225.9 KiB2024-06-24 20:06:29
yast2-trans-fi-84.87.20240624.0295c6c7b8-1.1.noarch.rpm752.1 KiB2024-06-24 20:06:29
yast2-trans-en_GB-84.87.20240624.0295c6c7b8-1.1.noarch.rpm383.8 KiB2024-06-24 20:06:29
yast2-trans-cy-84.87.20240624.0295c6c7b8-1.1.noarch.rpm256.4 KiB2024-06-24 20:06:29
yast2-trans-fr-84.87.20240624.0295c6c7b8-1.1.noarch.rpm816.2 KiB2024-06-24 20:06:29
yast2-trans-eu-84.87.20240624.0295c6c7b8-1.1.noarch.rpm240.5 KiB2024-06-24 20:06:29
yast2-trans-da-84.87.20240624.0295c6c7b8-1.1.noarch.rpm655.4 KiB2024-06-24 20:06:29
yast2-trans-el-84.87.20240624.0295c6c7b8-1.1.noarch.rpm672.6 KiB2024-06-24 20:06:29
yast2-trans-es-84.87.20240624.0295c6c7b8-1.1.noarch.rpm812.8 KiB2024-06-24 20:06:29
yast2-trans-eo-84.87.20240624.0295c6c7b8-1.1.noarch.rpm264.7 KiB2024-06-24 20:06:29
yast2-trans-bn-84.87.20240624.0295c6c7b8-1.1.noarch.rpm403.1 KiB2024-06-24 20:06:28
yast2-trans-ca-84.87.20240624.0295c6c7b8-1.1.noarch.rpm801.1 KiB2024-06-24 20:06:28
yast2-trans-bg-84.87.20240624.0295c6c7b8-1.1.noarch.rpm486.2 KiB2024-06-24 20:06:28
yast2-trans-cs-84.87.20240624.0295c6c7b8-1.1.noarch.rpm826.8 KiB2024-06-24 20:06:28
yast2-trans-ast-84.87.20240624.0295c6c7b8-1.1.noarch.rpm286.8 KiB2024-06-24 20:06:28
yast2-trans-ar-84.87.20240624.0295c6c7b8-1.1.noarch.rpm762.8 KiB2024-06-24 20:06:28
yast2-trans-bs-84.87.20240624.0295c6c7b8-1.1.noarch.rpm285.2 KiB2024-06-24 20:06:28
yast2-trans-af-84.87.20240624.0295c6c7b8-1.1.noarch.rpm388.6 KiB2024-06-24 20:06:28
yast2-trans-84.87.20240624.0295c6c7b8-1.1.noarch.rpm218.3 KiB2024-06-24 20:06:27
robin-map-devel-1.3.0-1.1.noarch.rpm37.7 KiB2024-06-24 20:05:20
gcc14-info-14.1.1+git10335-1.1.noarch.rpm2.7 MiB2024-06-24 20:04:05
libcurl-devel-doc-8.8.0-2.1.noarch.rpm706.3 KiB2024-06-22 11:33:49
curl-fish-completion-8.8.0-2.1.noarch.rpm94.3 KiB2024-06-22 11:33:48
curl-zsh-completion-8.8.0-2.1.noarch.rpm94.8 KiB2024-06-22 11:33:48
labplot-kf5-lang-2.10.1-3.1.noarch.rpm2.1 MiB2024-06-21 15:14:34
python311-requests-cache-1.2.1-1.1.noarch.rpm149.3 KiB2024-06-21 15:07:34
python310-requests-cache-1.2.1-1.1.noarch.rpm121.0 KiB2024-06-21 15:07:34
python312-requests-cache-1.2.1-1.1.noarch.rpm144.8 KiB2024-06-21 15:07:34
molecule-24.6.0-1.1.noarch.rpm171.4 KiB2024-06-21 15:07:32
streamlink-6.8.1-1.1.noarch.rpm1006.3 KiB2024-06-21 15:06:14
python312-mypy-1.10.0-1.1.noarch.rpm3.8 MiB2024-06-21 15:04:48
python310-mypy-1.10.0-1.1.noarch.rpm3.1 MiB2024-06-21 15:04:47
python311-mypy-1.10.0-1.1.noarch.rpm3.8 MiB2024-06-21 15:04:47
php8-fpm-apache-8.3.8-3.1.noarch.rpm32.3 KiB2024-06-21 14:51:01
vinagre-lang-3.22.0-17.1.noarch.rpm1.1 MiB2024-06-21 14:49:55
terminator-lang-2.1.4-1.1.noarch.rpm212.6 KiB2024-06-21 14:49:53
terminator-2.1.4-1.1.noarch.rpm424.1 KiB2024-06-21 14:49:53
gnome-settings-daemon-lang-46.0-5.1.noarch.rpm668.2 KiB2024-06-21 14:49:50
python312-aiomisc-pytest-1.2.1-1.1.noarch.rpm35.7 KiB2024-06-21 14:49:22
python310-aiomisc-pytest-1.2.1-1.1.noarch.rpm29.1 KiB2024-06-21 14:49:22
python311-aiomisc-pytest-1.2.1-1.1.noarch.rpm35.9 KiB2024-06-21 14:49:22
strongswan-doc-5.9.14-2.1.noarch.rpm102.7 KiB2024-06-21 14:45:08
python-gtk-doc-2.24.0-24.1.noarch.rpm911.6 KiB2024-06-21 14:43:04
python310-bump-pydantic-0.8.0-1.1.noarch.rpm50.7 KiB2024-06-21 14:42:53
python312-bump-pydantic-0.8.0-1.1.noarch.rpm62.1 KiB2024-06-21 14:42:53
python311-bump-pydantic-0.8.0-1.1.noarch.rpm63.9 KiB2024-06-21 14:42:53
python312-cairocffi-pixbuf-1.7.1-1.1.noarch.rpm16.6 KiB2024-06-21 14:42:44
python311-cairocffi-pixbuf-1.7.1-1.1.noarch.rpm17.0 KiB2024-06-21 14:42:44
python312-cairocffi-1.7.1-1.1.noarch.rpm135.7 KiB2024-06-21 14:42:44
python311-cairocffi-1.7.1-1.1.noarch.rpm137.8 KiB2024-06-21 14:42:44
python310-cairocffi-pixbuf-1.7.1-1.1.noarch.rpm15.2 KiB2024-06-21 14:42:43
python310-cairocffi-1.7.1-1.1.noarch.rpm114.7 KiB2024-06-21 14:42:43
element-web-1.11.69-1.1.noarch.rpm19.3 MiB2024-06-21 14:40:11
avahi-lang-0.8-35.1.noarch.rpm112.6 KiB2024-06-21 14:37:34
python311-elastic-transport-8.13.1-2.1.noarch.rpm115.2 KiB2024-06-21 14:37:16
python310-elastic-transport-8.13.1-2.1.noarch.rpm92.8 KiB2024-06-21 14:37:16
python312-elastic-transport-8.13.1-2.1.noarch.rpm113.2 KiB2024-06-21 14:37:16
python310-pytest-sphinx-0.6.3-1.1.noarch.rpm25.4 KiB2024-06-21 14:37:15
python312-pytest-sphinx-0.6.3-1.1.noarch.rpm29.4 KiB2024-06-21 14:37:15
python311-pytest-sphinx-0.6.3-1.1.noarch.rpm30.0 KiB2024-06-21 14:37:15
python311-responses-0.25.3-1.1.noarch.rpm157.6 KiB2024-06-21 14:36:49
python312-responses-0.25.3-1.1.noarch.rpm153.7 KiB2024-06-21 14:36:49
python310-responses-0.25.3-1.1.noarch.rpm126.2 KiB2024-06-21 14:36:48
python310-w3lib-2.2.1-1.1.noarch.rpm46.5 KiB2024-06-21 14:36:39
python311-w3lib-2.2.1-1.1.noarch.rpm55.1 KiB2024-06-21 14:36:39
python312-w3lib-2.2.1-1.1.noarch.rpm53.7 KiB2024-06-21 14:36:39
python310-pytest-rerunfailures-14.0-2.1.noarch.rpm30.2 KiB2024-06-21 14:36:38
python312-pytest-rerunfailures-14.0-2.1.noarch.rpm34.0 KiB2024-06-21 14:36:38
python311-pytest-rerunfailures-14.0-2.1.noarch.rpm34.6 KiB2024-06-21 14:36:38
python312-ansiwrap-0.8.4-5.1.noarch.rpm22.7 KiB2024-06-21 14:36:33
python310-ansiwrap-0.8.4-5.1.noarch.rpm21.1 KiB2024-06-21 14:36:33
python311-ansiwrap-0.8.4-5.1.noarch.rpm23.2 KiB2024-06-21 14:36:33
python311-Kajiki-0.9.2-2.1.noarch.rpm100.7 KiB2024-06-21 14:36:32
python310-Kajiki-0.9.2-2.1.noarch.rpm80.1 KiB2024-06-21 14:36:32
python312-Kajiki-0.9.2-2.1.noarch.rpm98.5 KiB2024-06-21 14:36:32
python311-pytest-lazy-fixture-0.6.3-3.1.noarch.rpm18.4 KiB2024-06-21 14:36:29
python312-pytest-lazy-fixture-0.6.3-3.1.noarch.rpm18.0 KiB2024-06-21 14:36:29
python310-pytest-lazy-fixture-0.6.3-3.1.noarch.rpm16.3 KiB2024-06-21 14:36:29
obs-service-set_version-0.6.5-1.1.noarch.rpm14.5 KiB2024-06-21 14:36:23
python312-glad2-2.0.6-1.1.noarch.rpm477.5 KiB2024-06-21 14:36:22
python310-glad2-2.0.6-1.1.noarch.rpm454.1 KiB2024-06-21 14:36:22
python311-glad2-2.0.6-1.1.noarch.rpm481.7 KiB2024-06-21 14:36:22
python311-dnspython-2.6.1-1.1.noarch.rpm555.9 KiB2024-06-21 14:36:21
python310-dnspython-2.6.1-1.1.noarch.rpm431.2 KiB2024-06-21 14:36:21
python312-dnspython-2.6.1-1.1.noarch.rpm548.6 KiB2024-06-21 14:36:21
python311-pkginfo-1.11.1-1.1.noarch.rpm86.1 KiB2024-06-21 14:36:20
health-checker-plugins-kubic-1.10+git20240111.cb84209-2.1.noarch.rpm9.2 KiB2024-06-21 14:36:20
python310-pkginfo-1.11.1-1.1.noarch.rpm71.8 KiB2024-06-21 14:36:20
health-checker-plugins-MicroOS-1.10+git20240111.cb84209-2.1.noarch.rpm9.7 KiB2024-06-21 14:36:20
health-checker-plugins-caasp-1.10+git20240111.cb84209-2.1.noarch.rpm9.3 KiB2024-06-21 14:36:20
health-checker-1.10+git20240111.cb84209-2.1.noarch.rpm27.3 KiB2024-06-21 14:36:20
health-checker-testing-1.10+git20240111.cb84209-2.1.noarch.rpm9.3 KiB2024-06-21 14:36:20
python312-pkginfo-1.11.1-1.1.noarch.rpm83.5 KiB2024-06-21 14:36:20
python312-pytest-8.2.2-1.1.noarch.rpm754.6 KiB2024-06-21 14:30:32
python310-pytest-8.2.2-1.1.noarch.rpm585.8 KiB2024-06-21 14:30:31
python311-pytest-8.2.2-1.1.noarch.rpm767.1 KiB2024-06-21 14:30:31
python312-pluggy-1.5.0-1.1.noarch.rpm61.7 KiB2024-06-21 14:30:26
python310-pluggy-1.5.0-1.1.noarch.rpm53.9 KiB2024-06-21 14:30:26
python311-pluggy-1.5.0-1.1.noarch.rpm62.7 KiB2024-06-21 14:30:26
python310-azure-mgmt-oracledatabase-1.0.0~b2-1.1.noarch.rpm188.0 KiB2024-06-21 14:22:17
python311-azure-mgmt-oracledatabase-1.0.0~b2-1.1.noarch.rpm230.3 KiB2024-06-21 14:22:17
python312-azure-mgmt-oracledatabase-1.0.0~b2-1.1.noarch.rpm225.0 KiB2024-06-21 14:22:17
python311-sybil-6.1.1-1.1.noarch.rpm93.1 KiB2024-06-21 14:22:05
python310-sybil-6.1.1-1.1.noarch.rpm78.9 KiB2024-06-21 14:22:05
python312-sybil-6.1.1-1.1.noarch.rpm91.2 KiB2024-06-21 14:22:05
ctre-devel-3.9.0-1.1.noarch.rpm113.2 KiB2024-06-21 14:21:58
python311-azure-mgmt-imagebuilder-1.4.0-1.1.noarch.rpm135.6 KiB2024-06-21 14:21:56
python310-azure-mgmt-imagebuilder-1.4.0-1.1.noarch.rpm110.0 KiB2024-06-21 14:21:56
python312-azure-mgmt-imagebuilder-1.4.0-1.1.noarch.rpm132.3 KiB2024-06-21 14:21:56
python312-packaging-24.1-1.1.noarch.rpm62.3 KiB2024-06-21 14:21:54
python310-packaging-24.1-1.1.noarch.rpm62.3 KiB2024-06-21 14:21:54
containment-tik-img-to-rpm-1.0-3.1.noarch.rpm8.8 KiB2024-06-21 14:21:47
python311-packaging-24.1-1.1.noarch.rpm62.5 KiB2024-06-21 14:08:08
mariadb-errormessages-11.4.2-1.1.noarch.rpm225.6 KiB2024-06-20 16:22:57
java-1_8_0-openjdk-javadoc-1.8.0.412-3.1.noarch.rpm11.8 MiB2024-06-20 15:17:33
python-SQLAlchemy-doc-2.0.31-1.1.noarch.rpm2.7 MiB2024-06-20 15:09:09
keepassxc-lang-2.7.9-1.1.noarch.rpm1.4 MiB2024-06-20 15:07:39
kdenlive-lang-24.05.1-2.1.noarch.rpm4.0 MiB2024-06-20 15:05:52
python312-oci-sdk-2.128.2-1.1.noarch.rpm20.4 MiB2024-06-20 15:05:49
python311-oci-sdk-2.128.2-1.1.noarch.rpm20.7 MiB2024-06-20 15:05:49
python310-oci-sdk-2.128.2-1.1.noarch.rpm19.2 MiB2024-06-20 15:05:48
flux2-cli-zsh-completion-2.3.0-3.1.noarch.rpm31.3 KiB2024-06-20 15:01:18
flux2-cli-fish-completion-2.3.0-3.1.noarch.rpm31.7 KiB2024-06-20 15:01:18
flux2-cli-bash-completion-2.3.0-3.1.noarch.rpm37.5 KiB2024-06-20 15:01:16
gdm-systemd-46.2-2.1.noarch.rpm20.7 KiB2024-06-20 15:00:28
gdmflexiserver-46.2-2.1.noarch.rpm20.5 KiB2024-06-20 15:00:28
gdm-lang-46.2-2.1.noarch.rpm562.1 KiB2024-06-20 15:00:28
gdm-schema-46.2-2.1.noarch.rpm20.9 KiB2024-06-20 15:00:28
gdm-branding-upstream-46.2-2.1.noarch.rpm20.7 KiB2024-06-20 15:00:27
dkimproxy-1.4.1-20.1.noarch.rpm53.4 KiB2024-06-20 15:00:03
helm-bash-completion-3.15.2-1.1.noarch.rpm53.0 KiB2024-06-20 14:57:05
helm-zsh-completion-3.15.2-1.1.noarch.rpm51.9 KiB2024-06-20 14:57:05
helm-fish-completion-3.15.2-1.1.noarch.rpm52.3 KiB2024-06-20 14:57:05
python312-phonenumbers-8.13.39-1.1.noarch.rpm4.4 MiB2024-06-20 14:56:10
python310-phonenumbers-8.13.39-1.1.noarch.rpm3.5 MiB2024-06-20 14:56:09
python312-holidays-0.51-1.1.noarch.rpm651.0 KiB2024-06-20 14:56:09
python310-holidays-0.51-1.1.noarch.rpm587.4 KiB2024-06-20 14:56:09
python311-phonenumbers-8.13.39-1.1.noarch.rpm4.5 MiB2024-06-20 14:56:09
python311-holidays-0.51-1.1.noarch.rpm663.6 KiB2024-06-20 14:56:09
caddy-zsh-completion-2.8.4-3.1.noarch.rpm65.0 KiB2024-06-20 14:55:36
caddy-bash-completion-2.8.4-3.1.noarch.rpm67.3 KiB2024-06-20 14:55:35
caddy-fish-completion-2.8.4-3.1.noarch.rpm65.3 KiB2024-06-20 14:55:35
mkosi-23.1-2.1.noarch.rpm554.2 KiB2024-06-20 14:55:13
crmsh-test-5.0.0+20240620.4dcac184-1.1.noarch.rpm946.4 KiB2024-06-20 14:55:09
crmsh-scripts-5.0.0+20240620.4dcac184-1.1.noarch.rpm112.4 KiB2024-06-20 14:55:09
crmsh-5.0.0+20240620.4dcac184-1.1.noarch.rpm1.2 MiB2024-06-20 14:55:09
libproxy-devel-doc-0.5.7-1.1.noarch.rpm1.0 MiB2024-06-20 14:55:05
python311-requests_ntlm-1.3.0-1.1.noarch.rpm21.3 KiB2024-06-20 14:55:03
python312-requests_ntlm-1.3.0-1.1.noarch.rpm21.0 KiB2024-06-20 14:55:03
python310-requests_ntlm-1.3.0-1.1.noarch.rpm19.3 KiB2024-06-20 14:55:03
openscap-report-0.2.6-1.1.noarch.rpm587.6 KiB2024-06-20 14:55:02
apache2-manual-2.4.59-2.1.noarch.rpm3.8 MiB2024-06-20 14:54:59
targetcli-fb-common-2.1.58-1.1.noarch.rpm25.1 KiB2024-06-20 14:54:59
python310-targetcli-fb-2.1.58-1.1.noarch.rpm62.4 KiB2024-06-20 14:54:59
python312-targetcli-fb-2.1.58-1.1.noarch.rpm76.7 KiB2024-06-20 14:54:59
python311-targetcli-fb-2.1.58-1.1.noarch.rpm79.2 KiB2024-06-20 14:54:59
python312-cinemagoer-2023.5.1-3.1.noarch.rpm357.9 KiB2024-06-20 14:54:56
python311-cinemagoer-2023.5.1-3.1.noarch.rpm369.4 KiB2024-06-20 14:54:56
python310-cinemagoer-2023.5.1-3.1.noarch.rpm289.7 KiB2024-06-20 14:54:56
python312-python-box-7.2.0-1.1.noarch.rpm78.8 KiB2024-06-20 14:54:55
python310-python-box-7.2.0-1.1.noarch.rpm64.8 KiB2024-06-20 14:54:55
python311-python-box-7.2.0-1.1.noarch.rpm81.6 KiB2024-06-20 14:54:55
inxi-3.3.35-1.1.noarch.rpm576.0 KiB2024-06-20 14:54:53
accountsservice-lang-23.13.9-9.1.noarch.rpm41.7 KiB2024-06-20 14:54:53
debootstrap-1.0.136-1.1.noarch.rpm86.0 KiB2024-06-20 14:54:48
python311-parse-1.20.2-1.1.noarch.rpm42.6 KiB2024-06-20 14:54:46
python310-parse-1.20.2-1.1.noarch.rpm37.0 KiB2024-06-20 14:54:46
python312-parse-1.20.2-1.1.noarch.rpm41.8 KiB2024-06-20 14:54:46
tik-module-encrypt-1.1.9-1.1.noarch.rpm16.0 KiB2024-06-20 14:54:44
tik-module-mig-1.1.9-1.1.noarch.rpm18.5 KiB2024-06-20 14:54:44
yarn-1.22.22-1.1.noarch.rpm951.2 KiB2024-06-20 14:54:44
tik-1.1.9-1.1.noarch.rpm21.6 KiB2024-06-20 14:54:44
tik-module-welcome-1.1.9-1.1.noarch.rpm15.5 KiB2024-06-20 14:54:44
tik-config-generic-1.1.9-1.1.noarch.rpm15.6 KiB2024-06-20 14:54:44
polkit-default-privs-1550+20240620.095c860-1.1.noarch.rpm35.8 KiB2024-06-20 14:54:41
ghc-hadolint-doc-2.12.0-3.11.noarch.rpm201.5 KiB2024-06-19 18:27:59
ghc-ShellCheck-doc-0.10.0-1.15.noarch.rpm588.6 KiB2024-06-19 18:25:28
ghc-yesod-doc-1.6.2.1-2.62.noarch.rpm161.0 KiB2024-06-19 18:06:32
ghc-yesod-form-doc-1.7.6-1.41.noarch.rpm163.0 KiB2024-06-19 18:04:07
ghc-servant-server-doc-0.20-3.7.noarch.rpm201.5 KiB2024-06-19 18:00:32
ghc-yesod-static-doc-1.6.1.0-4.58.noarch.rpm96.6 KiB2024-06-19 18:00:23
ghc-persistent-sqlite-doc-2.13.3.0-1.25.noarch.rpm149.0 KiB2024-06-19 18:00:18
ghc-yesod-persistent-doc-1.6.0.8-2.56.noarch.rpm82.4 KiB2024-06-19 18:00:16
ghc-aws-doc-0.24.2-1.18.noarch.rpm526.2 KiB2024-06-19 17:59:01
ghc-pandoc-lua-marshal-doc-0.2.7-1.10.noarch.rpm129.0 KiB2024-06-19 17:57:49
ghc-DAV-doc-1.3.4-4.50.noarch.rpm70.0 KiB2024-06-19 17:54:22
ghc-typst-doc-0.5.0.3-1.15.noarch.rpm239.0 KiB2024-06-19 17:12:21
ghc-texmath-doc-0.12.8.9-1.7.noarch.rpm345.7 KiB2024-06-19 17:12:00
ghc-hlint-doc-3.8-1.16.noarch.rpm373.6 KiB2024-06-19 17:11:18
ghc-persistent-doc-2.14.6.1-2.16.noarch.rpm643.1 KiB2024-06-19 17:11:00
ghc-citeproc-doc-0.8.1-2.48.noarch.rpm267.5 KiB2024-06-19 17:10:43
ghc-yesod-core-doc-1.6.25.1-2.16.noarch.rpm320.5 KiB2024-06-19 17:10:21
ghc-criterion-doc-1.6.3.0-2.11.noarch.rpm137.7 KiB2024-06-19 17:10:17
ghc-xml-hamlet-doc-0.5.0.2-2.38.noarch.rpm66.3 KiB2024-06-19 17:09:42
ghc-wai-app-static-doc-3.1.9-1.16.noarch.rpm87.1 KiB2024-06-19 17:09:33
ghc-http-conduit-doc-2.3.8.3-3.12.noarch.rpm90.0 KiB2024-06-19 17:09:22
ghc-hslua-doc-2.3.1-1.20.noarch.rpm81.4 KiB2024-06-19 17:09:10
pacemaker-schemas-2.1.7+20240530.09c4d6d2e-1.2.noarch.rpm196.7 KiB2024-06-19 16:13:16
python3-pacemaker-2.1.7+20240530.09c4d6d2e-1.2.noarch.rpm209.6 KiB2024-06-19 16:13:16
pacemaker-cts-2.1.7+20240530.09c4d6d2e-1.2.noarch.rpm2.1 MiB2024-06-19 16:13:15
ghc-statistics-doc-0.16.2.1-2.27.noarch.rpm322.7 KiB2024-06-19 16:09:12
ghc-shakespeare-doc-2.1.0.1-1.22.noarch.rpm221.7 KiB2024-06-19 16:08:04
ghc-pandoc-types-doc-1.23.1-3.13.noarch.rpm164.3 KiB2024-06-19 16:08:03
ghc-attoparsec-aeson-doc-2.2.0.1-1.15.noarch.rpm60.4 KiB2024-06-19 16:08:03
ghc-postgresql-simple-doc-0.7.0.0-2.22.noarch.rpm311.2 KiB2024-06-19 16:07:50
ghc-git-lfs-doc-1.2.2-1.15.noarch.rpm71.9 KiB2024-06-19 16:07:49
ghc-cabal-plan-doc-0.7.4.0-1.2.noarch.rpm87.5 KiB2024-06-19 16:07:46
ghc-wai-extra-doc-3.1.15-1.2.noarch.rpm203.8 KiB2024-06-19 16:07:45
ghc-criterion-measurement-doc-0.2.2.0-1.8.noarch.rpm82.9 KiB2024-06-19 16:07:27
ghc-servant-doc-0.20.1-3.5.noarch.rpm235.6 KiB2024-06-19 16:07:26
ghc-ipynb-doc-0.2-2.31.noarch.rpm65.0 KiB2024-06-19 16:07:24
ghc-microstache-doc-1.0.2.3-4.22.noarch.rpm78.2 KiB2024-06-19 16:07:23
ghc-yaml-doc-0.11.11.2-1.33.noarch.rpm120.1 KiB2024-06-19 16:07:23
ghc-aeson-pretty-doc-0.8.10-1.29.noarch.rpm49.9 KiB2024-06-19 16:07:20
ghc-hslua-aeson-doc-2.3.1-1.20.noarch.rpm47.9 KiB2024-06-19 16:07:15
ghc-deriving-aeson-doc-0.2.9-3.26.noarch.rpm67.7 KiB2024-06-19 16:07:07
elixir-doc-1.17.1-1.1.noarch.rpm3.6 MiB2024-06-19 15:21:53
elixir-1.17.1-1.1.noarch.rpm5.2 MiB2024-06-19 15:21:52
tesseract-data-2024_06_15-1.1.noarch.rpm246.7 MiB2024-06-19 15:14:54
aubio-docs-0.4.9-12.1.noarch.rpm250.1 KiB2024-06-19 15:13:15
python312-django-bootstrap4-24.3-1.1.noarch.rpm60.0 KiB2024-06-19 15:13:13
python310-django-bootstrap4-24.3-1.1.noarch.rpm52.4 KiB2024-06-19 15:13:13
python311-django-bootstrap4-24.3-1.1.noarch.rpm61.8 KiB2024-06-19 15:13:13
python311-opentelemetry-exporter-otlp-1.25.0-1.1.noarch.rpm19.9 KiB2024-06-19 15:13:06
python310-opentelemetry-exporter-otlp-1.25.0-1.1.noarch.rpm19.8 KiB2024-06-19 15:13:06
python312-opentelemetry-exporter-otlp-1.25.0-1.1.noarch.rpm19.8 KiB2024-06-19 15:13:06
python311-imageio-ffmpeg-0.5.1-1.1.noarch.rpm47.1 KiB2024-06-19 15:13:05
python312-imageio-ffmpeg-0.5.1-1.1.noarch.rpm46.2 KiB2024-06-19 15:13:05
python310-imageio-ffmpeg-0.5.1-1.1.noarch.rpm39.7 KiB2024-06-19 15:13:04
python310-imreg-2024.5.24-1.1.noarch.rpm20.1 KiB2024-06-19 15:13:04
python311-imreg-2024.5.24-1.1.noarch.rpm22.4 KiB2024-06-19 15:13:04
python312-imreg-2024.5.24-1.1.noarch.rpm22.1 KiB2024-06-19 15:13:04
salt-zsh-completion-3006.0-15.1.noarch.rpm67.6 KiB2024-06-19 15:09:56
salt-fish-completion-3006.0-15.1.noarch.rpm71.1 KiB2024-06-19 15:09:55
salt-bash-completion-3006.0-15.1.noarch.rpm66.2 KiB2024-06-19 15:09:54
systemtap-docs-5.1-1.1.noarch.rpm1.8 MiB2024-06-19 15:09:36
python312-opentelemetry-exporter-otlp-proto-grpc-1.25.0-1.1.noarch.rpm38.0 KiB2024-06-19 15:09:22
python311-opentelemetry-exporter-otlp-proto-grpc-1.25.0-1.1.noarch.rpm38.6 KiB2024-06-19 15:09:22
python310-opentelemetry-exporter-otlp-proto-grpc-1.25.0-1.1.noarch.rpm34.8 KiB2024-06-19 15:09:21
python312-hvac-2.3.0-1.1.noarch.rpm215.3 KiB2024-06-19 15:09:20
python311-hvac-2.3.0-1.1.noarch.rpm218.4 KiB2024-06-19 15:09:20
python310-hvac-2.3.0-1.1.noarch.rpm195.6 KiB2024-06-19 15:09:20
ansible-9.7.0-1.1.noarch.rpm43.1 MiB2024-06-19 15:09:14
python3-caca-0.99.beta20-3.1.noarch.rpm45.4 KiB2024-06-19 15:06:35
python311-opentelemetry-exporter-otlp-proto-http-1.25.0-1.1.noarch.rpm33.9 KiB2024-06-19 15:06:23
python310-opentelemetry-exporter-otlp-proto-http-1.25.0-1.1.noarch.rpm31.6 KiB2024-06-19 15:06:23
python312-opentelemetry-exporter-otlp-proto-http-1.25.0-1.1.noarch.rpm33.4 KiB2024-06-19 15:06:23
ansible-documentation-2.16.8-1.1.noarch.rpm41.9 KiB2024-06-19 15:06:05
ghc-aeson-doc-2.2.3.0-1.1.noarch.rpm445.8 KiB2024-06-19 15:01:12
python312-mkdocs-material-9.5.27-1.1.noarch.rpm5.6 MiB2024-06-19 15:00:30
python311-mkdocs-material-9.5.27-1.1.noarch.rpm5.6 MiB2024-06-19 15:00:30
python310-mkdocs-material-9.5.27-1.1.noarch.rpm5.6 MiB2024-06-19 15:00:30
python311-google-cloud-service-directory-1.11.4-1.1.noarch.rpm139.4 KiB2024-06-19 14:59:58
python310-google-cloud-service-directory-1.11.4-1.1.noarch.rpm123.4 KiB2024-06-19 14:59:58
python312-google-cloud-service-directory-1.11.4-1.1.noarch.rpm138.7 KiB2024-06-19 14:59:58
postfix-devel-3.9.0-5.1.noarch.rpm185.4 KiB2024-06-19 14:59:53
postfix-doc-3.9.0-5.1.noarch.rpm666.5 KiB2024-06-19 14:59:53
python311-google-cloud-domains-1.7.3-1.1.noarch.rpm111.5 KiB2024-06-19 14:59:48
python310-google-cloud-domains-1.7.3-1.1.noarch.rpm97.1 KiB2024-06-19 14:59:48
python312-google-cloud-domains-1.7.3-1.1.noarch.rpm111.1 KiB2024-06-19 14:59:48
python312-google-api-python-client-2.133.0-1.1.noarch.rpm4.2 MiB2024-06-19 14:59:45
python311-google-api-python-client-2.133.0-1.1.noarch.rpm4.2 MiB2024-06-19 14:59:45
python310-google-api-python-client-2.133.0-1.1.noarch.rpm4.2 MiB2024-06-19 14:59:45
python312-opentelemetry-exporter-otlp-proto-common-1.25.0-1.1.noarch.rpm38.9 KiB2024-06-19 14:59:35
python311-opentelemetry-exporter-otlp-proto-common-1.25.0-1.1.noarch.rpm39.4 KiB2024-06-19 14:59:35
python310-opentelemetry-exporter-otlp-proto-common-1.25.0-1.1.noarch.rpm35.3 KiB2024-06-19 14:59:35
ansible-test-2.16.8-1.1.noarch.rpm959.6 KiB2024-06-19 14:59:32
ansible-core-2.16.8-1.1.noarch.rpm2.6 MiB2024-06-19 14:59:32
operator-sdk-zsh-completion-1.35.0-1.1.noarch.rpm13.9 KiB2024-06-19 14:56:40
operator-sdk-fish-completion-1.35.0-1.1.noarch.rpm14.3 KiB2024-06-19 14:56:39
operator-sdk-bash-completion-1.35.0-1.1.noarch.rpm16.6 KiB2024-06-19 14:56:39
python312-jsonrpclib-pelix-0.4.3.3-1.1.noarch.rpm80.4 KiB2024-06-19 14:56:01
python310-jsonrpclib-pelix-0.4.3.3-1.1.noarch.rpm67.2 KiB2024-06-19 14:56:01
python311-jsonrpclib-pelix-0.4.3.3-1.1.noarch.rpm82.0 KiB2024-06-19 14:56:01
python311-azure-mgmt-web-7.3.0-1.1.noarch.rpm3.8 MiB2024-06-19 14:55:58
python312-azure-mgmt-web-7.3.0-1.1.noarch.rpm3.6 MiB2024-06-19 14:55:58
python310-azure-mgmt-web-7.3.0-1.1.noarch.rpm2.6 MiB2024-06-19 14:55:57
melange-zsh-completion-0.9.0-1.1.noarch.rpm64.3 KiB2024-06-19 14:55:23
melange-fish-completion-0.9.0-1.1.noarch.rpm64.6 KiB2024-06-19 14:55:23
melange-bash-completion-0.9.0-1.1.noarch.rpm66.7 KiB2024-06-19 14:55:22
kor-bash-completion-0.5.1-1.1.noarch.rpm19.4 KiB2024-06-19 14:55:16
kor-fish-completion-0.5.1-1.1.noarch.rpm18.7 KiB2024-06-19 14:55:16
kor-zsh-completion-0.5.1-1.1.noarch.rpm18.3 KiB2024-06-19 14:55:16
apko-zsh-completion-0.15.0-1.1.noarch.rpm32.8 KiB2024-06-19 14:55:00
apko-fish-completion-0.15.0-1.1.noarch.rpm33.2 KiB2024-06-19 14:55:00
apko-bash-completion-0.15.0-1.1.noarch.rpm33.9 KiB2024-06-19 14:54:59
python310-azure-mgmt-mobilenetwork-3.3.0-1.1.noarch.rpm198.0 KiB2024-06-19 14:54:53
python312-itemloaders-1.3.1-1.1.noarch.rpm32.2 KiB2024-06-19 14:54:53
python311-azure-mgmt-mobilenetwork-3.3.0-1.1.noarch.rpm240.1 KiB2024-06-19 14:54:53
python312-azure-mgmt-mobilenetwork-3.3.0-1.1.noarch.rpm234.6 KiB2024-06-19 14:54:53
python311-itemloaders-1.3.1-1.1.noarch.rpm32.7 KiB2024-06-19 14:54:52
python310-itemloaders-1.3.1-1.1.noarch.rpm29.2 KiB2024-06-19 14:54:52
python312-azure-mgmt-storagemover-2.1.0-1.1.noarch.rpm135.6 KiB2024-06-19 14:54:47
python311-azure-mgmt-storagemover-2.1.0-1.1.noarch.rpm139.1 KiB2024-06-19 14:54:46
python310-azure-mgmt-storagemover-2.1.0-1.1.noarch.rpm112.8 KiB2024-06-19 14:54:46
python311-QDarkStyle-3.2.1-2.1.noarch.rpm699.5 KiB2024-06-19 14:54:39
python310-QDarkStyle-3.2.1-2.1.noarch.rpm688.9 KiB2024-06-19 14:54:39
python312-QDarkStyle-3.2.1-2.1.noarch.rpm697.6 KiB2024-06-19 14:54:39
systemtap-dtrace-5.1-1.1.noarch.rpm14.0 KiB2024-06-19 14:54:36
eclipse-gef-sdk-3.11.0-2.14.noarch.rpm5.7 MiB2024-06-19 08:36:43
eclipse-gef-tests-3.11.0-2.14.noarch.rpm218.6 KiB2024-06-19 08:36:43
eclipse-gef-3.11.0-2.14.noarch.rpm1.5 MiB2024-06-19 08:36:41
eclipse-anyedit-2.7.1-2.14.noarch.rpm466.1 KiB2024-06-19 08:36:12
eclipse-anyedit-javadoc-2.7.1-2.14.noarch.rpm403.6 KiB2024-06-19 08:36:12
eclipse-jdt-4.15-15.3.noarch.rpm31.3 MiB2024-06-19 08:35:09
eclipse-p2-discovery-4.15-15.3.noarch.rpm224.1 KiB2024-06-19 08:35:09
eclipse-ecf-sdk-3.14.8-6.2.noarch.rpm6.7 MiB2024-06-19 08:14:55
eclipse-ecf-runtime-3.14.8-6.2.noarch.rpm1.2 MiB2024-06-19 08:14:54
eclipse-emf-xsd-2.22.0-5.4.noarch.rpm1.2 MiB2024-06-19 08:10:38
eclipse-emf-sdk-2.22.0-5.4.noarch.rpm8.5 MiB2024-06-19 08:10:38
eclipse-emf-runtime-2.22.0-5.4.noarch.rpm3.4 MiB2024-06-19 08:10:38
tycho-javadoc-1.6.0-17.3.noarch.rpm1.4 MiB2024-06-19 08:07:57
tycho-1.6.0-17.3.noarch.rpm2.8 MiB2024-06-19 08:07:56
buildnumber-maven-plugin-javadoc-1.3-3.6.noarch.rpm90.9 KiB2024-06-19 08:01:21
buildnumber-maven-plugin-1.3-3.6.noarch.rpm47.0 KiB2024-06-19 08:01:20
maven-scm-javadoc-1.12.0-8.3.noarch.rpm1.2 MiB2024-06-19 08:00:21
maven-scm-test-1.12.0-8.3.noarch.rpm204.0 KiB2024-06-19 08:00:21
maven-scm-1.12.0-8.3.noarch.rpm1.0 MiB2024-06-19 08:00:20
prometheus-simpleclient-java-pushgateway-0.8.0-8.6.noarch.rpm18.1 KiB2024-06-19 07:59:36
prometheus-simpleclient-java-logback-0.8.0-8.6.noarch.rpm13.4 KiB2024-06-19 07:59:36
prometheus-simpleclient-java-parent-0.8.0-8.6.noarch.rpm10.6 KiB2024-06-19 07:59:36
prometheus-simpleclient-java-servlet-0.8.0-8.6.noarch.rpm16.0 KiB2024-06-19 07:59:36
prometheus-simpleclient-java-log4j2-0.8.0-8.6.noarch.rpm13.7 KiB2024-06-19 07:59:36
prometheus-simpleclient-java-0.8.0-8.6.noarch.rpm66.5 KiB2024-06-19 07:59:35
prometheus-simpleclient-java-log4j-0.8.0-8.6.noarch.rpm13.3 KiB2024-06-19 07:59:35
prometheus-simpleclient-java-common-0.8.0-8.6.noarch.rpm14.5 KiB2024-06-19 07:59:35
prometheus-simpleclient-java-jetty-0.8.0-8.6.noarch.rpm14.4 KiB2024-06-19 07:59:35
prometheus-simpleclient-java-guava-0.8.0-8.6.noarch.rpm14.2 KiB2024-06-19 07:59:35
prometheus-simpleclient-java-graphite_bridge-0.8.0-8.6.noarch.rpm15.2 KiB2024-06-19 07:59:35
prometheus-simpleclient-java-jetty_jdk8-0.8.0-8.6.noarch.rpm14.5 KiB2024-06-19 07:59:35
prometheus-simpleclient-java-hotspot-0.8.0-8.6.noarch.rpm28.9 KiB2024-06-19 07:59:35
prometheus-simpleclient-java-httpserver-0.8.0-8.6.noarch.rpm18.5 KiB2024-06-19 07:59:35
prometheus-simpleclient-java-javadoc-0.8.0-8.6.noarch.rpm175.2 KiB2024-06-19 07:59:35
jersey-2.28-8.4.noarch.rpm1.9 MiB2024-06-19 07:57:59
jersey-javadoc-2.28-8.4.noarch.rpm1.8 MiB2024-06-19 07:57:59
resteasy-jaxb-provider-3.0.26-4.6.noarch.rpm87.4 KiB2024-06-19 07:55:42
resteasy-jackson2-provider-3.0.26-4.6.noarch.rpm28.1 KiB2024-06-19 07:55:41
resteasy-core-3.0.26-4.6.noarch.rpm810.7 KiB2024-06-19 07:55:41
resteasy-client-3.0.26-4.6.noarch.rpm164.5 KiB2024-06-19 07:55:41
resteasy-atom-provider-3.0.26-4.6.noarch.rpm53.5 KiB2024-06-19 07:55:41
resteasy-3.0.26-4.6.noarch.rpm13.4 KiB2024-06-19 07:55:41
resteasy-javadoc-3.0.26-4.6.noarch.rpm982.9 KiB2024-06-19 07:55:41
jboss-logging-tools-javadoc-2.2.1-4.4.noarch.rpm223.9 KiB2024-06-19 07:53:53
jboss-logging-tools-2.2.1-4.4.noarch.rpm220.3 KiB2024-06-19 07:53:53
hppc-templateprocessor-0.7.1-7.3.noarch.rpm255.6 KiB2024-06-19 07:53:31
hppc-javadoc-0.7.1-7.3.noarch.rpm1.1 MiB2024-06-19 07:53:31
hppc-0.7.1-7.3.noarch.rpm1.3 MiB2024-06-19 07:53:30
jboss-logging-javadoc-3.4.1-4.7.noarch.rpm130.3 KiB2024-06-19 07:52:27
jboss-logging-3.4.1-4.7.noarch.rpm68.2 KiB2024-06-19 07:52:26
maven-jaxb2-plugin-0.14.0-3.4.noarch.rpm152.8 KiB2024-06-19 07:52:24
xstream-parent-1.4.20-5.4.noarch.rpm20.6 KiB2024-06-19 07:47:06
xstream-javadoc-1.4.20-5.4.noarch.rpm771.2 KiB2024-06-19 07:47:05
xstream-1.4.20-5.4.noarch.rpm563.7 KiB2024-06-19 07:47:05
xstream-benchmark-1.4.20-5.4.noarch.rpm145.0 KiB2024-06-19 07:47:05
xml-maven-plugin-javadoc-1.0.2-2.15.noarch.rpm120.7 KiB2024-06-19 07:46:38
xml-maven-plugin-1.0.2-2.15.noarch.rpm73.5 KiB2024-06-19 07:46:37
string-template-maven-plugin-1.1-3.7.noarch.rpm32.2 KiB2024-06-19 07:46:32
string-template-maven-plugin-javadoc-1.1-3.7.noarch.rpm81.9 KiB2024-06-19 07:46:32
maven-archetype-javadoc-3.2.1-4.3.noarch.rpm275.1 KiB2024-06-19 07:42:08
maven-archetype-packaging-3.2.1-4.3.noarch.rpm12.8 KiB2024-06-19 07:42:08
maven-archetype-common-3.2.1-4.3.noarch.rpm167.3 KiB2024-06-19 07:42:08
maven-archetype-descriptor-3.2.1-4.3.noarch.rpm27.5 KiB2024-06-19 07:42:08
maven-archetype-plugin-3.2.1-4.3.noarch.rpm98.3 KiB2024-06-19 07:42:08
maven-archetype-catalog-3.2.1-4.3.noarch.rpm23.3 KiB2024-06-19 07:42:07
maven-archetype-3.2.1-4.3.noarch.rpm18.3 KiB2024-06-19 07:42:07
maven-native-components-1.0~M1-2.2.noarch.rpm83.0 KiB2024-06-19 07:42:02
moditect-javadoc-1.1.0-1.5.noarch.rpm144.0 KiB2024-06-19 07:42:02
moditect-1.1.0-1.5.noarch.rpm1.5 MiB2024-06-19 07:42:02
maven-native-1.0~M1-2.2.noarch.rpm53.4 KiB2024-06-19 07:42:02
maven-native-javadoc-1.0~M1-2.2.noarch.rpm198.0 KiB2024-06-19 07:42:02
native-maven-plugin-1.0~M1-2.2.noarch.rpm57.1 KiB2024-06-19 07:42:02
maven-remote-resources-plugin-javadoc-3.2.0-1.3.noarch.rpm118.2 KiB2024-06-19 07:41:53
maven-remote-resources-plugin-3.2.0-1.3.noarch.rpm89.6 KiB2024-06-19 07:41:53
spec-version-maven-plugin-2.1-1.15.noarch.rpm55.3 KiB2024-06-19 07:41:52
spec-version-maven-plugin-javadoc-2.1-1.15.noarch.rpm104.3 KiB2024-06-19 07:41:52
maven-jarsigner-plugin-javadoc-3.0.0-4.6.noarch.rpm89.0 KiB2024-06-19 07:41:52
maven-jarsigner-plugin-3.0.0-4.6.noarch.rpm42.5 KiB2024-06-19 07:41:52
os-maven-plugin-javadoc-1.7.0-4.4.noarch.rpm95.4 KiB2024-06-19 07:41:52
os-maven-plugin-1.7.0-4.4.noarch.rpm43.9 KiB2024-06-19 07:41:52
paranamer-javadoc-2.8-4.4.noarch.rpm117.5 KiB2024-06-19 07:41:01
paranamer-parent-2.8-4.4.noarch.rpm11.5 KiB2024-06-19 07:41:01
paranamer-maven-plugin-2.8-4.4.noarch.rpm20.4 KiB2024-06-19 07:41:01
paranamer-generator-2.8-4.4.noarch.rpm18.0 KiB2024-06-19 07:41:01
paranamer-ant-2.8-4.4.noarch.rpm13.8 KiB2024-06-19 07:41:01
paranamer-2.8-4.4.noarch.rpm47.0 KiB2024-06-19 07:41:01
replacer-javadoc-1.6-5.3.noarch.rpm101.9 KiB2024-06-19 07:40:51
replacer-1.6-5.3.noarch.rpm50.3 KiB2024-06-19 07:40:51
maven-assembly-plugin-3.6.0-5.3.noarch.rpm224.4 KiB2024-06-19 07:39:48
maven-assembly-plugin-javadoc-3.6.0-5.3.noarch.rpm241.1 KiB2024-06-19 07:39:48
maven-enforcer-plugin-3.4.1-1.6.noarch.rpm48.7 KiB2024-06-19 07:39:47
maven-enforcer-api-3.4.1-1.6.noarch.rpm28.8 KiB2024-06-19 07:39:47
maven-enforcer-extension-3.4.1-1.6.noarch.rpm23.3 KiB2024-06-19 07:39:47
maven-enforcer-javadoc-3.4.1-1.6.noarch.rpm206.3 KiB2024-06-19 07:39:47
maven-enforcer-rules-3.4.1-1.6.noarch.rpm141.9 KiB2024-06-19 07:39:47
maven-enforcer-3.4.1-1.6.noarch.rpm22.1 KiB2024-06-19 07:39:46
maven-bundle-plugin-javadoc-5.1.9-2.4.noarch.rpm149.2 KiB2024-06-19 07:39:44
maven-bundle-plugin-5.1.9-2.4.noarch.rpm207.9 KiB2024-06-19 07:39:44
maven-source-plugin-3.0.1-3.15.noarch.rpm37.4 KiB2024-06-19 07:39:43
maven-source-plugin-javadoc-3.0.1-3.15.noarch.rpm90.3 KiB2024-06-19 07:39:43
maven-javadoc-plugin-3.6.0-5.2.noarch.rpm451.4 KiB2024-06-19 07:39:43
maven-javadoc-plugin-javadoc-3.6.0-5.2.noarch.rpm143.7 KiB2024-06-19 07:39:43
maven-dependency-plugin-3.6.0-1.6.noarch.rpm187.9 KiB2024-06-19 07:39:42
maven-invoker-plugin-javadoc-3.2.2-2.7.noarch.rpm143.0 KiB2024-06-19 07:39:42
maven-invoker-plugin-3.2.2-2.7.noarch.rpm130.0 KiB2024-06-19 07:39:42
maven-dependency-plugin-javadoc-3.6.0-1.6.noarch.rpm185.0 KiB2024-06-19 07:39:42
maven-shade-plugin-3.4.1-1.9.noarch.rpm143.0 KiB2024-06-19 07:39:41
maven-shade-plugin-javadoc-3.4.1-1.9.noarch.rpm162.4 KiB2024-06-19 07:39:41
modulemaker-maven-plugin-javadoc-1.11-1.3.noarch.rpm85.4 KiB2024-06-19 07:39:40
modulemaker-maven-plugin-1.11-1.3.noarch.rpm33.2 KiB2024-06-19 07:39:40
maven-install-plugin-3.1.1-2.3.noarch.rpm43.8 KiB2024-06-19 07:39:38
maven-jmod-plugin-3.0.0~alpha1-3.4.noarch.rpm48.2 KiB2024-06-19 07:39:38
maven-jmod-plugin-javadoc-3.0.0~alpha1-3.4.noarch.rpm90.2 KiB2024-06-19 07:39:38
maven-install-plugin-javadoc-3.1.1-2.3.noarch.rpm93.1 KiB2024-06-19 07:39:38
maven-deploy-plugin-3.0.0~M2-1.12.noarch.rpm43.6 KiB2024-06-19 07:39:37
maven-jlink-plugin-javadoc-3.0.0~alpha1-3.4.noarch.rpm87.5 KiB2024-06-19 07:39:37
munge-maven-plugin-javadoc-1.0-2.15.noarch.rpm85.6 KiB2024-06-19 07:39:37
maven-jlink-plugin-3.0.0~alpha1-3.4.noarch.rpm41.3 KiB2024-06-19 07:39:37
munge-maven-plugin-1.0-2.15.noarch.rpm31.1 KiB2024-06-19 07:39:37
maven-deploy-plugin-javadoc-3.0.0~M2-1.12.noarch.rpm90.5 KiB2024-06-19 07:39:37
maven-clean-plugin-javadoc-3.1.0-4.15.noarch.rpm91.3 KiB2024-06-19 07:39:36
maven-clean-plugin-3.1.0-4.15.noarch.rpm36.9 KiB2024-06-19 07:39:36
maven-surefire-plugins-javadoc-3.2.5-2.2.noarch.rpm132.4 KiB2024-06-19 07:38:51
maven-surefire-report-plugin-3.2.5-2.2.noarch.rpm51.9 KiB2024-06-19 07:38:51
maven-surefire-plugin-3.2.5-2.2.noarch.rpm44.9 KiB2024-06-19 07:38:50
maven-failsafe-plugin-3.2.5-2.2.noarch.rpm56.4 KiB2024-06-19 07:38:50
modello-maven-plugin-2.4.0-4.2.noarch.rpm64.2 KiB2024-06-19 07:38:44
modello-maven-plugin-javadoc-2.4.0-4.2.noarch.rpm112.0 KiB2024-06-19 07:38:44
maven-plugin-plugin-javadoc-3.13.0-1.2.noarch.rpm105.0 KiB2024-06-19 07:37:46
maven-plugin-plugin-3.13.0-1.2.noarch.rpm58.1 KiB2024-06-19 07:37:46
maven-compiler-plugin-3.11.0-2.4.noarch.rpm76.0 KiB2024-06-19 07:37:18
maven-compiler-plugin-javadoc-3.11.0-2.4.noarch.rpm93.7 KiB2024-06-19 07:37:18
maven-jar-plugin-javadoc-3.3.0-2.4.noarch.rpm84.7 KiB2024-06-19 07:37:16
maven-jar-plugin-3.3.0-2.4.noarch.rpm38.0 KiB2024-06-19 07:37:16
maven-ant-plugin-2.4-4.6.noarch.rpm53.7 KiB2024-06-19 07:36:08
maven-antrun-plugin-javadoc-3.0.0-1.15.noarch.rpm98.3 KiB2024-06-19 07:36:08
maven-ant-plugin-javadoc-2.4-4.6.noarch.rpm94.7 KiB2024-06-19 07:36:08
maven-antrun-plugin-3.0.0-1.15.noarch.rpm45.2 KiB2024-06-19 07:36:08
jboss-marshalling-1.4.11-3.6.noarch.rpm347.0 KiB2024-06-19 07:35:07
jboss-marshalling-osgi-1.4.11-3.6.noarch.rpm12.6 KiB2024-06-19 07:35:07
jboss-marshalling-javadoc-1.4.11-3.6.noarch.rpm322.5 KiB2024-06-19 07:35:07
jboss-logmanager-2.0.4-3.6.noarch.rpm307.7 KiB2024-06-19 07:35:03
jboss-logmanager-javadoc-2.0.4-3.6.noarch.rpm303.9 KiB2024-06-19 07:35:03
jflex-maven-plugin-javadoc-1.8.2-2.4.noarch.rpm82.0 KiB2024-06-19 07:34:55
jflex-maven-plugin-1.8.2-2.4.noarch.rpm26.3 KiB2024-06-19 07:34:55
javaparser-javadoc-3.25.10-1.3.noarch.rpm1.5 MiB2024-06-19 07:34:47
javaparser-3.25.10-1.3.noarch.rpm1.7 MiB2024-06-19 07:34:46
jdeparser-javadoc-2.0.3-2.4.noarch.rpm304.6 KiB2024-06-19 07:34:09
jdeparser-2.0.3-2.4.noarch.rpm220.2 KiB2024-06-19 07:34:09
istack-commons-3.0.7-8.3.noarch.rpm22.5 KiB2024-06-19 07:34:03
istack-commons-runtime-3.0.7-8.3.noarch.rpm43.8 KiB2024-06-19 07:34:03
jboss-modules-javadoc-1.5.2-1.26.noarch.rpm325.1 KiB2024-06-19 07:34:03
istack-commons-soimp-3.0.7-8.3.noarch.rpm34.4 KiB2024-06-19 07:34:03
istack-commons-buildtools-3.0.7-8.3.noarch.rpm38.4 KiB2024-06-19 07:34:03
import-properties-plugin-3.0.7-8.3.noarch.rpm41.5 KiB2024-06-19 07:34:03
istack-commons-tools-3.0.7-8.3.noarch.rpm46.5 KiB2024-06-19 07:34:03
jboss-modules-1.5.2-1.26.noarch.rpm345.1 KiB2024-06-19 07:34:03
istack-commons-test-3.0.7-8.3.noarch.rpm33.7 KiB2024-06-19 07:34:03
istack-commons-maven-plugin-3.0.7-8.3.noarch.rpm54.0 KiB2024-06-19 07:34:03
jboss-websocket-1.0-api-javadoc-1.0.0-3.7.noarch.rpm147.2 KiB2024-06-19 07:34:00
jboss-websocket-1.0-api-1.0.0-3.7.noarch.rpm52.5 KiB2024-06-19 07:34:00
cbi-plugins-1.1.5-5.3.noarch.rpm201.7 KiB2024-06-19 07:33:07
cbi-plugins-javadoc-1.1.5-5.3.noarch.rpm201.6 KiB2024-06-19 07:33:07
exec-maven-plugin-javadoc-3.0.0-5.4.noarch.rpm111.4 KiB2024-06-19 07:32:58
javacc-maven-plugin-javadoc-2.6-4.4.noarch.rpm127.7 KiB2024-06-19 07:32:58
antlr-maven-plugin-2.2-6.4.noarch.rpm51.4 KiB2024-06-19 07:32:58
exec-maven-plugin-3.0.0-5.4.noarch.rpm78.8 KiB2024-06-19 07:32:58
javacc-maven-plugin-2.6-4.4.noarch.rpm91.4 KiB2024-06-19 07:32:58
antlr-maven-plugin-javadoc-2.2-6.4.noarch.rpm103.7 KiB2024-06-19 07:32:58
jboss-jaxrs-2.0-api-javadoc-1.0.1-5.6.noarch.rpm271.5 KiB2024-06-19 07:32:08
jboss-jaxrs-2.0-api-1.0.1-5.6.noarch.rpm116.2 KiB2024-06-19 07:32:08
assertj-core-3.25.3-2.2.noarch.rpm1.2 MiB2024-06-19 07:31:58
assertj-core-javadoc-3.25.3-2.2.noarch.rpm1.6 MiB2024-06-19 07:31:58
glassfish-hk2-testing-2.5.0-9.3.noarch.rpm52.5 KiB2024-06-19 07:31:06
google-errorprone-type_annotations-2.26.1-2.2.noarch.rpm27.6 KiB2024-06-19 07:31:06
google-errorprone-docgen_processor-2.26.1-2.2.noarch.rpm32.7 KiB2024-06-19 07:31:06
glassfish-hk2-osgi-resource-locator-2.5.0-9.3.noarch.rpm40.0 KiB2024-06-19 07:31:06
google-errorprone-javadoc-2.26.1-2.2.noarch.rpm103.9 KiB2024-06-19 07:31:06
google-errorprone-parent-2.26.1-2.2.noarch.rpm26.4 KiB2024-06-19 07:31:06
glassfish-hk2-runlevel-2.5.0-9.3.noarch.rpm73.1 KiB2024-06-19 07:31:06
glassfish-hk2-utils-2.5.0-9.3.noarch.rpm114.2 KiB2024-06-19 07:31:06
google-errorprone-annotation-2.26.1-2.2.noarch.rpm31.4 KiB2024-06-19 07:31:06
glassfish-hk2-metadata-generator-2.5.0-9.3.noarch.rpm51.4 KiB2024-06-19 07:31:05
glassfish-hk2-jmx-2.5.0-9.3.noarch.rpm25.8 KiB2024-06-19 07:31:05
glassfish-hk2-2.5.0-9.3.noarch.rpm27.1 KiB2024-06-19 07:31:05
glassfish-hk2-extras-2.5.0-9.3.noarch.rpm70.7 KiB2024-06-19 07:31:05
glassfish-hk2-core-2.5.0-9.3.noarch.rpm123.3 KiB2024-06-19 07:31:05
glassfish-hk2-configuration-2.5.0-9.3.noarch.rpm100.3 KiB2024-06-19 07:31:05
glassfish-hk2-api-2.5.0-9.3.noarch.rpm180.8 KiB2024-06-19 07:31:05
glassfish-hk2-javadoc-2.5.0-9.3.noarch.rpm993.3 KiB2024-06-19 07:31:05
glassfish-hk2-maven-plugins-2.5.0-9.3.noarch.rpm104.1 KiB2024-06-19 07:31:05
glassfish-hk2-hk2-2.5.0-9.3.noarch.rpm25.7 KiB2024-06-19 07:31:05
glassfish-hk2-locator-2.5.0-9.3.noarch.rpm194.7 KiB2024-06-19 07:31:05
glassfish-hk2-class-model-2.5.0-9.3.noarch.rpm96.2 KiB2024-06-19 07:31:05
byte-buddy-javadoc-1.14.16-1.2.noarch.rpm3.4 MiB2024-06-19 07:30:10
byte-buddy-1.14.16-1.2.noarch.rpm3.2 MiB2024-06-19 07:30:10
byte-buddy-maven-plugin-1.14.16-1.2.noarch.rpm61.0 KiB2024-06-19 07:30:10
byte-buddy-agent-1.14.16-1.2.noarch.rpm254.3 KiB2024-06-19 07:30:10
glassfishbuild-maven-plugin-javadoc-3.2.26-3.4.noarch.rpm97.8 KiB2024-06-19 07:30:08
glassfishbuild-maven-plugin-3.2.26-3.4.noarch.rpm72.1 KiB2024-06-19 07:30:07
antlr3-tool-3.5.3-5.4.noarch.rpm1.2 MiB2024-06-19 07:29:35
antlr3-javadoc-3.5.3-5.4.noarch.rpm583.4 KiB2024-06-19 07:29:34
cal10n-maven-plugins-0.8.1.12-1.3.noarch.rpm22.6 KiB2024-06-19 07:28:02
cal10n-maven-plugins-javadoc-0.8.1.12-1.3.noarch.rpm81.4 KiB2024-06-19 07:28:02
bnd-maven-plugin-javadoc-6.3.1-2.4.noarch.rpm109.2 KiB2024-06-19 07:26:52
bnd-maven-plugin-6.3.1-2.4.noarch.rpm68.5 KiB2024-06-19 07:26:52
qwt6-qt6-devel-doc-6.3.0-1.2.noarch.rpm2.7 MiB2024-06-18 23:03:28
wxWidgets-lang-3.0.5.1-5.2.noarch.rpm485.6 KiB2024-06-18 22:17:45
anjuta-lang-3.34.0-5.14.noarch.rpm2.3 MiB2024-06-18 22:16:23
tuxpaint-devel-0.9.32-1.3.noarch.rpm19.9 KiB2024-06-18 22:15:36
gedit-lang-46.2-2.2.noarch.rpm1.4 MiB2024-06-18 22:15:18
python3-gedit-46.2-2.2.noarch.rpm19.2 KiB2024-06-18 22:15:18
compiz-emerald-lang-0.8.18-2.23.noarch.rpm118.0 KiB2024-06-18 22:15:03
xfce4-sensors-plugin-lang-1.4.4-1.8.noarch.rpm92.5 KiB2024-06-18 22:14:56
pluma-lang-1.28.0-1.2.noarch.rpm1.9 MiB2024-06-18 22:14:19
budgie-desktop-lang-10.9.1+9-1.2.noarch.rpm284.9 KiB2024-06-18 22:13:36
spice-gtk-lang-0.42-4.3.noarch.rpm22.7 KiB2024-06-18 22:13:34
eom-doc-1.28.0-1.2.noarch.rpm765.4 KiB2024-06-18 22:13:30
eom-lang-1.28.0-1.2.noarch.rpm445.6 KiB2024-06-18 22:13:30
pragha-lang-1.3.99.1-4.4.noarch.rpm116.5 KiB2024-06-18 22:13:20
liballegro-doc-5.2.9.1-1.4.noarch.rpm943.3 KiB2024-06-18 22:13:16
gitg-lang-44-1.3.noarch.rpm339.3 KiB2024-06-18 22:13:13
eog-lang-45.3-1.3.noarch.rpm896.2 KiB2024-06-18 22:13:06
vala-panel-lang-0.5.0-1.11.noarch.rpm267.2 KiB2024-06-18 22:13:01
marco-lang-1.28.1-1.2.noarch.rpm667.2 KiB2024-06-18 22:13:00
marco-themes-1.28.1-1.2.noarch.rpm75.6 KiB2024-06-18 22:13:00
xed-lang-3.4.5-1.3.noarch.rpm1.0 MiB2024-06-18 22:12:58
sfml2-doc-2.6.1-2.3.noarch.rpm640.8 KiB2024-06-18 22:12:58
libgarcon-branding-upstream-4.18.2-1.3.noarch.rpm11.1 KiB2024-06-18 22:12:48
libgarcon-lang-4.18.2-1.3.noarch.rpm54.7 KiB2024-06-18 22:12:48
libgarcon-doc-4.18.2-1.3.noarch.rpm62.2 KiB2024-06-18 22:12:48
libgarcon-data-4.18.2-1.3.noarch.rpm37.2 KiB2024-06-18 22:12:48
libKF5KHtml5-lang-5.116.0-1.2.noarch.rpm447.0 KiB2024-06-18 22:10:04
SDL3-devel-doc-3.1.2-1.2.noarch.rpm1.3 MiB2024-06-18 22:05:07
kwalletd5-lang-5.116.0-1.2.noarch.rpm213.2 KiB2024-06-18 22:04:03
opencsg-doc-1.6.0-2.4.noarch.rpm203.2 KiB2024-06-18 22:03:41
libqt5-qtbase-private-headers-devel-5.15.14+kde140-1.2.noarch.rpm148.6 KiB2024-06-18 22:02:21
libQt5Widgets-private-headers-devel-5.15.14+kde140-1.2.noarch.rpm271.1 KiB2024-06-18 22:02:17
libQt5Test-private-headers-devel-5.15.14+kde140-1.2.noarch.rpm189.6 KiB2024-06-18 22:02:17
libQt5Sql-private-headers-devel-5.15.14+kde140-1.2.noarch.rpm153.5 KiB2024-06-18 22:02:16
libQt5PrintSupport-private-headers-devel-5.15.14+kde140-1.2.noarch.rpm160.6 KiB2024-06-18 22:02:15
libQt5PlatformSupport-private-headers-devel-5.15.14+kde140-1.2.noarch.rpm220.9 KiB2024-06-18 22:02:15
libQt5KmsSupport-private-headers-devel-5.15.14+kde140-1.2.noarch.rpm151.3 KiB2024-06-18 22:02:14
libQt5OpenGL-private-headers-devel-5.15.14+kde140-1.2.noarch.rpm166.5 KiB2024-06-18 22:02:14
libQt5Network-private-headers-devel-5.15.14+kde140-1.2.noarch.rpm221.1 KiB2024-06-18 22:02:14
libQt5DBus-private-headers-devel-5.15.14+kde140-1.2.noarch.rpm166.4 KiB2024-06-18 22:02:12
libQt5Gui-private-headers-devel-5.15.14+kde140-1.2.noarch.rpm367.0 KiB2024-06-18 22:02:12
libQt5Core-private-headers-devel-5.15.14+kde140-1.2.noarch.rpm516.1 KiB2024-06-18 22:02:11
netgen-examples-6.2.2301-1.11.noarch.rpm108.2 KiB2024-06-18 22:01:23
occt-devel-doc-7.7.2-2.4.noarch.rpm15.3 MiB2024-06-18 21:55:30
occt-resources-7.7.2-2.4.noarch.rpm1.8 MiB2024-06-18 21:55:30
giac-doc-1.9.0.97-5.3.noarch.rpm54.1 MiB2024-06-18 21:41:18
giac-lang-1.9.0.97-5.3.noarch.rpm176.5 KiB2024-06-18 21:41:18
deepin-pw-check-lang-5.1.16-2.2.noarch.rpm29.6 KiB2024-06-18 21:39:48
golang-github-linuxdeepin-deepin-pw-check-5.1.16-2.2.noarch.rpm16.5 KiB2024-06-18 21:39:48
clanlib-examples-4.1.0-2.18.noarch.rpm4.0 MiB2024-06-18 21:39:09
clanlib-doc-4.1.0-2.18.noarch.rpm2.7 MiB2024-06-18 21:39:09
geany-lang-2.0-2.2.noarch.rpm776.7 KiB2024-06-18 21:38:07
libmateweather-lang-1.28.0-1.2.noarch.rpm188.2 KiB2024-06-18 21:37:52
mateweather-common-1.28.0-1.2.noarch.rpm17.0 MiB2024-06-18 21:37:52
golang-github-linuxdeepin-go-x11-client-0.6.9-1.13.noarch.rpm321.9 KiB2024-06-18 21:37:46
golang-github-linuxdeepin-deepin-desktop-schemas-5.10.11-3.4.noarch.rpm11.5 KiB2024-06-18 21:37:41
golang-github-linuxdeepin-go-dbus-factory-1.10.20-1.8.noarch.rpm233.1 KiB2024-06-18 21:37:40
gcr3-lang-3.41.2-1.3.noarch.rpm222.9 KiB2024-06-18 21:37:21
libgedit-gtksourceview-lang-299.1.0-1.3.noarch.rpm104.3 KiB2024-06-18 21:37:08
libdazzle-lang-3.44.0-1.11.noarch.rpm19.2 KiB2024-06-18 21:36:58
caribou-lang-0.4.21-8.12.noarch.rpm79.2 KiB2024-06-18 21:36:45
mate-desktop-gschemas-branding-upstream-1.28.2-1.2.noarch.rpm12.1 KiB2024-06-18 21:36:42
libv3270-config-5.4-1.13.noarch.rpm19.5 KiB2024-06-18 21:36:42
mate-desktop-lang-1.28.2-1.2.noarch.rpm464.0 KiB2024-06-18 21:36:42
libcryptui-lang-3.12.2-10.7.noarch.rpm546.0 KiB2024-06-18 21:36:38
xapp-common-2.8.2-1.4.noarch.rpm49.8 KiB2024-06-18 21:36:37
xapp-common-lang-2.8.2-1.4.noarch.rpm47.2 KiB2024-06-18 21:36:37
tomoe-gtk-lang-0.6.0-44.29.noarch.rpm10.9 KiB2024-06-18 21:36:36
goocanvas2-lang-2.0.4-3.4.noarch.rpm50.8 KiB2024-06-18 21:36:35
gnome-bluetooth-1-lang-3.34.5-2.11.noarch.rpm158.1 KiB2024-06-18 21:36:30
libcinnamon-desktop-lang-6.0.0-2.3.noarch.rpm85.2 KiB2024-06-18 21:36:28
libcinnamon-desktop-data-6.0.0-2.3.noarch.rpm54.6 KiB2024-06-18 21:36:28
libcinnamon-desktop-data-branding-upstream-6.0.0-2.3.noarch.rpm12.5 KiB2024-06-18 21:36:28
golang-github-linuxdeepin-go-lib-6.0.0-1.10.noarch.rpm365.9 KiB2024-06-18 21:36:21
libgnome-games-support1_3-lang-1.8.2-1.11.noarch.rpm34.8 KiB2024-06-18 21:36:20
gtk3-schema-3.24.42-1.2.noarch.rpm25.6 KiB2024-06-18 21:35:16
gtk3-lang-3.24.42-1.2.noarch.rpm3.3 MiB2024-06-18 21:35:16
gtk3-devel-doc-3.24.42-1.2.noarch.rpm3.1 MiB2024-06-18 21:35:15
gtk3-data-3.24.42-1.2.noarch.rpm26.0 KiB2024-06-18 21:35:14
gettext-its-gtk3-3.24.42-1.2.noarch.rpm23.3 KiB2024-06-18 21:35:14
gtk3-branding-upstream-3.24.42-1.2.noarch.rpm23.3 KiB2024-06-18 21:35:14
typst-bash-completion-0.11.1-1.1.noarch.rpm67.4 KiB2024-06-18 21:32:39
typst-fish-completion-0.11.1-1.1.noarch.rpm67.8 KiB2024-06-18 21:32:39
fox16-doc-1.6.57-4.8.noarch.rpm1.9 MiB2024-06-18 21:30:15
maven-shared-jarsigner-javadoc-3.0.0-4.1.noarch.rpm92.0 KiB2024-06-18 21:23:43
maven-shared-jarsigner-3.0.0-4.1.noarch.rpm28.9 KiB2024-06-18 21:23:43
emacs-gnuplot-mode-doc-0.8.0-1.1.noarch.rpm158.3 KiB2024-06-18 21:07:14
emacs-gnuplot-mode-0.8.0-1.1.noarch.rpm141.0 KiB2024-06-18 21:07:14
timeshift-lang-24.06.1-1.1.noarch.rpm345.1 KiB2024-06-18 21:05:59
chirp-20240614-1.1.noarch.rpm2.5 MiB2024-06-18 21:05:55
maven-javadoc-3.9.8-1.1.noarch.rpm1.2 MiB2024-06-18 21:04:56